<?xml version="1.0" encoding="UTF-8" standalone="no" ?>
<gpx xmlns="http://www.topografix.com/GPX/1/1" xmlns:xsi="http://www.w3.org/2001/XMLSchema-instance" xsi:schemaLocation="http://www.topografix.com/GPX/1/1 http://www.topografix.com/GPX/1/1/gpx.xsd" version="1.1" creator="VisuGPX - https://www.visugpx.com">
  <metadata>
    <name>Les îles éoliennes 01</name>
    <desc><![CDATA[Avril 18 Oceanis 43 équipage Bruno S J M et G. depuis Portorosa]]></desc>
  </metadata>
  <trk>
    <name><![CDATA[Tracé actuel: 17 AVR 2018 06:48]]></name>
    <trkseg>
      <trkpt lat="38.55618" lon="14.87191">
        <ele>40.99</ele>
        <time>2018-04-17T04:48:21Z</time>
      </trkpt>
      <trkpt lat="38.55611" lon="14.87195">
        <ele>30.42</ele>
        <time>2018-04-17T04:48:36Z</time>
      </trkpt>
      <trkpt lat="38.55605" lon="14.87197">
        <ele>19.36</ele>
        <time>2018-04-17T04:48:50Z</time>
      </trkpt>
      <trkpt lat="38.55603" lon="14.87198">
        <ele>15.52</ele>
        <time>2018-04-17T04:49:02Z</time>
      </trkpt>
      <trkpt lat="38.556" lon="14.872">
        <ele>11.19</ele>
        <time>2018-04-17T04:49:17Z</time>
      </trkpt>
      <trkpt lat="38.55599" lon="14.87202">
        <ele>8.79</ele>
        <time>2018-04-17T04:49:31Z</time>
      </trkpt>
      <trkpt lat="38.55598" lon="14.87202">
        <ele>5.42</ele>
        <time>2018-04-17T04:49:44Z</time>
      </trkpt>
      <trkpt lat="38.55593" lon="14.87203">
        <ele>2.06</ele>
        <time>2018-04-17T04:49:56Z</time>
      </trkpt>
      <trkpt lat="38.55594" lon="14.872">
        <ele>1.58</ele>
        <time>2018-04-17T04:50:08Z</time>
      </trkpt>
      <trkpt lat="38.55595" lon="14.87198">
        <ele>1.1</ele>
        <time>2018-04-17T04:50:11Z</time>
      </trkpt>
      <trkpt lat="38.55594" lon="14.87197">
        <ele>-1.3</ele>
        <time>2018-04-17T04:50:24Z</time>
      </trkpt>
      <trkpt lat="38.55595" lon="14.87194">
        <ele>-2.75</ele>
        <time>2018-04-17T04:50:36Z</time>
      </trkpt>
      <trkpt lat="38.55594" lon="14.87194">
        <ele>-3.71</ele>
        <time>2018-04-17T04:50:53Z</time>
      </trkpt>
      <trkpt lat="38.55594" lon="14.87195">
        <ele>-4.19</ele>
        <time>2018-04-17T04:51:07Z</time>
      </trkpt>
      <trkpt lat="38.55593" lon="14.87195">
        <ele>-4.19</ele>
        <time>2018-04-17T04:51:25Z</time>
      </trkpt>
      <trkpt lat="38.55593" lon="14.87195">
        <ele>-4.19</ele>
        <time>2018-04-17T04:51:38Z</time>
      </trkpt>
      <trkpt lat="38.5559" lon="14.87186">
        <ele>-4.19</ele>
        <time>2018-04-17T04:51:56Z</time>
      </trkpt>
      <trkpt lat="38.55589" lon="14.87185">
        <ele>-4.19</ele>
        <time>2018-04-17T04:51:57Z</time>
      </trkpt>
      <trkpt lat="38.55577" lon="14.87176">
        <ele>-4.67</ele>
        <time>2018-04-17T04:52:16Z</time>
      </trkpt>
      <trkpt lat="38.55572" lon="14.87174">
        <ele>-5.63</ele>
        <time>2018-04-17T04:52:21Z</time>
      </trkpt>
      <trkpt lat="38.5556" lon="14.87165">
        <ele>-5.63</ele>
        <time>2018-04-17T04:52:37Z</time>
      </trkpt>
      <trkpt lat="38.55543" lon="14.87158">
        <ele>-4.67</ele>
        <time>2018-04-17T04:52:53Z</time>
      </trkpt>
      <trkpt lat="38.55526" lon="14.87153">
        <ele>-4.67</ele>
        <time>2018-04-17T04:53:11Z</time>
      </trkpt>
      <trkpt lat="38.55508" lon="14.87146">
        <ele>-3.23</ele>
        <time>2018-04-17T04:53:29Z</time>
      </trkpt>
      <trkpt lat="38.55499" lon="14.87143">
        <ele>-3.71</ele>
        <time>2018-04-17T04:53:38Z</time>
      </trkpt>
      <trkpt lat="38.55479" lon="14.87138">
        <ele>-2.75</ele>
        <time>2018-04-17T04:53:57Z</time>
      </trkpt>
      <trkpt lat="38.55463" lon="14.87135">
        <ele>-2.27</ele>
        <time>2018-04-17T04:54:09Z</time>
      </trkpt>
      <trkpt lat="38.55437" lon="14.87137">
        <ele>-2.27</ele>
        <time>2018-04-17T04:54:30Z</time>
      </trkpt>
      <trkpt lat="38.55417" lon="14.87149">
        <ele>-2.27</ele>
        <time>2018-04-17T04:54:48Z</time>
      </trkpt>
      <trkpt lat="38.55415" lon="14.87179">
        <ele>-1.3</ele>
        <time>2018-04-17T04:55:08Z</time>
      </trkpt>
      <trkpt lat="38.5542" lon="14.8721">
        <ele>-1.79</ele>
        <time>2018-04-17T04:55:28Z</time>
      </trkpt>
      <trkpt lat="38.5543" lon="14.87244">
        <ele>-1.79</ele>
        <time>2018-04-17T04:55:45Z</time>
      </trkpt>
      <trkpt lat="38.55455" lon="14.87292">
        <ele>-2.75</ele>
        <time>2018-04-17T04:56:05Z</time>
      </trkpt>
      <trkpt lat="38.55487" lon="14.8734">
        <ele>-2.75</ele>
        <time>2018-04-17T04:56:26Z</time>
      </trkpt>
      <trkpt lat="38.55511" lon="14.87375">
        <ele>-2.27</ele>
        <time>2018-04-17T04:56:41Z</time>
      </trkpt>
      <trkpt lat="38.5554" lon="14.8743">
        <ele>-2.27</ele>
        <time>2018-04-17T04:57:03Z</time>
      </trkpt>
      <trkpt lat="38.55574" lon="14.87493">
        <ele>-1.79</ele>
        <time>2018-04-17T04:57:26Z</time>
      </trkpt>
      <trkpt lat="38.55602" lon="14.87536">
        <ele>-1.79</ele>
        <time>2018-04-17T04:57:42Z</time>
      </trkpt>
      <trkpt lat="38.55627" lon="14.87588">
        <ele>0.14</ele>
        <time>2018-04-17T04:58:00Z</time>
      </trkpt>
      <trkpt lat="38.55659" lon="14.8765">
        <ele>1.58</ele>
        <time>2018-04-17T04:58:22Z</time>
      </trkpt>
      <trkpt lat="38.5569" lon="14.87713">
        <ele>1.1</ele>
        <time>2018-04-17T04:58:44Z</time>
      </trkpt>
      <trkpt lat="38.55706" lon="14.87753">
        <ele>0.62</ele>
        <time>2018-04-17T04:58:57Z</time>
      </trkpt>
      <trkpt lat="38.55725" lon="14.87789">
        <ele>0.14</ele>
        <time>2018-04-17T04:59:10Z</time>
      </trkpt>
      <trkpt lat="38.55751" lon="14.8784">
        <ele>2.06</ele>
        <time>2018-04-17T04:59:28Z</time>
      </trkpt>
      <trkpt lat="38.55781" lon="14.87897">
        <ele>2.06</ele>
        <time>2018-04-17T04:59:48Z</time>
      </trkpt>
      <trkpt lat="38.55809" lon="14.87955">
        <ele>1.1</ele>
        <time>2018-04-17T05:00:08Z</time>
      </trkpt>
      <trkpt lat="38.55834" lon="14.87994">
        <ele>1.1</ele>
        <time>2018-04-17T05:00:23Z</time>
      </trkpt>
      <trkpt lat="38.5587" lon="14.8805">
        <ele>2.06</ele>
        <time>2018-04-17T05:00:44Z</time>
      </trkpt>
      <trkpt lat="38.559" lon="14.88095">
        <ele>2.54</ele>
        <time>2018-04-17T05:01:01Z</time>
      </trkpt>
      <trkpt lat="38.55924" lon="14.88132">
        <ele>3.02</ele>
        <time>2018-04-17T05:01:15Z</time>
      </trkpt>
      <trkpt lat="38.55962" lon="14.8818">
        <ele>2.54</ele>
        <time>2018-04-17T05:01:35Z</time>
      </trkpt>
      <trkpt lat="38.56002" lon="14.88235">
        <ele>1.58</ele>
        <time>2018-04-17T05:01:57Z</time>
      </trkpt>
      <trkpt lat="38.5603" lon="14.88281">
        <ele>2.06</ele>
        <time>2018-04-17T05:02:14Z</time>
      </trkpt>
      <trkpt lat="38.56063" lon="14.88334">
        <ele>2.06</ele>
        <time>2018-04-17T05:02:34Z</time>
      </trkpt>
      <trkpt lat="38.56094" lon="14.88386">
        <ele>2.54</ele>
        <time>2018-04-17T05:02:53Z</time>
      </trkpt>
      <trkpt lat="38.56129" lon="14.88441">
        <ele>2.54</ele>
        <time>2018-04-17T05:03:14Z</time>
      </trkpt>
      <trkpt lat="38.56153" lon="14.88474">
        <ele>1.1</ele>
        <time>2018-04-17T05:03:27Z</time>
      </trkpt>
      <trkpt lat="38.56195" lon="14.88521">
        <ele>1.1</ele>
        <time>2018-04-17T05:03:48Z</time>
      </trkpt>
      <trkpt lat="38.56235" lon="14.88564">
        <ele>2.54</ele>
        <time>2018-04-17T05:04:08Z</time>
      </trkpt>
      <trkpt lat="38.56272" lon="14.88605">
        <ele>3.98</ele>
        <time>2018-04-17T05:04:26Z</time>
      </trkpt>
      <trkpt lat="38.56306" lon="14.88649">
        <ele>3.98</ele>
        <time>2018-04-17T05:04:44Z</time>
      </trkpt>
      <trkpt lat="38.56339" lon="14.88693">
        <ele>4.94</ele>
        <time>2018-04-17T05:05:02Z</time>
      </trkpt>
      <trkpt lat="38.5637" lon="14.88734">
        <ele>4.94</ele>
        <time>2018-04-17T05:05:19Z</time>
      </trkpt>
      <trkpt lat="38.56409" lon="14.88786">
        <ele>4.94</ele>
        <time>2018-04-17T05:05:40Z</time>
      </trkpt>
      <trkpt lat="38.56438" lon="14.88825">
        <ele>3.5</ele>
        <time>2018-04-17T05:05:56Z</time>
      </trkpt>
      <trkpt lat="38.56465" lon="14.88863">
        <ele>2.54</ele>
        <time>2018-04-17T05:06:11Z</time>
      </trkpt>
      <trkpt lat="38.56498" lon="14.8891">
        <ele>3.02</ele>
        <time>2018-04-17T05:06:30Z</time>
      </trkpt>
      <trkpt lat="38.56525" lon="14.88947">
        <ele>3.02</ele>
        <time>2018-04-17T05:06:45Z</time>
      </trkpt>
      <trkpt lat="38.5656" lon="14.88997">
        <ele>3.98</ele>
        <time>2018-04-17T05:07:05Z</time>
      </trkpt>
      <trkpt lat="38.56586" lon="14.89035">
        <ele>3.02</ele>
        <time>2018-04-17T05:07:20Z</time>
      </trkpt>
      <trkpt lat="38.56617" lon="14.89079">
        <ele>3.02</ele>
        <time>2018-04-17T05:07:38Z</time>
      </trkpt>
      <trkpt lat="38.5664" lon="14.89114">
        <ele>3.5</ele>
        <time>2018-04-17T05:07:52Z</time>
      </trkpt>
      <trkpt lat="38.56661" lon="14.89145">
        <ele>3.5</ele>
        <time>2018-04-17T05:08:04Z</time>
      </trkpt>
      <trkpt lat="38.56685" lon="14.8918">
        <ele>3.5</ele>
        <time>2018-04-17T05:08:18Z</time>
      </trkpt>
      <trkpt lat="38.56714" lon="14.89219">
        <ele>3.5</ele>
        <time>2018-04-17T05:08:34Z</time>
      </trkpt>
      <trkpt lat="38.56737" lon="14.89255">
        <ele>3.98</ele>
        <time>2018-04-17T05:08:48Z</time>
      </trkpt>
      <trkpt lat="38.56766" lon="14.89293">
        <ele>3.98</ele>
        <time>2018-04-17T05:09:04Z</time>
      </trkpt>
      <trkpt lat="38.56788" lon="14.89326">
        <ele>3.5</ele>
        <time>2018-04-17T05:09:17Z</time>
      </trkpt>
      <trkpt lat="38.56818" lon="14.89364">
        <ele>3.98</ele>
        <time>2018-04-17T05:09:33Z</time>
      </trkpt>
      <trkpt lat="38.56847" lon="14.89403">
        <ele>3.02</ele>
        <time>2018-04-17T05:09:48Z</time>
      </trkpt>
      <trkpt lat="38.56868" lon="14.89432">
        <ele>1.58</ele>
        <time>2018-04-17T05:09:59Z</time>
      </trkpt>
      <trkpt lat="38.56889" lon="14.89459">
        <ele>1.58</ele>
        <time>2018-04-17T05:10:10Z</time>
      </trkpt>
      <trkpt lat="38.5691" lon="14.89488">
        <ele>1.58</ele>
        <time>2018-04-17T05:10:22Z</time>
      </trkpt>
      <trkpt lat="38.56939" lon="14.89526">
        <ele>0.14</ele>
        <time>2018-04-17T05:10:37Z</time>
      </trkpt>
      <trkpt lat="38.56964" lon="14.89556">
        <ele>0.14</ele>
        <time>2018-04-17T05:10:50Z</time>
      </trkpt>
      <trkpt lat="38.56991" lon="14.89592">
        <ele>0.62</ele>
        <time>2018-04-17T05:11:05Z</time>
      </trkpt>
      <trkpt lat="38.57026" lon="14.89635">
        <ele>1.1</ele>
        <time>2018-04-17T05:11:23Z</time>
      </trkpt>
      <trkpt lat="38.57049" lon="14.89661">
        <ele>0.62</ele>
        <time>2018-04-17T05:11:36Z</time>
      </trkpt>
      <trkpt lat="38.5708" lon="14.897">
        <ele>1.58</ele>
        <time>2018-04-17T05:11:52Z</time>
      </trkpt>
      <trkpt lat="38.57101" lon="14.89726">
        <ele>2.54</ele>
        <time>2018-04-17T05:12:03Z</time>
      </trkpt>
      <trkpt lat="38.5713" lon="14.89761">
        <ele>2.54</ele>
        <time>2018-04-17T05:12:18Z</time>
      </trkpt>
      <trkpt lat="38.57155" lon="14.89791">
        <ele>2.54</ele>
        <time>2018-04-17T05:12:31Z</time>
      </trkpt>
      <trkpt lat="38.57188" lon="14.8983">
        <ele>3.5</ele>
        <time>2018-04-17T05:12:48Z</time>
      </trkpt>
      <trkpt lat="38.57213" lon="14.8986">
        <ele>3.98</ele>
        <time>2018-04-17T05:13:01Z</time>
      </trkpt>
      <trkpt lat="38.57247" lon="14.89899">
        <ele>3.02</ele>
        <time>2018-04-17T05:13:18Z</time>
      </trkpt>
      <trkpt lat="38.57275" lon="14.89932">
        <ele>3.02</ele>
        <time>2018-04-17T05:13:32Z</time>
      </trkpt>
      <trkpt lat="38.57303" lon="14.89964">
        <ele>3.5</ele>
        <time>2018-04-17T05:13:45Z</time>
      </trkpt>
      <trkpt lat="38.57334" lon="14.89998">
        <ele>3.02</ele>
        <time>2018-04-17T05:14:00Z</time>
      </trkpt>
      <trkpt lat="38.57368" lon="14.90037">
        <ele>3.5</ele>
        <time>2018-04-17T05:14:16Z</time>
      </trkpt>
      <trkpt lat="38.574" lon="14.90072">
        <ele>2.54</ele>
        <time>2018-04-17T05:14:31Z</time>
      </trkpt>
      <trkpt lat="38.57427" lon="14.90101">
        <ele>1.58</ele>
        <time>2018-04-17T05:14:43Z</time>
      </trkpt>
      <trkpt lat="38.57451" lon="14.90128">
        <ele>1.58</ele>
        <time>2018-04-17T05:14:54Z</time>
      </trkpt>
      <trkpt lat="38.57473" lon="14.90151">
        <ele>2.06</ele>
        <time>2018-04-17T05:15:04Z</time>
      </trkpt>
      <trkpt lat="38.57498" lon="14.90182">
        <ele>1.58</ele>
        <time>2018-04-17T05:15:16Z</time>
      </trkpt>
      <trkpt lat="38.57528" lon="14.90218">
        <ele>1.58</ele>
        <time>2018-04-17T05:15:30Z</time>
      </trkpt>
      <trkpt lat="38.57557" lon="14.90252">
        <ele>3.98</ele>
        <time>2018-04-17T05:15:43Z</time>
      </trkpt>
      <trkpt lat="38.57584" lon="14.90282">
        <ele>3.02</ele>
        <time>2018-04-17T05:15:55Z</time>
      </trkpt>
      <trkpt lat="38.57608" lon="14.90312">
        <ele>2.54</ele>
        <time>2018-04-17T05:16:06Z</time>
      </trkpt>
      <trkpt lat="38.57645" lon="14.90353">
        <ele>1.58</ele>
        <time>2018-04-17T05:16:23Z</time>
      </trkpt>
      <trkpt lat="38.57673" lon="14.90387">
        <ele>2.54</ele>
        <time>2018-04-17T05:16:36Z</time>
      </trkpt>
      <trkpt lat="38.57701" lon="14.9042">
        <ele>2.54</ele>
        <time>2018-04-17T05:16:49Z</time>
      </trkpt>
      <trkpt lat="38.57726" lon="14.9045">
        <ele>2.54</ele>
        <time>2018-04-17T05:17:01Z</time>
      </trkpt>
      <trkpt lat="38.57765" lon="14.90496">
        <ele>3.02</ele>
        <time>2018-04-17T05:17:19Z</time>
      </trkpt>
      <trkpt lat="38.57795" lon="14.90533">
        <ele>2.06</ele>
        <time>2018-04-17T05:17:33Z</time>
      </trkpt>
      <trkpt lat="38.57825" lon="14.9057">
        <ele>2.54</ele>
        <time>2018-04-17T05:17:47Z</time>
      </trkpt>
      <trkpt lat="38.57854" lon="14.90605">
        <ele>2.06</ele>
        <time>2018-04-17T05:18:00Z</time>
      </trkpt>
      <trkpt lat="38.57874" lon="14.9063">
        <ele>1.58</ele>
        <time>2018-04-17T05:18:11Z</time>
      </trkpt>
      <trkpt lat="38.57899" lon="14.9066">
        <ele>2.06</ele>
        <time>2018-04-17T05:18:22Z</time>
      </trkpt>
      <trkpt lat="38.5793" lon="14.90696">
        <ele>1.58</ele>
        <time>2018-04-17T05:18:36Z</time>
      </trkpt>
      <trkpt lat="38.5796" lon="14.90735">
        <ele>2.06</ele>
        <time>2018-04-17T05:18:51Z</time>
      </trkpt>
      <trkpt lat="38.57992" lon="14.90775">
        <ele>3.02</ele>
        <time>2018-04-17T05:19:07Z</time>
      </trkpt>
      <trkpt lat="38.58018" lon="14.90805">
        <ele>3.02</ele>
        <time>2018-04-17T05:19:20Z</time>
      </trkpt>
      <trkpt lat="38.58047" lon="14.90841">
        <ele>2.54</ele>
        <time>2018-04-17T05:19:35Z</time>
      </trkpt>
      <trkpt lat="38.58076" lon="14.90877">
        <ele>3.02</ele>
        <time>2018-04-17T05:19:50Z</time>
      </trkpt>
      <trkpt lat="38.58103" lon="14.9091">
        <ele>3.02</ele>
        <time>2018-04-17T05:20:03Z</time>
      </trkpt>
      <trkpt lat="38.58129" lon="14.90942">
        <ele>3.02</ele>
        <time>2018-04-17T05:20:17Z</time>
      </trkpt>
      <trkpt lat="38.5815" lon="14.90969">
        <ele>2.54</ele>
        <time>2018-04-17T05:20:29Z</time>
      </trkpt>
      <trkpt lat="38.58171" lon="14.90997">
        <ele>3.5</ele>
        <time>2018-04-17T05:20:40Z</time>
      </trkpt>
      <trkpt lat="38.58199" lon="14.91031">
        <ele>3.98</ele>
        <time>2018-04-17T05:20:54Z</time>
      </trkpt>
      <trkpt lat="38.58219" lon="14.91058">
        <ele>2.06</ele>
        <time>2018-04-17T05:21:05Z</time>
      </trkpt>
      <trkpt lat="38.58248" lon="14.91093">
        <ele>1.58</ele>
        <time>2018-04-17T05:21:19Z</time>
      </trkpt>
      <trkpt lat="38.58273" lon="14.91124">
        <ele>2.06</ele>
        <time>2018-04-17T05:21:32Z</time>
      </trkpt>
      <trkpt lat="38.58302" lon="14.91161">
        <ele>2.54</ele>
        <time>2018-04-17T05:21:47Z</time>
      </trkpt>
      <trkpt lat="38.5833" lon="14.91197">
        <ele>2.06</ele>
        <time>2018-04-17T05:22:00Z</time>
      </trkpt>
      <trkpt lat="38.58363" lon="14.91237">
        <ele>3.02</ele>
        <time>2018-04-17T05:22:16Z</time>
      </trkpt>
      <trkpt lat="38.58388" lon="14.91269">
        <ele>3.02</ele>
        <time>2018-04-17T05:22:29Z</time>
      </trkpt>
      <trkpt lat="38.58415" lon="14.91302">
        <ele>3.02</ele>
        <time>2018-04-17T05:22:43Z</time>
      </trkpt>
      <trkpt lat="38.58443" lon="14.91338">
        <ele>2.54</ele>
        <time>2018-04-17T05:22:57Z</time>
      </trkpt>
      <trkpt lat="38.58472" lon="14.91376">
        <ele>2.06</ele>
        <time>2018-04-17T05:23:12Z</time>
      </trkpt>
      <trkpt lat="38.58518" lon="14.91431">
        <ele>2.06</ele>
        <time>2018-04-17T05:23:35Z</time>
      </trkpt>
      <trkpt lat="38.58546" lon="14.91468">
        <ele>1.1</ele>
        <time>2018-04-17T05:23:50Z</time>
      </trkpt>
      <trkpt lat="38.58579" lon="14.91506">
        <ele>0.62</ele>
        <time>2018-04-17T05:24:06Z</time>
      </trkpt>
      <trkpt lat="38.58613" lon="14.91547">
        <ele>1.58</ele>
        <time>2018-04-17T05:24:24Z</time>
      </trkpt>
      <trkpt lat="38.58639" lon="14.91576">
        <ele>2.54</ele>
        <time>2018-04-17T05:24:37Z</time>
      </trkpt>
      <trkpt lat="38.58668" lon="14.91614">
        <ele>3.5</ele>
        <time>2018-04-17T05:24:52Z</time>
      </trkpt>
      <trkpt lat="38.58708" lon="14.91662">
        <ele>3.98</ele>
        <time>2018-04-17T05:25:12Z</time>
      </trkpt>
      <trkpt lat="38.58732" lon="14.91691">
        <ele>3.5</ele>
        <time>2018-04-17T05:25:24Z</time>
      </trkpt>
      <trkpt lat="38.58756" lon="14.91732">
        <ele>4.46</ele>
        <time>2018-04-17T05:25:39Z</time>
      </trkpt>
      <trkpt lat="38.58771" lon="14.91781">
        <ele>3.02</ele>
        <time>2018-04-17T05:25:54Z</time>
      </trkpt>
      <trkpt lat="38.58789" lon="14.91821">
        <ele>3.5</ele>
        <time>2018-04-17T05:26:07Z</time>
      </trkpt>
      <trkpt lat="38.58811" lon="14.91864">
        <ele>3.02</ele>
        <time>2018-04-17T05:26:22Z</time>
      </trkpt>
      <trkpt lat="38.5883" lon="14.91901">
        <ele>3.02</ele>
        <time>2018-04-17T05:26:35Z</time>
      </trkpt>
      <trkpt lat="38.5886" lon="14.91952">
        <ele>2.54</ele>
        <time>2018-04-17T05:26:53Z</time>
      </trkpt>
      <trkpt lat="38.58883" lon="14.91989">
        <ele>2.54</ele>
        <time>2018-04-17T05:27:06Z</time>
      </trkpt>
      <trkpt lat="38.58904" lon="14.92023">
        <ele>2.54</ele>
        <time>2018-04-17T05:27:18Z</time>
      </trkpt>
      <trkpt lat="38.58926" lon="14.92061">
        <ele>2.54</ele>
        <time>2018-04-17T05:27:31Z</time>
      </trkpt>
      <trkpt lat="38.58953" lon="14.92108">
        <ele>2.54</ele>
        <time>2018-04-17T05:27:47Z</time>
      </trkpt>
      <trkpt lat="38.58979" lon="14.92151">
        <ele>2.06</ele>
        <time>2018-04-17T05:28:02Z</time>
      </trkpt>
      <trkpt lat="38.58999" lon="14.92187">
        <ele>3.5</ele>
        <time>2018-04-17T05:28:15Z</time>
      </trkpt>
      <trkpt lat="38.5902" lon="14.92222">
        <ele>3.02</ele>
        <time>2018-04-17T05:28:27Z</time>
      </trkpt>
      <trkpt lat="38.59039" lon="14.92254">
        <ele>3.5</ele>
        <time>2018-04-17T05:28:38Z</time>
      </trkpt>
      <trkpt lat="38.59066" lon="14.92296">
        <ele>3.02</ele>
        <time>2018-04-17T05:28:53Z</time>
      </trkpt>
      <trkpt lat="38.59095" lon="14.92344">
        <ele>3.02</ele>
        <time>2018-04-17T05:29:10Z</time>
      </trkpt>
      <trkpt lat="38.59124" lon="14.9239">
        <ele>3.5</ele>
        <time>2018-04-17T05:29:26Z</time>
      </trkpt>
      <trkpt lat="38.59149" lon="14.9243">
        <ele>3.5</ele>
        <time>2018-04-17T05:29:40Z</time>
      </trkpt>
      <trkpt lat="38.59176" lon="14.92472">
        <ele>3.5</ele>
        <time>2018-04-17T05:29:55Z</time>
      </trkpt>
      <trkpt lat="38.59205" lon="14.92518">
        <ele>4.94</ele>
        <time>2018-04-17T05:30:11Z</time>
      </trkpt>
      <trkpt lat="38.59225" lon="14.9255">
        <ele>3.98</ele>
        <time>2018-04-17T05:30:22Z</time>
      </trkpt>
      <trkpt lat="38.59251" lon="14.92591">
        <ele>3.02</ele>
        <time>2018-04-17T05:30:36Z</time>
      </trkpt>
      <trkpt lat="38.59271" lon="14.92621">
        <ele>3.5</ele>
        <time>2018-04-17T05:30:47Z</time>
      </trkpt>
      <trkpt lat="38.59291" lon="14.92656">
        <ele>2.54</ele>
        <time>2018-04-17T05:30:59Z</time>
      </trkpt>
      <trkpt lat="38.59311" lon="14.92691">
        <ele>2.06</ele>
        <time>2018-04-17T05:31:11Z</time>
      </trkpt>
      <trkpt lat="38.5933" lon="14.92725">
        <ele>2.54</ele>
        <time>2018-04-17T05:31:23Z</time>
      </trkpt>
      <trkpt lat="38.59356" lon="14.92768">
        <ele>2.54</ele>
        <time>2018-04-17T05:31:38Z</time>
      </trkpt>
      <trkpt lat="38.59377" lon="14.92806">
        <ele>3.02</ele>
        <time>2018-04-17T05:31:51Z</time>
      </trkpt>
      <trkpt lat="38.59403" lon="14.92848">
        <ele>3.5</ele>
        <time>2018-04-17T05:32:06Z</time>
      </trkpt>
      <trkpt lat="38.59422" lon="14.92879">
        <ele>3.98</ele>
        <time>2018-04-17T05:32:17Z</time>
      </trkpt>
      <trkpt lat="38.5945" lon="14.92925">
        <ele>4.46</ele>
        <time>2018-04-17T05:32:33Z</time>
      </trkpt>
      <trkpt lat="38.59466" lon="14.92954">
        <ele>4.94</ele>
        <time>2018-04-17T05:32:43Z</time>
      </trkpt>
      <trkpt lat="38.59492" lon="14.93">
        <ele>3.98</ele>
        <time>2018-04-17T05:32:59Z</time>
      </trkpt>
      <trkpt lat="38.59524" lon="14.93058">
        <ele>4.94</ele>
        <time>2018-04-17T05:33:19Z</time>
      </trkpt>
      <trkpt lat="38.5955" lon="14.93104">
        <ele>4.46</ele>
        <time>2018-04-17T05:33:35Z</time>
      </trkpt>
      <trkpt lat="38.59576" lon="14.93152">
        <ele>4.46</ele>
        <time>2018-04-17T05:33:51Z</time>
      </trkpt>
      <trkpt lat="38.59601" lon="14.93195">
        <ele>4.94</ele>
        <time>2018-04-17T05:34:06Z</time>
      </trkpt>
      <trkpt lat="38.59624" lon="14.93236">
        <ele>6.39</ele>
        <time>2018-04-17T05:34:20Z</time>
      </trkpt>
      <trkpt lat="38.59646" lon="14.93274">
        <ele>6.39</ele>
        <time>2018-04-17T05:34:33Z</time>
      </trkpt>
      <trkpt lat="38.59666" lon="14.93312">
        <ele>6.87</ele>
        <time>2018-04-17T05:34:46Z</time>
      </trkpt>
      <trkpt lat="38.59688" lon="14.93351">
        <ele>6.87</ele>
        <time>2018-04-17T05:34:59Z</time>
      </trkpt>
      <trkpt lat="38.59713" lon="14.93395">
        <ele>5.42</ele>
        <time>2018-04-17T05:35:14Z</time>
      </trkpt>
      <trkpt lat="38.59732" lon="14.93429">
        <ele>4.46</ele>
        <time>2018-04-17T05:35:25Z</time>
      </trkpt>
      <trkpt lat="38.59752" lon="14.93461">
        <ele>3.98</ele>
        <time>2018-04-17T05:35:37Z</time>
      </trkpt>
      <trkpt lat="38.5977" lon="14.93496">
        <ele>4.46</ele>
        <time>2018-04-17T05:35:49Z</time>
      </trkpt>
      <trkpt lat="38.59788" lon="14.93528">
        <ele>3.02</ele>
        <time>2018-04-17T05:35:59Z</time>
      </trkpt>
      <trkpt lat="38.59801" lon="14.93551">
        <ele>3.02</ele>
        <time>2018-04-17T05:36:08Z</time>
      </trkpt>
      <trkpt lat="38.5982" lon="14.93582">
        <ele>2.54</ele>
        <time>2018-04-17T05:36:19Z</time>
      </trkpt>
      <trkpt lat="38.59821" lon="14.93585">
        <ele>2.54</ele>
        <time>2018-04-17T05:36:20Z</time>
      </trkpt>
      <trkpt lat="38.59852" lon="14.9364">
        <ele>3.5</ele>
        <time>2018-04-17T05:36:38Z</time>
      </trkpt>
      <trkpt lat="38.59874" lon="14.93679">
        <ele>3.98</ele>
        <time>2018-04-17T05:36:51Z</time>
      </trkpt>
      <trkpt lat="38.59905" lon="14.93736">
        <ele>4.94</ele>
        <time>2018-04-17T05:37:10Z</time>
      </trkpt>
      <trkpt lat="38.59929" lon="14.9378">
        <ele>5.91</ele>
        <time>2018-04-17T05:37:25Z</time>
      </trkpt>
      <trkpt lat="38.59954" lon="14.93824">
        <ele>5.91</ele>
        <time>2018-04-17T05:37:40Z</time>
      </trkpt>
      <trkpt lat="38.59977" lon="14.93865">
        <ele>5.91</ele>
        <time>2018-04-17T05:37:54Z</time>
      </trkpt>
      <trkpt lat="38.60005" lon="14.93915">
        <ele>5.91</ele>
        <time>2018-04-17T05:38:11Z</time>
      </trkpt>
      <trkpt lat="38.60025" lon="14.9395">
        <ele>5.42</ele>
        <time>2018-04-17T05:38:23Z</time>
      </trkpt>
      <trkpt lat="38.60057" lon="14.94009">
        <ele>4.94</ele>
        <time>2018-04-17T05:38:43Z</time>
      </trkpt>
      <trkpt lat="38.60086" lon="14.94059">
        <ele>4.46</ele>
        <time>2018-04-17T05:39:00Z</time>
      </trkpt>
      <trkpt lat="38.60115" lon="14.94113">
        <ele>2.06</ele>
        <time>2018-04-17T05:39:18Z</time>
      </trkpt>
      <trkpt lat="38.60142" lon="14.9416">
        <ele>3.5</ele>
        <time>2018-04-17T05:39:34Z</time>
      </trkpt>
      <trkpt lat="38.60165" lon="14.94203">
        <ele>3.98</ele>
        <time>2018-04-17T05:39:48Z</time>
      </trkpt>
      <trkpt lat="38.60193" lon="14.94253">
        <ele>4.94</ele>
        <time>2018-04-17T05:40:05Z</time>
      </trkpt>
      <trkpt lat="38.60228" lon="14.94316">
        <ele>5.42</ele>
        <time>2018-04-17T05:40:26Z</time>
      </trkpt>
      <trkpt lat="38.60253" lon="14.9436">
        <ele>5.42</ele>
        <time>2018-04-17T05:40:41Z</time>
      </trkpt>
      <trkpt lat="38.60281" lon="14.9441">
        <ele>5.91</ele>
        <time>2018-04-17T05:40:58Z</time>
      </trkpt>
      <trkpt lat="38.60308" lon="14.94458">
        <ele>4.46</ele>
        <time>2018-04-17T05:41:14Z</time>
      </trkpt>
      <trkpt lat="38.60335" lon="14.94506">
        <ele>4.94</ele>
        <time>2018-04-17T05:41:30Z</time>
      </trkpt>
      <trkpt lat="38.60358" lon="14.94547">
        <ele>4.94</ele>
        <time>2018-04-17T05:41:44Z</time>
      </trkpt>
      <trkpt lat="38.60387" lon="14.94598">
        <ele>4.46</ele>
        <time>2018-04-17T05:42:01Z</time>
      </trkpt>
      <trkpt lat="38.60407" lon="14.94635">
        <ele>4.94</ele>
        <time>2018-04-17T05:42:13Z</time>
      </trkpt>
      <trkpt lat="38.60433" lon="14.9468">
        <ele>4.94</ele>
        <time>2018-04-17T05:42:28Z</time>
      </trkpt>
      <trkpt lat="38.60458" lon="14.94722">
        <ele>4.46</ele>
        <time>2018-04-17T05:42:42Z</time>
      </trkpt>
      <trkpt lat="38.60488" lon="14.94777">
        <ele>4.94</ele>
        <time>2018-04-17T05:43:00Z</time>
      </trkpt>
      <trkpt lat="38.60514" lon="14.94824">
        <ele>5.91</ele>
        <time>2018-04-17T05:43:16Z</time>
      </trkpt>
      <trkpt lat="38.60534" lon="14.94858">
        <ele>4.94</ele>
        <time>2018-04-17T05:43:27Z</time>
      </trkpt>
      <trkpt lat="38.60556" lon="14.94897">
        <ele>4.46</ele>
        <time>2018-04-17T05:43:40Z</time>
      </trkpt>
      <trkpt lat="38.6058" lon="14.94942">
        <ele>5.42</ele>
        <time>2018-04-17T05:43:55Z</time>
      </trkpt>
      <trkpt lat="38.60606" lon="14.94986">
        <ele>4.94</ele>
        <time>2018-04-17T05:44:10Z</time>
      </trkpt>
      <trkpt lat="38.60633" lon="14.95035">
        <ele>5.42</ele>
        <time>2018-04-17T05:44:26Z</time>
      </trkpt>
      <trkpt lat="38.60657" lon="14.95078">
        <ele>4.94</ele>
        <time>2018-04-17T05:44:40Z</time>
      </trkpt>
      <trkpt lat="38.60686" lon="14.95129">
        <ele>4.94</ele>
        <time>2018-04-17T05:44:57Z</time>
      </trkpt>
      <trkpt lat="38.60713" lon="14.95177">
        <ele>5.42</ele>
        <time>2018-04-17T05:45:13Z</time>
      </trkpt>
      <trkpt lat="38.60741" lon="14.95225">
        <ele>5.42</ele>
        <time>2018-04-17T05:45:29Z</time>
      </trkpt>
      <trkpt lat="38.60763" lon="14.95264">
        <ele>5.42</ele>
        <time>2018-04-17T05:45:42Z</time>
      </trkpt>
      <trkpt lat="38.60791" lon="14.95313">
        <ele>5.42</ele>
        <time>2018-04-17T05:45:58Z</time>
      </trkpt>
      <trkpt lat="38.60822" lon="14.95368">
        <ele>5.42</ele>
        <time>2018-04-17T05:46:16Z</time>
      </trkpt>
      <trkpt lat="38.60853" lon="14.95422">
        <ele>5.42</ele>
        <time>2018-04-17T05:46:34Z</time>
      </trkpt>
      <trkpt lat="38.60876" lon="14.95462">
        <ele>6.39</ele>
        <time>2018-04-17T05:46:47Z</time>
      </trkpt>
      <trkpt lat="38.60906" lon="14.95513">
        <ele>5.91</ele>
        <time>2018-04-17T05:47:04Z</time>
      </trkpt>
      <trkpt lat="38.60931" lon="14.95559">
        <ele>6.39</ele>
        <time>2018-04-17T05:47:19Z</time>
      </trkpt>
      <trkpt lat="38.60952" lon="14.95594">
        <ele>5.42</ele>
        <time>2018-04-17T05:47:31Z</time>
      </trkpt>
      <trkpt lat="38.6097" lon="14.95627">
        <ele>4.46</ele>
        <time>2018-04-17T05:47:42Z</time>
      </trkpt>
      <trkpt lat="38.60994" lon="14.95669">
        <ele>4.94</ele>
        <time>2018-04-17T05:47:55Z</time>
      </trkpt>
      <trkpt lat="38.61015" lon="14.95706">
        <ele>4.46</ele>
        <time>2018-04-17T05:48:07Z</time>
      </trkpt>
      <trkpt lat="38.61039" lon="14.95748">
        <ele>3.98</ele>
        <time>2018-04-17T05:48:21Z</time>
      </trkpt>
      <trkpt lat="38.61067" lon="14.95798">
        <ele>4.46</ele>
        <time>2018-04-17T05:48:37Z</time>
      </trkpt>
      <trkpt lat="38.61089" lon="14.95834">
        <ele>1.58</ele>
        <time>2018-04-17T05:48:48Z</time>
      </trkpt>
      <trkpt lat="38.61113" lon="14.95877">
        <ele>2.54</ele>
        <time>2018-04-17T05:49:02Z</time>
      </trkpt>
      <trkpt lat="38.61132" lon="14.95911">
        <ele>3.02</ele>
        <time>2018-04-17T05:49:13Z</time>
      </trkpt>
      <trkpt lat="38.61157" lon="14.95954">
        <ele>3.5</ele>
        <time>2018-04-17T05:49:27Z</time>
      </trkpt>
      <trkpt lat="38.61182" lon="14.95999">
        <ele>5.42</ele>
        <time>2018-04-17T05:49:42Z</time>
      </trkpt>
      <trkpt lat="38.6121" lon="14.96048">
        <ele>4.94</ele>
        <time>2018-04-17T05:49:58Z</time>
      </trkpt>
      <trkpt lat="38.61237" lon="14.96096">
        <ele>3.5</ele>
        <time>2018-04-17T05:50:14Z</time>
      </trkpt>
      <trkpt lat="38.61268" lon="14.96151">
        <ele>3.5</ele>
        <time>2018-04-17T05:50:32Z</time>
      </trkpt>
      <trkpt lat="38.61288" lon="14.96188">
        <ele>4.94</ele>
        <time>2018-04-17T05:50:44Z</time>
      </trkpt>
      <trkpt lat="38.61311" lon="14.96228">
        <ele>5.42</ele>
        <time>2018-04-17T05:50:57Z</time>
      </trkpt>
      <trkpt lat="38.61329" lon="14.96258">
        <ele>3.98</ele>
        <time>2018-04-17T05:51:08Z</time>
      </trkpt>
      <trkpt lat="38.61344" lon="14.96287">
        <ele>4.46</ele>
        <time>2018-04-17T05:51:18Z</time>
      </trkpt>
      <trkpt lat="38.61372" lon="14.96337">
        <ele>4.94</ele>
        <time>2018-04-17T05:51:34Z</time>
      </trkpt>
      <trkpt lat="38.6139" lon="14.96366">
        <ele>5.42</ele>
        <time>2018-04-17T05:51:44Z</time>
      </trkpt>
      <trkpt lat="38.61408" lon="14.96398">
        <ele>4.94</ele>
        <time>2018-04-17T05:51:55Z</time>
      </trkpt>
      <trkpt lat="38.61424" lon="14.96425">
        <ele>6.39</ele>
        <time>2018-04-17T05:52:04Z</time>
      </trkpt>
      <trkpt lat="38.61453" lon="14.96478">
        <ele>4.94</ele>
        <time>2018-04-17T05:52:21Z</time>
      </trkpt>
      <trkpt lat="38.61476" lon="14.96518">
        <ele>3.5</ele>
        <time>2018-04-17T05:52:34Z</time>
      </trkpt>
      <trkpt lat="38.61506" lon="14.9657">
        <ele>3.98</ele>
        <time>2018-04-17T05:52:51Z</time>
      </trkpt>
      <trkpt lat="38.61529" lon="14.96608">
        <ele>2.54</ele>
        <time>2018-04-17T05:53:03Z</time>
      </trkpt>
      <trkpt lat="38.61557" lon="14.96654">
        <ele>0.62</ele>
        <time>2018-04-17T05:53:18Z</time>
      </trkpt>
      <trkpt lat="38.61581" lon="14.96696">
        <ele>0.62</ele>
        <time>2018-04-17T05:53:32Z</time>
      </trkpt>
      <trkpt lat="38.61606" lon="14.96741">
        <ele>1.58</ele>
        <time>2018-04-17T05:53:47Z</time>
      </trkpt>
      <trkpt lat="38.61632" lon="14.96786">
        <ele>3.5</ele>
        <time>2018-04-17T05:54:02Z</time>
      </trkpt>
      <trkpt lat="38.61655" lon="14.96827">
        <ele>3.5</ele>
        <time>2018-04-17T05:54:16Z</time>
      </trkpt>
      <trkpt lat="38.61673" lon="14.96857">
        <ele>2.54</ele>
        <time>2018-04-17T05:54:26Z</time>
      </trkpt>
      <trkpt lat="38.61705" lon="14.96913">
        <ele>3.98</ele>
        <time>2018-04-17T05:54:45Z</time>
      </trkpt>
      <trkpt lat="38.61736" lon="14.96968">
        <ele>4.46</ele>
        <time>2018-04-17T05:55:03Z</time>
      </trkpt>
      <trkpt lat="38.61762" lon="14.97012">
        <ele>4.46</ele>
        <time>2018-04-17T05:55:18Z</time>
      </trkpt>
      <trkpt lat="38.6179" lon="14.97058">
        <ele>5.42</ele>
        <time>2018-04-17T05:55:34Z</time>
      </trkpt>
      <trkpt lat="38.61816" lon="14.97098">
        <ele>6.39</ele>
        <time>2018-04-17T05:55:48Z</time>
      </trkpt>
      <trkpt lat="38.61841" lon="14.97138">
        <ele>5.42</ele>
        <time>2018-04-17T05:56:02Z</time>
      </trkpt>
      <trkpt lat="38.61872" lon="14.97186">
        <ele>6.39</ele>
        <time>2018-04-17T05:56:19Z</time>
      </trkpt>
      <trkpt lat="38.61897" lon="14.97227">
        <ele>6.87</ele>
        <time>2018-04-17T05:56:33Z</time>
      </trkpt>
      <trkpt lat="38.61932" lon="14.97281">
        <ele>7.35</ele>
        <time>2018-04-17T05:56:52Z</time>
      </trkpt>
      <trkpt lat="38.61969" lon="14.97328">
        <ele>6.87</ele>
        <time>2018-04-17T05:57:10Z</time>
      </trkpt>
      <trkpt lat="38.61996" lon="14.97361">
        <ele>7.35</ele>
        <time>2018-04-17T05:57:23Z</time>
      </trkpt>
      <trkpt lat="38.62032" lon="14.974">
        <ele>6.39</ele>
        <time>2018-04-17T05:57:39Z</time>
      </trkpt>
      <trkpt lat="38.62057" lon="14.97426">
        <ele>5.42</ele>
        <time>2018-04-17T05:57:51Z</time>
      </trkpt>
      <trkpt lat="38.62086" lon="14.9746">
        <ele>5.91</ele>
        <time>2018-04-17T05:58:05Z</time>
      </trkpt>
      <trkpt lat="38.6211" lon="14.97484">
        <ele>5.91</ele>
        <time>2018-04-17T05:58:15Z</time>
      </trkpt>
      <trkpt lat="38.62141" lon="14.97517">
        <ele>6.39</ele>
        <time>2018-04-17T05:58:29Z</time>
      </trkpt>
      <trkpt lat="38.6217" lon="14.97549">
        <ele>5.91</ele>
        <time>2018-04-17T05:58:42Z</time>
      </trkpt>
      <trkpt lat="38.62191" lon="14.97572">
        <ele>4.94</ele>
        <time>2018-04-17T05:58:52Z</time>
      </trkpt>
      <trkpt lat="38.62217" lon="14.97605">
        <ele>3.5</ele>
        <time>2018-04-17T05:59:05Z</time>
      </trkpt>
      <trkpt lat="38.62242" lon="14.97631">
        <ele>3.02</ele>
        <time>2018-04-17T05:59:17Z</time>
      </trkpt>
      <trkpt lat="38.62265" lon="14.97655">
        <ele>3.98</ele>
        <time>2018-04-17T05:59:27Z</time>
      </trkpt>
      <trkpt lat="38.62288" lon="14.9768">
        <ele>3.5</ele>
        <time>2018-04-17T05:59:37Z</time>
      </trkpt>
      <trkpt lat="38.62314" lon="14.97708">
        <ele>3.98</ele>
        <time>2018-04-17T05:59:49Z</time>
      </trkpt>
      <trkpt lat="38.62315" lon="14.9771">
        <ele>3.98</ele>
        <time>2018-04-17T05:59:50Z</time>
      </trkpt>
      <trkpt lat="38.6234" lon="14.97738">
        <ele>3.5</ele>
        <time>2018-04-17T06:00:02Z</time>
      </trkpt>
      <trkpt lat="38.62369" lon="14.97772">
        <ele>3.5</ele>
        <time>2018-04-17T06:00:16Z</time>
      </trkpt>
      <trkpt lat="38.62401" lon="14.97808">
        <ele>3.5</ele>
        <time>2018-04-17T06:00:31Z</time>
      </trkpt>
      <trkpt lat="38.62432" lon="14.97842">
        <ele>3.98</ele>
        <time>2018-04-17T06:00:45Z</time>
      </trkpt>
      <trkpt lat="38.62463" lon="14.97876">
        <ele>4.46</ele>
        <time>2018-04-17T06:00:59Z</time>
      </trkpt>
      <trkpt lat="38.62497" lon="14.97913">
        <ele>4.46</ele>
        <time>2018-04-17T06:01:15Z</time>
      </trkpt>
      <trkpt lat="38.62531" lon="14.97952">
        <ele>3.98</ele>
        <time>2018-04-17T06:01:31Z</time>
      </trkpt>
      <trkpt lat="38.62562" lon="14.97986">
        <ele>3.5</ele>
        <time>2018-04-17T06:01:45Z</time>
      </trkpt>
      <trkpt lat="38.62594" lon="14.98022">
        <ele>2.54</ele>
        <time>2018-04-17T06:02:00Z</time>
      </trkpt>
      <trkpt lat="38.6262" lon="14.98051">
        <ele>2.06</ele>
        <time>2018-04-17T06:02:12Z</time>
      </trkpt>
      <trkpt lat="38.62648" lon="14.98082">
        <ele>2.06</ele>
        <time>2018-04-17T06:02:25Z</time>
      </trkpt>
      <trkpt lat="38.62672" lon="14.98109">
        <ele>2.54</ele>
        <time>2018-04-17T06:02:36Z</time>
      </trkpt>
      <trkpt lat="38.62695" lon="14.98135">
        <ele>2.54</ele>
        <time>2018-04-17T06:02:47Z</time>
      </trkpt>
      <trkpt lat="38.62719" lon="14.98161">
        <ele>3.98</ele>
        <time>2018-04-17T06:02:58Z</time>
      </trkpt>
      <trkpt lat="38.62743" lon="14.98188">
        <ele>3.98</ele>
        <time>2018-04-17T06:03:09Z</time>
      </trkpt>
      <trkpt lat="38.62775" lon="14.98224">
        <ele>4.46</ele>
        <time>2018-04-17T06:03:24Z</time>
      </trkpt>
      <trkpt lat="38.62806" lon="14.9826">
        <ele>4.46</ele>
        <time>2018-04-17T06:03:39Z</time>
      </trkpt>
      <trkpt lat="38.62832" lon="14.98288">
        <ele>4.46</ele>
        <time>2018-04-17T06:03:51Z</time>
      </trkpt>
      <trkpt lat="38.62864" lon="14.98324">
        <ele>4.46</ele>
        <time>2018-04-17T06:04:06Z</time>
      </trkpt>
      <trkpt lat="38.62892" lon="14.98355">
        <ele>3.98</ele>
        <time>2018-04-17T06:04:19Z</time>
      </trkpt>
      <trkpt lat="38.62916" lon="14.98381">
        <ele>3.98</ele>
        <time>2018-04-17T06:04:30Z</time>
      </trkpt>
      <trkpt lat="38.62938" lon="14.98407">
        <ele>4.46</ele>
        <time>2018-04-17T06:04:41Z</time>
      </trkpt>
      <trkpt lat="38.62962" lon="14.98433">
        <ele>3.98</ele>
        <time>2018-04-17T06:04:52Z</time>
      </trkpt>
      <trkpt lat="38.62989" lon="14.98465">
        <ele>3.02</ele>
        <time>2018-04-17T06:05:05Z</time>
      </trkpt>
      <trkpt lat="38.6302" lon="14.98499">
        <ele>3.02</ele>
        <time>2018-04-17T06:05:19Z</time>
      </trkpt>
      <trkpt lat="38.63047" lon="14.98531">
        <ele>2.54</ele>
        <time>2018-04-17T06:05:32Z</time>
      </trkpt>
      <trkpt lat="38.63079" lon="14.98558">
        <ele>3.98</ele>
        <time>2018-04-17T06:05:46Z</time>
      </trkpt>
      <trkpt lat="38.63108" lon="14.98584">
        <ele>4.46</ele>
        <time>2018-04-17T06:05:58Z</time>
      </trkpt>
      <trkpt lat="38.63133" lon="14.98607">
        <ele>4.46</ele>
        <time>2018-04-17T06:06:09Z</time>
      </trkpt>
      <trkpt lat="38.6316" lon="14.98634">
        <ele>4.94</ele>
        <time>2018-04-17T06:06:21Z</time>
      </trkpt>
      <trkpt lat="38.63189" lon="14.98663">
        <ele>5.42</ele>
        <time>2018-04-17T06:06:34Z</time>
      </trkpt>
      <trkpt lat="38.63215" lon="14.9869">
        <ele>4.94</ele>
        <time>2018-04-17T06:06:46Z</time>
      </trkpt>
      <trkpt lat="38.63241" lon="14.98717">
        <ele>4.46</ele>
        <time>2018-04-17T06:06:58Z</time>
      </trkpt>
      <trkpt lat="38.63263" lon="14.98739">
        <ele>4.46</ele>
        <time>2018-04-17T06:07:08Z</time>
      </trkpt>
      <trkpt lat="38.6329" lon="14.98767">
        <ele>3.98</ele>
        <time>2018-04-17T06:07:20Z</time>
      </trkpt>
      <trkpt lat="38.63323" lon="14.98801">
        <ele>3.02</ele>
        <time>2018-04-17T06:07:35Z</time>
      </trkpt>
      <trkpt lat="38.63355" lon="14.98833">
        <ele>2.54</ele>
        <time>2018-04-17T06:07:49Z</time>
      </trkpt>
      <trkpt lat="38.63383" lon="14.98863">
        <ele>2.06</ele>
        <time>2018-04-17T06:08:02Z</time>
      </trkpt>
      <trkpt lat="38.63408" lon="14.98887">
        <ele>2.54</ele>
        <time>2018-04-17T06:08:13Z</time>
      </trkpt>
      <trkpt lat="38.63437" lon="14.98918">
        <ele>3.02</ele>
        <time>2018-04-17T06:08:26Z</time>
      </trkpt>
      <trkpt lat="38.63472" lon="14.98954">
        <ele>3.02</ele>
        <time>2018-04-17T06:08:42Z</time>
      </trkpt>
      <trkpt lat="38.63501" lon="14.98984">
        <ele>3.5</ele>
        <time>2018-04-17T06:08:55Z</time>
      </trkpt>
      <trkpt lat="38.63534" lon="14.99018">
        <ele>3.5</ele>
        <time>2018-04-17T06:09:10Z</time>
      </trkpt>
      <trkpt lat="38.63566" lon="14.99049">
        <ele>3.5</ele>
        <time>2018-04-17T06:09:24Z</time>
      </trkpt>
      <trkpt lat="38.63594" lon="14.9908">
        <ele>3.02</ele>
        <time>2018-04-17T06:09:37Z</time>
      </trkpt>
      <trkpt lat="38.63628" lon="14.99115">
        <ele>3.02</ele>
        <time>2018-04-17T06:09:52Z</time>
      </trkpt>
      <trkpt lat="38.63634" lon="14.99121">
        <ele>3.02</ele>
        <time>2018-04-17T06:09:55Z</time>
      </trkpt>
      <trkpt lat="38.63648" lon="14.99134">
        <ele>2.06</ele>
        <time>2018-04-17T06:10:01Z</time>
      </trkpt>
      <trkpt lat="38.63675" lon="14.99163">
        <ele>1.58</ele>
        <time>2018-04-17T06:10:13Z</time>
      </trkpt>
      <trkpt lat="38.63699" lon="14.99189">
        <ele>2.06</ele>
        <time>2018-04-17T06:10:24Z</time>
      </trkpt>
      <trkpt lat="38.63731" lon="14.99221">
        <ele>1.1</ele>
        <time>2018-04-17T06:10:38Z</time>
      </trkpt>
      <trkpt lat="38.63749" lon="14.9924">
        <ele>0.62</ele>
        <time>2018-04-17T06:10:46Z</time>
      </trkpt>
      <trkpt lat="38.63777" lon="14.9927">
        <ele>1.58</ele>
        <time>2018-04-17T06:10:59Z</time>
      </trkpt>
      <trkpt lat="38.63806" lon="14.993">
        <ele>1.58</ele>
        <time>2018-04-17T06:11:12Z</time>
      </trkpt>
      <trkpt lat="38.63828" lon="14.99323">
        <ele>2.06</ele>
        <time>2018-04-17T06:11:22Z</time>
      </trkpt>
      <trkpt lat="38.63859" lon="14.99355">
        <ele>2.54</ele>
        <time>2018-04-17T06:11:36Z</time>
      </trkpt>
      <trkpt lat="38.63888" lon="14.99386">
        <ele>2.54</ele>
        <time>2018-04-17T06:11:49Z</time>
      </trkpt>
      <trkpt lat="38.63912" lon="14.99411">
        <ele>2.06</ele>
        <time>2018-04-17T06:12:00Z</time>
      </trkpt>
      <trkpt lat="38.63947" lon="14.99448">
        <ele>2.54</ele>
        <time>2018-04-17T06:12:16Z</time>
      </trkpt>
      <trkpt lat="38.6398" lon="14.99482">
        <ele>2.54</ele>
        <time>2018-04-17T06:12:31Z</time>
      </trkpt>
      <trkpt lat="38.64008" lon="14.99511">
        <ele>3.5</ele>
        <time>2018-04-17T06:12:44Z</time>
      </trkpt>
      <trkpt lat="38.64038" lon="14.99543">
        <ele>2.54</ele>
        <time>2018-04-17T06:12:58Z</time>
      </trkpt>
      <trkpt lat="38.64065" lon="14.9957">
        <ele>2.06</ele>
        <time>2018-04-17T06:13:10Z</time>
      </trkpt>
      <trkpt lat="38.64092" lon="14.99596">
        <ele>2.54</ele>
        <time>2018-04-17T06:13:22Z</time>
      </trkpt>
      <trkpt lat="38.64113" lon="14.9962">
        <ele>2.06</ele>
        <time>2018-04-17T06:13:32Z</time>
      </trkpt>
      <trkpt lat="38.64143" lon="14.99648">
        <ele>1.58</ele>
        <time>2018-04-17T06:13:45Z</time>
      </trkpt>
      <trkpt lat="38.64166" lon="14.99673">
        <ele>2.06</ele>
        <time>2018-04-17T06:13:56Z</time>
      </trkpt>
      <trkpt lat="38.64196" lon="14.99702">
        <ele>2.06</ele>
        <time>2018-04-17T06:14:09Z</time>
      </trkpt>
      <trkpt lat="38.64217" lon="14.99726">
        <ele>2.06</ele>
        <time>2018-04-17T06:14:19Z</time>
      </trkpt>
      <trkpt lat="38.64242" lon="14.99751">
        <ele>2.54</ele>
        <time>2018-04-17T06:14:30Z</time>
      </trkpt>
      <trkpt lat="38.64265" lon="14.99773">
        <ele>2.54</ele>
        <time>2018-04-17T06:14:40Z</time>
      </trkpt>
      <trkpt lat="38.6429" lon="14.99801">
        <ele>1.58</ele>
        <time>2018-04-17T06:14:52Z</time>
      </trkpt>
      <trkpt lat="38.64317" lon="14.9983">
        <ele>0.14</ele>
        <time>2018-04-17T06:15:04Z</time>
      </trkpt>
      <trkpt lat="38.64348" lon="14.9986">
        <ele>1.1</ele>
        <time>2018-04-17T06:15:18Z</time>
      </trkpt>
      <trkpt lat="38.64372" lon="14.99885">
        <ele>1.58</ele>
        <time>2018-04-17T06:15:29Z</time>
      </trkpt>
      <trkpt lat="38.6439" lon="14.99901">
        <ele>2.06</ele>
        <time>2018-04-17T06:15:37Z</time>
      </trkpt>
      <trkpt lat="38.64415" lon="14.99926">
        <ele>2.06</ele>
        <time>2018-04-17T06:15:48Z</time>
      </trkpt>
      <trkpt lat="38.64424" lon="14.99937">
        <ele>2.06</ele>
        <time>2018-04-17T06:15:52Z</time>
      </trkpt>
      <trkpt lat="38.64442" lon="14.99955">
        <ele>2.06</ele>
        <time>2018-04-17T06:15:59Z</time>
      </trkpt>
      <trkpt lat="38.64464" lon="14.99976">
        <ele>3.98</ele>
        <time>2018-04-17T06:16:08Z</time>
      </trkpt>
      <trkpt lat="38.64479" lon="14.99991">
        <ele>3.02</ele>
        <time>2018-04-17T06:16:15Z</time>
      </trkpt>
      <trkpt lat="38.64492" lon="15.00005">
        <ele>7.83</ele>
        <time>2018-04-17T06:16:21Z</time>
      </trkpt>
      <trkpt lat="38.64516" lon="15.00032">
        <ele>9.75</ele>
        <time>2018-04-17T06:16:33Z</time>
      </trkpt>
      <trkpt lat="38.64526" lon="15.0004">
        <ele>9.75</ele>
        <time>2018-04-17T06:16:37Z</time>
      </trkpt>
      <trkpt lat="38.64547" lon="15.00062">
        <ele>9.27</ele>
        <time>2018-04-17T06:16:47Z</time>
      </trkpt>
      <trkpt lat="38.64552" lon="15.00067">
        <ele>8.79</ele>
        <time>2018-04-17T06:16:49Z</time>
      </trkpt>
      <trkpt lat="38.64573" lon="15.00089">
        <ele>7.83</ele>
        <time>2018-04-17T06:16:59Z</time>
      </trkpt>
      <trkpt lat="38.646" lon="15.00118">
        <ele>10.23</ele>
        <time>2018-04-17T06:17:12Z</time>
      </trkpt>
      <trkpt lat="38.64627" lon="15.00147">
        <ele>10.71</ele>
        <time>2018-04-17T06:17:25Z</time>
      </trkpt>
      <trkpt lat="38.64634" lon="15.00154">
        <ele>10.71</ele>
        <time>2018-04-17T06:17:28Z</time>
      </trkpt>
      <trkpt lat="38.64659" lon="15.00182">
        <ele>11.67</ele>
        <time>2018-04-17T06:17:40Z</time>
      </trkpt>
      <trkpt lat="38.64691" lon="15.00215">
        <ele>11.19</ele>
        <time>2018-04-17T06:17:55Z</time>
      </trkpt>
      <trkpt lat="38.64703" lon="15.00226">
        <ele>10.71</ele>
        <time>2018-04-17T06:18:00Z</time>
      </trkpt>
      <trkpt lat="38.64711" lon="15.00234">
        <ele>10.71</ele>
        <time>2018-04-17T06:18:04Z</time>
      </trkpt>
      <trkpt lat="38.64734" lon="15.00259">
        <ele>10.23</ele>
        <time>2018-04-17T06:18:15Z</time>
      </trkpt>
      <trkpt lat="38.64759" lon="15.00284">
        <ele>9.75</ele>
        <time>2018-04-17T06:18:26Z</time>
      </trkpt>
      <trkpt lat="38.64785" lon="15.00312">
        <ele>9.75</ele>
        <time>2018-04-17T06:18:38Z</time>
      </trkpt>
      <trkpt lat="38.64809" lon="15.00336">
        <ele>10.71</ele>
        <time>2018-04-17T06:18:49Z</time>
      </trkpt>
      <trkpt lat="38.64836" lon="15.00366">
        <ele>10.23</ele>
        <time>2018-04-17T06:19:02Z</time>
      </trkpt>
      <trkpt lat="38.64864" lon="15.00395">
        <ele>9.75</ele>
        <time>2018-04-17T06:19:15Z</time>
      </trkpt>
      <trkpt lat="38.64889" lon="15.00422">
        <ele>11.19</ele>
        <time>2018-04-17T06:19:27Z</time>
      </trkpt>
      <trkpt lat="38.64911" lon="15.00447">
        <ele>12.15</ele>
        <time>2018-04-17T06:19:38Z</time>
      </trkpt>
      <trkpt lat="38.64941" lon="15.00479">
        <ele>11.19</ele>
        <time>2018-04-17T06:19:52Z</time>
      </trkpt>
      <trkpt lat="38.64945" lon="15.00483">
        <ele>10.71</ele>
        <time>2018-04-17T06:19:54Z</time>
      </trkpt>
      <trkpt lat="38.64953" lon="15.00491">
        <ele>9.75</ele>
        <time>2018-04-17T06:19:59Z</time>
      </trkpt>
      <trkpt lat="38.64982" lon="15.00515">
        <ele>7.83</ele>
        <time>2018-04-17T06:20:12Z</time>
      </trkpt>
      <trkpt lat="38.65005" lon="15.0054">
        <ele>6.87</ele>
        <time>2018-04-17T06:20:23Z</time>
      </trkpt>
      <trkpt lat="38.65032" lon="15.00566">
        <ele>6.87</ele>
        <time>2018-04-17T06:20:35Z</time>
      </trkpt>
      <trkpt lat="38.65054" lon="15.00591">
        <ele>4.94</ele>
        <time>2018-04-17T06:20:44Z</time>
      </trkpt>
      <trkpt lat="38.65078" lon="15.00618">
        <ele>4.94</ele>
        <time>2018-04-17T06:20:55Z</time>
      </trkpt>
      <trkpt lat="38.65099" lon="15.0064">
        <ele>5.42</ele>
        <time>2018-04-17T06:21:05Z</time>
      </trkpt>
      <trkpt lat="38.65125" lon="15.00668">
        <ele>4.94</ele>
        <time>2018-04-17T06:21:17Z</time>
      </trkpt>
      <trkpt lat="38.65149" lon="15.00693">
        <ele>4.46</ele>
        <time>2018-04-17T06:21:28Z</time>
      </trkpt>
      <trkpt lat="38.65164" lon="15.00709">
        <ele>3.98</ele>
        <time>2018-04-17T06:21:35Z</time>
      </trkpt>
      <trkpt lat="38.65188" lon="15.00732">
        <ele>3.5</ele>
        <time>2018-04-17T06:21:46Z</time>
      </trkpt>
      <trkpt lat="38.65214" lon="15.00759">
        <ele>2.06</ele>
        <time>2018-04-17T06:21:58Z</time>
      </trkpt>
      <trkpt lat="38.65236" lon="15.00781">
        <ele>0.14</ele>
        <time>2018-04-17T06:22:09Z</time>
      </trkpt>
      <trkpt lat="38.65246" lon="15.00793">
        <ele>-0.82</ele>
        <time>2018-04-17T06:22:14Z</time>
      </trkpt>
      <trkpt lat="38.65276" lon="15.00825">
        <ele>-1.79</ele>
        <time>2018-04-17T06:22:28Z</time>
      </trkpt>
      <trkpt lat="38.65298" lon="15.00848">
        <ele>-0.34</ele>
        <time>2018-04-17T06:22:38Z</time>
      </trkpt>
      <trkpt lat="38.6532" lon="15.00875">
        <ele>2.54</ele>
        <time>2018-04-17T06:22:49Z</time>
      </trkpt>
      <trkpt lat="38.65344" lon="15.00901">
        <ele>7.83</ele>
        <time>2018-04-17T06:23:01Z</time>
      </trkpt>
      <trkpt lat="38.6537" lon="15.00928">
        <ele>8.79</ele>
        <time>2018-04-17T06:23:13Z</time>
      </trkpt>
      <trkpt lat="38.65399" lon="15.00959">
        <ele>8.31</ele>
        <time>2018-04-17T06:23:27Z</time>
      </trkpt>
      <trkpt lat="38.65422" lon="15.00983">
        <ele>7.35</ele>
        <time>2018-04-17T06:23:38Z</time>
      </trkpt>
      <trkpt lat="38.65447" lon="15.01011">
        <ele>8.31</ele>
        <time>2018-04-17T06:23:50Z</time>
      </trkpt>
      <trkpt lat="38.65473" lon="15.01039">
        <ele>8.31</ele>
        <time>2018-04-17T06:24:03Z</time>
      </trkpt>
      <trkpt lat="38.655" lon="15.01068">
        <ele>9.75</ele>
        <time>2018-04-17T06:24:16Z</time>
      </trkpt>
      <trkpt lat="38.65527" lon="15.01095">
        <ele>11.19</ele>
        <time>2018-04-17T06:24:28Z</time>
      </trkpt>
      <trkpt lat="38.65555" lon="15.01125">
        <ele>10.23</ele>
        <time>2018-04-17T06:24:41Z</time>
      </trkpt>
      <trkpt lat="38.6558" lon="15.01152">
        <ele>9.75</ele>
        <time>2018-04-17T06:24:53Z</time>
      </trkpt>
      <trkpt lat="38.656" lon="15.01173">
        <ele>8.79</ele>
        <time>2018-04-17T06:25:02Z</time>
      </trkpt>
      <trkpt lat="38.65615" lon="15.01189">
        <ele>8.31</ele>
        <time>2018-04-17T06:25:09Z</time>
      </trkpt>
      <trkpt lat="38.6564" lon="15.01215">
        <ele>8.31</ele>
        <time>2018-04-17T06:25:21Z</time>
      </trkpt>
      <trkpt lat="38.65663" lon="15.01239">
        <ele>8.31</ele>
        <time>2018-04-17T06:25:32Z</time>
      </trkpt>
      <trkpt lat="38.65693" lon="15.01273">
        <ele>8.31</ele>
        <time>2018-04-17T06:25:47Z</time>
      </trkpt>
      <trkpt lat="38.65718" lon="15.01301">
        <ele>8.31</ele>
        <time>2018-04-17T06:25:59Z</time>
      </trkpt>
      <trkpt lat="38.65725" lon="15.01308">
        <ele>8.31</ele>
        <time>2018-04-17T06:26:02Z</time>
      </trkpt>
      <trkpt lat="38.65753" lon="15.01337">
        <ele>6.39</ele>
        <time>2018-04-17T06:26:15Z</time>
      </trkpt>
      <trkpt lat="38.65777" lon="15.01362">
        <ele>7.35</ele>
        <time>2018-04-17T06:26:26Z</time>
      </trkpt>
      <trkpt lat="38.65801" lon="15.01389">
        <ele>7.35</ele>
        <time>2018-04-17T06:26:38Z</time>
      </trkpt>
      <trkpt lat="38.65825" lon="15.01416">
        <ele>5.42</ele>
        <time>2018-04-17T06:26:50Z</time>
      </trkpt>
      <trkpt lat="38.65849" lon="15.0144">
        <ele>3.5</ele>
        <time>2018-04-17T06:27:01Z</time>
      </trkpt>
      <trkpt lat="38.65877" lon="15.0147">
        <ele>3.5</ele>
        <time>2018-04-17T06:27:14Z</time>
      </trkpt>
      <trkpt lat="38.65894" lon="15.01488">
        <ele>4.46</ele>
        <time>2018-04-17T06:27:22Z</time>
      </trkpt>
      <trkpt lat="38.65904" lon="15.015">
        <ele>4.94</ele>
        <time>2018-04-17T06:27:27Z</time>
      </trkpt>
      <trkpt lat="38.65939" lon="15.01538">
        <ele>6.39</ele>
        <time>2018-04-17T06:27:43Z</time>
      </trkpt>
      <trkpt lat="38.65963" lon="15.01566">
        <ele>6.87</ele>
        <time>2018-04-17T06:27:55Z</time>
      </trkpt>
      <trkpt lat="38.65986" lon="15.0159">
        <ele>5.91</ele>
        <time>2018-04-17T06:28:06Z</time>
      </trkpt>
      <trkpt lat="38.66013" lon="15.01619">
        <ele>5.42</ele>
        <time>2018-04-17T06:28:19Z</time>
      </trkpt>
      <trkpt lat="38.66035" lon="15.01641">
        <ele>4.46</ele>
        <time>2018-04-17T06:28:29Z</time>
      </trkpt>
      <trkpt lat="38.66058" lon="15.01666">
        <ele>4.94</ele>
        <time>2018-04-17T06:28:40Z</time>
      </trkpt>
      <trkpt lat="38.66084" lon="15.01695">
        <ele>4.46</ele>
        <time>2018-04-17T06:28:53Z</time>
      </trkpt>
      <trkpt lat="38.66105" lon="15.01718">
        <ele>4.46</ele>
        <time>2018-04-17T06:29:03Z</time>
      </trkpt>
      <trkpt lat="38.66132" lon="15.01748">
        <ele>4.46</ele>
        <time>2018-04-17T06:29:16Z</time>
      </trkpt>
      <trkpt lat="38.66155" lon="15.01772">
        <ele>3.5</ele>
        <time>2018-04-17T06:29:27Z</time>
      </trkpt>
      <trkpt lat="38.66176" lon="15.01795">
        <ele>3.5</ele>
        <time>2018-04-17T06:29:37Z</time>
      </trkpt>
      <trkpt lat="38.66198" lon="15.0182">
        <ele>3.02</ele>
        <time>2018-04-17T06:29:48Z</time>
      </trkpt>
      <trkpt lat="38.66222" lon="15.01847">
        <ele>4.46</ele>
        <time>2018-04-17T06:30:00Z</time>
      </trkpt>
      <trkpt lat="38.6625" lon="15.01877">
        <ele>3.02</ele>
        <time>2018-04-17T06:30:13Z</time>
      </trkpt>
      <trkpt lat="38.66275" lon="15.01903">
        <ele>2.06</ele>
        <time>2018-04-17T06:30:25Z</time>
      </trkpt>
      <trkpt lat="38.66303" lon="15.01934">
        <ele>1.1</ele>
        <time>2018-04-17T06:30:39Z</time>
      </trkpt>
      <trkpt lat="38.6633" lon="15.01963">
        <ele>2.06</ele>
        <time>2018-04-17T06:30:51Z</time>
      </trkpt>
      <trkpt lat="38.66349" lon="15.01987">
        <ele>2.54</ele>
        <time>2018-04-17T06:31:01Z</time>
      </trkpt>
      <trkpt lat="38.6637" lon="15.0201">
        <ele>4.46</ele>
        <time>2018-04-17T06:31:12Z</time>
      </trkpt>
      <trkpt lat="38.6639" lon="15.02031">
        <ele>4.46</ele>
        <time>2018-04-17T06:31:23Z</time>
      </trkpt>
      <trkpt lat="38.66412" lon="15.02055">
        <ele>4.94</ele>
        <time>2018-04-17T06:31:34Z</time>
      </trkpt>
      <trkpt lat="38.66436" lon="15.02083">
        <ele>5.42</ele>
        <time>2018-04-17T06:31:46Z</time>
      </trkpt>
      <trkpt lat="38.66461" lon="15.02111">
        <ele>6.39</ele>
        <time>2018-04-17T06:31:58Z</time>
      </trkpt>
      <trkpt lat="38.66492" lon="15.02145">
        <ele>6.39</ele>
        <time>2018-04-17T06:32:13Z</time>
      </trkpt>
      <trkpt lat="38.66514" lon="15.0217">
        <ele>6.87</ele>
        <time>2018-04-17T06:32:24Z</time>
      </trkpt>
      <trkpt lat="38.66537" lon="15.02195">
        <ele>6.39</ele>
        <time>2018-04-17T06:32:35Z</time>
      </trkpt>
      <trkpt lat="38.66559" lon="15.0222">
        <ele>6.39</ele>
        <time>2018-04-17T06:32:46Z</time>
      </trkpt>
      <trkpt lat="38.66585" lon="15.02248">
        <ele>5.91</ele>
        <time>2018-04-17T06:32:58Z</time>
      </trkpt>
      <trkpt lat="38.66593" lon="15.02257">
        <ele>5.91</ele>
        <time>2018-04-17T06:33:02Z</time>
      </trkpt>
      <trkpt lat="38.66596" lon="15.02261">
        <ele>5.91</ele>
        <time>2018-04-17T06:33:04Z</time>
      </trkpt>
      <trkpt lat="38.66614" lon="15.02283">
        <ele>4.94</ele>
        <time>2018-04-17T06:33:14Z</time>
      </trkpt>
      <trkpt lat="38.66648" lon="15.0232">
        <ele>4.94</ele>
        <time>2018-04-17T06:33:30Z</time>
      </trkpt>
      <trkpt lat="38.66673" lon="15.02348">
        <ele>4.94</ele>
        <time>2018-04-17T06:33:42Z</time>
      </trkpt>
      <trkpt lat="38.66704" lon="15.02382">
        <ele>3.98</ele>
        <time>2018-04-17T06:33:57Z</time>
      </trkpt>
      <trkpt lat="38.66735" lon="15.02417">
        <ele>3.5</ele>
        <time>2018-04-17T06:34:12Z</time>
      </trkpt>
      <trkpt lat="38.66769" lon="15.02454">
        <ele>3.5</ele>
        <time>2018-04-17T06:34:28Z</time>
      </trkpt>
      <trkpt lat="38.66795" lon="15.02484">
        <ele>3.5</ele>
        <time>2018-04-17T06:34:41Z</time>
      </trkpt>
      <trkpt lat="38.66822" lon="15.02513">
        <ele>4.46</ele>
        <time>2018-04-17T06:34:54Z</time>
      </trkpt>
      <trkpt lat="38.66852" lon="15.02547">
        <ele>3.5</ele>
        <time>2018-04-17T06:35:09Z</time>
      </trkpt>
      <trkpt lat="38.66877" lon="15.02576">
        <ele>2.54</ele>
        <time>2018-04-17T06:35:21Z</time>
      </trkpt>
      <trkpt lat="38.66906" lon="15.02608">
        <ele>2.54</ele>
        <time>2018-04-17T06:35:35Z</time>
      </trkpt>
      <trkpt lat="38.66937" lon="15.02642">
        <ele>3.02</ele>
        <time>2018-04-17T06:35:50Z</time>
      </trkpt>
      <trkpt lat="38.66964" lon="15.02672">
        <ele>3.5</ele>
        <time>2018-04-17T06:36:03Z</time>
      </trkpt>
      <trkpt lat="38.66991" lon="15.02702">
        <ele>3.5</ele>
        <time>2018-04-17T06:36:16Z</time>
      </trkpt>
      <trkpt lat="38.67016" lon="15.0273">
        <ele>3.5</ele>
        <time>2018-04-17T06:36:28Z</time>
      </trkpt>
      <trkpt lat="38.67046" lon="15.02762">
        <ele>3.02</ele>
        <time>2018-04-17T06:36:42Z</time>
      </trkpt>
      <trkpt lat="38.67071" lon="15.0279">
        <ele>3.5</ele>
        <time>2018-04-17T06:36:54Z</time>
      </trkpt>
      <trkpt lat="38.67102" lon="15.02823">
        <ele>3.98</ele>
        <time>2018-04-17T06:37:09Z</time>
      </trkpt>
      <trkpt lat="38.67127" lon="15.02853">
        <ele>4.46</ele>
        <time>2018-04-17T06:37:22Z</time>
      </trkpt>
      <trkpt lat="38.67155" lon="15.02882">
        <ele>4.94</ele>
        <time>2018-04-17T06:37:35Z</time>
      </trkpt>
      <trkpt lat="38.67185" lon="15.02914">
        <ele>4.94</ele>
        <time>2018-04-17T06:37:49Z</time>
      </trkpt>
      <trkpt lat="38.67214" lon="15.02947">
        <ele>4.46</ele>
        <time>2018-04-17T06:38:03Z</time>
      </trkpt>
      <trkpt lat="38.67242" lon="15.0298">
        <ele>4.94</ele>
        <time>2018-04-17T06:38:17Z</time>
      </trkpt>
      <trkpt lat="38.67267" lon="15.03008">
        <ele>4.94</ele>
        <time>2018-04-17T06:38:29Z</time>
      </trkpt>
      <trkpt lat="38.67295" lon="15.03041">
        <ele>3.98</ele>
        <time>2018-04-17T06:38:43Z</time>
      </trkpt>
      <trkpt lat="38.6732" lon="15.0307">
        <ele>2.54</ele>
        <time>2018-04-17T06:38:55Z</time>
      </trkpt>
      <trkpt lat="38.67355" lon="15.03108">
        <ele>2.54</ele>
        <time>2018-04-17T06:39:12Z</time>
      </trkpt>
      <trkpt lat="38.67377" lon="15.03132">
        <ele>3.5</ele>
        <time>2018-04-17T06:39:23Z</time>
      </trkpt>
      <trkpt lat="38.67405" lon="15.03163">
        <ele>4.46</ele>
        <time>2018-04-17T06:39:37Z</time>
      </trkpt>
      <trkpt lat="38.67428" lon="15.03188">
        <ele>4.94</ele>
        <time>2018-04-17T06:39:48Z</time>
      </trkpt>
      <trkpt lat="38.67446" lon="15.03208">
        <ele>4.94</ele>
        <time>2018-04-17T06:39:57Z</time>
      </trkpt>
      <trkpt lat="38.67463" lon="15.03227">
        <ele>5.42</ele>
        <time>2018-04-17T06:40:05Z</time>
      </trkpt>
      <trkpt lat="38.67491" lon="15.03256">
        <ele>5.91</ele>
        <time>2018-04-17T06:40:18Z</time>
      </trkpt>
      <trkpt lat="38.67521" lon="15.0329">
        <ele>6.87</ele>
        <time>2018-04-17T06:40:33Z</time>
      </trkpt>
      <trkpt lat="38.67546" lon="15.03317">
        <ele>6.39</ele>
        <time>2018-04-17T06:40:45Z</time>
      </trkpt>
      <trkpt lat="38.67575" lon="15.0335">
        <ele>5.42</ele>
        <time>2018-04-17T06:40:59Z</time>
      </trkpt>
      <trkpt lat="38.67595" lon="15.03372">
        <ele>4.94</ele>
        <time>2018-04-17T06:41:09Z</time>
      </trkpt>
      <trkpt lat="38.67622" lon="15.03401">
        <ele>5.42</ele>
        <time>2018-04-17T06:41:22Z</time>
      </trkpt>
      <trkpt lat="38.67649" lon="15.03431">
        <ele>6.39</ele>
        <time>2018-04-17T06:41:35Z</time>
      </trkpt>
      <trkpt lat="38.67655" lon="15.03438">
        <ele>5.91</ele>
        <time>2018-04-17T06:41:38Z</time>
      </trkpt>
      <trkpt lat="38.67684" lon="15.03469">
        <ele>7.83</ele>
        <time>2018-04-17T06:41:52Z</time>
      </trkpt>
      <trkpt lat="38.67709" lon="15.03496">
        <ele>7.83</ele>
        <time>2018-04-17T06:42:04Z</time>
      </trkpt>
      <trkpt lat="38.67736" lon="15.03528">
        <ele>6.87</ele>
        <time>2018-04-17T06:42:17Z</time>
      </trkpt>
      <trkpt lat="38.67761" lon="15.03556">
        <ele>6.39</ele>
        <time>2018-04-17T06:42:29Z</time>
      </trkpt>
      <trkpt lat="38.67792" lon="15.03591">
        <ele>5.91</ele>
        <time>2018-04-17T06:42:44Z</time>
      </trkpt>
      <trkpt lat="38.67828" lon="15.0363">
        <ele>4.46</ele>
        <time>2018-04-17T06:43:01Z</time>
      </trkpt>
      <trkpt lat="38.67856" lon="15.0366">
        <ele>3.98</ele>
        <time>2018-04-17T06:43:14Z</time>
      </trkpt>
      <trkpt lat="38.67883" lon="15.0369">
        <ele>4.46</ele>
        <time>2018-04-17T06:43:27Z</time>
      </trkpt>
      <trkpt lat="38.6791" lon="15.03721">
        <ele>3.98</ele>
        <time>2018-04-17T06:43:40Z</time>
      </trkpt>
      <trkpt lat="38.67938" lon="15.03754">
        <ele>3.02</ele>
        <time>2018-04-17T06:43:54Z</time>
      </trkpt>
      <trkpt lat="38.67962" lon="15.03778">
        <ele>2.54</ele>
        <time>2018-04-17T06:44:05Z</time>
      </trkpt>
      <trkpt lat="38.67985" lon="15.03803">
        <ele>2.06</ele>
        <time>2018-04-17T06:44:16Z</time>
      </trkpt>
      <trkpt lat="38.68014" lon="15.03835">
        <ele>2.54</ele>
        <time>2018-04-17T06:44:30Z</time>
      </trkpt>
      <trkpt lat="38.68041" lon="15.03865">
        <ele>3.02</ele>
        <time>2018-04-17T06:44:43Z</time>
      </trkpt>
      <trkpt lat="38.68068" lon="15.03896">
        <ele>3.5</ele>
        <time>2018-04-17T06:44:56Z</time>
      </trkpt>
      <trkpt lat="38.68094" lon="15.03924">
        <ele>3.5</ele>
        <time>2018-04-17T06:45:08Z</time>
      </trkpt>
      <trkpt lat="38.68117" lon="15.0395">
        <ele>4.46</ele>
        <time>2018-04-17T06:45:19Z</time>
      </trkpt>
      <trkpt lat="38.68123" lon="15.03957">
        <ele>3.98</ele>
        <time>2018-04-17T06:45:22Z</time>
      </trkpt>
      <trkpt lat="38.68146" lon="15.03981">
        <ele>2.54</ele>
        <time>2018-04-17T06:45:33Z</time>
      </trkpt>
      <trkpt lat="38.68165" lon="15.04001">
        <ele>1.58</ele>
        <time>2018-04-17T06:45:42Z</time>
      </trkpt>
      <trkpt lat="38.68192" lon="15.0403">
        <ele>2.54</ele>
        <time>2018-04-17T06:45:55Z</time>
      </trkpt>
      <trkpt lat="38.68222" lon="15.04063">
        <ele>3.02</ele>
        <time>2018-04-17T06:46:09Z</time>
      </trkpt>
      <trkpt lat="38.6825" lon="15.04091">
        <ele>3.5</ele>
        <time>2018-04-17T06:46:22Z</time>
      </trkpt>
      <trkpt lat="38.68273" lon="15.04115">
        <ele>3.5</ele>
        <time>2018-04-17T06:46:33Z</time>
      </trkpt>
      <trkpt lat="38.68297" lon="15.04139">
        <ele>3.02</ele>
        <time>2018-04-17T06:46:44Z</time>
      </trkpt>
      <trkpt lat="38.68327" lon="15.04172">
        <ele>2.54</ele>
        <time>2018-04-17T06:46:58Z</time>
      </trkpt>
      <trkpt lat="38.68354" lon="15.04201">
        <ele>2.54</ele>
        <time>2018-04-17T06:47:11Z</time>
      </trkpt>
      <trkpt lat="38.68382" lon="15.0423">
        <ele>2.54</ele>
        <time>2018-04-17T06:47:24Z</time>
      </trkpt>
      <trkpt lat="38.68411" lon="15.0426">
        <ele>3.02</ele>
        <time>2018-04-17T06:47:38Z</time>
      </trkpt>
      <trkpt lat="38.68442" lon="15.0429">
        <ele>2.54</ele>
        <time>2018-04-17T06:47:52Z</time>
      </trkpt>
      <trkpt lat="38.68472" lon="15.04322">
        <ele>3.5</ele>
        <time>2018-04-17T06:48:06Z</time>
      </trkpt>
      <trkpt lat="38.68502" lon="15.04353">
        <ele>4.46</ele>
        <time>2018-04-17T06:48:20Z</time>
      </trkpt>
      <trkpt lat="38.68532" lon="15.04384">
        <ele>3.5</ele>
        <time>2018-04-17T06:48:34Z</time>
      </trkpt>
      <trkpt lat="38.6856" lon="15.04412">
        <ele>3.98</ele>
        <time>2018-04-17T06:48:47Z</time>
      </trkpt>
      <trkpt lat="38.68595" lon="15.04447">
        <ele>3.98</ele>
        <time>2018-04-17T06:49:03Z</time>
      </trkpt>
      <trkpt lat="38.68623" lon="15.04476">
        <ele>3.98</ele>
        <time>2018-04-17T06:49:16Z</time>
      </trkpt>
      <trkpt lat="38.68652" lon="15.04505">
        <ele>3.5</ele>
        <time>2018-04-17T06:49:29Z</time>
      </trkpt>
      <trkpt lat="38.6868" lon="15.04533">
        <ele>3.02</ele>
        <time>2018-04-17T06:49:42Z</time>
      </trkpt>
      <trkpt lat="38.68704" lon="15.04558">
        <ele>3.5</ele>
        <time>2018-04-17T06:49:53Z</time>
      </trkpt>
      <trkpt lat="38.68727" lon="15.04579">
        <ele>3.98</ele>
        <time>2018-04-17T06:50:03Z</time>
      </trkpt>
      <trkpt lat="38.68757" lon="15.04611">
        <ele>4.46</ele>
        <time>2018-04-17T06:50:17Z</time>
      </trkpt>
      <trkpt lat="38.68761" lon="15.04615">
        <ele>4.46</ele>
        <time>2018-04-17T06:50:19Z</time>
      </trkpt>
      <trkpt lat="38.68776" lon="15.04631">
        <ele>3.98</ele>
        <time>2018-04-17T06:50:26Z</time>
      </trkpt>
      <trkpt lat="38.68805" lon="15.04658">
        <ele>3.5</ele>
        <time>2018-04-17T06:50:39Z</time>
      </trkpt>
      <trkpt lat="38.68832" lon="15.04685">
        <ele>3.5</ele>
        <time>2018-04-17T06:50:51Z</time>
      </trkpt>
      <trkpt lat="38.68858" lon="15.04711">
        <ele>3.98</ele>
        <time>2018-04-17T06:51:03Z</time>
      </trkpt>
      <trkpt lat="38.68882" lon="15.04735">
        <ele>3.5</ele>
        <time>2018-04-17T06:51:14Z</time>
      </trkpt>
      <trkpt lat="38.68911" lon="15.04764">
        <ele>4.46</ele>
        <time>2018-04-17T06:51:27Z</time>
      </trkpt>
      <trkpt lat="38.68935" lon="15.04787">
        <ele>4.46</ele>
        <time>2018-04-17T06:51:38Z</time>
      </trkpt>
      <trkpt lat="38.68964" lon="15.04814">
        <ele>4.94</ele>
        <time>2018-04-17T06:51:51Z</time>
      </trkpt>
      <trkpt lat="38.68989" lon="15.04839">
        <ele>4.94</ele>
        <time>2018-04-17T06:52:02Z</time>
      </trkpt>
      <trkpt lat="38.69026" lon="15.04875">
        <ele>4.46</ele>
        <time>2018-04-17T06:52:19Z</time>
      </trkpt>
      <trkpt lat="38.69056" lon="15.04906">
        <ele>3.98</ele>
        <time>2018-04-17T06:52:33Z</time>
      </trkpt>
      <trkpt lat="38.69085" lon="15.04935">
        <ele>3.98</ele>
        <time>2018-04-17T06:52:46Z</time>
      </trkpt>
      <trkpt lat="38.69124" lon="15.04974">
        <ele>3.5</ele>
        <time>2018-04-17T06:53:04Z</time>
      </trkpt>
      <trkpt lat="38.69157" lon="15.05007">
        <ele>3.5</ele>
        <time>2018-04-17T06:53:19Z</time>
      </trkpt>
      <trkpt lat="38.69182" lon="15.05031">
        <ele>2.54</ele>
        <time>2018-04-17T06:53:30Z</time>
      </trkpt>
      <trkpt lat="38.69206" lon="15.05057">
        <ele>2.54</ele>
        <time>2018-04-17T06:53:41Z</time>
      </trkpt>
      <trkpt lat="38.69232" lon="15.05081">
        <ele>1.1</ele>
        <time>2018-04-17T06:53:52Z</time>
      </trkpt>
      <trkpt lat="38.69258" lon="15.05108">
        <ele>0.62</ele>
        <time>2018-04-17T06:54:04Z</time>
      </trkpt>
      <trkpt lat="38.69284" lon="15.05135">
        <ele>2.06</ele>
        <time>2018-04-17T06:54:16Z</time>
      </trkpt>
      <trkpt lat="38.69311" lon="15.05162">
        <ele>1.58</ele>
        <time>2018-04-17T06:54:28Z</time>
      </trkpt>
      <trkpt lat="38.69338" lon="15.05189">
        <ele>2.06</ele>
        <time>2018-04-17T06:54:40Z</time>
      </trkpt>
      <trkpt lat="38.6936" lon="15.0521">
        <ele>1.1</ele>
        <time>2018-04-17T06:54:50Z</time>
      </trkpt>
      <trkpt lat="38.69387" lon="15.05237">
        <ele>1.58</ele>
        <time>2018-04-17T06:55:03Z</time>
      </trkpt>
      <trkpt lat="38.69418" lon="15.05268">
        <ele>1.58</ele>
        <time>2018-04-17T06:55:17Z</time>
      </trkpt>
      <trkpt lat="38.69446" lon="15.05296">
        <ele>1.58</ele>
        <time>2018-04-17T06:55:30Z</time>
      </trkpt>
      <trkpt lat="38.69478" lon="15.05327">
        <ele>2.06</ele>
        <time>2018-04-17T06:55:45Z</time>
      </trkpt>
      <trkpt lat="38.69507" lon="15.05355">
        <ele>2.54</ele>
        <time>2018-04-17T06:55:58Z</time>
      </trkpt>
      <trkpt lat="38.6954" lon="15.05386">
        <ele>2.54</ele>
        <time>2018-04-17T06:56:13Z</time>
      </trkpt>
      <trkpt lat="38.6957" lon="15.05418">
        <ele>3.5</ele>
        <time>2018-04-17T06:56:27Z</time>
      </trkpt>
      <trkpt lat="38.69598" lon="15.05446">
        <ele>3.98</ele>
        <time>2018-04-17T06:56:40Z</time>
      </trkpt>
      <trkpt lat="38.69631" lon="15.05479">
        <ele>4.46</ele>
        <time>2018-04-17T06:56:55Z</time>
      </trkpt>
      <trkpt lat="38.69661" lon="15.05507">
        <ele>4.46</ele>
        <time>2018-04-17T06:57:08Z</time>
      </trkpt>
      <trkpt lat="38.69691" lon="15.05537">
        <ele>4.94</ele>
        <time>2018-04-17T06:57:22Z</time>
      </trkpt>
      <trkpt lat="38.69721" lon="15.05568">
        <ele>4.94</ele>
        <time>2018-04-17T06:57:36Z</time>
      </trkpt>
      <trkpt lat="38.69755" lon="15.05601">
        <ele>3.98</ele>
        <time>2018-04-17T06:57:51Z</time>
      </trkpt>
      <trkpt lat="38.69789" lon="15.05635">
        <ele>3.98</ele>
        <time>2018-04-17T06:58:07Z</time>
      </trkpt>
      <trkpt lat="38.69816" lon="15.0566">
        <ele>2.54</ele>
        <time>2018-04-17T06:58:19Z</time>
      </trkpt>
      <trkpt lat="38.69847" lon="15.05692">
        <ele>0.62</ele>
        <time>2018-04-17T06:58:33Z</time>
      </trkpt>
      <trkpt lat="38.69881" lon="15.05725">
        <ele>0.14</ele>
        <time>2018-04-17T06:58:48Z</time>
      </trkpt>
      <trkpt lat="38.6991" lon="15.05753">
        <ele>1.1</ele>
        <time>2018-04-17T06:59:01Z</time>
      </trkpt>
      <trkpt lat="38.6994" lon="15.05784">
        <ele>1.58</ele>
        <time>2018-04-17T06:59:15Z</time>
      </trkpt>
      <trkpt lat="38.69971" lon="15.05814">
        <ele>0.62</ele>
        <time>2018-04-17T06:59:29Z</time>
      </trkpt>
      <trkpt lat="38.69999" lon="15.0584">
        <ele>0.62</ele>
        <time>2018-04-17T06:59:42Z</time>
      </trkpt>
      <trkpt lat="38.70025" lon="15.05866">
        <ele>-1.3</ele>
        <time>2018-04-17T06:59:54Z</time>
      </trkpt>
      <trkpt lat="38.70049" lon="15.05893">
        <ele>-1.3</ele>
        <time>2018-04-17T07:00:06Z</time>
      </trkpt>
      <trkpt lat="38.70095" lon="15.05935">
        <ele>0.14</ele>
        <time>2018-04-17T07:00:26Z</time>
      </trkpt>
      <trkpt lat="38.70131" lon="15.05971">
        <ele>0.62</ele>
        <time>2018-04-17T07:00:42Z</time>
      </trkpt>
      <trkpt lat="38.70163" lon="15.06006">
        <ele>-0.34</ele>
        <time>2018-04-17T07:00:57Z</time>
      </trkpt>
      <trkpt lat="38.70193" lon="15.06035">
        <ele>-0.82</ele>
        <time>2018-04-17T07:01:11Z</time>
      </trkpt>
      <trkpt lat="38.70222" lon="15.06064">
        <ele>1.58</ele>
        <time>2018-04-17T07:01:25Z</time>
      </trkpt>
      <trkpt lat="38.70248" lon="15.0609">
        <ele>2.06</ele>
        <time>2018-04-17T07:01:37Z</time>
      </trkpt>
      <trkpt lat="38.70273" lon="15.06114">
        <ele>2.06</ele>
        <time>2018-04-17T07:01:49Z</time>
      </trkpt>
      <trkpt lat="38.70301" lon="15.0614">
        <ele>2.54</ele>
        <time>2018-04-17T07:02:02Z</time>
      </trkpt>
      <trkpt lat="38.70326" lon="15.06167">
        <ele>4.46</ele>
        <time>2018-04-17T07:02:14Z</time>
      </trkpt>
      <trkpt lat="38.70365" lon="15.06206">
        <ele>4.46</ele>
        <time>2018-04-17T07:02:32Z</time>
      </trkpt>
      <trkpt lat="38.70391" lon="15.06232">
        <ele>4.46</ele>
        <time>2018-04-17T07:02:44Z</time>
      </trkpt>
      <trkpt lat="38.70419" lon="15.06259">
        <ele>3.98</ele>
        <time>2018-04-17T07:02:57Z</time>
      </trkpt>
      <trkpt lat="38.70449" lon="15.06288">
        <ele>3.98</ele>
        <time>2018-04-17T07:03:10Z</time>
      </trkpt>
      <trkpt lat="38.70478" lon="15.06319">
        <ele>4.46</ele>
        <time>2018-04-17T07:03:24Z</time>
      </trkpt>
      <trkpt lat="38.70507" lon="15.06346">
        <ele>4.46</ele>
        <time>2018-04-17T07:03:37Z</time>
      </trkpt>
      <trkpt lat="38.70536" lon="15.06375">
        <ele>4.94</ele>
        <time>2018-04-17T07:03:50Z</time>
      </trkpt>
      <trkpt lat="38.70568" lon="15.06408">
        <ele>4.46</ele>
        <time>2018-04-17T07:04:05Z</time>
      </trkpt>
      <trkpt lat="38.70596" lon="15.06435">
        <ele>4.94</ele>
        <time>2018-04-17T07:04:18Z</time>
      </trkpt>
      <trkpt lat="38.70626" lon="15.06465">
        <ele>5.42</ele>
        <time>2018-04-17T07:04:32Z</time>
      </trkpt>
      <trkpt lat="38.70656" lon="15.06495">
        <ele>4.94</ele>
        <time>2018-04-17T07:04:46Z</time>
      </trkpt>
      <trkpt lat="38.70681" lon="15.06521">
        <ele>4.46</ele>
        <time>2018-04-17T07:04:58Z</time>
      </trkpt>
      <trkpt lat="38.70705" lon="15.06545">
        <ele>4.94</ele>
        <time>2018-04-17T07:05:09Z</time>
      </trkpt>
      <trkpt lat="38.70733" lon="15.0657">
        <ele>4.46</ele>
        <time>2018-04-17T07:05:21Z</time>
      </trkpt>
      <trkpt lat="38.70762" lon="15.06599">
        <ele>4.94</ele>
        <time>2018-04-17T07:05:35Z</time>
      </trkpt>
      <trkpt lat="38.70788" lon="15.06625">
        <ele>5.91</ele>
        <time>2018-04-17T07:05:47Z</time>
      </trkpt>
      <trkpt lat="38.70814" lon="15.06652">
        <ele>6.87</ele>
        <time>2018-04-17T07:05:59Z</time>
      </trkpt>
      <trkpt lat="38.70837" lon="15.06674">
        <ele>7.35</ele>
        <time>2018-04-17T07:06:09Z</time>
      </trkpt>
      <trkpt lat="38.70864" lon="15.06701">
        <ele>4.46</ele>
        <time>2018-04-17T07:06:21Z</time>
      </trkpt>
      <trkpt lat="38.70882" lon="15.06719">
        <ele>3.02</ele>
        <time>2018-04-17T07:06:29Z</time>
      </trkpt>
      <trkpt lat="38.70893" lon="15.06732">
        <ele>3.02</ele>
        <time>2018-04-17T07:06:34Z</time>
      </trkpt>
      <trkpt lat="38.70914" lon="15.06754">
        <ele>3.02</ele>
        <time>2018-04-17T07:06:45Z</time>
      </trkpt>
      <trkpt lat="38.70938" lon="15.06778">
        <ele>3.5</ele>
        <time>2018-04-17T07:06:57Z</time>
      </trkpt>
      <trkpt lat="38.70961" lon="15.06801">
        <ele>4.46</ele>
        <time>2018-04-17T07:07:08Z</time>
      </trkpt>
      <trkpt lat="38.70986" lon="15.06825">
        <ele>3.98</ele>
        <time>2018-04-17T07:07:20Z</time>
      </trkpt>
      <trkpt lat="38.7102" lon="15.0686">
        <ele>3.5</ele>
        <time>2018-04-17T07:07:36Z</time>
      </trkpt>
      <trkpt lat="38.71052" lon="15.06892">
        <ele>2.54</ele>
        <time>2018-04-17T07:07:51Z</time>
      </trkpt>
      <trkpt lat="38.71074" lon="15.06914">
        <ele>2.54</ele>
        <time>2018-04-17T07:08:01Z</time>
      </trkpt>
      <trkpt lat="38.71104" lon="15.06943">
        <ele>3.02</ele>
        <time>2018-04-17T07:08:15Z</time>
      </trkpt>
      <trkpt lat="38.71134" lon="15.06973">
        <ele>3.5</ele>
        <time>2018-04-17T07:08:29Z</time>
      </trkpt>
      <trkpt lat="38.71162" lon="15.07003">
        <ele>3.98</ele>
        <time>2018-04-17T07:08:42Z</time>
      </trkpt>
      <trkpt lat="38.71191" lon="15.0703">
        <ele>3.5</ele>
        <time>2018-04-17T07:08:55Z</time>
      </trkpt>
      <trkpt lat="38.71221" lon="15.07061">
        <ele>3.5</ele>
        <time>2018-04-17T07:09:09Z</time>
      </trkpt>
      <trkpt lat="38.71245" lon="15.07084">
        <ele>3.98</ele>
        <time>2018-04-17T07:09:20Z</time>
      </trkpt>
      <trkpt lat="38.71271" lon="15.0711">
        <ele>3.98</ele>
        <time>2018-04-17T07:09:32Z</time>
      </trkpt>
      <trkpt lat="38.71302" lon="15.0714">
        <ele>3.5</ele>
        <time>2018-04-17T07:09:47Z</time>
      </trkpt>
      <trkpt lat="38.71333" lon="15.07172">
        <ele>2.54</ele>
        <time>2018-04-17T07:10:01Z</time>
      </trkpt>
      <trkpt lat="38.71355" lon="15.07194">
        <ele>2.54</ele>
        <time>2018-04-17T07:10:11Z</time>
      </trkpt>
      <trkpt lat="38.71386" lon="15.07224">
        <ele>2.06</ele>
        <time>2018-04-17T07:10:25Z</time>
      </trkpt>
      <trkpt lat="38.71418" lon="15.07257">
        <ele>2.54</ele>
        <time>2018-04-17T07:10:40Z</time>
      </trkpt>
      <trkpt lat="38.71451" lon="15.07289">
        <ele>2.54</ele>
        <time>2018-04-17T07:10:55Z</time>
      </trkpt>
      <trkpt lat="38.71483" lon="15.07322">
        <ele>3.5</ele>
        <time>2018-04-17T07:11:10Z</time>
      </trkpt>
      <trkpt lat="38.71522" lon="15.07361">
        <ele>3.98</ele>
        <time>2018-04-17T07:11:28Z</time>
      </trkpt>
      <trkpt lat="38.71557" lon="15.07396">
        <ele>3.98</ele>
        <time>2018-04-17T07:11:44Z</time>
      </trkpt>
      <trkpt lat="38.71562" lon="15.07401">
        <ele>3.5</ele>
        <time>2018-04-17T07:11:46Z</time>
      </trkpt>
      <trkpt lat="38.71588" lon="15.07429">
        <ele>3.02</ele>
        <time>2018-04-17T07:11:59Z</time>
      </trkpt>
      <trkpt lat="38.71615" lon="15.07454">
        <ele>2.54</ele>
        <time>2018-04-17T07:12:11Z</time>
      </trkpt>
      <trkpt lat="38.71649" lon="15.07486">
        <ele>2.54</ele>
        <time>2018-04-17T07:12:26Z</time>
      </trkpt>
      <trkpt lat="38.71675" lon="15.07513">
        <ele>3.02</ele>
        <time>2018-04-17T07:12:38Z</time>
      </trkpt>
      <trkpt lat="38.71703" lon="15.07541">
        <ele>3.02</ele>
        <time>2018-04-17T07:12:51Z</time>
      </trkpt>
      <trkpt lat="38.7173" lon="15.07567">
        <ele>3.98</ele>
        <time>2018-04-17T07:13:03Z</time>
      </trkpt>
      <trkpt lat="38.7176" lon="15.07598">
        <ele>3.02</ele>
        <time>2018-04-17T07:13:17Z</time>
      </trkpt>
      <trkpt lat="38.71791" lon="15.07629">
        <ele>2.54</ele>
        <time>2018-04-17T07:13:31Z</time>
      </trkpt>
      <trkpt lat="38.71819" lon="15.07658">
        <ele>2.54</ele>
        <time>2018-04-17T07:13:44Z</time>
      </trkpt>
      <trkpt lat="38.7185" lon="15.07688">
        <ele>2.54</ele>
        <time>2018-04-17T07:13:58Z</time>
      </trkpt>
      <trkpt lat="38.71878" lon="15.07717">
        <ele>3.5</ele>
        <time>2018-04-17T07:14:11Z</time>
      </trkpt>
      <trkpt lat="38.71905" lon="15.07744">
        <ele>3.02</ele>
        <time>2018-04-17T07:14:23Z</time>
      </trkpt>
      <trkpt lat="38.71933" lon="15.07772">
        <ele>3.98</ele>
        <time>2018-04-17T07:14:36Z</time>
      </trkpt>
      <trkpt lat="38.71954" lon="15.07793">
        <ele>2.54</ele>
        <time>2018-04-17T07:14:46Z</time>
      </trkpt>
      <trkpt lat="38.71981" lon="15.07819">
        <ele>2.06</ele>
        <time>2018-04-17T07:14:58Z</time>
      </trkpt>
      <trkpt lat="38.72005" lon="15.07844">
        <ele>2.54</ele>
        <time>2018-04-17T07:15:09Z</time>
      </trkpt>
      <trkpt lat="38.72031" lon="15.07871">
        <ele>2.54</ele>
        <time>2018-04-17T07:15:21Z</time>
      </trkpt>
      <trkpt lat="38.72055" lon="15.07895">
        <ele>2.54</ele>
        <time>2018-04-17T07:15:32Z</time>
      </trkpt>
      <trkpt lat="38.72082" lon="15.07922">
        <ele>2.06</ele>
        <time>2018-04-17T07:15:44Z</time>
      </trkpt>
      <trkpt lat="38.7211" lon="15.0795">
        <ele>2.54</ele>
        <time>2018-04-17T07:15:57Z</time>
      </trkpt>
      <trkpt lat="38.72135" lon="15.07974">
        <ele>2.54</ele>
        <time>2018-04-17T07:16:08Z</time>
      </trkpt>
      <trkpt lat="38.72167" lon="15.08008">
        <ele>3.02</ele>
        <time>2018-04-17T07:16:23Z</time>
      </trkpt>
      <trkpt lat="38.72207" lon="15.08047">
        <ele>3.02</ele>
        <time>2018-04-17T07:16:41Z</time>
      </trkpt>
      <trkpt lat="38.72237" lon="15.08077">
        <ele>2.06</ele>
        <time>2018-04-17T07:16:55Z</time>
      </trkpt>
      <trkpt lat="38.72275" lon="15.08115">
        <ele>2.54</ele>
        <time>2018-04-17T07:17:12Z</time>
      </trkpt>
      <trkpt lat="38.72308" lon="15.08147">
        <ele>2.06</ele>
        <time>2018-04-17T07:17:27Z</time>
      </trkpt>
      <trkpt lat="38.72337" lon="15.08176">
        <ele>2.06</ele>
        <time>2018-04-17T07:17:40Z</time>
      </trkpt>
      <trkpt lat="38.72357" lon="15.08195">
        <ele>2.54</ele>
        <time>2018-04-17T07:17:49Z</time>
      </trkpt>
      <trkpt lat="38.72382" lon="15.08219">
        <ele>3.02</ele>
        <time>2018-04-17T07:18:00Z</time>
      </trkpt>
      <trkpt lat="38.72409" lon="15.08244">
        <ele>3.02</ele>
        <time>2018-04-17T07:18:12Z</time>
      </trkpt>
      <trkpt lat="38.72435" lon="15.08267">
        <ele>3.5</ele>
        <time>2018-04-17T07:18:23Z</time>
      </trkpt>
      <trkpt lat="38.72463" lon="15.08293">
        <ele>3.02</ele>
        <time>2018-04-17T07:18:35Z</time>
      </trkpt>
      <trkpt lat="38.72493" lon="15.08319">
        <ele>3.5</ele>
        <time>2018-04-17T07:18:48Z</time>
      </trkpt>
      <trkpt lat="38.72521" lon="15.08345">
        <ele>3.5</ele>
        <time>2018-04-17T07:19:00Z</time>
      </trkpt>
      <trkpt lat="38.72548" lon="15.08372">
        <ele>3.02</ele>
        <time>2018-04-17T07:19:12Z</time>
      </trkpt>
      <trkpt lat="38.7259" lon="15.0841">
        <ele>3.5</ele>
        <time>2018-04-17T07:19:30Z</time>
      </trkpt>
      <trkpt lat="38.72628" lon="15.08444">
        <ele>3.5</ele>
        <time>2018-04-17T07:19:46Z</time>
      </trkpt>
      <trkpt lat="38.7266" lon="15.08474">
        <ele>3.98</ele>
        <time>2018-04-17T07:20:00Z</time>
      </trkpt>
      <trkpt lat="38.727" lon="15.0851">
        <ele>3.5</ele>
        <time>2018-04-17T07:20:17Z</time>
      </trkpt>
      <trkpt lat="38.72732" lon="15.08541">
        <ele>3.5</ele>
        <time>2018-04-17T07:20:31Z</time>
      </trkpt>
      <trkpt lat="38.7276" lon="15.08567">
        <ele>3.5</ele>
        <time>2018-04-17T07:20:43Z</time>
      </trkpt>
      <trkpt lat="38.7279" lon="15.08594">
        <ele>3.02</ele>
        <time>2018-04-17T07:20:56Z</time>
      </trkpt>
      <trkpt lat="38.72816" lon="15.08616">
        <ele>3.02</ele>
        <time>2018-04-17T07:21:07Z</time>
      </trkpt>
      <trkpt lat="38.72842" lon="15.0864">
        <ele>3.02</ele>
        <time>2018-04-17T07:21:18Z</time>
      </trkpt>
      <trkpt lat="38.72876" lon="15.08673">
        <ele>2.54</ele>
        <time>2018-04-17T07:21:33Z</time>
      </trkpt>
      <trkpt lat="38.72902" lon="15.08697">
        <ele>2.54</ele>
        <time>2018-04-17T07:21:44Z</time>
      </trkpt>
      <trkpt lat="38.72928" lon="15.0872">
        <ele>3.5</ele>
        <time>2018-04-17T07:21:55Z</time>
      </trkpt>
      <trkpt lat="38.72956" lon="15.08746">
        <ele>4.46</ele>
        <time>2018-04-17T07:22:07Z</time>
      </trkpt>
      <trkpt lat="38.72981" lon="15.0877">
        <ele>4.46</ele>
        <time>2018-04-17T07:22:18Z</time>
      </trkpt>
      <trkpt lat="38.73015" lon="15.08802">
        <ele>3.98</ele>
        <time>2018-04-17T07:22:33Z</time>
      </trkpt>
      <trkpt lat="38.73043" lon="15.08828">
        <ele>3.02</ele>
        <time>2018-04-17T07:22:45Z</time>
      </trkpt>
      <trkpt lat="38.73081" lon="15.08862">
        <ele>2.06</ele>
        <time>2018-04-17T07:23:01Z</time>
      </trkpt>
      <trkpt lat="38.73115" lon="15.08894">
        <ele>2.06</ele>
        <time>2018-04-17T07:23:16Z</time>
      </trkpt>
      <trkpt lat="38.73154" lon="15.0893">
        <ele>2.06</ele>
        <time>2018-04-17T07:23:33Z</time>
      </trkpt>
      <trkpt lat="38.73177" lon="15.08953">
        <ele>2.54</ele>
        <time>2018-04-17T07:23:43Z</time>
      </trkpt>
      <trkpt lat="38.73199" lon="15.08972">
        <ele>2.54</ele>
        <time>2018-04-17T07:23:52Z</time>
      </trkpt>
      <trkpt lat="38.73227" lon="15.08997">
        <ele>2.54</ele>
        <time>2018-04-17T07:24:04Z</time>
      </trkpt>
      <trkpt lat="38.73255" lon="15.09024">
        <ele>2.06</ele>
        <time>2018-04-17T07:24:16Z</time>
      </trkpt>
      <trkpt lat="38.73287" lon="15.09054">
        <ele>2.54</ele>
        <time>2018-04-17T07:24:30Z</time>
      </trkpt>
      <trkpt lat="38.73311" lon="15.09076">
        <ele>3.02</ele>
        <time>2018-04-17T07:24:40Z</time>
      </trkpt>
      <trkpt lat="38.7335" lon="15.09113">
        <ele>2.06</ele>
        <time>2018-04-17T07:24:57Z</time>
      </trkpt>
      <trkpt lat="38.73377" lon="15.0914">
        <ele>2.54</ele>
        <time>2018-04-17T07:25:09Z</time>
      </trkpt>
      <trkpt lat="38.73413" lon="15.09176">
        <ele>2.06</ele>
        <time>2018-04-17T07:25:25Z</time>
      </trkpt>
      <trkpt lat="38.73442" lon="15.09207">
        <ele>2.54</ele>
        <time>2018-04-17T07:25:38Z</time>
      </trkpt>
      <trkpt lat="38.7347" lon="15.09233">
        <ele>3.02</ele>
        <time>2018-04-17T07:25:50Z</time>
      </trkpt>
      <trkpt lat="38.7349" lon="15.09253">
        <ele>3.5</ele>
        <time>2018-04-17T07:25:59Z</time>
      </trkpt>
      <trkpt lat="38.73518" lon="15.09279">
        <ele>2.06</ele>
        <time>2018-04-17T07:26:11Z</time>
      </trkpt>
      <trkpt lat="38.73554" lon="15.09316">
        <ele>2.54</ele>
        <time>2018-04-17T07:26:27Z</time>
      </trkpt>
      <trkpt lat="38.73594" lon="15.09357">
        <ele>2.06</ele>
        <time>2018-04-17T07:26:45Z</time>
      </trkpt>
      <trkpt lat="38.73621" lon="15.09384">
        <ele>2.54</ele>
        <time>2018-04-17T07:26:57Z</time>
      </trkpt>
      <trkpt lat="38.73653" lon="15.09416">
        <ele>3.02</ele>
        <time>2018-04-17T07:27:12Z</time>
      </trkpt>
      <trkpt lat="38.73682" lon="15.09445">
        <ele>3.02</ele>
        <time>2018-04-17T07:27:27Z</time>
      </trkpt>
      <trkpt lat="38.7371" lon="15.09472">
        <ele>3.5</ele>
        <time>2018-04-17T07:27:41Z</time>
      </trkpt>
      <trkpt lat="38.73734" lon="15.09496">
        <ele>3.02</ele>
        <time>2018-04-17T07:27:53Z</time>
      </trkpt>
      <trkpt lat="38.7376" lon="15.09522">
        <ele>3.02</ele>
        <time>2018-04-17T07:28:06Z</time>
      </trkpt>
      <trkpt lat="38.73782" lon="15.09543">
        <ele>3.5</ele>
        <time>2018-04-17T07:28:17Z</time>
      </trkpt>
      <trkpt lat="38.73802" lon="15.09563">
        <ele>3.5</ele>
        <time>2018-04-17T07:28:27Z</time>
      </trkpt>
      <trkpt lat="38.73834" lon="15.09593">
        <ele>3.02</ele>
        <time>2018-04-17T07:28:43Z</time>
      </trkpt>
      <trkpt lat="38.73862" lon="15.09623">
        <ele>3.02</ele>
        <time>2018-04-17T07:28:58Z</time>
      </trkpt>
      <trkpt lat="38.73882" lon="15.09642">
        <ele>3.02</ele>
        <time>2018-04-17T07:29:08Z</time>
      </trkpt>
      <trkpt lat="38.73906" lon="15.09666">
        <ele>2.54</ele>
        <time>2018-04-17T07:29:20Z</time>
      </trkpt>
      <trkpt lat="38.73931" lon="15.09693">
        <ele>2.06</ele>
        <time>2018-04-17T07:29:33Z</time>
      </trkpt>
      <trkpt lat="38.73962" lon="15.09724">
        <ele>1.58</ele>
        <time>2018-04-17T07:29:49Z</time>
      </trkpt>
      <trkpt lat="38.73992" lon="15.09756">
        <ele>1.58</ele>
        <time>2018-04-17T07:30:05Z</time>
      </trkpt>
      <trkpt lat="38.74016" lon="15.09779">
        <ele>2.06</ele>
        <time>2018-04-17T07:30:17Z</time>
      </trkpt>
      <trkpt lat="38.7404" lon="15.09803">
        <ele>2.06</ele>
        <time>2018-04-17T07:30:29Z</time>
      </trkpt>
      <trkpt lat="38.74067" lon="15.0983">
        <ele>1.58</ele>
        <time>2018-04-17T07:30:43Z</time>
      </trkpt>
      <trkpt lat="38.74097" lon="15.09859">
        <ele>2.54</ele>
        <time>2018-04-17T07:30:58Z</time>
      </trkpt>
      <trkpt lat="38.74132" lon="15.09895">
        <ele>2.54</ele>
        <time>2018-04-17T07:31:16Z</time>
      </trkpt>
      <trkpt lat="38.74158" lon="15.0992">
        <ele>2.54</ele>
        <time>2018-04-17T07:31:29Z</time>
      </trkpt>
      <trkpt lat="38.74184" lon="15.09947">
        <ele>2.54</ele>
        <time>2018-04-17T07:31:42Z</time>
      </trkpt>
      <trkpt lat="38.74207" lon="15.0997">
        <ele>2.06</ele>
        <time>2018-04-17T07:31:54Z</time>
      </trkpt>
      <trkpt lat="38.74235" lon="15.09999">
        <ele>2.06</ele>
        <time>2018-04-17T07:32:08Z</time>
      </trkpt>
      <trkpt lat="38.74261" lon="15.10026">
        <ele>1.58</ele>
        <time>2018-04-17T07:32:21Z</time>
      </trkpt>
      <trkpt lat="38.74288" lon="15.10053">
        <ele>2.54</ele>
        <time>2018-04-17T07:32:34Z</time>
      </trkpt>
      <trkpt lat="38.74312" lon="15.10078">
        <ele>2.54</ele>
        <time>2018-04-17T07:32:46Z</time>
      </trkpt>
      <trkpt lat="38.74336" lon="15.10104">
        <ele>2.06</ele>
        <time>2018-04-17T07:32:58Z</time>
      </trkpt>
      <trkpt lat="38.74366" lon="15.10133">
        <ele>2.06</ele>
        <time>2018-04-17T07:33:12Z</time>
      </trkpt>
      <trkpt lat="38.74396" lon="15.10163">
        <ele>2.54</ele>
        <time>2018-04-17T07:33:26Z</time>
      </trkpt>
      <trkpt lat="38.74429" lon="15.10197">
        <ele>3.02</ele>
        <time>2018-04-17T07:33:41Z</time>
      </trkpt>
      <trkpt lat="38.74455" lon="15.10223">
        <ele>2.54</ele>
        <time>2018-04-17T07:33:52Z</time>
      </trkpt>
      <trkpt lat="38.74488" lon="15.10258">
        <ele>3.02</ele>
        <time>2018-04-17T07:34:07Z</time>
      </trkpt>
      <trkpt lat="38.74525" lon="15.10296">
        <ele>3.5</ele>
        <time>2018-04-17T07:34:23Z</time>
      </trkpt>
      <trkpt lat="38.7455" lon="15.10322">
        <ele>3.98</ele>
        <time>2018-04-17T07:34:34Z</time>
      </trkpt>
      <trkpt lat="38.74587" lon="15.1036">
        <ele>4.46</ele>
        <time>2018-04-17T07:34:50Z</time>
      </trkpt>
      <trkpt lat="38.74614" lon="15.10389">
        <ele>3.5</ele>
        <time>2018-04-17T07:35:02Z</time>
      </trkpt>
      <trkpt lat="38.74643" lon="15.10421">
        <ele>4.94</ele>
        <time>2018-04-17T07:35:15Z</time>
      </trkpt>
      <trkpt lat="38.74676" lon="15.10456">
        <ele>3.5</ele>
        <time>2018-04-17T07:35:29Z</time>
      </trkpt>
      <trkpt lat="38.74703" lon="15.10485">
        <ele>3.5</ele>
        <time>2018-04-17T07:35:41Z</time>
      </trkpt>
      <trkpt lat="38.74736" lon="15.10518">
        <ele>3.5</ele>
        <time>2018-04-17T07:35:55Z</time>
      </trkpt>
      <trkpt lat="38.74761" lon="15.10545">
        <ele>3.02</ele>
        <time>2018-04-17T07:36:06Z</time>
      </trkpt>
      <trkpt lat="38.74789" lon="15.10574">
        <ele>2.06</ele>
        <time>2018-04-17T07:36:18Z</time>
      </trkpt>
      <trkpt lat="38.74818" lon="15.10604">
        <ele>1.58</ele>
        <time>2018-04-17T07:36:31Z</time>
      </trkpt>
      <trkpt lat="38.74846" lon="15.10635">
        <ele>1.58</ele>
        <time>2018-04-17T07:36:43Z</time>
      </trkpt>
      <trkpt lat="38.74864" lon="15.10656">
        <ele>1.58</ele>
        <time>2018-04-17T07:36:51Z</time>
      </trkpt>
      <trkpt lat="38.74891" lon="15.10682">
        <ele>1.58</ele>
        <time>2018-04-17T07:37:02Z</time>
      </trkpt>
      <trkpt lat="38.74922" lon="15.10713">
        <ele>2.06</ele>
        <time>2018-04-17T07:37:15Z</time>
      </trkpt>
      <trkpt lat="38.74945" lon="15.10736">
        <ele>1.58</ele>
        <time>2018-04-17T07:37:25Z</time>
      </trkpt>
      <trkpt lat="38.74977" lon="15.1077">
        <ele>3.5</ele>
        <time>2018-04-17T07:37:39Z</time>
      </trkpt>
      <trkpt lat="38.75012" lon="15.10807">
        <ele>3.98</ele>
        <time>2018-04-17T07:37:54Z</time>
      </trkpt>
      <trkpt lat="38.75046" lon="15.10843">
        <ele>3.5</ele>
        <time>2018-04-17T07:38:09Z</time>
      </trkpt>
      <trkpt lat="38.75079" lon="15.10877">
        <ele>3.98</ele>
        <time>2018-04-17T07:38:23Z</time>
      </trkpt>
      <trkpt lat="38.75104" lon="15.10904">
        <ele>3.02</ele>
        <time>2018-04-17T07:38:34Z</time>
      </trkpt>
      <trkpt lat="38.75129" lon="15.1093">
        <ele>3.98</ele>
        <time>2018-04-17T07:38:45Z</time>
      </trkpt>
      <trkpt lat="38.75154" lon="15.10957">
        <ele>3.98</ele>
        <time>2018-04-17T07:38:56Z</time>
      </trkpt>
      <trkpt lat="38.75186" lon="15.1099">
        <ele>3.98</ele>
        <time>2018-04-17T07:39:10Z</time>
      </trkpt>
      <trkpt lat="38.75212" lon="15.11016">
        <ele>3.98</ele>
        <time>2018-04-17T07:39:21Z</time>
      </trkpt>
      <trkpt lat="38.75249" lon="15.11055">
        <ele>3.98</ele>
        <time>2018-04-17T07:39:37Z</time>
      </trkpt>
      <trkpt lat="38.75278" lon="15.11084">
        <ele>4.46</ele>
        <time>2018-04-17T07:39:49Z</time>
      </trkpt>
      <trkpt lat="38.75311" lon="15.11117">
        <ele>4.94</ele>
        <time>2018-04-17T07:40:03Z</time>
      </trkpt>
      <trkpt lat="38.75343" lon="15.11152">
        <ele>4.94</ele>
        <time>2018-04-17T07:40:17Z</time>
      </trkpt>
      <trkpt lat="38.75384" lon="15.11197">
        <ele>4.46</ele>
        <time>2018-04-17T07:40:35Z</time>
      </trkpt>
      <trkpt lat="38.75415" lon="15.11229">
        <ele>3.98</ele>
        <time>2018-04-17T07:40:48Z</time>
      </trkpt>
      <trkpt lat="38.75446" lon="15.11259">
        <ele>3.02</ele>
        <time>2018-04-17T07:41:01Z</time>
      </trkpt>
      <trkpt lat="38.75482" lon="15.113">
        <ele>3.5</ele>
        <time>2018-04-17T07:41:17Z</time>
      </trkpt>
      <trkpt lat="38.75533" lon="15.11355">
        <ele>3.5</ele>
        <time>2018-04-17T07:41:39Z</time>
      </trkpt>
      <trkpt lat="38.75552" lon="15.11364">
        <ele>3.02</ele>
        <time>2018-04-17T07:41:49Z</time>
      </trkpt>
      <trkpt lat="38.75556" lon="15.11358">
        <ele>2.54</ele>
        <time>2018-04-17T07:41:53Z</time>
      </trkpt>
      <trkpt lat="38.75555" lon="15.11342">
        <ele>2.54</ele>
        <time>2018-04-17T07:42:05Z</time>
      </trkpt>
      <trkpt lat="38.75554" lon="15.11326">
        <ele>2.54</ele>
        <time>2018-04-17T07:42:18Z</time>
      </trkpt>
      <trkpt lat="38.75552" lon="15.11317">
        <ele>2.54</ele>
        <time>2018-04-17T07:42:26Z</time>
      </trkpt>
      <trkpt lat="38.7555" lon="15.1131">
        <ele>2.06</ele>
        <time>2018-04-17T07:42:38Z</time>
      </trkpt>
      <trkpt lat="38.75549" lon="15.11308">
        <ele>1.58</ele>
        <time>2018-04-17T07:42:43Z</time>
      </trkpt>
      <trkpt lat="38.75548" lon="15.11299">
        <ele>0.14</ele>
        <time>2018-04-17T07:42:53Z</time>
      </trkpt>
      <trkpt lat="38.75552" lon="15.11285">
        <ele>-0.34</ele>
        <time>2018-04-17T07:43:02Z</time>
      </trkpt>
      <trkpt lat="38.75557" lon="15.11281">
        <ele>0.14</ele>
        <time>2018-04-17T07:43:06Z</time>
      </trkpt>
      <trkpt lat="38.75562" lon="15.11281">
        <ele>0.62</ele>
        <time>2018-04-17T07:43:08Z</time>
      </trkpt>
      <trkpt lat="38.75582" lon="15.11304">
        <ele>1.58</ele>
        <time>2018-04-17T07:43:21Z</time>
      </trkpt>
      <trkpt lat="38.75609" lon="15.11338">
        <ele>0.14</ele>
        <time>2018-04-17T07:43:35Z</time>
      </trkpt>
      <trkpt lat="38.75635" lon="15.11373">
        <ele>0.14</ele>
        <time>2018-04-17T07:43:49Z</time>
      </trkpt>
      <trkpt lat="38.75657" lon="15.11408">
        <ele>-0.82</ele>
        <time>2018-04-17T07:44:02Z</time>
      </trkpt>
      <trkpt lat="38.75683" lon="15.11441">
        <ele>0.14</ele>
        <time>2018-04-17T07:44:15Z</time>
      </trkpt>
      <trkpt lat="38.75706" lon="15.11469">
        <ele>3.02</ele>
        <time>2018-04-17T07:44:26Z</time>
      </trkpt>
      <trkpt lat="38.75731" lon="15.11497">
        <ele>3.02</ele>
        <time>2018-04-17T07:44:38Z</time>
      </trkpt>
      <trkpt lat="38.75755" lon="15.11522">
        <ele>2.54</ele>
        <time>2018-04-17T07:44:49Z</time>
      </trkpt>
      <trkpt lat="38.75786" lon="15.11557">
        <ele>3.02</ele>
        <time>2018-04-17T07:45:03Z</time>
      </trkpt>
      <trkpt lat="38.75818" lon="15.11588">
        <ele>3.02</ele>
        <time>2018-04-17T07:45:17Z</time>
      </trkpt>
      <trkpt lat="38.75844" lon="15.11616">
        <ele>3.98</ele>
        <time>2018-04-17T07:45:29Z</time>
      </trkpt>
      <trkpt lat="38.75849" lon="15.11621">
        <ele>3.98</ele>
        <time>2018-04-17T07:45:31Z</time>
      </trkpt>
      <trkpt lat="38.75859" lon="15.11634">
        <ele>4.46</ele>
        <time>2018-04-17T07:45:36Z</time>
      </trkpt>
      <trkpt lat="38.75884" lon="15.11663">
        <ele>3.5</ele>
        <time>2018-04-17T07:45:48Z</time>
      </trkpt>
      <trkpt lat="38.75907" lon="15.11696">
        <ele>3.5</ele>
        <time>2018-04-17T07:46:00Z</time>
      </trkpt>
      <trkpt lat="38.75931" lon="15.11728">
        <ele>3.98</ele>
        <time>2018-04-17T07:46:12Z</time>
      </trkpt>
      <trkpt lat="38.75958" lon="15.11765">
        <ele>3.98</ele>
        <time>2018-04-17T07:46:26Z</time>
      </trkpt>
      <trkpt lat="38.75983" lon="15.11801">
        <ele>3.5</ele>
        <time>2018-04-17T07:46:39Z</time>
      </trkpt>
      <trkpt lat="38.76016" lon="15.11845">
        <ele>2.06</ele>
        <time>2018-04-17T07:46:56Z</time>
      </trkpt>
      <trkpt lat="38.76063" lon="15.11908">
        <ele>1.58</ele>
        <time>2018-04-17T07:47:20Z</time>
      </trkpt>
      <trkpt lat="38.76093" lon="15.11951">
        <ele>1.58</ele>
        <time>2018-04-17T07:47:36Z</time>
      </trkpt>
      <trkpt lat="38.76126" lon="15.11994">
        <ele>2.06</ele>
        <time>2018-04-17T07:47:52Z</time>
      </trkpt>
      <trkpt lat="38.76157" lon="15.12035">
        <ele>2.06</ele>
        <time>2018-04-17T07:48:08Z</time>
      </trkpt>
      <trkpt lat="38.76183" lon="15.1207">
        <ele>3.02</ele>
        <time>2018-04-17T07:48:21Z</time>
      </trkpt>
      <trkpt lat="38.76214" lon="15.12112">
        <ele>3.5</ele>
        <time>2018-04-17T07:48:37Z</time>
      </trkpt>
      <trkpt lat="38.7625" lon="15.12159">
        <ele>3.5</ele>
        <time>2018-04-17T07:48:55Z</time>
      </trkpt>
      <trkpt lat="38.7628" lon="15.12202">
        <ele>3.02</ele>
        <time>2018-04-17T07:49:11Z</time>
      </trkpt>
      <trkpt lat="38.76317" lon="15.12252">
        <ele>1.58</ele>
        <time>2018-04-17T07:49:30Z</time>
      </trkpt>
      <trkpt lat="38.76348" lon="15.12293">
        <ele>0.62</ele>
        <time>2018-04-17T07:49:46Z</time>
      </trkpt>
      <trkpt lat="38.76381" lon="15.12333">
        <ele>1.58</ele>
        <time>2018-04-17T07:50:02Z</time>
      </trkpt>
      <trkpt lat="38.76407" lon="15.12366">
        <ele>1.58</ele>
        <time>2018-04-17T07:50:15Z</time>
      </trkpt>
      <trkpt lat="38.76437" lon="15.12402">
        <ele>2.06</ele>
        <time>2018-04-17T07:50:30Z</time>
      </trkpt>
      <trkpt lat="38.7646" lon="15.12433">
        <ele>2.54</ele>
        <time>2018-04-17T07:50:42Z</time>
      </trkpt>
      <trkpt lat="38.76488" lon="15.12468">
        <ele>2.54</ele>
        <time>2018-04-17T07:50:56Z</time>
      </trkpt>
      <trkpt lat="38.76519" lon="15.12508">
        <ele>2.54</ele>
        <time>2018-04-17T07:51:12Z</time>
      </trkpt>
      <trkpt lat="38.7655" lon="15.12548">
        <ele>2.54</ele>
        <time>2018-04-17T07:51:28Z</time>
      </trkpt>
      <trkpt lat="38.76582" lon="15.12588">
        <ele>2.54</ele>
        <time>2018-04-17T07:51:44Z</time>
      </trkpt>
      <trkpt lat="38.76607" lon="15.12621">
        <ele>2.54</ele>
        <time>2018-04-17T07:51:57Z</time>
      </trkpt>
      <trkpt lat="38.7664" lon="15.12664">
        <ele>2.54</ele>
        <time>2018-04-17T07:52:14Z</time>
      </trkpt>
      <trkpt lat="38.76672" lon="15.12707">
        <ele>1.58</ele>
        <time>2018-04-17T07:52:31Z</time>
      </trkpt>
      <trkpt lat="38.76696" lon="15.12738">
        <ele>2.06</ele>
        <time>2018-04-17T07:52:43Z</time>
      </trkpt>
      <trkpt lat="38.76729" lon="15.12781">
        <ele>2.06</ele>
        <time>2018-04-17T07:53:00Z</time>
      </trkpt>
      <trkpt lat="38.7676" lon="15.12822">
        <ele>1.58</ele>
        <time>2018-04-17T07:53:16Z</time>
      </trkpt>
      <trkpt lat="38.7679" lon="15.12862">
        <ele>1.58</ele>
        <time>2018-04-17T07:53:32Z</time>
      </trkpt>
      <trkpt lat="38.76816" lon="15.12894">
        <ele>1.58</ele>
        <time>2018-04-17T07:53:45Z</time>
      </trkpt>
      <trkpt lat="38.76852" lon="15.12941">
        <ele>1.58</ele>
        <time>2018-04-17T07:54:04Z</time>
      </trkpt>
      <trkpt lat="38.76885" lon="15.12985">
        <ele>1.58</ele>
        <time>2018-04-17T07:54:21Z</time>
      </trkpt>
      <trkpt lat="38.76919" lon="15.13028">
        <ele>2.06</ele>
        <time>2018-04-17T07:54:38Z</time>
      </trkpt>
      <trkpt lat="38.76946" lon="15.13063">
        <ele>2.54</ele>
        <time>2018-04-17T07:54:52Z</time>
      </trkpt>
      <trkpt lat="38.76975" lon="15.13101">
        <ele>3.98</ele>
        <time>2018-04-17T07:55:07Z</time>
      </trkpt>
      <trkpt lat="38.77008" lon="15.13144">
        <ele>3.5</ele>
        <time>2018-04-17T07:55:24Z</time>
      </trkpt>
      <trkpt lat="38.77036" lon="15.13183">
        <ele>3.02</ele>
        <time>2018-04-17T07:55:39Z</time>
      </trkpt>
      <trkpt lat="38.77066" lon="15.1322">
        <ele>2.54</ele>
        <time>2018-04-17T07:55:54Z</time>
      </trkpt>
      <trkpt lat="38.77095" lon="15.13259">
        <ele>3.02</ele>
        <time>2018-04-17T07:56:09Z</time>
      </trkpt>
      <trkpt lat="38.77112" lon="15.13283">
        <ele>2.54</ele>
        <time>2018-04-17T07:56:18Z</time>
      </trkpt>
      <trkpt lat="38.77141" lon="15.13321">
        <ele>3.02</ele>
        <time>2018-04-17T07:56:33Z</time>
      </trkpt>
      <trkpt lat="38.77176" lon="15.13367">
        <ele>3.02</ele>
        <time>2018-04-17T07:56:51Z</time>
      </trkpt>
      <trkpt lat="38.77207" lon="15.13407">
        <ele>3.5</ele>
        <time>2018-04-17T07:57:07Z</time>
      </trkpt>
      <trkpt lat="38.77235" lon="15.13445">
        <ele>3.5</ele>
        <time>2018-04-17T07:57:22Z</time>
      </trkpt>
      <trkpt lat="38.77263" lon="15.13484">
        <ele>2.54</ele>
        <time>2018-04-17T07:57:37Z</time>
      </trkpt>
      <trkpt lat="38.77295" lon="15.13529">
        <ele>3.02</ele>
        <time>2018-04-17T07:57:54Z</time>
      </trkpt>
      <trkpt lat="38.77322" lon="15.13566">
        <ele>3.02</ele>
        <time>2018-04-17T07:58:08Z</time>
      </trkpt>
      <trkpt lat="38.77351" lon="15.13605">
        <ele>3.5</ele>
        <time>2018-04-17T07:58:23Z</time>
      </trkpt>
      <trkpt lat="38.77377" lon="15.13641">
        <ele>3.5</ele>
        <time>2018-04-17T07:58:37Z</time>
      </trkpt>
      <trkpt lat="38.77406" lon="15.1368">
        <ele>3.02</ele>
        <time>2018-04-17T07:58:52Z</time>
      </trkpt>
      <trkpt lat="38.7744" lon="15.13727">
        <ele>2.54</ele>
        <time>2018-04-17T07:59:10Z</time>
      </trkpt>
      <trkpt lat="38.77471" lon="15.13771">
        <ele>2.54</ele>
        <time>2018-04-17T07:59:27Z</time>
      </trkpt>
      <trkpt lat="38.77502" lon="15.13813">
        <ele>2.54</ele>
        <time>2018-04-17T07:59:43Z</time>
      </trkpt>
      <trkpt lat="38.77528" lon="15.13849">
        <ele>2.54</ele>
        <time>2018-04-17T07:59:57Z</time>
      </trkpt>
      <trkpt lat="38.77559" lon="15.13893">
        <ele>1.1</ele>
        <time>2018-04-17T08:00:14Z</time>
      </trkpt>
      <trkpt lat="38.77591" lon="15.13939">
        <ele>0.62</ele>
        <time>2018-04-17T08:00:32Z</time>
      </trkpt>
      <trkpt lat="38.77619" lon="15.13977">
        <ele>0.62</ele>
        <time>2018-04-17T08:00:47Z</time>
      </trkpt>
      <trkpt lat="38.77649" lon="15.14018">
        <ele>1.58</ele>
        <time>2018-04-17T08:01:03Z</time>
      </trkpt>
      <trkpt lat="38.77669" lon="15.14046">
        <ele>1.58</ele>
        <time>2018-04-17T08:01:14Z</time>
      </trkpt>
      <trkpt lat="38.77696" lon="15.14085">
        <ele>2.06</ele>
        <time>2018-04-17T08:01:29Z</time>
      </trkpt>
      <trkpt lat="38.77724" lon="15.14126">
        <ele>2.06</ele>
        <time>2018-04-17T08:01:45Z</time>
      </trkpt>
      <trkpt lat="38.77749" lon="15.14161">
        <ele>3.02</ele>
        <time>2018-04-17T08:01:59Z</time>
      </trkpt>
      <trkpt lat="38.77773" lon="15.14196">
        <ele>3.5</ele>
        <time>2018-04-17T08:02:12Z</time>
      </trkpt>
      <trkpt lat="38.77808" lon="15.14244">
        <ele>3.98</ele>
        <time>2018-04-17T08:02:31Z</time>
      </trkpt>
      <trkpt lat="38.7783" lon="15.14275">
        <ele>3.98</ele>
        <time>2018-04-17T08:02:43Z</time>
      </trkpt>
      <trkpt lat="38.77849" lon="15.14303">
        <ele>4.46</ele>
        <time>2018-04-17T08:02:54Z</time>
      </trkpt>
      <trkpt lat="38.7788" lon="15.14347">
        <ele>4.46</ele>
        <time>2018-04-17T08:03:11Z</time>
      </trkpt>
      <trkpt lat="38.77906" lon="15.14382">
        <ele>4.94</ele>
        <time>2018-04-17T08:03:25Z</time>
      </trkpt>
      <trkpt lat="38.77932" lon="15.14418">
        <ele>4.94</ele>
        <time>2018-04-17T08:03:39Z</time>
      </trkpt>
      <trkpt lat="38.77959" lon="15.14457">
        <ele>4.94</ele>
        <time>2018-04-17T08:03:54Z</time>
      </trkpt>
      <trkpt lat="38.77985" lon="15.14493">
        <ele>4.46</ele>
        <time>2018-04-17T08:04:08Z</time>
      </trkpt>
      <trkpt lat="38.78012" lon="15.14531">
        <ele>3.5</ele>
        <time>2018-04-17T08:04:23Z</time>
      </trkpt>
      <trkpt lat="38.78033" lon="15.14564">
        <ele>3.02</ele>
        <time>2018-04-17T08:04:35Z</time>
      </trkpt>
      <trkpt lat="38.78061" lon="15.14602">
        <ele>2.54</ele>
        <time>2018-04-17T08:04:50Z</time>
      </trkpt>
      <trkpt lat="38.78085" lon="15.14638">
        <ele>2.06</ele>
        <time>2018-04-17T08:05:04Z</time>
      </trkpt>
      <trkpt lat="38.78116" lon="15.14682">
        <ele>2.06</ele>
        <time>2018-04-17T08:05:21Z</time>
      </trkpt>
      <trkpt lat="38.78142" lon="15.14721">
        <ele>1.58</ele>
        <time>2018-04-17T08:05:36Z</time>
      </trkpt>
      <trkpt lat="38.78173" lon="15.14765">
        <ele>2.54</ele>
        <time>2018-04-17T08:05:53Z</time>
      </trkpt>
      <trkpt lat="38.78198" lon="15.14802">
        <ele>3.02</ele>
        <time>2018-04-17T08:06:07Z</time>
      </trkpt>
      <trkpt lat="38.78223" lon="15.14839">
        <ele>3.5</ele>
        <time>2018-04-17T08:06:21Z</time>
      </trkpt>
      <trkpt lat="38.78251" lon="15.14877">
        <ele>3.5</ele>
        <time>2018-04-17T08:06:36Z</time>
      </trkpt>
      <trkpt lat="38.78278" lon="15.14917">
        <ele>3.5</ele>
        <time>2018-04-17T08:06:51Z</time>
      </trkpt>
      <trkpt lat="38.78298" lon="15.14948">
        <ele>3.5</ele>
        <time>2018-04-17T08:07:03Z</time>
      </trkpt>
      <trkpt lat="38.78321" lon="15.14982">
        <ele>3.5</ele>
        <time>2018-04-17T08:07:16Z</time>
      </trkpt>
      <trkpt lat="38.78347" lon="15.15018">
        <ele>3.02</ele>
        <time>2018-04-17T08:07:30Z</time>
      </trkpt>
      <trkpt lat="38.78366" lon="15.15047">
        <ele>3.5</ele>
        <time>2018-04-17T08:07:41Z</time>
      </trkpt>
      <trkpt lat="38.7839" lon="15.15084">
        <ele>3.5</ele>
        <time>2018-04-17T08:07:55Z</time>
      </trkpt>
      <trkpt lat="38.7842" lon="15.15129">
        <ele>3.5</ele>
        <time>2018-04-17T08:08:12Z</time>
      </trkpt>
      <trkpt lat="38.78443" lon="15.15163">
        <ele>3.98</ele>
        <time>2018-04-17T08:08:25Z</time>
      </trkpt>
      <trkpt lat="38.78468" lon="15.152">
        <ele>4.46</ele>
        <time>2018-04-17T08:08:39Z</time>
      </trkpt>
      <trkpt lat="38.78497" lon="15.15244">
        <ele>3.5</ele>
        <time>2018-04-17T08:08:56Z</time>
      </trkpt>
      <trkpt lat="38.78541" lon="15.15303">
        <ele>1.1</ele>
        <time>2018-04-17T08:09:20Z</time>
      </trkpt>
      <trkpt lat="38.78576" lon="15.15359">
        <ele>0.14</ele>
        <time>2018-04-17T08:09:40Z</time>
      </trkpt>
      <trkpt lat="38.78611" lon="15.15411">
        <ele>-0.34</ele>
        <time>2018-04-17T08:10:00Z</time>
      </trkpt>
      <trkpt lat="38.78645" lon="15.1546">
        <ele>-0.34</ele>
        <time>2018-04-17T08:10:19Z</time>
      </trkpt>
      <trkpt lat="38.78686" lon="15.15521">
        <ele>0.14</ele>
        <time>2018-04-17T08:10:42Z</time>
      </trkpt>
      <trkpt lat="38.78718" lon="15.15572">
        <ele>0.62</ele>
        <time>2018-04-17T08:11:01Z</time>
      </trkpt>
      <trkpt lat="38.78742" lon="15.1561">
        <ele>0.14</ele>
        <time>2018-04-17T08:11:15Z</time>
      </trkpt>
      <trkpt lat="38.7877" lon="15.15652">
        <ele>0.14</ele>
        <time>2018-04-17T08:11:31Z</time>
      </trkpt>
      <trkpt lat="38.78803" lon="15.15704">
        <ele>0.14</ele>
        <time>2018-04-17T08:11:50Z</time>
      </trkpt>
      <trkpt lat="38.78834" lon="15.15752">
        <ele>0.14</ele>
        <time>2018-04-17T08:12:08Z</time>
      </trkpt>
      <trkpt lat="38.78863" lon="15.15798">
        <ele>0.14</ele>
        <time>2018-04-17T08:12:25Z</time>
      </trkpt>
      <trkpt lat="38.78892" lon="15.15839">
        <ele>2.06</ele>
        <time>2018-04-17T08:12:41Z</time>
      </trkpt>
      <trkpt lat="38.78916" lon="15.15875">
        <ele>2.54</ele>
        <time>2018-04-17T08:12:54Z</time>
      </trkpt>
      <trkpt lat="38.78934" lon="15.15904">
        <ele>1.58</ele>
        <time>2018-04-17T08:13:05Z</time>
      </trkpt>
      <trkpt lat="38.78951" lon="15.15932">
        <ele>1.58</ele>
        <time>2018-04-17T08:13:15Z</time>
      </trkpt>
      <trkpt lat="38.78954" lon="15.15937">
        <ele>1.58</ele>
        <time>2018-04-17T08:13:17Z</time>
      </trkpt>
      <trkpt lat="38.78977" lon="15.15973">
        <ele>1.1</ele>
        <time>2018-04-17T08:13:30Z</time>
      </trkpt>
      <trkpt lat="38.79" lon="15.1601">
        <ele>0.14</ele>
        <time>2018-04-17T08:13:43Z</time>
      </trkpt>
      <trkpt lat="38.79022" lon="15.16044">
        <ele>1.58</ele>
        <time>2018-04-17T08:13:56Z</time>
      </trkpt>
      <trkpt lat="38.79045" lon="15.16076">
        <ele>2.06</ele>
        <time>2018-04-17T08:14:08Z</time>
      </trkpt>
      <trkpt lat="38.79064" lon="15.16106">
        <ele>1.1</ele>
        <time>2018-04-17T08:14:20Z</time>
      </trkpt>
      <trkpt lat="38.79079" lon="15.16131">
        <ele>2.06</ele>
        <time>2018-04-17T08:14:30Z</time>
      </trkpt>
      <trkpt lat="38.79082" lon="15.16137">
        <ele>2.06</ele>
        <time>2018-04-17T08:14:32Z</time>
      </trkpt>
      <trkpt lat="38.79094" lon="15.16156">
        <ele>1.58</ele>
        <time>2018-04-17T08:14:39Z</time>
      </trkpt>
      <trkpt lat="38.79115" lon="15.16188">
        <ele>1.58</ele>
        <time>2018-04-17T08:14:51Z</time>
      </trkpt>
      <trkpt lat="38.79143" lon="15.16231">
        <ele>2.06</ele>
        <time>2018-04-17T08:15:07Z</time>
      </trkpt>
      <trkpt lat="38.79165" lon="15.16265">
        <ele>3.02</ele>
        <time>2018-04-17T08:15:19Z</time>
      </trkpt>
      <trkpt lat="38.79188" lon="15.163">
        <ele>3.5</ele>
        <time>2018-04-17T08:15:32Z</time>
      </trkpt>
      <trkpt lat="38.79213" lon="15.1634">
        <ele>3.98</ele>
        <time>2018-04-17T08:15:47Z</time>
      </trkpt>
      <trkpt lat="38.79238" lon="15.16377">
        <ele>4.46</ele>
        <time>2018-04-17T08:16:01Z</time>
      </trkpt>
      <trkpt lat="38.79259" lon="15.16411">
        <ele>3.5</ele>
        <time>2018-04-17T08:16:14Z</time>
      </trkpt>
      <trkpt lat="38.79279" lon="15.16445">
        <ele>2.54</ele>
        <time>2018-04-17T08:16:26Z</time>
      </trkpt>
      <trkpt lat="38.79289" lon="15.16461">
        <ele>1.1</ele>
        <time>2018-04-17T08:16:32Z</time>
      </trkpt>
      <trkpt lat="38.79297" lon="15.16475">
        <ele>0.62</ele>
        <time>2018-04-17T08:16:37Z</time>
      </trkpt>
      <trkpt lat="38.79318" lon="15.16508">
        <ele>1.1</ele>
        <time>2018-04-17T08:16:49Z</time>
      </trkpt>
      <trkpt lat="38.79338" lon="15.1654">
        <ele>1.1</ele>
        <time>2018-04-17T08:17:01Z</time>
      </trkpt>
      <trkpt lat="38.79354" lon="15.16571">
        <ele>1.1</ele>
        <time>2018-04-17T08:17:12Z</time>
      </trkpt>
      <trkpt lat="38.7938" lon="15.16614">
        <ele>3.02</ele>
        <time>2018-04-17T08:17:27Z</time>
      </trkpt>
      <trkpt lat="38.79401" lon="15.16651">
        <ele>3.02</ele>
        <time>2018-04-17T08:17:40Z</time>
      </trkpt>
      <trkpt lat="38.79423" lon="15.16688">
        <ele>3.98</ele>
        <time>2018-04-17T08:17:53Z</time>
      </trkpt>
      <trkpt lat="38.79445" lon="15.16728">
        <ele>3.5</ele>
        <time>2018-04-17T08:18:07Z</time>
      </trkpt>
      <trkpt lat="38.79467" lon="15.16764">
        <ele>3.5</ele>
        <time>2018-04-17T08:18:20Z</time>
      </trkpt>
      <trkpt lat="38.79486" lon="15.16811">
        <ele>3.5</ele>
        <time>2018-04-17T08:18:35Z</time>
      </trkpt>
      <trkpt lat="38.79503" lon="15.16856">
        <ele>3.02</ele>
        <time>2018-04-17T08:18:49Z</time>
      </trkpt>
      <trkpt lat="38.7952" lon="15.16903">
        <ele>2.06</ele>
        <time>2018-04-17T08:19:03Z</time>
      </trkpt>
      <trkpt lat="38.79536" lon="15.16952">
        <ele>2.54</ele>
        <time>2018-04-17T08:19:18Z</time>
      </trkpt>
      <trkpt lat="38.79558" lon="15.17005">
        <ele>2.54</ele>
        <time>2018-04-17T08:19:35Z</time>
      </trkpt>
      <trkpt lat="38.79575" lon="15.17047">
        <ele>3.02</ele>
        <time>2018-04-17T08:19:48Z</time>
      </trkpt>
      <trkpt lat="38.79594" lon="15.17099">
        <ele>2.54</ele>
        <time>2018-04-17T08:20:04Z</time>
      </trkpt>
      <trkpt lat="38.79614" lon="15.17153">
        <ele>2.54</ele>
        <time>2018-04-17T08:20:21Z</time>
      </trkpt>
      <trkpt lat="38.79632" lon="15.17202">
        <ele>2.54</ele>
        <time>2018-04-17T08:20:36Z</time>
      </trkpt>
      <trkpt lat="38.79653" lon="15.17257">
        <ele>3.02</ele>
        <time>2018-04-17T08:20:53Z</time>
      </trkpt>
      <trkpt lat="38.7967" lon="15.17298">
        <ele>3.02</ele>
        <time>2018-04-17T08:21:06Z</time>
      </trkpt>
      <trkpt lat="38.79686" lon="15.1734">
        <ele>3.5</ele>
        <time>2018-04-17T08:21:19Z</time>
      </trkpt>
      <trkpt lat="38.79708" lon="15.17394">
        <ele>3.02</ele>
        <time>2018-04-17T08:21:36Z</time>
      </trkpt>
      <trkpt lat="38.79723" lon="15.17433">
        <ele>2.54</ele>
        <time>2018-04-17T08:21:48Z</time>
      </trkpt>
      <trkpt lat="38.79739" lon="15.17476">
        <ele>2.54</ele>
        <time>2018-04-17T08:22:01Z</time>
      </trkpt>
      <trkpt lat="38.79758" lon="15.17524">
        <ele>3.02</ele>
        <time>2018-04-17T08:22:16Z</time>
      </trkpt>
      <trkpt lat="38.79773" lon="15.1756">
        <ele>3.02</ele>
        <time>2018-04-17T08:22:27Z</time>
      </trkpt>
      <trkpt lat="38.79792" lon="15.17609">
        <ele>3.98</ele>
        <time>2018-04-17T08:22:42Z</time>
      </trkpt>
      <trkpt lat="38.79809" lon="15.17647">
        <ele>3.98</ele>
        <time>2018-04-17T08:22:54Z</time>
      </trkpt>
      <trkpt lat="38.79827" lon="15.17692">
        <ele>3.5</ele>
        <time>2018-04-17T08:23:08Z</time>
      </trkpt>
      <trkpt lat="38.79851" lon="15.17749">
        <ele>3.5</ele>
        <time>2018-04-17T08:23:26Z</time>
      </trkpt>
      <trkpt lat="38.79869" lon="15.17793">
        <ele>3.02</ele>
        <time>2018-04-17T08:23:40Z</time>
      </trkpt>
      <trkpt lat="38.7989" lon="15.17839">
        <ele>2.54</ele>
        <time>2018-04-17T08:23:55Z</time>
      </trkpt>
      <trkpt lat="38.79911" lon="15.17888">
        <ele>2.54</ele>
        <time>2018-04-17T08:24:10Z</time>
      </trkpt>
      <trkpt lat="38.79928" lon="15.17928">
        <ele>3.02</ele>
        <time>2018-04-17T08:24:23Z</time>
      </trkpt>
      <trkpt lat="38.79944" lon="15.17966">
        <ele>3.5</ele>
        <time>2018-04-17T08:24:35Z</time>
      </trkpt>
      <trkpt lat="38.79964" lon="15.18013">
        <ele>3.5</ele>
        <time>2018-04-17T08:24:50Z</time>
      </trkpt>
      <trkpt lat="38.79988" lon="15.18069">
        <ele>3.5</ele>
        <time>2018-04-17T08:25:08Z</time>
      </trkpt>
      <trkpt lat="38.80007" lon="15.18112">
        <ele>3.98</ele>
        <time>2018-04-17T08:25:22Z</time>
      </trkpt>
      <trkpt lat="38.80029" lon="15.18162">
        <ele>3.98</ele>
        <time>2018-04-17T08:25:38Z</time>
      </trkpt>
      <trkpt lat="38.8005" lon="15.18208">
        <ele>2.54</ele>
        <time>2018-04-17T08:25:53Z</time>
      </trkpt>
      <trkpt lat="38.8007" lon="15.18255">
        <ele>2.54</ele>
        <time>2018-04-17T08:26:08Z</time>
      </trkpt>
      <trkpt lat="38.8009" lon="15.18313">
        <ele>3.5</ele>
        <time>2018-04-17T08:26:26Z</time>
      </trkpt>
      <trkpt lat="38.80106" lon="15.18363">
        <ele>3.5</ele>
        <time>2018-04-17T08:26:41Z</time>
      </trkpt>
      <trkpt lat="38.80124" lon="15.18404">
        <ele>3.98</ele>
        <time>2018-04-17T08:26:54Z</time>
      </trkpt>
      <trkpt lat="38.80138" lon="15.18442">
        <ele>4.46</ele>
        <time>2018-04-17T08:27:06Z</time>
      </trkpt>
      <trkpt lat="38.80151" lon="15.18477">
        <ele>3.5</ele>
        <time>2018-04-17T08:27:17Z</time>
      </trkpt>
      <trkpt lat="38.80172" lon="15.18536">
        <ele>2.06</ele>
        <time>2018-04-17T08:27:35Z</time>
      </trkpt>
      <trkpt lat="38.80184" lon="15.18584">
        <ele>2.54</ele>
        <time>2018-04-17T08:27:49Z</time>
      </trkpt>
      <trkpt lat="38.80192" lon="15.18629">
        <ele>2.06</ele>
        <time>2018-04-17T08:28:02Z</time>
      </trkpt>
      <trkpt lat="38.80207" lon="15.18672">
        <ele>2.06</ele>
        <time>2018-04-17T08:28:15Z</time>
      </trkpt>
      <trkpt lat="38.80222" lon="15.18717">
        <ele>2.54</ele>
        <time>2018-04-17T08:28:29Z</time>
      </trkpt>
      <trkpt lat="38.80237" lon="15.18755">
        <ele>2.54</ele>
        <time>2018-04-17T08:28:41Z</time>
      </trkpt>
      <trkpt lat="38.80255" lon="15.18795">
        <ele>3.02</ele>
        <time>2018-04-17T08:28:54Z</time>
      </trkpt>
      <trkpt lat="38.8027" lon="15.18833">
        <ele>3.5</ele>
        <time>2018-04-17T08:29:06Z</time>
      </trkpt>
      <trkpt lat="38.80291" lon="15.18887">
        <ele>3.5</ele>
        <time>2018-04-17T08:29:23Z</time>
      </trkpt>
      <trkpt lat="38.80306" lon="15.18921">
        <ele>3.02</ele>
        <time>2018-04-17T08:29:34Z</time>
      </trkpt>
      <trkpt lat="38.80321" lon="15.18963">
        <ele>3.5</ele>
        <time>2018-04-17T08:29:47Z</time>
      </trkpt>
      <trkpt lat="38.80342" lon="15.19008">
        <ele>2.54</ele>
        <time>2018-04-17T08:30:02Z</time>
      </trkpt>
      <trkpt lat="38.80361" lon="15.19059">
        <ele>2.06</ele>
        <time>2018-04-17T08:30:18Z</time>
      </trkpt>
      <trkpt lat="38.8038" lon="15.19107">
        <ele>3.02</ele>
        <time>2018-04-17T08:30:33Z</time>
      </trkpt>
      <trkpt lat="38.80398" lon="15.1915">
        <ele>2.54</ele>
        <time>2018-04-17T08:30:47Z</time>
      </trkpt>
      <trkpt lat="38.80417" lon="15.19191">
        <ele>3.02</ele>
        <time>2018-04-17T08:31:00Z</time>
      </trkpt>
      <trkpt lat="38.80436" lon="15.19237">
        <ele>2.06</ele>
        <time>2018-04-17T08:31:15Z</time>
      </trkpt>
      <trkpt lat="38.8046" lon="15.1929">
        <ele>2.54</ele>
        <time>2018-04-17T08:31:32Z</time>
      </trkpt>
      <trkpt lat="38.80482" lon="15.19341">
        <ele>3.5</ele>
        <time>2018-04-17T08:31:48Z</time>
      </trkpt>
      <trkpt lat="38.80505" lon="15.19387">
        <ele>3.98</ele>
        <time>2018-04-17T08:32:03Z</time>
      </trkpt>
      <trkpt lat="38.8053" lon="15.19434">
        <ele>2.54</ele>
        <time>2018-04-17T08:32:19Z</time>
      </trkpt>
      <trkpt lat="38.80556" lon="15.19486">
        <ele>3.02</ele>
        <time>2018-04-17T08:32:36Z</time>
      </trkpt>
      <trkpt lat="38.8058" lon="15.19534">
        <ele>3.02</ele>
        <time>2018-04-17T08:32:52Z</time>
      </trkpt>
      <trkpt lat="38.80596" lon="15.19576">
        <ele>3.02</ele>
        <time>2018-04-17T08:33:05Z</time>
      </trkpt>
      <trkpt lat="38.80618" lon="15.19621">
        <ele>2.54</ele>
        <time>2018-04-17T08:33:20Z</time>
      </trkpt>
      <trkpt lat="38.80632" lon="15.1965">
        <ele>2.06</ele>
        <time>2018-04-17T08:33:29Z</time>
      </trkpt>
      <trkpt lat="38.80654" lon="15.19693">
        <ele>1.58</ele>
        <time>2018-04-17T08:33:43Z</time>
      </trkpt>
      <trkpt lat="38.80674" lon="15.19737">
        <ele>1.1</ele>
        <time>2018-04-17T08:33:58Z</time>
      </trkpt>
      <trkpt lat="38.80688" lon="15.19767">
        <ele>0.62</ele>
        <time>2018-04-17T08:34:08Z</time>
      </trkpt>
      <trkpt lat="38.80702" lon="15.19794">
        <ele>1.1</ele>
        <time>2018-04-17T08:34:16Z</time>
      </trkpt>
      <trkpt lat="38.80723" lon="15.19834">
        <ele>3.02</ele>
        <time>2018-04-17T08:34:29Z</time>
      </trkpt>
      <trkpt lat="38.80738" lon="15.19868">
        <ele>3.5</ele>
        <time>2018-04-17T08:34:40Z</time>
      </trkpt>
      <trkpt lat="38.80758" lon="15.19912">
        <ele>3.02</ele>
        <time>2018-04-17T08:34:54Z</time>
      </trkpt>
      <trkpt lat="38.80781" lon="15.19957">
        <ele>3.02</ele>
        <time>2018-04-17T08:35:09Z</time>
      </trkpt>
      <trkpt lat="38.80803" lon="15.20004">
        <ele>3.02</ele>
        <time>2018-04-17T08:35:24Z</time>
      </trkpt>
      <trkpt lat="38.80825" lon="15.2005">
        <ele>3.02</ele>
        <time>2018-04-17T08:35:39Z</time>
      </trkpt>
      <trkpt lat="38.80843" lon="15.20089">
        <ele>3.5</ele>
        <time>2018-04-17T08:35:51Z</time>
      </trkpt>
      <trkpt lat="38.8086" lon="15.20123">
        <ele>2.54</ele>
        <time>2018-04-17T08:36:03Z</time>
      </trkpt>
      <trkpt lat="38.80885" lon="15.2016">
        <ele>3.02</ele>
        <time>2018-04-17T08:36:17Z</time>
      </trkpt>
      <trkpt lat="38.80909" lon="15.202">
        <ele>3.5</ele>
        <time>2018-04-17T08:36:30Z</time>
      </trkpt>
      <trkpt lat="38.8093" lon="15.20232">
        <ele>3.5</ele>
        <time>2018-04-17T08:36:42Z</time>
      </trkpt>
      <trkpt lat="38.80958" lon="15.20272">
        <ele>2.54</ele>
        <time>2018-04-17T08:36:56Z</time>
      </trkpt>
      <trkpt lat="38.80987" lon="15.20318">
        <ele>3.5</ele>
        <time>2018-04-17T08:37:12Z</time>
      </trkpt>
      <trkpt lat="38.8101" lon="15.2036">
        <ele>3.98</ele>
        <time>2018-04-17T08:37:26Z</time>
      </trkpt>
      <trkpt lat="38.81032" lon="15.20398">
        <ele>3.02</ele>
        <time>2018-04-17T08:37:39Z</time>
      </trkpt>
      <trkpt lat="38.81054" lon="15.20429">
        <ele>2.06</ele>
        <time>2018-04-17T08:37:51Z</time>
      </trkpt>
      <trkpt lat="38.8108" lon="15.20472">
        <ele>2.54</ele>
        <time>2018-04-17T08:38:06Z</time>
      </trkpt>
      <trkpt lat="38.81099" lon="15.20506">
        <ele>3.98</ele>
        <time>2018-04-17T08:38:17Z</time>
      </trkpt>
      <trkpt lat="38.81124" lon="15.20543">
        <ele>3.02</ele>
        <time>2018-04-17T08:38:30Z</time>
      </trkpt>
      <trkpt lat="38.81153" lon="15.20591">
        <ele>2.54</ele>
        <time>2018-04-17T08:38:46Z</time>
      </trkpt>
      <trkpt lat="38.81173" lon="15.2063">
        <ele>2.54</ele>
        <time>2018-04-17T08:38:59Z</time>
      </trkpt>
      <trkpt lat="38.81197" lon="15.20672">
        <ele>3.02</ele>
        <time>2018-04-17T08:39:13Z</time>
      </trkpt>
      <trkpt lat="38.81223" lon="15.20721">
        <ele>2.06</ele>
        <time>2018-04-17T08:39:29Z</time>
      </trkpt>
      <trkpt lat="38.81245" lon="15.2077">
        <ele>3.5</ele>
        <time>2018-04-17T08:39:44Z</time>
      </trkpt>
      <trkpt lat="38.81257" lon="15.20796">
        <ele>3.98</ele>
        <time>2018-04-17T08:39:53Z</time>
      </trkpt>
      <trkpt lat="38.81277" lon="15.2084">
        <ele>3.98</ele>
        <time>2018-04-17T08:40:07Z</time>
      </trkpt>
      <trkpt lat="38.81298" lon="15.20892">
        <ele>3.5</ele>
        <time>2018-04-17T08:40:23Z</time>
      </trkpt>
      <trkpt lat="38.81317" lon="15.20941">
        <ele>4.46</ele>
        <time>2018-04-17T08:40:38Z</time>
      </trkpt>
      <trkpt lat="38.81338" lon="15.20984">
        <ele>5.42</ele>
        <time>2018-04-17T08:40:52Z</time>
      </trkpt>
      <trkpt lat="38.81362" lon="15.21026">
        <ele>6.39</ele>
        <time>2018-04-17T08:41:06Z</time>
      </trkpt>
      <trkpt lat="38.81381" lon="15.21073">
        <ele>3.98</ele>
        <time>2018-04-17T08:41:20Z</time>
      </trkpt>
      <trkpt lat="38.81395" lon="15.21118">
        <ele>3.02</ele>
        <time>2018-04-17T08:41:33Z</time>
      </trkpt>
      <trkpt lat="38.81405" lon="15.21171">
        <ele>3.5</ele>
        <time>2018-04-17T08:41:48Z</time>
      </trkpt>
      <trkpt lat="38.81413" lon="15.21233">
        <ele>3.5</ele>
        <time>2018-04-17T08:42:05Z</time>
      </trkpt>
      <trkpt lat="38.81431" lon="15.21286">
        <ele>3.02</ele>
        <time>2018-04-17T08:42:21Z</time>
      </trkpt>
      <trkpt lat="38.81447" lon="15.21326">
        <ele>2.54</ele>
        <time>2018-04-17T08:42:33Z</time>
      </trkpt>
      <trkpt lat="38.81459" lon="15.21379">
        <ele>3.02</ele>
        <time>2018-04-17T08:42:48Z</time>
      </trkpt>
      <trkpt lat="38.81471" lon="15.21439">
        <ele>2.54</ele>
        <time>2018-04-17T08:43:05Z</time>
      </trkpt>
      <trkpt lat="38.81486" lon="15.21483">
        <ele>2.54</ele>
        <time>2018-04-17T08:43:18Z</time>
      </trkpt>
      <trkpt lat="38.81499" lon="15.21528">
        <ele>1.58</ele>
        <time>2018-04-17T08:43:31Z</time>
      </trkpt>
      <trkpt lat="38.8151" lon="15.21593">
        <ele>2.06</ele>
        <time>2018-04-17T08:43:49Z</time>
      </trkpt>
      <trkpt lat="38.81517" lon="15.21651">
        <ele>1.1</ele>
        <time>2018-04-17T08:44:05Z</time>
      </trkpt>
      <trkpt lat="38.81524" lon="15.21697">
        <ele>0.14</ele>
        <time>2018-04-17T08:44:18Z</time>
      </trkpt>
      <trkpt lat="38.81535" lon="15.21751">
        <ele>1.1</ele>
        <time>2018-04-17T08:44:33Z</time>
      </trkpt>
      <trkpt lat="38.81541" lon="15.21794">
        <ele>0.62</ele>
        <time>2018-04-17T08:44:45Z</time>
      </trkpt>
      <trkpt lat="38.81539" lon="15.21836">
        <ele>1.1</ele>
        <time>2018-04-17T08:44:57Z</time>
      </trkpt>
      <trkpt lat="38.81528" lon="15.21886">
        <ele>1.58</ele>
        <time>2018-04-17T08:45:12Z</time>
      </trkpt>
      <trkpt lat="38.81527" lon="15.21935">
        <ele>1.1</ele>
        <time>2018-04-17T08:45:26Z</time>
      </trkpt>
      <trkpt lat="38.8153" lon="15.21986">
        <ele>2.06</ele>
        <time>2018-04-17T08:45:40Z</time>
      </trkpt>
      <trkpt lat="38.81538" lon="15.22044">
        <ele>2.06</ele>
        <time>2018-04-17T08:45:56Z</time>
      </trkpt>
      <trkpt lat="38.81544" lon="15.22092">
        <ele>1.1</ele>
        <time>2018-04-17T08:46:09Z</time>
      </trkpt>
      <trkpt lat="38.81542" lon="15.22158">
        <ele>1.1</ele>
        <time>2018-04-17T08:46:27Z</time>
      </trkpt>
      <trkpt lat="38.81529" lon="15.22209">
        <ele>0.62</ele>
        <time>2018-04-17T08:46:42Z</time>
      </trkpt>
      <trkpt lat="38.81504" lon="15.22265">
        <ele>0.62</ele>
        <time>2018-04-17T08:47:01Z</time>
      </trkpt>
      <trkpt lat="38.81494" lon="15.22299">
        <ele>-2.75</ele>
        <time>2018-04-17T08:47:12Z</time>
      </trkpt>
      <trkpt lat="38.81487" lon="15.22339">
        <ele>-1.3</ele>
        <time>2018-04-17T08:47:24Z</time>
      </trkpt>
      <trkpt lat="38.81474" lon="15.22401">
        <ele>1.1</ele>
        <time>2018-04-17T08:47:43Z</time>
      </trkpt>
      <trkpt lat="38.81458" lon="15.22449">
        <ele>1.1</ele>
        <time>2018-04-17T08:47:58Z</time>
      </trkpt>
      <trkpt lat="38.81441" lon="15.22501">
        <ele>2.06</ele>
        <time>2018-04-17T08:48:14Z</time>
      </trkpt>
      <trkpt lat="38.81427" lon="15.22547">
        <ele>3.02</ele>
        <time>2018-04-17T08:48:28Z</time>
      </trkpt>
      <trkpt lat="38.8141" lon="15.22598">
        <ele>2.06</ele>
        <time>2018-04-17T08:48:44Z</time>
      </trkpt>
      <trkpt lat="38.81401" lon="15.22634">
        <ele>1.58</ele>
        <time>2018-04-17T08:48:55Z</time>
      </trkpt>
      <trkpt lat="38.81383" lon="15.22691">
        <ele>2.06</ele>
        <time>2018-04-17T08:49:13Z</time>
      </trkpt>
      <trkpt lat="38.81354" lon="15.22782">
        <ele>2.54</ele>
        <time>2018-04-17T08:49:41Z</time>
      </trkpt>
      <trkpt lat="38.81329" lon="15.22862">
        <ele>3.5</ele>
        <time>2018-04-17T08:50:06Z</time>
      </trkpt>
      <trkpt lat="38.81306" lon="15.22949">
        <ele>3.98</ele>
        <time>2018-04-17T08:50:32Z</time>
      </trkpt>
      <trkpt lat="38.81289" lon="15.23014">
        <ele>4.46</ele>
        <time>2018-04-17T08:50:52Z</time>
      </trkpt>
      <trkpt lat="38.81271" lon="15.23089">
        <ele>3.5</ele>
        <time>2018-04-17T08:51:15Z</time>
      </trkpt>
      <trkpt lat="38.81254" lon="15.23165">
        <ele>3.5</ele>
        <time>2018-04-17T08:51:38Z</time>
      </trkpt>
      <trkpt lat="38.81238" lon="15.23231">
        <ele>3.5</ele>
        <time>2018-04-17T08:51:58Z</time>
      </trkpt>
      <trkpt lat="38.81225" lon="15.2329">
        <ele>3.02</ele>
        <time>2018-04-17T08:52:16Z</time>
      </trkpt>
      <trkpt lat="38.81209" lon="15.23347">
        <ele>3.5</ele>
        <time>2018-04-17T08:52:34Z</time>
      </trkpt>
      <trkpt lat="38.81188" lon="15.23412">
        <ele>2.54</ele>
        <time>2018-04-17T08:52:55Z</time>
      </trkpt>
      <trkpt lat="38.81173" lon="15.23474">
        <ele>3.5</ele>
        <time>2018-04-17T08:53:14Z</time>
      </trkpt>
      <trkpt lat="38.81161" lon="15.23544">
        <ele>3.5</ele>
        <time>2018-04-17T08:53:35Z</time>
      </trkpt>
      <trkpt lat="38.81154" lon="15.23611">
        <ele>3.02</ele>
        <time>2018-04-17T08:53:55Z</time>
      </trkpt>
      <trkpt lat="38.81128" lon="15.23682">
        <ele>2.54</ele>
        <time>2018-04-17T08:54:18Z</time>
      </trkpt>
      <trkpt lat="38.81098" lon="15.23729">
        <ele>3.5</ele>
        <time>2018-04-17T08:54:36Z</time>
      </trkpt>
      <trkpt lat="38.81058" lon="15.23807">
        <ele>2.54</ele>
        <time>2018-04-17T08:55:03Z</time>
      </trkpt>
      <trkpt lat="38.81027" lon="15.23866">
        <ele>2.06</ele>
        <time>2018-04-17T08:55:24Z</time>
      </trkpt>
      <trkpt lat="38.80992" lon="15.23943">
        <ele>2.06</ele>
        <time>2018-04-17T08:55:50Z</time>
      </trkpt>
      <trkpt lat="38.80962" lon="15.24006">
        <ele>3.02</ele>
        <time>2018-04-17T08:56:12Z</time>
      </trkpt>
      <trkpt lat="38.80933" lon="15.24071">
        <ele>3.5</ele>
        <time>2018-04-17T08:56:34Z</time>
      </trkpt>
      <trkpt lat="38.80897" lon="15.24139">
        <ele>2.54</ele>
        <time>2018-04-17T08:56:58Z</time>
      </trkpt>
      <trkpt lat="38.80864" lon="15.24189">
        <ele>3.02</ele>
        <time>2018-04-17T08:57:17Z</time>
      </trkpt>
      <trkpt lat="38.80832" lon="15.24241">
        <ele>2.54</ele>
        <time>2018-04-17T08:57:37Z</time>
      </trkpt>
      <trkpt lat="38.80802" lon="15.24296">
        <ele>2.54</ele>
        <time>2018-04-17T08:58:00Z</time>
      </trkpt>
      <trkpt lat="38.80776" lon="15.24353">
        <ele>1.58</ele>
        <time>2018-04-17T08:58:24Z</time>
      </trkpt>
      <trkpt lat="38.80752" lon="15.24401">
        <ele>0.62</ele>
        <time>2018-04-17T08:58:45Z</time>
      </trkpt>
      <trkpt lat="38.80719" lon="15.24461">
        <ele>0.62</ele>
        <time>2018-04-17T08:59:12Z</time>
      </trkpt>
      <trkpt lat="38.8069" lon="15.24516">
        <ele>0.62</ele>
        <time>2018-04-17T08:59:37Z</time>
      </trkpt>
      <trkpt lat="38.80657" lon="15.24568">
        <ele>0.62</ele>
        <time>2018-04-17T09:00:02Z</time>
      </trkpt>
      <trkpt lat="38.80626" lon="15.2461">
        <ele>1.1</ele>
        <time>2018-04-17T09:00:23Z</time>
      </trkpt>
      <trkpt lat="38.80579" lon="15.24646">
        <ele>1.58</ele>
        <time>2018-04-17T09:00:49Z</time>
      </trkpt>
      <trkpt lat="38.80532" lon="15.24655">
        <ele>2.06</ele>
        <time>2018-04-17T09:01:12Z</time>
      </trkpt>
      <trkpt lat="38.80485" lon="15.24639">
        <ele>2.54</ele>
        <time>2018-04-17T09:01:35Z</time>
      </trkpt>
      <trkpt lat="38.80448" lon="15.2462">
        <ele>3.5</ele>
        <time>2018-04-17T09:01:54Z</time>
      </trkpt>
      <trkpt lat="38.80415" lon="15.24597">
        <ele>2.06</ele>
        <time>2018-04-17T09:02:12Z</time>
      </trkpt>
      <trkpt lat="38.8037" lon="15.24571">
        <ele>2.06</ele>
        <time>2018-04-17T09:02:35Z</time>
      </trkpt>
      <trkpt lat="38.80318" lon="15.24567">
        <ele>1.58</ele>
        <time>2018-04-17T09:03:00Z</time>
      </trkpt>
      <trkpt lat="38.80269" lon="15.24568">
        <ele>3.02</ele>
        <time>2018-04-17T09:03:23Z</time>
      </trkpt>
      <trkpt lat="38.80212" lon="15.24562">
        <ele>3.02</ele>
        <time>2018-04-17T09:03:50Z</time>
      </trkpt>
      <trkpt lat="38.80168" lon="15.2455">
        <ele>2.06</ele>
        <time>2018-04-17T09:04:11Z</time>
      </trkpt>
      <trkpt lat="38.80124" lon="15.24522">
        <ele>2.54</ele>
        <time>2018-04-17T09:04:34Z</time>
      </trkpt>
      <trkpt lat="38.8008" lon="15.24484">
        <ele>3.02</ele>
        <time>2018-04-17T09:05:01Z</time>
      </trkpt>
      <trkpt lat="38.80069" lon="15.24448">
        <ele>3.02</ele>
        <time>2018-04-17T09:05:26Z</time>
      </trkpt>
      <trkpt lat="38.80069" lon="15.24427">
        <ele>3.98</ele>
        <time>2018-04-17T09:05:49Z</time>
      </trkpt>
      <trkpt lat="38.80067" lon="15.24413">
        <ele>3.5</ele>
        <time>2018-04-17T09:06:17Z</time>
      </trkpt>
      <trkpt lat="38.80065" lon="15.24407">
        <ele>3.02</ele>
        <time>2018-04-17T09:06:47Z</time>
      </trkpt>
      <trkpt lat="38.80064" lon="15.24402">
        <ele>3.02</ele>
        <time>2018-04-17T09:07:15Z</time>
      </trkpt>
      <trkpt lat="38.80063" lon="15.24399">
        <ele>3.02</ele>
        <time>2018-04-17T09:07:40Z</time>
      </trkpt>
      <trkpt lat="38.80063" lon="15.24397">
        <ele>3.02</ele>
        <time>2018-04-17T09:08:03Z</time>
      </trkpt>
      <trkpt lat="38.80063" lon="15.24395">
        <ele>3.5</ele>
        <time>2018-04-17T09:08:25Z</time>
      </trkpt>
      <trkpt lat="38.80064" lon="15.24396">
        <ele>3.98</ele>
        <time>2018-04-17T09:08:51Z</time>
      </trkpt>
      <trkpt lat="38.80065" lon="15.24403">
        <ele>3.98</ele>
        <time>2018-04-17T09:09:15Z</time>
      </trkpt>
      <trkpt lat="38.80067" lon="15.24411">
        <ele>4.46</ele>
        <time>2018-04-17T09:09:43Z</time>
      </trkpt>
      <trkpt lat="38.80068" lon="15.24416">
        <ele>4.94</ele>
        <time>2018-04-17T09:10:10Z</time>
      </trkpt>
      <trkpt lat="38.80068" lon="15.24419">
        <ele>4.46</ele>
        <time>2018-04-17T09:10:40Z</time>
      </trkpt>
      <trkpt lat="38.80067" lon="15.24417">
        <ele>3.98</ele>
        <time>2018-04-17T09:11:08Z</time>
      </trkpt>
      <trkpt lat="38.80066" lon="15.24413">
        <ele>3.98</ele>
        <time>2018-04-17T09:11:34Z</time>
      </trkpt>
      <trkpt lat="38.80066" lon="15.2441">
        <ele>3.98</ele>
        <time>2018-04-17T09:12:01Z</time>
      </trkpt>
      <trkpt lat="38.80066" lon="15.24409">
        <ele>3.98</ele>
        <time>2018-04-17T09:12:25Z</time>
      </trkpt>
      <trkpt lat="38.80066" lon="15.24408">
        <ele>3.98</ele>
        <time>2018-04-17T09:12:46Z</time>
      </trkpt>
      <trkpt lat="38.80065" lon="15.24408">
        <ele>3.5</ele>
        <time>2018-04-17T09:13:10Z</time>
      </trkpt>
      <trkpt lat="38.80064" lon="15.24408">
        <ele>3.5</ele>
        <time>2018-04-17T09:13:37Z</time>
      </trkpt>
      <trkpt lat="38.80064" lon="15.2441">
        <ele>3.5</ele>
        <time>2018-04-17T09:14:05Z</time>
      </trkpt>
      <trkpt lat="38.80063" lon="15.24412">
        <ele>3.5</ele>
        <time>2018-04-17T09:14:29Z</time>
      </trkpt>
      <trkpt lat="38.80062" lon="15.24414">
        <ele>3.02</ele>
        <time>2018-04-17T09:14:55Z</time>
      </trkpt>
      <trkpt lat="38.80059" lon="15.24416">
        <ele>2.06</ele>
        <time>2018-04-17T09:15:17Z</time>
      </trkpt>
      <trkpt lat="38.80058" lon="15.24416">
        <ele>2.06</ele>
        <time>2018-04-17T09:15:40Z</time>
      </trkpt>
      <trkpt lat="38.80058" lon="15.24416">
        <ele>2.06</ele>
        <time>2018-04-17T09:16:05Z</time>
      </trkpt>
      <trkpt lat="38.80057" lon="15.24414">
        <ele>2.06</ele>
        <time>2018-04-17T09:16:28Z</time>
      </trkpt>
      <trkpt lat="38.80057" lon="15.24412">
        <ele>2.06</ele>
        <time>2018-04-17T09:16:55Z</time>
      </trkpt>
      <trkpt lat="38.80056" lon="15.2441">
        <ele>2.54</ele>
        <time>2018-04-17T09:17:10Z</time>
      </trkpt>
      <trkpt lat="38.80084" lon="15.24236">
        <ele>4.94</ele>
        <time>2018-04-17T11:45:40Z</time>
      </trkpt>
      <trkpt lat="38.80085" lon="15.24234">
        <ele>5.42</ele>
        <time>2018-04-17T11:46:03Z</time>
      </trkpt>
      <trkpt lat="38.80085" lon="15.24234">
        <ele>3.98</ele>
        <time>2018-04-17T11:46:20Z</time>
      </trkpt>
      <trkpt lat="38.80087" lon="15.24233">
        <ele>1.58</ele>
        <time>2018-04-17T11:46:42Z</time>
      </trkpt>
      <trkpt lat="38.80085" lon="15.24235">
        <ele>2.54</ele>
        <time>2018-04-17T11:46:53Z</time>
      </trkpt>
      <trkpt lat="38.80085" lon="15.24236">
        <ele>3.98</ele>
        <time>2018-04-17T11:47:06Z</time>
      </trkpt>
      <trkpt lat="38.80084" lon="15.24235">
        <ele>3.98</ele>
        <time>2018-04-17T11:47:15Z</time>
      </trkpt>
      <trkpt lat="38.80084" lon="15.24236">
        <ele>3.5</ele>
        <time>2018-04-17T11:47:28Z</time>
      </trkpt>
      <trkpt lat="38.80084" lon="15.24236">
        <ele>3.5</ele>
        <time>2018-04-17T11:47:34Z</time>
      </trkpt>
      <trkpt lat="38.80084" lon="15.24233">
        <ele>2.54</ele>
        <time>2018-04-17T11:47:48Z</time>
      </trkpt>
      <trkpt lat="38.80085" lon="15.24232">
        <ele>2.54</ele>
        <time>2018-04-17T11:47:57Z</time>
      </trkpt>
      <trkpt lat="38.80087" lon="15.24222">
        <ele>2.06</ele>
        <time>2018-04-17T11:48:11Z</time>
      </trkpt>
      <trkpt lat="38.80088" lon="15.24219">
        <ele>2.54</ele>
        <time>2018-04-17T11:48:20Z</time>
      </trkpt>
      <trkpt lat="38.80088" lon="15.24222">
        <ele>2.54</ele>
        <time>2018-04-17T11:48:24Z</time>
      </trkpt>
      <trkpt lat="38.80086" lon="15.24219">
        <ele>2.06</ele>
        <time>2018-04-17T11:48:36Z</time>
      </trkpt>
      <trkpt lat="38.80089" lon="15.24216">
        <ele>2.06</ele>
        <time>2018-04-17T11:48:49Z</time>
      </trkpt>
      <trkpt lat="38.80089" lon="15.24215">
        <ele>2.06</ele>
        <time>2018-04-17T11:48:52Z</time>
      </trkpt>
      <trkpt lat="38.80089" lon="15.24205">
        <ele>3.02</ele>
        <time>2018-04-17T11:49:05Z</time>
      </trkpt>
      <trkpt lat="38.8009" lon="15.24193">
        <ele>3.98</ele>
        <time>2018-04-17T11:49:17Z</time>
      </trkpt>
      <trkpt lat="38.8009" lon="15.24184">
        <ele>4.46</ele>
        <time>2018-04-17T11:49:29Z</time>
      </trkpt>
      <trkpt lat="38.80091" lon="15.24176">
        <ele>4.46</ele>
        <time>2018-04-17T11:49:40Z</time>
      </trkpt>
      <trkpt lat="38.80092" lon="15.24173">
        <ele>4.46</ele>
        <time>2018-04-17T11:49:44Z</time>
      </trkpt>
      <trkpt lat="38.80094" lon="15.24172">
        <ele>3.98</ele>
        <time>2018-04-17T11:49:47Z</time>
      </trkpt>
      <trkpt lat="38.80094" lon="15.2416">
        <ele>3.98</ele>
        <time>2018-04-17T11:50:02Z</time>
      </trkpt>
      <trkpt lat="38.80096" lon="15.24159">
        <ele>4.46</ele>
        <time>2018-04-17T11:50:05Z</time>
      </trkpt>
      <trkpt lat="38.80099" lon="15.24157">
        <ele>3.98</ele>
        <time>2018-04-17T11:50:09Z</time>
      </trkpt>
      <trkpt lat="38.80102" lon="15.2415">
        <ele>3.98</ele>
        <time>2018-04-17T11:50:19Z</time>
      </trkpt>
      <trkpt lat="38.80099" lon="15.24141">
        <ele>4.46</ele>
        <time>2018-04-17T11:50:30Z</time>
      </trkpt>
      <trkpt lat="38.80096" lon="15.24131">
        <ele>3.98</ele>
        <time>2018-04-17T11:50:40Z</time>
      </trkpt>
      <trkpt lat="38.801" lon="15.24114">
        <ele>4.94</ele>
        <time>2018-04-17T11:50:55Z</time>
      </trkpt>
      <trkpt lat="38.80098" lon="15.241">
        <ele>4.94</ele>
        <time>2018-04-17T11:51:08Z</time>
      </trkpt>
      <trkpt lat="38.80098" lon="15.24099">
        <ele>5.42</ele>
        <time>2018-04-17T11:51:09Z</time>
      </trkpt>
      <trkpt lat="38.80093" lon="15.24082">
        <ele>6.39</ele>
        <time>2018-04-17T11:51:25Z</time>
      </trkpt>
      <trkpt lat="38.80087" lon="15.24078">
        <ele>5.91</ele>
        <time>2018-04-17T11:51:36Z</time>
      </trkpt>
      <trkpt lat="38.80081" lon="15.24074">
        <ele>5.42</ele>
        <time>2018-04-17T11:51:49Z</time>
      </trkpt>
      <trkpt lat="38.8008" lon="15.24075">
        <ele>5.42</ele>
        <time>2018-04-17T11:52:03Z</time>
      </trkpt>
      <trkpt lat="38.8008" lon="15.24075">
        <ele>5.42</ele>
        <time>2018-04-17T11:52:15Z</time>
      </trkpt>
      <trkpt lat="38.8008" lon="15.24075">
        <ele>5.42</ele>
        <time>2018-04-17T11:52:31Z</time>
      </trkpt>
      <trkpt lat="38.80081" lon="15.24076">
        <ele>4.46</ele>
        <time>2018-04-17T11:52:47Z</time>
      </trkpt>
      <trkpt lat="38.80082" lon="15.24077">
        <ele>4.46</ele>
        <time>2018-04-17T11:53:00Z</time>
      </trkpt>
      <trkpt lat="38.80081" lon="15.24075">
        <ele>4.46</ele>
        <time>2018-04-17T11:53:27Z</time>
      </trkpt>
      <trkpt lat="38.80077" lon="15.24072">
        <ele>4.94</ele>
        <time>2018-04-17T11:53:43Z</time>
      </trkpt>
      <trkpt lat="38.80077" lon="15.24072">
        <ele>4.94</ele>
        <time>2018-04-17T11:53:44Z</time>
      </trkpt>
      <trkpt lat="38.80066" lon="15.24066">
        <ele>5.42</ele>
        <time>2018-04-17T11:53:58Z</time>
      </trkpt>
      <trkpt lat="38.80066" lon="15.24066">
        <ele>5.91</ele>
        <time>2018-04-17T11:53:59Z</time>
      </trkpt>
      <trkpt lat="38.80061" lon="15.24063">
        <ele>5.91</ele>
        <time>2018-04-17T11:54:08Z</time>
      </trkpt>
      <trkpt lat="38.80059" lon="15.24062">
        <ele>6.39</ele>
        <time>2018-04-17T11:54:10Z</time>
      </trkpt>
      <trkpt lat="38.80048" lon="15.24058">
        <ele>6.87</ele>
        <time>2018-04-17T11:54:21Z</time>
      </trkpt>
      <trkpt lat="38.80043" lon="15.2406">
        <ele>5.91</ele>
        <time>2018-04-17T11:54:26Z</time>
      </trkpt>
      <trkpt lat="38.80031" lon="15.24053">
        <ele>5.42</ele>
        <time>2018-04-17T11:54:40Z</time>
      </trkpt>
      <trkpt lat="38.80029" lon="15.24052">
        <ele>5.91</ele>
        <time>2018-04-17T11:54:54Z</time>
      </trkpt>
      <trkpt lat="38.80027" lon="15.24052">
        <ele>5.91</ele>
        <time>2018-04-17T11:55:10Z</time>
      </trkpt>
      <trkpt lat="38.80028" lon="15.24052">
        <ele>5.91</ele>
        <time>2018-04-17T11:55:22Z</time>
      </trkpt>
      <trkpt lat="38.80027" lon="15.24052">
        <ele>5.42</ele>
        <time>2018-04-17T11:55:47Z</time>
      </trkpt>
      <trkpt lat="38.80027" lon="15.24052">
        <ele>5.42</ele>
        <time>2018-04-17T11:56:09Z</time>
      </trkpt>
      <trkpt lat="38.80027" lon="15.24052">
        <ele>5.91</ele>
        <time>2018-04-17T11:56:25Z</time>
      </trkpt>
      <trkpt lat="38.80025" lon="15.24051">
        <ele>5.91</ele>
        <time>2018-04-17T11:56:45Z</time>
      </trkpt>
      <trkpt lat="38.80025" lon="15.24051">
        <ele>5.42</ele>
        <time>2018-04-17T11:56:51Z</time>
      </trkpt>
      <trkpt lat="38.80025" lon="15.24047">
        <ele>5.42</ele>
        <time>2018-04-17T11:56:54Z</time>
      </trkpt>
      <trkpt lat="38.80027" lon="15.24042">
        <ele>4.94</ele>
        <time>2018-04-17T11:56:58Z</time>
      </trkpt>
      <trkpt lat="38.80028" lon="15.24024">
        <ele>4.46</ele>
        <time>2018-04-17T11:57:12Z</time>
      </trkpt>
      <trkpt lat="38.8003" lon="15.24014">
        <ele>7.35</ele>
        <time>2018-04-17T11:57:22Z</time>
      </trkpt>
      <trkpt lat="38.80035" lon="15.23996">
        <ele>11.67</ele>
        <time>2018-04-17T11:57:36Z</time>
      </trkpt>
      <trkpt lat="38.80034" lon="15.2398">
        <ele>13.12</ele>
        <time>2018-04-17T11:57:47Z</time>
      </trkpt>
      <trkpt lat="38.80033" lon="15.23973">
        <ele>12.63</ele>
        <time>2018-04-17T11:57:54Z</time>
      </trkpt>
      <trkpt lat="38.80033" lon="15.23957">
        <ele>13.6</ele>
        <time>2018-04-17T11:58:05Z</time>
      </trkpt>
      <trkpt lat="38.80032" lon="15.2394">
        <ele>15.04</ele>
        <time>2018-04-17T11:58:18Z</time>
      </trkpt>
      <trkpt lat="38.80032" lon="15.23934">
        <ele>15.52</ele>
        <time>2018-04-17T11:58:23Z</time>
      </trkpt>
      <trkpt lat="38.8003" lon="15.23921">
        <ele>16.48</ele>
        <time>2018-04-17T11:58:36Z</time>
      </trkpt>
      <trkpt lat="38.80031" lon="15.23918">
        <ele>16.48</ele>
        <time>2018-04-17T11:58:39Z</time>
      </trkpt>
      <trkpt lat="38.80033" lon="15.23906">
        <ele>18.4</ele>
        <time>2018-04-17T11:58:53Z</time>
      </trkpt>
      <trkpt lat="38.80033" lon="15.23894">
        <ele>19.36</ele>
        <time>2018-04-17T11:59:09Z</time>
      </trkpt>
      <trkpt lat="38.80032" lon="15.23893">
        <ele>19.84</ele>
        <time>2018-04-17T11:59:11Z</time>
      </trkpt>
      <trkpt lat="38.8003" lon="15.23896">
        <ele>21.29</ele>
        <time>2018-04-17T11:59:14Z</time>
      </trkpt>
      <trkpt lat="38.80029" lon="15.23896">
        <ele>22.25</ele>
        <time>2018-04-17T11:59:16Z</time>
      </trkpt>
      <trkpt lat="38.80033" lon="15.23876">
        <ele>27.05</ele>
        <time>2018-04-17T11:59:28Z</time>
      </trkpt>
      <trkpt lat="38.80034" lon="15.23875">
        <ele>27.05</ele>
        <time>2018-04-17T11:59:29Z</time>
      </trkpt>
      <trkpt lat="38.80035" lon="15.23868">
        <ele>26.57</ele>
        <time>2018-04-17T11:59:32Z</time>
      </trkpt>
      <trkpt lat="38.80036" lon="15.23855">
        <ele>25.13</ele>
        <time>2018-04-17T11:59:40Z</time>
      </trkpt>
      <trkpt lat="38.80041" lon="15.23852">
        <ele>26.09</ele>
        <time>2018-04-17T11:59:45Z</time>
      </trkpt>
      <trkpt lat="38.80047" lon="15.23853">
        <ele>26.57</ele>
        <time>2018-04-17T11:59:52Z</time>
      </trkpt>
      <trkpt lat="38.80065" lon="15.23849">
        <ele>31.86</ele>
        <time>2018-04-17T12:00:10Z</time>
      </trkpt>
      <trkpt lat="38.80079" lon="15.23843">
        <ele>31.86</ele>
        <time>2018-04-17T12:00:23Z</time>
      </trkpt>
      <trkpt lat="38.80087" lon="15.23837">
        <ele>30.9</ele>
        <time>2018-04-17T12:00:30Z</time>
      </trkpt>
      <trkpt lat="38.80105" lon="15.23823">
        <ele>29.94</ele>
        <time>2018-04-17T12:00:48Z</time>
      </trkpt>
      <trkpt lat="38.80119" lon="15.2382">
        <ele>31.86</ele>
        <time>2018-04-17T12:01:01Z</time>
      </trkpt>
      <trkpt lat="38.80139" lon="15.23821">
        <ele>32.82</ele>
        <time>2018-04-17T12:01:18Z</time>
      </trkpt>
      <trkpt lat="38.80156" lon="15.23818">
        <ele>34.74</ele>
        <time>2018-04-17T12:01:34Z</time>
      </trkpt>
      <trkpt lat="38.80176" lon="15.23818">
        <ele>38.11</ele>
        <time>2018-04-17T12:01:53Z</time>
      </trkpt>
      <trkpt lat="38.80187" lon="15.23817">
        <ele>40.51</ele>
        <time>2018-04-17T12:02:07Z</time>
      </trkpt>
      <trkpt lat="38.80198" lon="15.23816">
        <ele>44.36</ele>
        <time>2018-04-17T12:02:21Z</time>
      </trkpt>
      <trkpt lat="38.80212" lon="15.23812">
        <ele>48.68</ele>
        <time>2018-04-17T12:02:32Z</time>
      </trkpt>
      <trkpt lat="38.80218" lon="15.23808">
        <ele>54.93</ele>
        <time>2018-04-17T12:02:45Z</time>
      </trkpt>
      <trkpt lat="38.8022" lon="15.23807">
        <ele>55.41</ele>
        <time>2018-04-17T12:02:48Z</time>
      </trkpt>
      <trkpt lat="38.80227" lon="15.23805">
        <ele>56.37</ele>
        <time>2018-04-17T12:03:01Z</time>
      </trkpt>
      <trkpt lat="38.80246" lon="15.23809">
        <ele>55.41</ele>
        <time>2018-04-17T12:03:17Z</time>
      </trkpt>
      <trkpt lat="38.80249" lon="15.23806">
        <ele>59.26</ele>
        <time>2018-04-17T12:03:28Z</time>
      </trkpt>
      <trkpt lat="38.80252" lon="15.23804">
        <ele>60.7</ele>
        <time>2018-04-17T12:03:44Z</time>
      </trkpt>
      <trkpt lat="38.80254" lon="15.23802">
        <ele>61.18</ele>
        <time>2018-04-17T12:03:51Z</time>
      </trkpt>
      <trkpt lat="38.8027" lon="15.23798">
        <ele>59.74</ele>
        <time>2018-04-17T12:04:04Z</time>
      </trkpt>
      <trkpt lat="38.80273" lon="15.23796">
        <ele>60.22</ele>
        <time>2018-04-17T12:04:08Z</time>
      </trkpt>
      <trkpt lat="38.80291" lon="15.238">
        <ele>52.53</ele>
        <time>2018-04-17T12:04:24Z</time>
      </trkpt>
      <trkpt lat="38.80294" lon="15.238">
        <ele>52.05</ele>
        <time>2018-04-17T12:04:37Z</time>
      </trkpt>
      <trkpt lat="38.80298" lon="15.23807">
        <ele>50.61</ele>
        <time>2018-04-17T12:04:49Z</time>
      </trkpt>
      <trkpt lat="38.80304" lon="15.23816">
        <ele>50.61</ele>
        <time>2018-04-17T12:05:00Z</time>
      </trkpt>
      <trkpt lat="38.80305" lon="15.23821">
        <ele>51.09</ele>
        <time>2018-04-17T12:05:13Z</time>
      </trkpt>
      <trkpt lat="38.80304" lon="15.23823">
        <ele>51.09</ele>
        <time>2018-04-17T12:05:28Z</time>
      </trkpt>
      <trkpt lat="38.80301" lon="15.23821">
        <ele>50.61</ele>
        <time>2018-04-17T12:05:37Z</time>
      </trkpt>
      <trkpt lat="38.80307" lon="15.2381">
        <ele>49.65</ele>
        <time>2018-04-17T12:05:47Z</time>
      </trkpt>
      <trkpt lat="38.80313" lon="15.23795">
        <ele>46.76</ele>
        <time>2018-04-17T12:06:01Z</time>
      </trkpt>
      <trkpt lat="38.80314" lon="15.23792">
        <ele>46.28</ele>
        <time>2018-04-17T12:06:21Z</time>
      </trkpt>
      <trkpt lat="38.80315" lon="15.23794">
        <ele>45.32</ele>
        <time>2018-04-17T12:06:44Z</time>
      </trkpt>
      <trkpt lat="38.80315" lon="15.23795">
        <ele>44.84</ele>
        <time>2018-04-17T12:07:01Z</time>
      </trkpt>
      <trkpt lat="38.80314" lon="15.23795">
        <ele>45.32</ele>
        <time>2018-04-17T12:07:31Z</time>
      </trkpt>
      <trkpt lat="38.80314" lon="15.23795">
        <ele>45.8</ele>
        <time>2018-04-17T12:07:59Z</time>
      </trkpt>
      <trkpt lat="38.80313" lon="15.23795">
        <ele>46.76</ele>
        <time>2018-04-17T12:08:35Z</time>
      </trkpt>
      <trkpt lat="38.80313" lon="15.23795">
        <ele>47.72</ele>
        <time>2018-04-17T12:09:05Z</time>
      </trkpt>
      <trkpt lat="38.80313" lon="15.23795">
        <ele>48.2</ele>
        <time>2018-04-17T12:09:38Z</time>
      </trkpt>
      <trkpt lat="38.80314" lon="15.23795">
        <ele>48.68</ele>
        <time>2018-04-17T12:10:16Z</time>
      </trkpt>
      <trkpt lat="38.80314" lon="15.23796">
        <ele>48.68</ele>
        <time>2018-04-17T12:10:34Z</time>
      </trkpt>
      <trkpt lat="38.80315" lon="15.23797">
        <ele>49.65</ele>
        <time>2018-04-17T12:10:58Z</time>
      </trkpt>
      <trkpt lat="38.80315" lon="15.23797">
        <ele>49.65</ele>
        <time>2018-04-17T12:11:19Z</time>
      </trkpt>
      <trkpt lat="38.80315" lon="15.23798">
        <ele>49.65</ele>
        <time>2018-04-17T12:11:35Z</time>
      </trkpt>
      <trkpt lat="38.80315" lon="15.23798">
        <ele>49.65</ele>
        <time>2018-04-17T12:11:49Z</time>
      </trkpt>
      <trkpt lat="38.80315" lon="15.23797">
        <ele>49.65</ele>
        <time>2018-04-17T12:12:05Z</time>
      </trkpt>
      <trkpt lat="38.80314" lon="15.23796">
        <ele>49.65</ele>
        <time>2018-04-17T12:12:34Z</time>
      </trkpt>
      <trkpt lat="38.80313" lon="15.23796">
        <ele>49.65</ele>
        <time>2018-04-17T12:13:13Z</time>
      </trkpt>
      <trkpt lat="38.80312" lon="15.23796">
        <ele>50.13</ele>
        <time>2018-04-17T12:13:45Z</time>
      </trkpt>
      <trkpt lat="38.80312" lon="15.23796">
        <ele>50.13</ele>
        <time>2018-04-17T12:14:17Z</time>
      </trkpt>
      <trkpt lat="38.80313" lon="15.23795">
        <ele>49.65</ele>
        <time>2018-04-17T12:14:36Z</time>
      </trkpt>
      <trkpt lat="38.80313" lon="15.23807">
        <ele>51.09</ele>
        <time>2018-04-17T12:14:48Z</time>
      </trkpt>
      <trkpt lat="38.80308" lon="15.23823">
        <ele>50.61</ele>
        <time>2018-04-17T12:15:03Z</time>
      </trkpt>
      <trkpt lat="38.80309" lon="15.23825">
        <ele>49.65</ele>
        <time>2018-04-17T12:15:16Z</time>
      </trkpt>
      <trkpt lat="38.80309" lon="15.23825">
        <ele>47.72</ele>
        <time>2018-04-17T12:15:41Z</time>
      </trkpt>
      <trkpt lat="38.80309" lon="15.23826">
        <ele>47.24</ele>
        <time>2018-04-17T12:15:52Z</time>
      </trkpt>
      <trkpt lat="38.80309" lon="15.23824">
        <ele>46.76</ele>
        <time>2018-04-17T12:16:17Z</time>
      </trkpt>
      <trkpt lat="38.80309" lon="15.23821">
        <ele>46.76</ele>
        <time>2018-04-17T12:16:20Z</time>
      </trkpt>
      <trkpt lat="38.80312" lon="15.23817">
        <ele>46.76</ele>
        <time>2018-04-17T12:16:24Z</time>
      </trkpt>
      <trkpt lat="38.80318" lon="15.2382">
        <ele>47.24</ele>
        <time>2018-04-17T12:16:37Z</time>
      </trkpt>
      <trkpt lat="38.80319" lon="15.2382">
        <ele>48.2</ele>
        <time>2018-04-17T12:16:52Z</time>
      </trkpt>
      <trkpt lat="38.80321" lon="15.23821">
        <ele>49.16</ele>
        <time>2018-04-17T12:17:05Z</time>
      </trkpt>
      <trkpt lat="38.80321" lon="15.2382">
        <ele>49.16</ele>
        <time>2018-04-17T12:17:25Z</time>
      </trkpt>
      <trkpt lat="38.80322" lon="15.23823">
        <ele>49.16</ele>
        <time>2018-04-17T12:17:46Z</time>
      </trkpt>
      <trkpt lat="38.80323" lon="15.23823">
        <ele>49.16</ele>
        <time>2018-04-17T12:18:08Z</time>
      </trkpt>
      <trkpt lat="38.80323" lon="15.23823">
        <ele>49.16</ele>
        <time>2018-04-17T12:18:27Z</time>
      </trkpt>
      <trkpt lat="38.80323" lon="15.23824">
        <ele>48.68</ele>
        <time>2018-04-17T12:18:44Z</time>
      </trkpt>
      <trkpt lat="38.80324" lon="15.23825">
        <ele>48.2</ele>
        <time>2018-04-17T12:19:08Z</time>
      </trkpt>
      <trkpt lat="38.80325" lon="15.23824">
        <ele>48.2</ele>
        <time>2018-04-17T12:19:35Z</time>
      </trkpt>
      <trkpt lat="38.80324" lon="15.23824">
        <ele>47.72</ele>
        <time>2018-04-17T12:19:58Z</time>
      </trkpt>
      <trkpt lat="38.80324" lon="15.23824">
        <ele>47.72</ele>
        <time>2018-04-17T12:20:24Z</time>
      </trkpt>
      <trkpt lat="38.80324" lon="15.23824">
        <ele>47.24</ele>
        <time>2018-04-17T12:20:48Z</time>
      </trkpt>
      <trkpt lat="38.80324" lon="15.23824">
        <ele>47.24</ele>
        <time>2018-04-17T12:21:14Z</time>
      </trkpt>
      <trkpt lat="38.80324" lon="15.23824">
        <ele>47.24</ele>
        <time>2018-04-17T12:21:39Z</time>
      </trkpt>
      <trkpt lat="38.80324" lon="15.23826">
        <ele>48.68</ele>
        <time>2018-04-17T12:22:01Z</time>
      </trkpt>
      <trkpt lat="38.80327" lon="15.23829">
        <ele>48.2</ele>
        <time>2018-04-17T12:22:12Z</time>
      </trkpt>
      <trkpt lat="38.80321" lon="15.23828">
        <ele>50.61</ele>
        <time>2018-04-17T12:22:28Z</time>
      </trkpt>
      <trkpt lat="38.8032" lon="15.23827">
        <ele>49.65</ele>
        <time>2018-04-17T12:22:48Z</time>
      </trkpt>
      <trkpt lat="38.80319" lon="15.23826">
        <ele>49.16</ele>
        <time>2018-04-17T12:23:10Z</time>
      </trkpt>
      <trkpt lat="38.80318" lon="15.23826">
        <ele>48.2</ele>
        <time>2018-04-17T12:23:28Z</time>
      </trkpt>
      <trkpt lat="38.80318" lon="15.23826">
        <ele>48.68</ele>
        <time>2018-04-17T12:24:11Z</time>
      </trkpt>
      <trkpt lat="38.80319" lon="15.23825">
        <ele>48.2</ele>
        <time>2018-04-17T12:24:49Z</time>
      </trkpt>
      <trkpt lat="38.80319" lon="15.23825">
        <ele>48.2</ele>
        <time>2018-04-17T12:25:33Z</time>
      </trkpt>
      <trkpt lat="38.80318" lon="15.23825">
        <ele>47.72</ele>
        <time>2018-04-17T12:26:07Z</time>
      </trkpt>
      <trkpt lat="38.80318" lon="15.23825">
        <ele>47.24</ele>
        <time>2018-04-17T12:26:38Z</time>
      </trkpt>
      <trkpt lat="38.80318" lon="15.23825">
        <ele>47.24</ele>
        <time>2018-04-17T12:27:06Z</time>
      </trkpt>
      <trkpt lat="38.80319" lon="15.23825">
        <ele>47.72</ele>
        <time>2018-04-17T12:27:48Z</time>
      </trkpt>
      <trkpt lat="38.80319" lon="15.23826">
        <ele>48.2</ele>
        <time>2018-04-17T12:28:23Z</time>
      </trkpt>
      <trkpt lat="38.80318" lon="15.23827">
        <ele>47.72</ele>
        <time>2018-04-17T12:29:06Z</time>
      </trkpt>
      <trkpt lat="38.80318" lon="15.23827">
        <ele>47.72</ele>
        <time>2018-04-17T12:29:49Z</time>
      </trkpt>
      <trkpt lat="38.80318" lon="15.23827">
        <ele>46.76</ele>
        <time>2018-04-17T12:30:27Z</time>
      </trkpt>
      <trkpt lat="38.80318" lon="15.23827">
        <ele>46.76</ele>
        <time>2018-04-17T12:30:59Z</time>
      </trkpt>
      <trkpt lat="38.80318" lon="15.23826">
        <ele>47.72</ele>
        <time>2018-04-17T12:31:38Z</time>
      </trkpt>
      <trkpt lat="38.80318" lon="15.23825">
        <ele>47.72</ele>
        <time>2018-04-17T12:32:14Z</time>
      </trkpt>
      <trkpt lat="38.80318" lon="15.23825">
        <ele>47.24</ele>
        <time>2018-04-17T12:32:56Z</time>
      </trkpt>
      <trkpt lat="38.80318" lon="15.23825">
        <ele>47.24</ele>
        <time>2018-04-17T12:33:33Z</time>
      </trkpt>
      <trkpt lat="38.80318" lon="15.23825">
        <ele>47.24</ele>
        <time>2018-04-17T12:34:18Z</time>
      </trkpt>
      <trkpt lat="38.80317" lon="15.23824">
        <ele>47.72</ele>
        <time>2018-04-17T12:34:48Z</time>
      </trkpt>
      <trkpt lat="38.80317" lon="15.23824">
        <ele>48.2</ele>
        <time>2018-04-17T12:35:24Z</time>
      </trkpt>
      <trkpt lat="38.80317" lon="15.23823">
        <ele>48.2</ele>
        <time>2018-04-17T12:36:03Z</time>
      </trkpt>
      <trkpt lat="38.80317" lon="15.23823">
        <ele>48.2</ele>
        <time>2018-04-17T12:36:38Z</time>
      </trkpt>
      <trkpt lat="38.80317" lon="15.23823">
        <ele>48.2</ele>
        <time>2018-04-17T12:37:06Z</time>
      </trkpt>
      <trkpt lat="38.80317" lon="15.23823">
        <ele>48.68</ele>
        <time>2018-04-17T12:37:40Z</time>
      </trkpt>
      <trkpt lat="38.80318" lon="15.23823">
        <ele>48.2</ele>
        <time>2018-04-17T12:38:14Z</time>
      </trkpt>
      <trkpt lat="38.80318" lon="15.23824">
        <ele>48.2</ele>
        <time>2018-04-17T12:39:05Z</time>
      </trkpt>
      <trkpt lat="38.80318" lon="15.23823">
        <ele>48.68</ele>
        <time>2018-04-17T12:39:41Z</time>
      </trkpt>
      <trkpt lat="38.80317" lon="15.23824">
        <ele>48.2</ele>
        <time>2018-04-17T12:40:19Z</time>
      </trkpt>
      <trkpt lat="38.80317" lon="15.23824">
        <ele>48.2</ele>
        <time>2018-04-17T12:41:01Z</time>
      </trkpt>
      <trkpt lat="38.80317" lon="15.23823">
        <ele>48.2</ele>
        <time>2018-04-17T12:41:44Z</time>
      </trkpt>
      <trkpt lat="38.80317" lon="15.23822">
        <ele>47.72</ele>
        <time>2018-04-17T12:42:20Z</time>
      </trkpt>
      <trkpt lat="38.80317" lon="15.23822">
        <ele>47.72</ele>
        <time>2018-04-17T12:42:52Z</time>
      </trkpt>
      <trkpt lat="38.80318" lon="15.23822">
        <ele>47.24</ele>
        <time>2018-04-17T12:43:23Z</time>
      </trkpt>
      <trkpt lat="38.80317" lon="15.23823">
        <ele>47.24</ele>
        <time>2018-04-17T12:43:45Z</time>
      </trkpt>
      <trkpt lat="38.80317" lon="15.23823">
        <ele>47.24</ele>
        <time>2018-04-17T12:44:24Z</time>
      </trkpt>
      <trkpt lat="38.80317" lon="15.23824">
        <ele>47.72</ele>
        <time>2018-04-17T12:44:59Z</time>
      </trkpt>
      <trkpt lat="38.80316" lon="15.23824">
        <ele>47.24</ele>
        <time>2018-04-17T12:45:33Z</time>
      </trkpt>
      <trkpt lat="38.80316" lon="15.23824">
        <ele>46.76</ele>
        <time>2018-04-17T12:46:01Z</time>
      </trkpt>
      <trkpt lat="38.80315" lon="15.23823">
        <ele>46.76</ele>
        <time>2018-04-17T12:46:31Z</time>
      </trkpt>
      <trkpt lat="38.80316" lon="15.23823">
        <ele>46.28</ele>
        <time>2018-04-17T12:47:01Z</time>
      </trkpt>
      <trkpt lat="38.80316" lon="15.23823">
        <ele>46.28</ele>
        <time>2018-04-17T12:47:25Z</time>
      </trkpt>
      <trkpt lat="38.80317" lon="15.23823">
        <ele>46.28</ele>
        <time>2018-04-17T12:47:47Z</time>
      </trkpt>
      <trkpt lat="38.80316" lon="15.23822">
        <ele>46.76</ele>
        <time>2018-04-17T12:47:57Z</time>
      </trkpt>
      <trkpt lat="38.80314" lon="15.23818">
        <ele>46.76</ele>
        <time>2018-04-17T12:48:08Z</time>
      </trkpt>
      <trkpt lat="38.80314" lon="15.23816">
        <ele>46.76</ele>
        <time>2018-04-17T12:48:21Z</time>
      </trkpt>
      <trkpt lat="38.80313" lon="15.23816">
        <ele>46.28</ele>
        <time>2018-04-17T12:48:36Z</time>
      </trkpt>
      <trkpt lat="38.80313" lon="15.23814">
        <ele>46.28</ele>
        <time>2018-04-17T12:48:55Z</time>
      </trkpt>
      <trkpt lat="38.80313" lon="15.23813">
        <ele>45.8</ele>
        <time>2018-04-17T12:49:09Z</time>
      </trkpt>
      <trkpt lat="38.80313" lon="15.23813">
        <ele>46.76</ele>
        <time>2018-04-17T12:49:30Z</time>
      </trkpt>
      <trkpt lat="38.80313" lon="15.23812">
        <ele>46.76</ele>
        <time>2018-04-17T12:49:50Z</time>
      </trkpt>
      <trkpt lat="38.80312" lon="15.23812">
        <ele>45.8</ele>
        <time>2018-04-17T12:50:11Z</time>
      </trkpt>
      <trkpt lat="38.80312" lon="15.23812">
        <ele>45.32</ele>
        <time>2018-04-17T12:50:23Z</time>
      </trkpt>
      <trkpt lat="38.80312" lon="15.23812">
        <ele>45.8</ele>
        <time>2018-04-17T12:50:41Z</time>
      </trkpt>
      <trkpt lat="38.80312" lon="15.23812">
        <ele>46.28</ele>
        <time>2018-04-17T12:51:02Z</time>
      </trkpt>
      <trkpt lat="38.80312" lon="15.2381">
        <ele>47.24</ele>
        <time>2018-04-17T12:51:26Z</time>
      </trkpt>
      <trkpt lat="38.80312" lon="15.23808">
        <ele>48.68</ele>
        <time>2018-04-17T12:51:51Z</time>
      </trkpt>
      <trkpt lat="38.80312" lon="15.23808">
        <ele>49.65</ele>
        <time>2018-04-17T12:52:10Z</time>
      </trkpt>
      <trkpt lat="38.80313" lon="15.2381">
        <ele>49.16</ele>
        <time>2018-04-17T12:52:32Z</time>
      </trkpt>
      <trkpt lat="38.80313" lon="15.23811">
        <ele>48.2</ele>
        <time>2018-04-17T12:52:49Z</time>
      </trkpt>
      <trkpt lat="38.80312" lon="15.23812">
        <ele>48.68</ele>
        <time>2018-04-17T12:53:02Z</time>
      </trkpt>
      <trkpt lat="38.80311" lon="15.23812">
        <ele>48.68</ele>
        <time>2018-04-17T12:53:23Z</time>
      </trkpt>
      <trkpt lat="38.8031" lon="15.23813">
        <ele>48.68</ele>
        <time>2018-04-17T12:53:42Z</time>
      </trkpt>
      <trkpt lat="38.8031" lon="15.23813">
        <ele>48.68</ele>
        <time>2018-04-17T12:53:51Z</time>
      </trkpt>
      <trkpt lat="38.80309" lon="15.23813">
        <ele>50.13</ele>
        <time>2018-04-17T12:54:18Z</time>
      </trkpt>
      <trkpt lat="38.80311" lon="15.23813">
        <ele>49.65</ele>
        <time>2018-04-17T12:54:30Z</time>
      </trkpt>
      <trkpt lat="38.8031" lon="15.23812">
        <ele>49.65</ele>
        <time>2018-04-17T12:54:41Z</time>
      </trkpt>
      <trkpt lat="38.80311" lon="15.23812">
        <ele>49.16</ele>
        <time>2018-04-17T12:54:54Z</time>
      </trkpt>
      <trkpt lat="38.80311" lon="15.23812">
        <ele>47.24</ele>
        <time>2018-04-17T12:55:17Z</time>
      </trkpt>
      <trkpt lat="38.80312" lon="15.23811">
        <ele>47.24</ele>
        <time>2018-04-17T12:55:19Z</time>
      </trkpt>
      <trkpt lat="38.80313" lon="15.23811">
        <ele>48.2</ele>
        <time>2018-04-17T12:55:30Z</time>
      </trkpt>
      <trkpt lat="38.80316" lon="15.23812">
        <ele>49.16</ele>
        <time>2018-04-17T12:55:39Z</time>
      </trkpt>
      <trkpt lat="38.80315" lon="15.23811">
        <ele>49.16</ele>
        <time>2018-04-17T12:55:41Z</time>
      </trkpt>
      <trkpt lat="38.80316" lon="15.23807">
        <ele>49.65</ele>
        <time>2018-04-17T12:55:44Z</time>
      </trkpt>
      <trkpt lat="38.80317" lon="15.23802">
        <ele>48.2</ele>
        <time>2018-04-17T12:56:01Z</time>
      </trkpt>
      <trkpt lat="38.80317" lon="15.23802">
        <ele>47.72</ele>
        <time>2018-04-17T12:56:26Z</time>
      </trkpt>
      <trkpt lat="38.80313" lon="15.23809">
        <ele>48.2</ele>
        <time>2018-04-17T12:56:36Z</time>
      </trkpt>
      <trkpt lat="38.80312" lon="15.23813">
        <ele>48.68</ele>
        <time>2018-04-17T12:56:44Z</time>
      </trkpt>
      <trkpt lat="38.8031" lon="15.23812">
        <ele>49.16</ele>
        <time>2018-04-17T12:56:55Z</time>
      </trkpt>
      <trkpt lat="38.80311" lon="15.23811">
        <ele>49.65</ele>
        <time>2018-04-17T12:56:59Z</time>
      </trkpt>
      <trkpt lat="38.80313" lon="15.23807">
        <ele>49.65</ele>
        <time>2018-04-17T12:57:03Z</time>
      </trkpt>
      <trkpt lat="38.80314" lon="15.23799">
        <ele>49.65</ele>
        <time>2018-04-17T12:57:11Z</time>
      </trkpt>
      <trkpt lat="38.80313" lon="15.23798">
        <ele>49.65</ele>
        <time>2018-04-17T12:57:22Z</time>
      </trkpt>
      <trkpt lat="38.80312" lon="15.23799">
        <ele>48.68</ele>
        <time>2018-04-17T12:57:36Z</time>
      </trkpt>
      <trkpt lat="38.80312" lon="15.238">
        <ele>48.2</ele>
        <time>2018-04-17T12:57:56Z</time>
      </trkpt>
      <trkpt lat="38.80315" lon="15.238">
        <ele>47.72</ele>
        <time>2018-04-17T12:58:07Z</time>
      </trkpt>
      <trkpt lat="38.80314" lon="15.23794">
        <ele>50.61</ele>
        <time>2018-04-17T12:58:19Z</time>
      </trkpt>
      <trkpt lat="38.80313" lon="15.23793">
        <ele>51.57</ele>
        <time>2018-04-17T12:58:23Z</time>
      </trkpt>
      <trkpt lat="38.80314" lon="15.23793">
        <ele>53.01</ele>
        <time>2018-04-17T12:58:34Z</time>
      </trkpt>
      <trkpt lat="38.80313" lon="15.23793">
        <ele>52.53</ele>
        <time>2018-04-17T12:58:42Z</time>
      </trkpt>
      <trkpt lat="38.80313" lon="15.23794">
        <ele>51.09</ele>
        <time>2018-04-17T12:58:56Z</time>
      </trkpt>
      <trkpt lat="38.8031" lon="15.2379">
        <ele>50.13</ele>
        <time>2018-04-17T12:59:06Z</time>
      </trkpt>
      <trkpt lat="38.80305" lon="15.23795">
        <ele>50.61</ele>
        <time>2018-04-17T12:59:17Z</time>
      </trkpt>
      <trkpt lat="38.80304" lon="15.23798">
        <ele>50.61</ele>
        <time>2018-04-17T12:59:20Z</time>
      </trkpt>
      <trkpt lat="38.80303" lon="15.238">
        <ele>50.13</ele>
        <time>2018-04-17T12:59:22Z</time>
      </trkpt>
      <trkpt lat="38.80296" lon="15.23807">
        <ele>49.65</ele>
        <time>2018-04-17T12:59:33Z</time>
      </trkpt>
      <trkpt lat="38.80296" lon="15.23807">
        <ele>49.65</ele>
        <time>2018-04-17T12:59:34Z</time>
      </trkpt>
      <trkpt lat="38.80284" lon="15.23796">
        <ele>50.13</ele>
        <time>2018-04-17T12:59:51Z</time>
      </trkpt>
      <trkpt lat="38.8028" lon="15.23795">
        <ele>51.57</ele>
        <time>2018-04-17T12:59:57Z</time>
      </trkpt>
      <trkpt lat="38.80276" lon="15.23786">
        <ele>52.53</ele>
        <time>2018-04-17T13:00:11Z</time>
      </trkpt>
      <trkpt lat="38.8027" lon="15.23773">
        <ele>55.41</ele>
        <time>2018-04-17T13:00:26Z</time>
      </trkpt>
      <trkpt lat="38.80267" lon="15.23759">
        <ele>59.74</ele>
        <time>2018-04-17T13:00:42Z</time>
      </trkpt>
      <trkpt lat="38.80265" lon="15.23742">
        <ele>60.7</ele>
        <time>2018-04-17T13:00:58Z</time>
      </trkpt>
      <trkpt lat="38.80263" lon="15.23728">
        <ele>61.18</ele>
        <time>2018-04-17T13:01:11Z</time>
      </trkpt>
      <trkpt lat="38.80263" lon="15.23726">
        <ele>61.18</ele>
        <time>2018-04-17T13:01:13Z</time>
      </trkpt>
      <trkpt lat="38.80266" lon="15.23711">
        <ele>61.66</ele>
        <time>2018-04-17T13:01:23Z</time>
      </trkpt>
      <trkpt lat="38.80265" lon="15.2371">
        <ele>62.14</ele>
        <time>2018-04-17T13:01:24Z</time>
      </trkpt>
      <trkpt lat="38.80262" lon="15.23708">
        <ele>62.62</ele>
        <time>2018-04-17T13:01:26Z</time>
      </trkpt>
      <trkpt lat="38.80259" lon="15.23705">
        <ele>63.58</ele>
        <time>2018-04-17T13:01:29Z</time>
      </trkpt>
      <trkpt lat="38.8025" lon="15.23688">
        <ele>62.62</ele>
        <time>2018-04-17T13:01:45Z</time>
      </trkpt>
      <trkpt lat="38.80241" lon="15.23677">
        <ele>63.1</ele>
        <time>2018-04-17T13:01:58Z</time>
      </trkpt>
      <trkpt lat="38.80239" lon="15.23667">
        <ele>61.66</ele>
        <time>2018-04-17T13:02:18Z</time>
      </trkpt>
      <trkpt lat="38.80237" lon="15.23661">
        <ele>62.14</ele>
        <time>2018-04-17T13:02:22Z</time>
      </trkpt>
      <trkpt lat="38.80228" lon="15.23641">
        <ele>64.55</ele>
        <time>2018-04-17T13:02:38Z</time>
      </trkpt>
      <trkpt lat="38.80223" lon="15.23629">
        <ele>64.55</ele>
        <time>2018-04-17T13:02:47Z</time>
      </trkpt>
      <trkpt lat="38.80215" lon="15.23611">
        <ele>66.47</ele>
        <time>2018-04-17T13:03:03Z</time>
      </trkpt>
      <trkpt lat="38.80208" lon="15.23595">
        <ele>66.47</ele>
        <time>2018-04-17T13:03:16Z</time>
      </trkpt>
      <trkpt lat="38.80202" lon="15.23578">
        <ele>65.99</ele>
        <time>2018-04-17T13:03:29Z</time>
      </trkpt>
      <trkpt lat="38.80195" lon="15.23559">
        <ele>67.43</ele>
        <time>2018-04-17T13:03:45Z</time>
      </trkpt>
      <trkpt lat="38.80188" lon="15.2354">
        <ele>70.31</ele>
        <time>2018-04-17T13:04:01Z</time>
      </trkpt>
      <trkpt lat="38.80183" lon="15.23531">
        <ele>72.24</ele>
        <time>2018-04-17T13:04:12Z</time>
      </trkpt>
      <trkpt lat="38.80178" lon="15.23515">
        <ele>77.52</ele>
        <time>2018-04-17T13:04:27Z</time>
      </trkpt>
      <trkpt lat="38.80176" lon="15.23509">
        <ele>78.97</ele>
        <time>2018-04-17T13:04:32Z</time>
      </trkpt>
      <trkpt lat="38.80168" lon="15.2349">
        <ele>78</ele>
        <time>2018-04-17T13:04:47Z</time>
      </trkpt>
      <trkpt lat="38.80162" lon="15.23477">
        <ele>78.48</ele>
        <time>2018-04-17T13:05:00Z</time>
      </trkpt>
      <trkpt lat="38.80155" lon="15.23462">
        <ele>79.45</ele>
        <time>2018-04-17T13:05:16Z</time>
      </trkpt>
      <trkpt lat="38.80151" lon="15.23451">
        <ele>81.37</ele>
        <time>2018-04-17T13:05:28Z</time>
      </trkpt>
      <trkpt lat="38.80147" lon="15.23439">
        <ele>82.81</ele>
        <time>2018-04-17T13:05:42Z</time>
      </trkpt>
      <trkpt lat="38.80143" lon="15.23428">
        <ele>84.25</ele>
        <time>2018-04-17T13:05:56Z</time>
      </trkpt>
      <trkpt lat="38.80138" lon="15.23413">
        <ele>86.18</ele>
        <time>2018-04-17T13:06:10Z</time>
      </trkpt>
      <trkpt lat="38.80133" lon="15.23398">
        <ele>88.1</ele>
        <time>2018-04-17T13:06:25Z</time>
      </trkpt>
      <trkpt lat="38.80128" lon="15.23383">
        <ele>90.02</ele>
        <time>2018-04-17T13:06:39Z</time>
      </trkpt>
      <trkpt lat="38.80127" lon="15.23382">
        <ele>90.02</ele>
        <time>2018-04-17T13:06:40Z</time>
      </trkpt>
      <trkpt lat="38.80126" lon="15.23367">
        <ele>90.98</ele>
        <time>2018-04-17T13:06:53Z</time>
      </trkpt>
      <trkpt lat="38.80128" lon="15.23355">
        <ele>92.42</ele>
        <time>2018-04-17T13:07:09Z</time>
      </trkpt>
      <trkpt lat="38.8013" lon="15.23355">
        <ele>92.42</ele>
        <time>2018-04-17T13:07:26Z</time>
      </trkpt>
      <trkpt lat="38.8013" lon="15.23354">
        <ele>90.98</ele>
        <time>2018-04-17T13:07:54Z</time>
      </trkpt>
      <trkpt lat="38.8013" lon="15.23354">
        <ele>90.98</ele>
        <time>2018-04-17T13:08:19Z</time>
      </trkpt>
      <trkpt lat="38.8013" lon="15.23355">
        <ele>90.98</ele>
        <time>2018-04-17T13:08:38Z</time>
      </trkpt>
      <trkpt lat="38.8013" lon="15.23355">
        <ele>90.02</ele>
        <time>2018-04-17T13:08:58Z</time>
      </trkpt>
      <trkpt lat="38.80129" lon="15.23354">
        <ele>90.02</ele>
        <time>2018-04-17T13:09:12Z</time>
      </trkpt>
      <trkpt lat="38.80128" lon="15.23354">
        <ele>90.02</ele>
        <time>2018-04-17T13:09:28Z</time>
      </trkpt>
      <trkpt lat="38.80128" lon="15.23354">
        <ele>89.06</ele>
        <time>2018-04-17T13:09:47Z</time>
      </trkpt>
      <trkpt lat="38.80129" lon="15.23346">
        <ele>90.98</ele>
        <time>2018-04-17T13:10:03Z</time>
      </trkpt>
      <trkpt lat="38.80128" lon="15.23344">
        <ele>91.46</ele>
        <time>2018-04-17T13:10:06Z</time>
      </trkpt>
      <trkpt lat="38.80128" lon="15.23342">
        <ele>90.02</ele>
        <time>2018-04-17T13:10:13Z</time>
      </trkpt>
      <trkpt lat="38.80126" lon="15.23336">
        <ele>90.98</ele>
        <time>2018-04-17T13:10:24Z</time>
      </trkpt>
      <trkpt lat="38.80126" lon="15.23335">
        <ele>90.98</ele>
        <time>2018-04-17T13:10:37Z</time>
      </trkpt>
      <trkpt lat="38.80125" lon="15.23333">
        <ele>91.94</ele>
        <time>2018-04-17T13:10:52Z</time>
      </trkpt>
      <trkpt lat="38.80126" lon="15.23331">
        <ele>93.39</ele>
        <time>2018-04-17T13:11:05Z</time>
      </trkpt>
      <trkpt lat="38.80126" lon="15.23331">
        <ele>93.87</ele>
        <time>2018-04-17T13:11:19Z</time>
      </trkpt>
      <trkpt lat="38.80126" lon="15.23333">
        <ele>93.39</ele>
        <time>2018-04-17T13:11:21Z</time>
      </trkpt>
      <trkpt lat="38.80125" lon="15.23334">
        <ele>92.9</ele>
        <time>2018-04-17T13:11:37Z</time>
      </trkpt>
      <trkpt lat="38.80126" lon="15.23333">
        <ele>93.39</ele>
        <time>2018-04-17T13:11:54Z</time>
      </trkpt>
      <trkpt lat="38.80125" lon="15.23328">
        <ele>94.83</ele>
        <time>2018-04-17T13:11:58Z</time>
      </trkpt>
      <trkpt lat="38.80125" lon="15.23327">
        <ele>95.31</ele>
        <time>2018-04-17T13:12:04Z</time>
      </trkpt>
      <trkpt lat="38.80125" lon="15.23318">
        <ele>97.71</ele>
        <time>2018-04-17T13:12:11Z</time>
      </trkpt>
      <trkpt lat="38.80119" lon="15.233">
        <ele>100.11</ele>
        <time>2018-04-17T13:12:25Z</time>
      </trkpt>
      <trkpt lat="38.80116" lon="15.23293">
        <ele>101.56</ele>
        <time>2018-04-17T13:12:31Z</time>
      </trkpt>
      <trkpt lat="38.80107" lon="15.23277">
        <ele>103</ele>
        <time>2018-04-17T13:12:45Z</time>
      </trkpt>
      <trkpt lat="38.80101" lon="15.23264">
        <ele>106.36</ele>
        <time>2018-04-17T13:12:57Z</time>
      </trkpt>
      <trkpt lat="38.80097" lon="15.23256">
        <ele>107.32</ele>
        <time>2018-04-17T13:13:06Z</time>
      </trkpt>
      <trkpt lat="38.80091" lon="15.23243">
        <ele>107.81</ele>
        <time>2018-04-17T13:13:17Z</time>
      </trkpt>
      <trkpt lat="38.80091" lon="15.23235">
        <ele>108.29</ele>
        <time>2018-04-17T13:13:29Z</time>
      </trkpt>
      <trkpt lat="38.8009" lon="15.23234">
        <ele>107.81</ele>
        <time>2018-04-17T13:13:42Z</time>
      </trkpt>
      <trkpt lat="38.80086" lon="15.23229">
        <ele>109.25</ele>
        <time>2018-04-17T13:14:00Z</time>
      </trkpt>
      <trkpt lat="38.80084" lon="15.23224">
        <ele>110.69</ele>
        <time>2018-04-17T13:14:09Z</time>
      </trkpt>
      <trkpt lat="38.80086" lon="15.23218">
        <ele>113.57</ele>
        <time>2018-04-17T13:14:19Z</time>
      </trkpt>
      <trkpt lat="38.80087" lon="15.23217">
        <ele>114.05</ele>
        <time>2018-04-17T13:14:20Z</time>
      </trkpt>
      <trkpt lat="38.80093" lon="15.23212">
        <ele>115.98</ele>
        <time>2018-04-17T13:14:27Z</time>
      </trkpt>
      <trkpt lat="38.80097" lon="15.23205">
        <ele>115.5</ele>
        <time>2018-04-17T13:14:33Z</time>
      </trkpt>
      <trkpt lat="38.80101" lon="15.23201">
        <ele>116.46</ele>
        <time>2018-04-17T13:14:38Z</time>
      </trkpt>
      <trkpt lat="38.80102" lon="15.23195">
        <ele>117.42</ele>
        <time>2018-04-17T13:14:45Z</time>
      </trkpt>
      <trkpt lat="38.80103" lon="15.23186">
        <ele>120.78</ele>
        <time>2018-04-17T13:14:57Z</time>
      </trkpt>
      <trkpt lat="38.80107" lon="15.23183">
        <ele>121.74</ele>
        <time>2018-04-17T13:15:03Z</time>
      </trkpt>
      <trkpt lat="38.8011" lon="15.2318">
        <ele>122.22</ele>
        <time>2018-04-17T13:15:07Z</time>
      </trkpt>
      <trkpt lat="38.80123" lon="15.23179">
        <ele>121.74</ele>
        <time>2018-04-17T13:15:19Z</time>
      </trkpt>
      <trkpt lat="38.80128" lon="15.23172">
        <ele>122.71</ele>
        <time>2018-04-17T13:15:28Z</time>
      </trkpt>
      <trkpt lat="38.80129" lon="15.2317">
        <ele>123.19</ele>
        <time>2018-04-17T13:15:30Z</time>
      </trkpt>
      <trkpt lat="38.80145" lon="15.23161">
        <ele>127.03</ele>
        <time>2018-04-17T13:15:45Z</time>
      </trkpt>
      <trkpt lat="38.80161" lon="15.23146">
        <ele>125.59</ele>
        <time>2018-04-17T13:16:00Z</time>
      </trkpt>
      <trkpt lat="38.80176" lon="15.23133">
        <ele>126.07</ele>
        <time>2018-04-17T13:16:14Z</time>
      </trkpt>
      <trkpt lat="38.80184" lon="15.23124">
        <ele>127.03</ele>
        <time>2018-04-17T13:16:23Z</time>
      </trkpt>
      <trkpt lat="38.80187" lon="15.23101">
        <ele>127.51</ele>
        <time>2018-04-17T13:16:38Z</time>
      </trkpt>
      <trkpt lat="38.80197" lon="15.2308">
        <ele>126.07</ele>
        <time>2018-04-17T13:16:53Z</time>
      </trkpt>
      <trkpt lat="38.80209" lon="15.2307">
        <ele>126.55</ele>
        <time>2018-04-17T13:17:04Z</time>
      </trkpt>
      <trkpt lat="38.80228" lon="15.23068">
        <ele>127.99</ele>
        <time>2018-04-17T13:17:20Z</time>
      </trkpt>
      <trkpt lat="38.80238" lon="15.23067">
        <ele>128.47</ele>
        <time>2018-04-17T13:17:33Z</time>
      </trkpt>
      <trkpt lat="38.80238" lon="15.23068">
        <ele>123.67</ele>
        <time>2018-04-17T13:17:44Z</time>
      </trkpt>
      <trkpt lat="38.8023" lon="15.23057">
        <ele>123.67</ele>
        <time>2018-04-17T13:17:56Z</time>
      </trkpt>
      <trkpt lat="38.80242" lon="15.23048">
        <ele>126.55</ele>
        <time>2018-04-17T13:18:09Z</time>
      </trkpt>
      <trkpt lat="38.80245" lon="15.23046">
        <ele>126.55</ele>
        <time>2018-04-17T13:18:11Z</time>
      </trkpt>
      <trkpt lat="38.80249" lon="15.23034">
        <ele>128.95</ele>
        <time>2018-04-17T13:18:20Z</time>
      </trkpt>
      <trkpt lat="38.80247" lon="15.23027">
        <ele>129.92</ele>
        <time>2018-04-17T13:18:25Z</time>
      </trkpt>
      <trkpt lat="38.80246" lon="15.23023">
        <ele>130.4</ele>
        <time>2018-04-17T13:18:28Z</time>
      </trkpt>
      <trkpt lat="38.80243" lon="15.23012">
        <ele>132.32</ele>
        <time>2018-04-17T13:18:39Z</time>
      </trkpt>
      <trkpt lat="38.80226" lon="15.2301">
        <ele>132.8</ele>
        <time>2018-04-17T13:18:56Z</time>
      </trkpt>
      <trkpt lat="38.80213" lon="15.23004">
        <ele>133.76</ele>
        <time>2018-04-17T13:19:10Z</time>
      </trkpt>
      <trkpt lat="38.80205" lon="15.22993">
        <ele>135.68</ele>
        <time>2018-04-17T13:19:25Z</time>
      </trkpt>
      <trkpt lat="38.80209" lon="15.2299">
        <ele>136.64</ele>
        <time>2018-04-17T13:19:30Z</time>
      </trkpt>
      <trkpt lat="38.80214" lon="15.22986">
        <ele>139.05</ele>
        <time>2018-04-17T13:19:36Z</time>
      </trkpt>
      <trkpt lat="38.80224" lon="15.22979">
        <ele>140.49</ele>
        <time>2018-04-17T13:19:46Z</time>
      </trkpt>
      <trkpt lat="38.80226" lon="15.22966">
        <ele>142.41</ele>
        <time>2018-04-17T13:19:57Z</time>
      </trkpt>
      <trkpt lat="38.80227" lon="15.22963">
        <ele>142.41</ele>
        <time>2018-04-17T13:19:59Z</time>
      </trkpt>
      <trkpt lat="38.80228" lon="15.22942">
        <ele>143.85</ele>
        <time>2018-04-17T13:20:14Z</time>
      </trkpt>
      <trkpt lat="38.80229" lon="15.22938">
        <ele>144.34</ele>
        <time>2018-04-17T13:20:17Z</time>
      </trkpt>
      <trkpt lat="38.80235" lon="15.22932">
        <ele>144.34</ele>
        <time>2018-04-17T13:20:23Z</time>
      </trkpt>
      <trkpt lat="38.80237" lon="15.2293">
        <ele>145.3</ele>
        <time>2018-04-17T13:20:26Z</time>
      </trkpt>
      <trkpt lat="38.80249" lon="15.22917">
        <ele>148.18</ele>
        <time>2018-04-17T13:20:40Z</time>
      </trkpt>
      <trkpt lat="38.80258" lon="15.22903">
        <ele>150.58</ele>
        <time>2018-04-17T13:20:56Z</time>
      </trkpt>
      <trkpt lat="38.80258" lon="15.22902">
        <ele>150.58</ele>
        <time>2018-04-17T13:20:57Z</time>
      </trkpt>
      <trkpt lat="38.8026" lon="15.22897">
        <ele>151.54</ele>
        <time>2018-04-17T13:21:02Z</time>
      </trkpt>
      <trkpt lat="38.80262" lon="15.22896">
        <ele>151.54</ele>
        <time>2018-04-17T13:21:04Z</time>
      </trkpt>
      <trkpt lat="38.80264" lon="15.22891">
        <ele>151.54</ele>
        <time>2018-04-17T13:21:08Z</time>
      </trkpt>
      <trkpt lat="38.8026" lon="15.22888">
        <ele>152.99</ele>
        <time>2018-04-17T13:21:19Z</time>
      </trkpt>
      <trkpt lat="38.80259" lon="15.22888">
        <ele>153.47</ele>
        <time>2018-04-17T13:21:20Z</time>
      </trkpt>
      <trkpt lat="38.80258" lon="15.22886">
        <ele>153.95</ele>
        <time>2018-04-17T13:21:22Z</time>
      </trkpt>
      <trkpt lat="38.80249" lon="15.22892">
        <ele>154.91</ele>
        <time>2018-04-17T13:21:36Z</time>
      </trkpt>
      <trkpt lat="38.80249" lon="15.22892">
        <ele>154.43</ele>
        <time>2018-04-17T13:21:57Z</time>
      </trkpt>
      <trkpt lat="38.80247" lon="15.22892">
        <ele>154.43</ele>
        <time>2018-04-17T13:22:11Z</time>
      </trkpt>
      <trkpt lat="38.8024" lon="15.22898">
        <ele>153.95</ele>
        <time>2018-04-17T13:22:25Z</time>
      </trkpt>
      <trkpt lat="38.80235" lon="15.229">
        <ele>155.39</ele>
        <time>2018-04-17T13:22:34Z</time>
      </trkpt>
      <trkpt lat="38.80237" lon="15.22896">
        <ele>156.83</ele>
        <time>2018-04-17T13:22:38Z</time>
      </trkpt>
      <trkpt lat="38.80239" lon="15.22894">
        <ele>157.79</ele>
        <time>2018-04-17T13:22:41Z</time>
      </trkpt>
      <trkpt lat="38.80245" lon="15.22885">
        <ele>159.72</ele>
        <time>2018-04-17T13:22:52Z</time>
      </trkpt>
      <trkpt lat="38.80252" lon="15.22873">
        <ele>162.6</ele>
        <time>2018-04-17T13:23:05Z</time>
      </trkpt>
      <trkpt lat="38.80253" lon="15.22872">
        <ele>162.6</ele>
        <time>2018-04-17T13:23:06Z</time>
      </trkpt>
      <trkpt lat="38.80255" lon="15.22864">
        <ele>163.56</ele>
        <time>2018-04-17T13:23:12Z</time>
      </trkpt>
      <trkpt lat="38.80263" lon="15.22848">
        <ele>163.56</ele>
        <time>2018-04-17T13:23:27Z</time>
      </trkpt>
      <trkpt lat="38.80268" lon="15.22842">
        <ele>164.52</ele>
        <time>2018-04-17T13:23:38Z</time>
      </trkpt>
      <trkpt lat="38.8027" lon="15.22839">
        <ele>165.48</ele>
        <time>2018-04-17T13:23:50Z</time>
      </trkpt>
      <trkpt lat="38.80274" lon="15.22835">
        <ele>166.45</ele>
        <time>2018-04-17T13:23:56Z</time>
      </trkpt>
      <trkpt lat="38.80279" lon="15.2283">
        <ele>167.41</ele>
        <time>2018-04-17T13:24:01Z</time>
      </trkpt>
      <trkpt lat="38.80283" lon="15.22827">
        <ele>167.89</ele>
        <time>2018-04-17T13:24:05Z</time>
      </trkpt>
      <trkpt lat="38.80299" lon="15.22813">
        <ele>171.25</ele>
        <time>2018-04-17T13:24:22Z</time>
      </trkpt>
      <trkpt lat="38.80302" lon="15.22812">
        <ele>172.21</ele>
        <time>2018-04-17T13:24:25Z</time>
      </trkpt>
      <trkpt lat="38.8031" lon="15.22807">
        <ele>173.17</ele>
        <time>2018-04-17T13:24:36Z</time>
      </trkpt>
      <trkpt lat="38.80309" lon="15.22805">
        <ele>173.17</ele>
        <time>2018-04-17T13:24:39Z</time>
      </trkpt>
      <trkpt lat="38.80305" lon="15.22798">
        <ele>173.17</ele>
        <time>2018-04-17T13:24:50Z</time>
      </trkpt>
      <trkpt lat="38.80301" lon="15.22795">
        <ele>174.62</ele>
        <time>2018-04-17T13:24:57Z</time>
      </trkpt>
      <trkpt lat="38.80299" lon="15.22789">
        <ele>177.98</ele>
        <time>2018-04-17T13:25:07Z</time>
      </trkpt>
      <trkpt lat="38.80294" lon="15.22783">
        <ele>180.38</ele>
        <time>2018-04-17T13:25:19Z</time>
      </trkpt>
      <trkpt lat="38.80294" lon="15.22782">
        <ele>180.38</ele>
        <time>2018-04-17T13:25:20Z</time>
      </trkpt>
      <trkpt lat="38.80295" lon="15.22774">
        <ele>182.31</ele>
        <time>2018-04-17T13:25:27Z</time>
      </trkpt>
      <trkpt lat="38.80289" lon="15.2277">
        <ele>186.15</ele>
        <time>2018-04-17T13:25:41Z</time>
      </trkpt>
      <trkpt lat="38.80285" lon="15.22766">
        <ele>188.56</ele>
        <time>2018-04-17T13:25:52Z</time>
      </trkpt>
      <trkpt lat="38.80285" lon="15.22765">
        <ele>188.56</ele>
        <time>2018-04-17T13:25:53Z</time>
      </trkpt>
      <trkpt lat="38.80277" lon="15.22758">
        <ele>191.92</ele>
        <time>2018-04-17T13:26:06Z</time>
      </trkpt>
      <trkpt lat="38.80275" lon="15.22756">
        <ele>192.88</ele>
        <time>2018-04-17T13:26:10Z</time>
      </trkpt>
      <trkpt lat="38.80272" lon="15.22755">
        <ele>193.36</ele>
        <time>2018-04-17T13:26:22Z</time>
      </trkpt>
      <trkpt lat="38.80272" lon="15.22755">
        <ele>193.36</ele>
        <time>2018-04-17T13:26:23Z</time>
      </trkpt>
      <trkpt lat="38.80273" lon="15.22754">
        <ele>194.32</ele>
        <time>2018-04-17T13:26:33Z</time>
      </trkpt>
      <trkpt lat="38.80271" lon="15.22755">
        <ele>192.88</ele>
        <time>2018-04-17T13:26:42Z</time>
      </trkpt>
      <trkpt lat="38.80271" lon="15.22755">
        <ele>192.88</ele>
        <time>2018-04-17T13:26:51Z</time>
      </trkpt>
      <trkpt lat="38.80271" lon="15.22755">
        <ele>192.88</ele>
        <time>2018-04-17T13:27:05Z</time>
      </trkpt>
      <trkpt lat="38.80269" lon="15.22753">
        <ele>193.84</ele>
        <time>2018-04-17T13:27:20Z</time>
      </trkpt>
      <trkpt lat="38.80265" lon="15.2275">
        <ele>195.77</ele>
        <time>2018-04-17T13:27:29Z</time>
      </trkpt>
      <trkpt lat="38.80263" lon="15.22747">
        <ele>197.21</ele>
        <time>2018-04-17T13:27:43Z</time>
      </trkpt>
      <trkpt lat="38.80259" lon="15.22744">
        <ele>198.65</ele>
        <time>2018-04-17T13:27:59Z</time>
      </trkpt>
      <trkpt lat="38.80251" lon="15.22744">
        <ele>201.53</ele>
        <time>2018-04-17T13:28:11Z</time>
      </trkpt>
      <trkpt lat="38.80246" lon="15.22745">
        <ele>202.98</ele>
        <time>2018-04-17T13:28:24Z</time>
      </trkpt>
      <trkpt lat="38.80243" lon="15.22745">
        <ele>203.94</ele>
        <time>2018-04-17T13:28:36Z</time>
      </trkpt>
      <trkpt lat="38.80241" lon="15.22744">
        <ele>204.9</ele>
        <time>2018-04-17T13:28:47Z</time>
      </trkpt>
      <trkpt lat="38.8024" lon="15.22744">
        <ele>205.38</ele>
        <time>2018-04-17T13:29:08Z</time>
      </trkpt>
      <trkpt lat="38.80236" lon="15.2274">
        <ele>207.78</ele>
        <time>2018-04-17T13:29:17Z</time>
      </trkpt>
      <trkpt lat="38.80236" lon="15.2274">
        <ele>207.78</ele>
        <time>2018-04-17T13:29:23Z</time>
      </trkpt>
      <trkpt lat="38.80232" lon="15.22736">
        <ele>209.22</ele>
        <time>2018-04-17T13:29:29Z</time>
      </trkpt>
      <trkpt lat="38.80229" lon="15.22735">
        <ele>210.67</ele>
        <time>2018-04-17T13:29:38Z</time>
      </trkpt>
      <trkpt lat="38.80226" lon="15.22729">
        <ele>212.11</ele>
        <time>2018-04-17T13:29:49Z</time>
      </trkpt>
      <trkpt lat="38.80224" lon="15.22729">
        <ele>212.59</ele>
        <time>2018-04-17T13:30:04Z</time>
      </trkpt>
      <trkpt lat="38.80224" lon="15.22729">
        <ele>212.11</ele>
        <time>2018-04-17T13:30:10Z</time>
      </trkpt>
      <trkpt lat="38.80222" lon="15.22732">
        <ele>212.59</ele>
        <time>2018-04-17T13:30:13Z</time>
      </trkpt>
      <trkpt lat="38.80221" lon="15.22728">
        <ele>214.03</ele>
        <time>2018-04-17T13:30:25Z</time>
      </trkpt>
      <trkpt lat="38.80221" lon="15.22728">
        <ele>213.55</ele>
        <time>2018-04-17T13:30:32Z</time>
      </trkpt>
      <trkpt lat="38.80221" lon="15.22726">
        <ele>213.55</ele>
        <time>2018-04-17T13:30:44Z</time>
      </trkpt>
      <trkpt lat="38.80221" lon="15.22727">
        <ele>214.03</ele>
        <time>2018-04-17T13:30:58Z</time>
      </trkpt>
      <trkpt lat="38.80221" lon="15.22728">
        <ele>213.55</ele>
        <time>2018-04-17T13:31:23Z</time>
      </trkpt>
      <trkpt lat="38.80221" lon="15.22728">
        <ele>213.55</ele>
        <time>2018-04-17T13:31:37Z</time>
      </trkpt>
      <trkpt lat="38.80219" lon="15.22729">
        <ele>213.07</ele>
        <time>2018-04-17T13:32:00Z</time>
      </trkpt>
      <trkpt lat="38.80218" lon="15.22729">
        <ele>213.55</ele>
        <time>2018-04-17T13:32:16Z</time>
      </trkpt>
      <trkpt lat="38.80217" lon="15.22729">
        <ele>214.03</ele>
        <time>2018-04-17T13:32:37Z</time>
      </trkpt>
      <trkpt lat="38.80217" lon="15.2273">
        <ele>213.55</ele>
        <time>2018-04-17T13:32:56Z</time>
      </trkpt>
      <trkpt lat="38.80217" lon="15.22729">
        <ele>213.55</ele>
        <time>2018-04-17T13:33:23Z</time>
      </trkpt>
      <trkpt lat="38.80217" lon="15.22729">
        <ele>213.55</ele>
        <time>2018-04-17T13:33:29Z</time>
      </trkpt>
      <trkpt lat="38.80207" lon="15.22733">
        <ele>216.91</ele>
        <time>2018-04-17T13:33:45Z</time>
      </trkpt>
      <trkpt lat="38.80206" lon="15.22728">
        <ele>219.32</ele>
        <time>2018-04-17T13:33:58Z</time>
      </trkpt>
      <trkpt lat="38.80206" lon="15.22723">
        <ele>220.76</ele>
        <time>2018-04-17T13:34:14Z</time>
      </trkpt>
      <trkpt lat="38.80203" lon="15.22714">
        <ele>223.64</ele>
        <time>2018-04-17T13:34:27Z</time>
      </trkpt>
      <trkpt lat="38.80201" lon="15.22713">
        <ele>224.12</ele>
        <time>2018-04-17T13:34:30Z</time>
      </trkpt>
      <trkpt lat="38.80193" lon="15.22711">
        <ele>225.57</ele>
        <time>2018-04-17T13:34:43Z</time>
      </trkpt>
      <trkpt lat="38.80188" lon="15.2271">
        <ele>227.97</ele>
        <time>2018-04-17T13:34:54Z</time>
      </trkpt>
      <trkpt lat="38.80185" lon="15.22712">
        <ele>227.97</ele>
        <time>2018-04-17T13:34:59Z</time>
      </trkpt>
      <trkpt lat="38.80176" lon="15.22719">
        <ele>229.89</ele>
        <time>2018-04-17T13:35:14Z</time>
      </trkpt>
      <trkpt lat="38.80167" lon="15.22726">
        <ele>232.78</ele>
        <time>2018-04-17T13:35:30Z</time>
      </trkpt>
      <trkpt lat="38.80164" lon="15.22719">
        <ele>235.18</ele>
        <time>2018-04-17T13:35:43Z</time>
      </trkpt>
      <trkpt lat="38.80159" lon="15.22719">
        <ele>237.1</ele>
        <time>2018-04-17T13:35:56Z</time>
      </trkpt>
      <trkpt lat="38.80158" lon="15.22717">
        <ele>237.58</ele>
        <time>2018-04-17T13:36:00Z</time>
      </trkpt>
      <trkpt lat="38.80157" lon="15.22715">
        <ele>238.54</ele>
        <time>2018-04-17T13:36:03Z</time>
      </trkpt>
      <trkpt lat="38.80152" lon="15.22712">
        <ele>241.43</ele>
        <time>2018-04-17T13:36:17Z</time>
      </trkpt>
      <trkpt lat="38.80151" lon="15.22709">
        <ele>241.91</ele>
        <time>2018-04-17T13:36:22Z</time>
      </trkpt>
      <trkpt lat="38.80151" lon="15.22705">
        <ele>242.39</ele>
        <time>2018-04-17T13:36:33Z</time>
      </trkpt>
      <trkpt lat="38.80149" lon="15.22699">
        <ele>242.39</ele>
        <time>2018-04-17T13:36:44Z</time>
      </trkpt>
      <trkpt lat="38.80149" lon="15.22699">
        <ele>241.91</ele>
        <time>2018-04-17T13:37:10Z</time>
      </trkpt>
      <trkpt lat="38.80148" lon="15.22698">
        <ele>241.43</ele>
        <time>2018-04-17T13:37:24Z</time>
      </trkpt>
      <trkpt lat="38.80148" lon="15.22697">
        <ele>241.43</ele>
        <time>2018-04-17T13:37:45Z</time>
      </trkpt>
      <trkpt lat="38.80147" lon="15.2269">
        <ele>243.83</ele>
        <time>2018-04-17T13:37:55Z</time>
      </trkpt>
      <trkpt lat="38.80146" lon="15.22688">
        <ele>245.27</ele>
        <time>2018-04-17T13:37:59Z</time>
      </trkpt>
      <trkpt lat="38.80143" lon="15.22681">
        <ele>246.23</ele>
        <time>2018-04-17T13:38:07Z</time>
      </trkpt>
      <trkpt lat="38.80143" lon="15.22672">
        <ele>245.75</ele>
        <time>2018-04-17T13:38:14Z</time>
      </trkpt>
      <trkpt lat="38.80144" lon="15.22666">
        <ele>246.72</ele>
        <time>2018-04-17T13:38:19Z</time>
      </trkpt>
      <trkpt lat="38.80143" lon="15.22648">
        <ele>247.68</ele>
        <time>2018-04-17T13:38:31Z</time>
      </trkpt>
      <trkpt lat="38.80145" lon="15.22644">
        <ele>247.2</ele>
        <time>2018-04-17T13:38:34Z</time>
      </trkpt>
      <trkpt lat="38.80155" lon="15.22643">
        <ele>252.96</ele>
        <time>2018-04-17T13:38:49Z</time>
      </trkpt>
      <trkpt lat="38.80158" lon="15.22639">
        <ele>253.93</ele>
        <time>2018-04-17T13:38:54Z</time>
      </trkpt>
      <trkpt lat="38.80165" lon="15.22629">
        <ele>252.96</ele>
        <time>2018-04-17T13:39:07Z</time>
      </trkpt>
      <trkpt lat="38.80167" lon="15.22622">
        <ele>250.08</ele>
        <time>2018-04-17T13:39:16Z</time>
      </trkpt>
      <trkpt lat="38.80174" lon="15.2262">
        <ele>250.56</ele>
        <time>2018-04-17T13:39:28Z</time>
      </trkpt>
      <trkpt lat="38.80181" lon="15.22614">
        <ele>251.52</ele>
        <time>2018-04-17T13:39:41Z</time>
      </trkpt>
      <trkpt lat="38.80183" lon="15.22604">
        <ele>252</ele>
        <time>2018-04-17T13:39:52Z</time>
      </trkpt>
      <trkpt lat="38.8018" lon="15.226">
        <ele>252.48</ele>
        <time>2018-04-17T13:39:59Z</time>
      </trkpt>
      <trkpt lat="38.80175" lon="15.22596">
        <ele>253.44</ele>
        <time>2018-04-17T13:40:10Z</time>
      </trkpt>
      <trkpt lat="38.80173" lon="15.22593">
        <ele>253.93</ele>
        <time>2018-04-17T13:40:22Z</time>
      </trkpt>
      <trkpt lat="38.80172" lon="15.22593">
        <ele>253.44</ele>
        <time>2018-04-17T13:40:23Z</time>
      </trkpt>
      <trkpt lat="38.80171" lon="15.22588">
        <ele>254.41</ele>
        <time>2018-04-17T13:40:27Z</time>
      </trkpt>
      <trkpt lat="38.80171" lon="15.22585">
        <ele>254.89</ele>
        <time>2018-04-17T13:40:29Z</time>
      </trkpt>
      <trkpt lat="38.80171" lon="15.22579">
        <ele>255.37</ele>
        <time>2018-04-17T13:40:33Z</time>
      </trkpt>
      <trkpt lat="38.80174" lon="15.22561">
        <ele>256.81</ele>
        <time>2018-04-17T13:40:48Z</time>
      </trkpt>
      <trkpt lat="38.80175" lon="15.2256">
        <ele>256.33</ele>
        <time>2018-04-17T13:40:53Z</time>
      </trkpt>
      <trkpt lat="38.80184" lon="15.22556">
        <ele>257.29</ele>
        <time>2018-04-17T13:41:03Z</time>
      </trkpt>
      <trkpt lat="38.80186" lon="15.22554">
        <ele>257.77</ele>
        <time>2018-04-17T13:41:05Z</time>
      </trkpt>
      <trkpt lat="38.80194" lon="15.22552">
        <ele>258.25</ele>
        <time>2018-04-17T13:41:12Z</time>
      </trkpt>
      <trkpt lat="38.80206" lon="15.22541">
        <ele>260.65</ele>
        <time>2018-04-17T13:41:27Z</time>
      </trkpt>
      <trkpt lat="38.80207" lon="15.2254">
        <ele>261.14</ele>
        <time>2018-04-17T13:41:28Z</time>
      </trkpt>
      <trkpt lat="38.80207" lon="15.22535">
        <ele>260.17</ele>
        <time>2018-04-17T13:41:32Z</time>
      </trkpt>
      <trkpt lat="38.8021" lon="15.22526">
        <ele>260.17</ele>
        <time>2018-04-17T13:41:43Z</time>
      </trkpt>
      <trkpt lat="38.80208" lon="15.22515">
        <ele>262.1</ele>
        <time>2018-04-17T13:41:56Z</time>
      </trkpt>
      <trkpt lat="38.80203" lon="15.22509">
        <ele>264.02</ele>
        <time>2018-04-17T13:42:06Z</time>
      </trkpt>
      <trkpt lat="38.80198" lon="15.22496">
        <ele>265.94</ele>
        <time>2018-04-17T13:42:21Z</time>
      </trkpt>
      <trkpt lat="38.80197" lon="15.22496">
        <ele>265.94</ele>
        <time>2018-04-17T13:42:22Z</time>
      </trkpt>
      <trkpt lat="38.802" lon="15.22482">
        <ele>269.31</ele>
        <time>2018-04-17T13:42:36Z</time>
      </trkpt>
      <trkpt lat="38.80204" lon="15.22467">
        <ele>274.11</ele>
        <time>2018-04-17T13:42:51Z</time>
      </trkpt>
      <trkpt lat="38.802" lon="15.22466">
        <ele>275.56</ele>
        <time>2018-04-17T13:43:02Z</time>
      </trkpt>
      <trkpt lat="38.8019" lon="15.22469">
        <ele>276.52</ele>
        <time>2018-04-17T13:43:16Z</time>
      </trkpt>
      <trkpt lat="38.8018" lon="15.22466">
        <ele>279.4</ele>
        <time>2018-04-17T13:43:31Z</time>
      </trkpt>
      <trkpt lat="38.80184" lon="15.22458">
        <ele>282.28</ele>
        <time>2018-04-17T13:43:41Z</time>
      </trkpt>
      <trkpt lat="38.80186" lon="15.22447">
        <ele>285.65</ele>
        <time>2018-04-17T13:43:54Z</time>
      </trkpt>
      <trkpt lat="38.80178" lon="15.22449">
        <ele>286.61</ele>
        <time>2018-04-17T13:44:08Z</time>
      </trkpt>
      <trkpt lat="38.80181" lon="15.22438">
        <ele>289.49</ele>
        <time>2018-04-17T13:44:21Z</time>
      </trkpt>
      <trkpt lat="38.80183" lon="15.2243">
        <ele>290.94</ele>
        <time>2018-04-17T13:44:29Z</time>
      </trkpt>
      <trkpt lat="38.80182" lon="15.22421">
        <ele>293.82</ele>
        <time>2018-04-17T13:44:43Z</time>
      </trkpt>
      <trkpt lat="38.80187" lon="15.22415">
        <ele>296.7</ele>
        <time>2018-04-17T13:44:51Z</time>
      </trkpt>
      <trkpt lat="38.80192" lon="15.22413">
        <ele>297.67</ele>
        <time>2018-04-17T13:44:56Z</time>
      </trkpt>
      <trkpt lat="38.80196" lon="15.22406">
        <ele>297.18</ele>
        <time>2018-04-17T13:45:11Z</time>
      </trkpt>
      <trkpt lat="38.80197" lon="15.224">
        <ele>294.3</ele>
        <time>2018-04-17T13:45:28Z</time>
      </trkpt>
      <trkpt lat="38.80198" lon="15.22394">
        <ele>292.86</ele>
        <time>2018-04-17T13:45:33Z</time>
      </trkpt>
      <trkpt lat="38.80199" lon="15.22392">
        <ele>292.38</ele>
        <time>2018-04-17T13:45:35Z</time>
      </trkpt>
      <trkpt lat="38.80204" lon="15.22378">
        <ele>292.38</ele>
        <time>2018-04-17T13:45:46Z</time>
      </trkpt>
      <trkpt lat="38.80205" lon="15.22377">
        <ele>292.38</ele>
        <time>2018-04-17T13:45:47Z</time>
      </trkpt>
      <trkpt lat="38.80213" lon="15.2236">
        <ele>298.15</ele>
        <time>2018-04-17T13:46:01Z</time>
      </trkpt>
      <trkpt lat="38.80218" lon="15.22349">
        <ele>299.59</ele>
        <time>2018-04-17T13:46:08Z</time>
      </trkpt>
      <trkpt lat="38.80219" lon="15.22333">
        <ele>300.55</ele>
        <time>2018-04-17T13:46:18Z</time>
      </trkpt>
      <trkpt lat="38.80218" lon="15.22326">
        <ele>299.59</ele>
        <time>2018-04-17T13:46:22Z</time>
      </trkpt>
      <trkpt lat="38.80218" lon="15.22308">
        <ele>298.63</ele>
        <time>2018-04-17T13:46:37Z</time>
      </trkpt>
      <trkpt lat="38.80215" lon="15.22291">
        <ele>303.91</ele>
        <time>2018-04-17T13:46:50Z</time>
      </trkpt>
      <trkpt lat="38.80216" lon="15.22283">
        <ele>306.32</ele>
        <time>2018-04-17T13:47:01Z</time>
      </trkpt>
      <trkpt lat="38.80224" lon="15.22278">
        <ele>309.68</ele>
        <time>2018-04-17T13:47:14Z</time>
      </trkpt>
      <trkpt lat="38.80234" lon="15.22272">
        <ele>305.36</ele>
        <time>2018-04-17T13:47:28Z</time>
      </trkpt>
      <trkpt lat="38.80235" lon="15.22272">
        <ele>304.39</ele>
        <time>2018-04-17T13:47:29Z</time>
      </trkpt>
      <trkpt lat="38.80241" lon="15.22271">
        <ele>298.15</ele>
        <time>2018-04-17T13:47:42Z</time>
      </trkpt>
      <trkpt lat="38.80244" lon="15.22273">
        <ele>295.26</ele>
        <time>2018-04-17T13:47:56Z</time>
      </trkpt>
      <trkpt lat="38.80251" lon="15.22273">
        <ele>291.9</ele>
        <time>2018-04-17T13:48:08Z</time>
      </trkpt>
      <trkpt lat="38.80258" lon="15.22277">
        <ele>289.97</ele>
        <time>2018-04-17T13:48:17Z</time>
      </trkpt>
      <trkpt lat="38.80261" lon="15.22281">
        <ele>287.57</ele>
        <time>2018-04-17T13:48:29Z</time>
      </trkpt>
      <trkpt lat="38.80263" lon="15.22281">
        <ele>285.65</ele>
        <time>2018-04-17T13:48:40Z</time>
      </trkpt>
      <trkpt lat="38.80266" lon="15.22285">
        <ele>283.25</ele>
        <time>2018-04-17T13:48:46Z</time>
      </trkpt>
      <trkpt lat="38.80269" lon="15.22288">
        <ele>283.25</ele>
        <time>2018-04-17T13:48:52Z</time>
      </trkpt>
      <trkpt lat="38.80282" lon="15.22289">
        <ele>280.84</ele>
        <time>2018-04-17T13:49:05Z</time>
      </trkpt>
      <trkpt lat="38.80285" lon="15.2229">
        <ele>280.36</ele>
        <time>2018-04-17T13:49:17Z</time>
      </trkpt>
      <trkpt lat="38.80288" lon="15.22291">
        <ele>279.88</ele>
        <time>2018-04-17T13:49:26Z</time>
      </trkpt>
      <trkpt lat="38.80288" lon="15.2229">
        <ele>280.84</ele>
        <time>2018-04-17T13:49:46Z</time>
      </trkpt>
      <trkpt lat="38.80287" lon="15.22292">
        <ele>280.36</ele>
        <time>2018-04-17T13:50:01Z</time>
      </trkpt>
      <trkpt lat="38.80287" lon="15.22292">
        <ele>280.36</ele>
        <time>2018-04-17T13:50:15Z</time>
      </trkpt>
      <trkpt lat="38.80289" lon="15.22293">
        <ele>280.84</ele>
        <time>2018-04-17T13:50:31Z</time>
      </trkpt>
      <trkpt lat="38.80288" lon="15.22293">
        <ele>280.84</ele>
        <time>2018-04-17T13:50:48Z</time>
      </trkpt>
      <trkpt lat="38.80288" lon="15.22293">
        <ele>281.32</ele>
        <time>2018-04-17T13:51:00Z</time>
      </trkpt>
      <trkpt lat="38.80288" lon="15.22291">
        <ele>280.84</ele>
        <time>2018-04-17T13:51:22Z</time>
      </trkpt>
      <trkpt lat="38.80288" lon="15.22292">
        <ele>280.84</ele>
        <time>2018-04-17T13:51:39Z</time>
      </trkpt>
      <trkpt lat="38.80288" lon="15.22292">
        <ele>280.84</ele>
        <time>2018-04-17T13:51:54Z</time>
      </trkpt>
      <trkpt lat="38.80287" lon="15.22292">
        <ele>280.84</ele>
        <time>2018-04-17T13:52:11Z</time>
      </trkpt>
      <trkpt lat="38.80287" lon="15.22292">
        <ele>280.84</ele>
        <time>2018-04-17T13:52:24Z</time>
      </trkpt>
      <trkpt lat="38.80287" lon="15.22292">
        <ele>281.32</ele>
        <time>2018-04-17T13:52:42Z</time>
      </trkpt>
      <trkpt lat="38.80287" lon="15.22292">
        <ele>281.32</ele>
        <time>2018-04-17T13:52:54Z</time>
      </trkpt>
      <trkpt lat="38.80287" lon="15.22292">
        <ele>281.8</ele>
        <time>2018-04-17T13:53:06Z</time>
      </trkpt>
      <trkpt lat="38.80287" lon="15.22291">
        <ele>281.8</ele>
        <time>2018-04-17T13:53:21Z</time>
      </trkpt>
      <trkpt lat="38.80287" lon="15.22291">
        <ele>281.32</ele>
        <time>2018-04-17T13:53:45Z</time>
      </trkpt>
      <trkpt lat="38.80288" lon="15.2229">
        <ele>281.8</ele>
        <time>2018-04-17T13:54:03Z</time>
      </trkpt>
      <trkpt lat="38.80288" lon="15.22291">
        <ele>281.8</ele>
        <time>2018-04-17T13:54:20Z</time>
      </trkpt>
      <trkpt lat="38.80287" lon="15.2229">
        <ele>282.28</ele>
        <time>2018-04-17T13:54:32Z</time>
      </trkpt>
      <trkpt lat="38.80288" lon="15.2229">
        <ele>281.8</ele>
        <time>2018-04-17T13:54:53Z</time>
      </trkpt>
      <trkpt lat="38.80289" lon="15.2229">
        <ele>282.28</ele>
        <time>2018-04-17T13:55:04Z</time>
      </trkpt>
      <trkpt lat="38.80288" lon="15.2229">
        <ele>282.77</ele>
        <time>2018-04-17T13:55:18Z</time>
      </trkpt>
      <trkpt lat="38.80289" lon="15.22288">
        <ele>281.8</ele>
        <time>2018-04-17T13:55:26Z</time>
      </trkpt>
      <trkpt lat="38.80286" lon="15.22284">
        <ele>281.8</ele>
        <time>2018-04-17T13:55:30Z</time>
      </trkpt>
      <trkpt lat="38.80273" lon="15.22268">
        <ele>280.84</ele>
        <time>2018-04-17T13:55:45Z</time>
      </trkpt>
      <trkpt lat="38.8027" lon="15.22263">
        <ele>279.4</ele>
        <time>2018-04-17T13:55:50Z</time>
      </trkpt>
      <trkpt lat="38.80267" lon="15.22251">
        <ele>278.92</ele>
        <time>2018-04-17T13:56:04Z</time>
      </trkpt>
      <trkpt lat="38.80268" lon="15.2225">
        <ele>279.4</ele>
        <time>2018-04-17T13:56:05Z</time>
      </trkpt>
      <trkpt lat="38.80281" lon="15.22244">
        <ele>282.77</ele>
        <time>2018-04-17T13:56:20Z</time>
      </trkpt>
      <trkpt lat="38.80286" lon="15.22242">
        <ele>280.36</ele>
        <time>2018-04-17T13:56:34Z</time>
      </trkpt>
      <trkpt lat="38.80287" lon="15.22237">
        <ele>281.32</ele>
        <time>2018-04-17T13:56:40Z</time>
      </trkpt>
      <trkpt lat="38.80289" lon="15.22227">
        <ele>279.88</ele>
        <time>2018-04-17T13:56:53Z</time>
      </trkpt>
      <trkpt lat="38.80289" lon="15.22224">
        <ele>279.4</ele>
        <time>2018-04-17T13:56:55Z</time>
      </trkpt>
      <trkpt lat="38.80289" lon="15.2222">
        <ele>278.92</ele>
        <time>2018-04-17T13:56:58Z</time>
      </trkpt>
      <trkpt lat="38.80292" lon="15.22205">
        <ele>278.44</ele>
        <time>2018-04-17T13:57:10Z</time>
      </trkpt>
      <trkpt lat="38.80298" lon="15.22207">
        <ele>279.4</ele>
        <time>2018-04-17T13:57:24Z</time>
      </trkpt>
      <trkpt lat="38.80302" lon="15.22211">
        <ele>279.4</ele>
        <time>2018-04-17T13:57:36Z</time>
      </trkpt>
      <trkpt lat="38.80307" lon="15.22211">
        <ele>279.88</ele>
        <time>2018-04-17T13:57:49Z</time>
      </trkpt>
      <trkpt lat="38.8031" lon="15.22212">
        <ele>279.4</ele>
        <time>2018-04-17T13:57:55Z</time>
      </trkpt>
      <trkpt lat="38.80312" lon="15.22214">
        <ele>279.4</ele>
        <time>2018-04-17T13:57:58Z</time>
      </trkpt>
      <trkpt lat="38.80325" lon="15.22216">
        <ele>280.36</ele>
        <time>2018-04-17T13:58:09Z</time>
      </trkpt>
      <trkpt lat="38.80327" lon="15.22217">
        <ele>280.36</ele>
        <time>2018-04-17T13:58:11Z</time>
      </trkpt>
      <trkpt lat="38.8034" lon="15.22215">
        <ele>278.92</ele>
        <time>2018-04-17T13:58:25Z</time>
      </trkpt>
      <trkpt lat="38.80351" lon="15.22212">
        <ele>280.36</ele>
        <time>2018-04-17T13:58:37Z</time>
      </trkpt>
      <trkpt lat="38.80366" lon="15.222">
        <ele>278.44</ele>
        <time>2018-04-17T13:58:54Z</time>
      </trkpt>
      <trkpt lat="38.80378" lon="15.22184">
        <ele>277.48</ele>
        <time>2018-04-17T13:59:08Z</time>
      </trkpt>
      <trkpt lat="38.80392" lon="15.2217">
        <ele>280.84</ele>
        <time>2018-04-17T13:59:25Z</time>
      </trkpt>
      <trkpt lat="38.80401" lon="15.2216">
        <ele>280.36</ele>
        <time>2018-04-17T13:59:37Z</time>
      </trkpt>
      <trkpt lat="38.80406" lon="15.22156">
        <ele>278.92</ele>
        <time>2018-04-17T13:59:43Z</time>
      </trkpt>
      <trkpt lat="38.80408" lon="15.22143">
        <ele>276.04</ele>
        <time>2018-04-17T13:59:55Z</time>
      </trkpt>
      <trkpt lat="38.80412" lon="15.22128">
        <ele>275.07</ele>
        <time>2018-04-17T14:00:09Z</time>
      </trkpt>
      <trkpt lat="38.80417" lon="15.22121">
        <ele>271.23</ele>
        <time>2018-04-17T14:00:16Z</time>
      </trkpt>
      <trkpt lat="38.80431" lon="15.22116">
        <ele>266.42</ele>
        <time>2018-04-17T14:00:29Z</time>
      </trkpt>
      <trkpt lat="38.80437" lon="15.22114">
        <ele>265.46</ele>
        <time>2018-04-17T14:00:34Z</time>
      </trkpt>
      <trkpt lat="38.80443" lon="15.2211">
        <ele>265.94</ele>
        <time>2018-04-17T14:00:41Z</time>
      </trkpt>
      <trkpt lat="38.80455" lon="15.22104">
        <ele>264.98</ele>
        <time>2018-04-17T14:00:55Z</time>
      </trkpt>
      <trkpt lat="38.80462" lon="15.22101">
        <ele>261.62</ele>
        <time>2018-04-17T14:01:12Z</time>
      </trkpt>
      <trkpt lat="38.80464" lon="15.22096">
        <ele>260.17</ele>
        <time>2018-04-17T14:01:30Z</time>
      </trkpt>
      <trkpt lat="38.80463" lon="15.22089">
        <ele>256.81</ele>
        <time>2018-04-17T14:01:50Z</time>
      </trkpt>
      <trkpt lat="38.80462" lon="15.22081">
        <ele>254.41</ele>
        <time>2018-04-17T14:02:02Z</time>
      </trkpt>
      <trkpt lat="38.80462" lon="15.2208">
        <ele>254.41</ele>
        <time>2018-04-17T14:02:03Z</time>
      </trkpt>
      <trkpt lat="38.80459" lon="15.22067">
        <ele>255.85</ele>
        <time>2018-04-17T14:02:16Z</time>
      </trkpt>
      <trkpt lat="38.80456" lon="15.22059">
        <ele>256.33</ele>
        <time>2018-04-17T14:02:31Z</time>
      </trkpt>
      <trkpt lat="38.80459" lon="15.22059">
        <ele>253.93</ele>
        <time>2018-04-17T14:02:42Z</time>
      </trkpt>
      <trkpt lat="38.8046" lon="15.2206">
        <ele>253.44</ele>
        <time>2018-04-17T14:02:44Z</time>
      </trkpt>
      <trkpt lat="38.80463" lon="15.22064">
        <ele>251.04</ele>
        <time>2018-04-17T14:02:49Z</time>
      </trkpt>
      <trkpt lat="38.80466" lon="15.22067">
        <ele>249.12</ele>
        <time>2018-04-17T14:02:54Z</time>
      </trkpt>
      <trkpt lat="38.8047" lon="15.22067">
        <ele>248.16</ele>
        <time>2018-04-17T14:02:58Z</time>
      </trkpt>
      <trkpt lat="38.80475" lon="15.22071">
        <ele>246.72</ele>
        <time>2018-04-17T14:03:03Z</time>
      </trkpt>
      <trkpt lat="38.80481" lon="15.22077">
        <ele>244.79</ele>
        <time>2018-04-17T14:03:14Z</time>
      </trkpt>
      <trkpt lat="38.80479" lon="15.22074">
        <ele>243.35</ele>
        <time>2018-04-17T14:03:19Z</time>
      </trkpt>
      <trkpt lat="38.80478" lon="15.22065">
        <ele>241.91</ele>
        <time>2018-04-17T14:03:28Z</time>
      </trkpt>
      <trkpt lat="38.80475" lon="15.22054">
        <ele>240.47</ele>
        <time>2018-04-17T14:03:37Z</time>
      </trkpt>
      <trkpt lat="38.80471" lon="15.2204">
        <ele>239.51</ele>
        <time>2018-04-17T14:03:51Z</time>
      </trkpt>
      <trkpt lat="38.80468" lon="15.22031">
        <ele>238.54</ele>
        <time>2018-04-17T14:04:05Z</time>
      </trkpt>
      <trkpt lat="38.80467" lon="15.22023">
        <ele>235.66</ele>
        <time>2018-04-17T14:04:12Z</time>
      </trkpt>
      <trkpt lat="38.80465" lon="15.22018">
        <ele>233.26</ele>
        <time>2018-04-17T14:04:26Z</time>
      </trkpt>
      <trkpt lat="38.80464" lon="15.22017">
        <ele>232.3</ele>
        <time>2018-04-17T14:04:35Z</time>
      </trkpt>
      <trkpt lat="38.80475" lon="15.22019">
        <ele>231.81</ele>
        <time>2018-04-17T14:04:50Z</time>
      </trkpt>
      <trkpt lat="38.80478" lon="15.22022">
        <ele>232.78</ele>
        <time>2018-04-17T14:04:56Z</time>
      </trkpt>
      <trkpt lat="38.80485" lon="15.22029">
        <ele>234.22</ele>
        <time>2018-04-17T14:05:10Z</time>
      </trkpt>
      <trkpt lat="38.80487" lon="15.2203">
        <ele>234.22</ele>
        <time>2018-04-17T14:05:12Z</time>
      </trkpt>
      <trkpt lat="38.80492" lon="15.22041">
        <ele>236.14</ele>
        <time>2018-04-17T14:05:25Z</time>
      </trkpt>
      <trkpt lat="38.80498" lon="15.22048">
        <ele>238.06</ele>
        <time>2018-04-17T14:05:36Z</time>
      </trkpt>
      <trkpt lat="38.80502" lon="15.22053">
        <ele>239.51</ele>
        <time>2018-04-17T14:05:46Z</time>
      </trkpt>
      <trkpt lat="38.80504" lon="15.22057">
        <ele>241.91</ele>
        <time>2018-04-17T14:05:55Z</time>
      </trkpt>
      <trkpt lat="38.80512" lon="15.22058">
        <ele>245.75</ele>
        <time>2018-04-17T14:06:08Z</time>
      </trkpt>
      <trkpt lat="38.80519" lon="15.22058">
        <ele>245.75</ele>
        <time>2018-04-17T14:06:21Z</time>
      </trkpt>
      <trkpt lat="38.80522" lon="15.22059">
        <ele>245.75</ele>
        <time>2018-04-17T14:06:24Z</time>
      </trkpt>
      <trkpt lat="38.80534" lon="15.22068">
        <ele>248.16</ele>
        <time>2018-04-17T14:06:40Z</time>
      </trkpt>
      <trkpt lat="38.80545" lon="15.22074">
        <ele>247.68</ele>
        <time>2018-04-17T14:06:54Z</time>
      </trkpt>
      <trkpt lat="38.80555" lon="15.22075">
        <ele>248.16</ele>
        <time>2018-04-17T14:07:07Z</time>
      </trkpt>
      <trkpt lat="38.80567" lon="15.2208">
        <ele>241.43</ele>
        <time>2018-04-17T14:07:20Z</time>
      </trkpt>
      <trkpt lat="38.80577" lon="15.22073">
        <ele>231.33</ele>
        <time>2018-04-17T14:07:28Z</time>
      </trkpt>
      <trkpt lat="38.80587" lon="15.22062">
        <ele>232.3</ele>
        <time>2018-04-17T14:07:43Z</time>
      </trkpt>
      <trkpt lat="38.80587" lon="15.22053">
        <ele>227.97</ele>
        <time>2018-04-17T14:07:57Z</time>
      </trkpt>
      <trkpt lat="38.80588" lon="15.22042">
        <ele>229.41</ele>
        <time>2018-04-17T14:08:10Z</time>
      </trkpt>
      <trkpt lat="38.80585" lon="15.22043">
        <ele>228.45</ele>
        <time>2018-04-17T14:08:23Z</time>
      </trkpt>
      <trkpt lat="38.80583" lon="15.22044">
        <ele>227.49</ele>
        <time>2018-04-17T14:08:33Z</time>
      </trkpt>
      <trkpt lat="38.8058" lon="15.22035">
        <ele>231.33</ele>
        <time>2018-04-17T14:08:47Z</time>
      </trkpt>
      <trkpt lat="38.80575" lon="15.2204">
        <ele>230.85</ele>
        <time>2018-04-17T14:09:00Z</time>
      </trkpt>
      <trkpt lat="38.80573" lon="15.22034">
        <ele>231.33</ele>
        <time>2018-04-17T14:09:11Z</time>
      </trkpt>
      <trkpt lat="38.8057" lon="15.22022">
        <ele>234.7</ele>
        <time>2018-04-17T14:09:24Z</time>
      </trkpt>
      <trkpt lat="38.80567" lon="15.22022">
        <ele>236.62</ele>
        <time>2018-04-17T14:09:36Z</time>
      </trkpt>
      <trkpt lat="38.80557" lon="15.22027">
        <ele>239.99</ele>
        <time>2018-04-17T14:09:50Z</time>
      </trkpt>
      <trkpt lat="38.80553" lon="15.22021">
        <ele>243.83</ele>
        <time>2018-04-17T14:10:04Z</time>
      </trkpt>
      <trkpt lat="38.80546" lon="15.22015">
        <ele>249.12</ele>
        <time>2018-04-17T14:10:17Z</time>
      </trkpt>
      <trkpt lat="38.80541" lon="15.22014">
        <ele>250.56</ele>
        <time>2018-04-17T14:10:27Z</time>
      </trkpt>
      <trkpt lat="38.80536" lon="15.22003">
        <ele>252</ele>
        <time>2018-04-17T14:10:40Z</time>
      </trkpt>
      <trkpt lat="38.80534" lon="15.21985">
        <ele>250.56</ele>
        <time>2018-04-17T14:10:55Z</time>
      </trkpt>
      <trkpt lat="38.80533" lon="15.21982">
        <ele>251.04</ele>
        <time>2018-04-17T14:10:57Z</time>
      </trkpt>
      <trkpt lat="38.80531" lon="15.21967">
        <ele>251.04</ele>
        <time>2018-04-17T14:11:10Z</time>
      </trkpt>
      <trkpt lat="38.80529" lon="15.21959">
        <ele>254.41</ele>
        <time>2018-04-17T14:11:17Z</time>
      </trkpt>
      <trkpt lat="38.80531" lon="15.21943">
        <ele>258.25</ele>
        <time>2018-04-17T14:11:27Z</time>
      </trkpt>
      <trkpt lat="38.80532" lon="15.2193">
        <ele>260.17</ele>
        <time>2018-04-17T14:11:37Z</time>
      </trkpt>
      <trkpt lat="38.80538" lon="15.21915">
        <ele>264.5</ele>
        <time>2018-04-17T14:11:50Z</time>
      </trkpt>
      <trkpt lat="38.80541" lon="15.21911">
        <ele>264.02</ele>
        <time>2018-04-17T14:11:57Z</time>
      </trkpt>
      <trkpt lat="38.80551" lon="15.21897">
        <ele>266.42</ele>
        <time>2018-04-17T14:12:14Z</time>
      </trkpt>
      <trkpt lat="38.80556" lon="15.21892">
        <ele>268.35</ele>
        <time>2018-04-17T14:12:21Z</time>
      </trkpt>
      <trkpt lat="38.80563" lon="15.21883">
        <ele>269.31</ele>
        <time>2018-04-17T14:12:32Z</time>
      </trkpt>
      <trkpt lat="38.80564" lon="15.21874">
        <ele>267.86</ele>
        <time>2018-04-17T14:12:38Z</time>
      </trkpt>
      <trkpt lat="38.8056" lon="15.21862">
        <ele>266.9</ele>
        <time>2018-04-17T14:12:51Z</time>
      </trkpt>
      <trkpt lat="38.8056" lon="15.21849">
        <ele>264.5</ele>
        <time>2018-04-17T14:13:02Z</time>
      </trkpt>
      <trkpt lat="38.80557" lon="15.2184">
        <ele>262.1</ele>
        <time>2018-04-17T14:13:15Z</time>
      </trkpt>
      <trkpt lat="38.80558" lon="15.21838">
        <ele>262.1</ele>
        <time>2018-04-17T14:13:17Z</time>
      </trkpt>
      <trkpt lat="38.80563" lon="15.21826">
        <ele>262.58</ele>
        <time>2018-04-17T14:13:32Z</time>
      </trkpt>
      <trkpt lat="38.80564" lon="15.21825">
        <ele>262.58</ele>
        <time>2018-04-17T14:13:33Z</time>
      </trkpt>
      <trkpt lat="38.8057" lon="15.21809">
        <ele>263.54</ele>
        <time>2018-04-17T14:13:48Z</time>
      </trkpt>
      <trkpt lat="38.80576" lon="15.2179">
        <ele>262.1</ele>
        <time>2018-04-17T14:14:03Z</time>
      </trkpt>
      <trkpt lat="38.80579" lon="15.21772">
        <ele>261.62</ele>
        <time>2018-04-17T14:14:17Z</time>
      </trkpt>
      <trkpt lat="38.80579" lon="15.21766">
        <ele>259.21</ele>
        <time>2018-04-17T14:14:28Z</time>
      </trkpt>
      <trkpt lat="38.80579" lon="15.21759">
        <ele>259.21</ele>
        <time>2018-04-17T14:14:38Z</time>
      </trkpt>
      <trkpt lat="38.80579" lon="15.21753">
        <ele>259.21</ele>
        <time>2018-04-17T14:14:42Z</time>
      </trkpt>
      <trkpt lat="38.80582" lon="15.21735">
        <ele>260.65</ele>
        <time>2018-04-17T14:14:56Z</time>
      </trkpt>
      <trkpt lat="38.80584" lon="15.21722">
        <ele>261.62</ele>
        <time>2018-04-17T14:15:08Z</time>
      </trkpt>
      <trkpt lat="38.80584" lon="15.21711">
        <ele>260.17</ele>
        <time>2018-04-17T14:15:23Z</time>
      </trkpt>
      <trkpt lat="38.80589" lon="15.21694">
        <ele>263.06</ele>
        <time>2018-04-17T14:15:36Z</time>
      </trkpt>
      <trkpt lat="38.80593" lon="15.2168">
        <ele>262.58</ele>
        <time>2018-04-17T14:15:47Z</time>
      </trkpt>
      <trkpt lat="38.80599" lon="15.21659">
        <ele>260.65</ele>
        <time>2018-04-17T14:16:02Z</time>
      </trkpt>
      <trkpt lat="38.806" lon="15.21656">
        <ele>260.17</ele>
        <time>2018-04-17T14:16:04Z</time>
      </trkpt>
      <trkpt lat="38.80605" lon="15.21636">
        <ele>259.21</ele>
        <time>2018-04-17T14:16:17Z</time>
      </trkpt>
      <trkpt lat="38.80607" lon="15.21621">
        <ele>260.65</ele>
        <time>2018-04-17T14:16:28Z</time>
      </trkpt>
      <trkpt lat="38.80608" lon="15.21612">
        <ele>259.21</ele>
        <time>2018-04-17T14:16:43Z</time>
      </trkpt>
      <trkpt lat="38.80607" lon="15.21611">
        <ele>257.29</ele>
        <time>2018-04-17T14:16:53Z</time>
      </trkpt>
      <trkpt lat="38.80606" lon="15.21608">
        <ele>257.29</ele>
        <time>2018-04-17T14:16:59Z</time>
      </trkpt>
      <trkpt lat="38.80601" lon="15.21607">
        <ele>256.81</ele>
        <time>2018-04-17T14:17:04Z</time>
      </trkpt>
      <trkpt lat="38.806" lon="15.21605">
        <ele>256.81</ele>
        <time>2018-04-17T14:17:06Z</time>
      </trkpt>
      <trkpt lat="38.80601" lon="15.21586">
        <ele>260.65</ele>
        <time>2018-04-17T14:17:20Z</time>
      </trkpt>
      <trkpt lat="38.80602" lon="15.21579">
        <ele>261.62</ele>
        <time>2018-04-17T14:17:25Z</time>
      </trkpt>
      <trkpt lat="38.80602" lon="15.21568">
        <ele>261.14</ele>
        <time>2018-04-17T14:17:33Z</time>
      </trkpt>
      <trkpt lat="38.80601" lon="15.21561">
        <ele>260.65</ele>
        <time>2018-04-17T14:17:40Z</time>
      </trkpt>
      <trkpt lat="38.80601" lon="15.21558">
        <ele>260.65</ele>
        <time>2018-04-17T14:17:42Z</time>
      </trkpt>
      <trkpt lat="38.806" lon="15.2155">
        <ele>260.65</ele>
        <time>2018-04-17T14:17:48Z</time>
      </trkpt>
      <trkpt lat="38.806" lon="15.21535">
        <ele>262.1</ele>
        <time>2018-04-17T14:17:59Z</time>
      </trkpt>
      <trkpt lat="38.80596" lon="15.21524">
        <ele>263.06</ele>
        <time>2018-04-17T14:18:12Z</time>
      </trkpt>
      <trkpt lat="38.80596" lon="15.21524">
        <ele>262.1</ele>
        <time>2018-04-17T14:18:29Z</time>
      </trkpt>
      <trkpt lat="38.80596" lon="15.21524">
        <ele>262.1</ele>
        <time>2018-04-17T14:18:39Z</time>
      </trkpt>
      <trkpt lat="38.80595" lon="15.21519">
        <ele>262.58</ele>
        <time>2018-04-17T14:18:46Z</time>
      </trkpt>
      <trkpt lat="38.80591" lon="15.2151">
        <ele>264.02</ele>
        <time>2018-04-17T14:18:55Z</time>
      </trkpt>
      <trkpt lat="38.8059" lon="15.21504">
        <ele>265.46</ele>
        <time>2018-04-17T14:19:00Z</time>
      </trkpt>
      <trkpt lat="38.80587" lon="15.21494">
        <ele>267.38</ele>
        <time>2018-04-17T14:19:07Z</time>
      </trkpt>
      <trkpt lat="38.80584" lon="15.21478">
        <ele>268.83</ele>
        <time>2018-04-17T14:19:19Z</time>
      </trkpt>
      <trkpt lat="38.80581" lon="15.21469">
        <ele>269.31</ele>
        <time>2018-04-17T14:19:27Z</time>
      </trkpt>
      <trkpt lat="38.80575" lon="15.2145">
        <ele>270.75</ele>
        <time>2018-04-17T14:19:44Z</time>
      </trkpt>
      <trkpt lat="38.80572" lon="15.21439">
        <ele>272.19</ele>
        <time>2018-04-17T14:19:58Z</time>
      </trkpt>
      <trkpt lat="38.80569" lon="15.21425">
        <ele>275.56</ele>
        <time>2018-04-17T14:20:11Z</time>
      </trkpt>
      <trkpt lat="38.80568" lon="15.21421">
        <ele>276.52</ele>
        <time>2018-04-17T14:20:15Z</time>
      </trkpt>
      <trkpt lat="38.80568" lon="15.21416">
        <ele>277.48</ele>
        <time>2018-04-17T14:20:19Z</time>
      </trkpt>
      <trkpt lat="38.80567" lon="15.21413">
        <ele>276.52</ele>
        <time>2018-04-17T14:20:22Z</time>
      </trkpt>
      <trkpt lat="38.80561" lon="15.21404">
        <ele>277.48</ele>
        <time>2018-04-17T14:20:34Z</time>
      </trkpt>
      <trkpt lat="38.80557" lon="15.21392">
        <ele>279.88</ele>
        <time>2018-04-17T14:20:46Z</time>
      </trkpt>
      <trkpt lat="38.80554" lon="15.21386">
        <ele>279.4</ele>
        <time>2018-04-17T14:20:58Z</time>
      </trkpt>
      <trkpt lat="38.80553" lon="15.21387">
        <ele>279.4</ele>
        <time>2018-04-17T14:21:10Z</time>
      </trkpt>
      <trkpt lat="38.80551" lon="15.21386">
        <ele>279.4</ele>
        <time>2018-04-17T14:21:27Z</time>
      </trkpt>
      <trkpt lat="38.80551" lon="15.21393">
        <ele>279.88</ele>
        <time>2018-04-17T14:21:38Z</time>
      </trkpt>
      <trkpt lat="38.80551" lon="15.21394">
        <ele>279.88</ele>
        <time>2018-04-17T14:21:39Z</time>
      </trkpt>
      <trkpt lat="38.80553" lon="15.214">
        <ele>280.36</ele>
        <time>2018-04-17T14:21:44Z</time>
      </trkpt>
      <trkpt lat="38.80552" lon="15.21408">
        <ele>281.32</ele>
        <time>2018-04-17T14:21:51Z</time>
      </trkpt>
      <trkpt lat="38.80547" lon="15.21421">
        <ele>282.28</ele>
        <time>2018-04-17T14:22:05Z</time>
      </trkpt>
      <trkpt lat="38.80543" lon="15.21436">
        <ele>283.73</ele>
        <time>2018-04-17T14:22:20Z</time>
      </trkpt>
      <trkpt lat="38.80535" lon="15.2144">
        <ele>287.09</ele>
        <time>2018-04-17T14:22:34Z</time>
      </trkpt>
      <trkpt lat="38.80533" lon="15.2143">
        <ele>289.49</ele>
        <time>2018-04-17T14:22:45Z</time>
      </trkpt>
      <trkpt lat="38.80533" lon="15.21416">
        <ele>292.38</ele>
        <time>2018-04-17T14:22:59Z</time>
      </trkpt>
      <trkpt lat="38.80533" lon="15.21411">
        <ele>292.86</ele>
        <time>2018-04-17T14:23:04Z</time>
      </trkpt>
      <trkpt lat="38.80528" lon="15.21397">
        <ele>295.26</ele>
        <time>2018-04-17T14:23:18Z</time>
      </trkpt>
      <trkpt lat="38.80518" lon="15.21388">
        <ele>296.22</ele>
        <time>2018-04-17T14:23:32Z</time>
      </trkpt>
      <trkpt lat="38.80519" lon="15.21394">
        <ele>298.15</ele>
        <time>2018-04-17T14:23:43Z</time>
      </trkpt>
      <trkpt lat="38.80518" lon="15.21401">
        <ele>298.15</ele>
        <time>2018-04-17T14:23:54Z</time>
      </trkpt>
      <trkpt lat="38.80512" lon="15.21399">
        <ele>299.11</ele>
        <time>2018-04-17T14:24:04Z</time>
      </trkpt>
      <trkpt lat="38.80511" lon="15.21412">
        <ele>300.55</ele>
        <time>2018-04-17T14:24:17Z</time>
      </trkpt>
      <trkpt lat="38.80505" lon="15.21408">
        <ele>303.91</ele>
        <time>2018-04-17T14:24:30Z</time>
      </trkpt>
      <trkpt lat="38.80499" lon="15.21416">
        <ele>305.84</ele>
        <time>2018-04-17T14:24:43Z</time>
      </trkpt>
      <trkpt lat="38.80495" lon="15.21424">
        <ele>307.28</ele>
        <time>2018-04-17T14:24:57Z</time>
      </trkpt>
      <trkpt lat="38.80489" lon="15.21437">
        <ele>310.64</ele>
        <time>2018-04-17T14:25:12Z</time>
      </trkpt>
      <trkpt lat="38.80485" lon="15.21443">
        <ele>313.05</ele>
        <time>2018-04-17T14:25:24Z</time>
      </trkpt>
      <trkpt lat="38.80481" lon="15.21447">
        <ele>314.49</ele>
        <time>2018-04-17T14:25:36Z</time>
      </trkpt>
      <trkpt lat="38.80479" lon="15.21455">
        <ele>316.89</ele>
        <time>2018-04-17T14:25:48Z</time>
      </trkpt>
      <trkpt lat="38.80474" lon="15.21462">
        <ele>319.3</ele>
        <time>2018-04-17T14:26:01Z</time>
      </trkpt>
      <trkpt lat="38.8047" lon="15.21464">
        <ele>321.22</ele>
        <time>2018-04-17T14:26:11Z</time>
      </trkpt>
      <trkpt lat="38.80463" lon="15.21466">
        <ele>324.58</ele>
        <time>2018-04-17T14:26:23Z</time>
      </trkpt>
      <trkpt lat="38.80458" lon="15.21472">
        <ele>326.99</ele>
        <time>2018-04-17T14:26:35Z</time>
      </trkpt>
      <trkpt lat="38.80456" lon="15.21467">
        <ele>328.91</ele>
        <time>2018-04-17T14:26:47Z</time>
      </trkpt>
      <trkpt lat="38.80451" lon="15.21466">
        <ele>330.83</ele>
        <time>2018-04-17T14:26:58Z</time>
      </trkpt>
      <trkpt lat="38.80444" lon="15.21467">
        <ele>333.23</ele>
        <time>2018-04-17T14:27:11Z</time>
      </trkpt>
      <trkpt lat="38.8044" lon="15.21464">
        <ele>336.12</ele>
        <time>2018-04-17T14:27:23Z</time>
      </trkpt>
      <trkpt lat="38.8044" lon="15.21464">
        <ele>336.12</ele>
        <time>2018-04-17T14:27:32Z</time>
      </trkpt>
      <trkpt lat="38.80437" lon="15.21467">
        <ele>337.56</ele>
        <time>2018-04-17T14:27:45Z</time>
      </trkpt>
      <trkpt lat="38.80436" lon="15.21466">
        <ele>338.52</ele>
        <time>2018-04-17T14:27:54Z</time>
      </trkpt>
      <trkpt lat="38.80435" lon="15.21466">
        <ele>339</ele>
        <time>2018-04-17T14:28:06Z</time>
      </trkpt>
      <trkpt lat="38.80428" lon="15.21471">
        <ele>342.85</ele>
        <time>2018-04-17T14:28:18Z</time>
      </trkpt>
      <trkpt lat="38.80422" lon="15.21466">
        <ele>345.73</ele>
        <time>2018-04-17T14:28:31Z</time>
      </trkpt>
      <trkpt lat="38.80414" lon="15.21467">
        <ele>349.1</ele>
        <time>2018-04-17T14:28:44Z</time>
      </trkpt>
      <trkpt lat="38.80412" lon="15.21465">
        <ele>351.5</ele>
        <time>2018-04-17T14:28:54Z</time>
      </trkpt>
      <trkpt lat="38.80405" lon="15.21466">
        <ele>354.38</ele>
        <time>2018-04-17T14:29:05Z</time>
      </trkpt>
      <trkpt lat="38.804" lon="15.21474">
        <ele>356.79</ele>
        <time>2018-04-17T14:29:18Z</time>
      </trkpt>
      <trkpt lat="38.80393" lon="15.21475">
        <ele>359.19</ele>
        <time>2018-04-17T14:29:30Z</time>
      </trkpt>
      <trkpt lat="38.80389" lon="15.21471">
        <ele>362.07</ele>
        <time>2018-04-17T14:29:42Z</time>
      </trkpt>
      <trkpt lat="38.80386" lon="15.21465">
        <ele>365.92</ele>
        <time>2018-04-17T14:29:55Z</time>
      </trkpt>
      <trkpt lat="38.80386" lon="15.21458">
        <ele>367.36</ele>
        <time>2018-04-17T14:30:09Z</time>
      </trkpt>
      <trkpt lat="38.80381" lon="15.21456">
        <ele>369.28</ele>
        <time>2018-04-17T14:30:20Z</time>
      </trkpt>
      <trkpt lat="38.80378" lon="15.21453">
        <ele>371.21</ele>
        <time>2018-04-17T14:30:34Z</time>
      </trkpt>
      <trkpt lat="38.80373" lon="15.2146">
        <ele>373.13</ele>
        <time>2018-04-17T14:30:46Z</time>
      </trkpt>
      <trkpt lat="38.80371" lon="15.21464">
        <ele>373.61</ele>
        <time>2018-04-17T14:30:51Z</time>
      </trkpt>
      <trkpt lat="38.80368" lon="15.21466">
        <ele>375.05</ele>
        <time>2018-04-17T14:30:56Z</time>
      </trkpt>
      <trkpt lat="38.80364" lon="15.21466">
        <ele>375.53</ele>
        <time>2018-04-17T14:31:02Z</time>
      </trkpt>
      <trkpt lat="38.80363" lon="15.21463">
        <ele>376.97</ele>
        <time>2018-04-17T14:31:14Z</time>
      </trkpt>
      <trkpt lat="38.80357" lon="15.21463">
        <ele>380.34</ele>
        <time>2018-04-17T14:31:26Z</time>
      </trkpt>
      <trkpt lat="38.80352" lon="15.21469">
        <ele>383.7</ele>
        <time>2018-04-17T14:31:40Z</time>
      </trkpt>
      <trkpt lat="38.8035" lon="15.21465">
        <ele>386.11</ele>
        <time>2018-04-17T14:31:53Z</time>
      </trkpt>
      <trkpt lat="38.80348" lon="15.21463">
        <ele>386.11</ele>
        <time>2018-04-17T14:32:05Z</time>
      </trkpt>
      <trkpt lat="38.80342" lon="15.21469">
        <ele>388.99</ele>
        <time>2018-04-17T14:32:19Z</time>
      </trkpt>
      <trkpt lat="38.80336" lon="15.21469">
        <ele>391.87</ele>
        <time>2018-04-17T14:32:31Z</time>
      </trkpt>
      <trkpt lat="38.80331" lon="15.21466">
        <ele>394.28</ele>
        <time>2018-04-17T14:32:43Z</time>
      </trkpt>
      <trkpt lat="38.80326" lon="15.21469">
        <ele>397.16</ele>
        <time>2018-04-17T14:32:56Z</time>
      </trkpt>
      <trkpt lat="38.80321" lon="15.21466">
        <ele>400.05</ele>
        <time>2018-04-17T14:33:08Z</time>
      </trkpt>
      <trkpt lat="38.80319" lon="15.21459">
        <ele>402.45</ele>
        <time>2018-04-17T14:33:20Z</time>
      </trkpt>
      <trkpt lat="38.80318" lon="15.21457">
        <ele>403.89</ele>
        <time>2018-04-17T14:33:34Z</time>
      </trkpt>
      <trkpt lat="38.80318" lon="15.21457">
        <ele>403.89</ele>
        <time>2018-04-17T14:33:51Z</time>
      </trkpt>
      <trkpt lat="38.80315" lon="15.21458">
        <ele>404.37</ele>
        <time>2018-04-17T14:34:09Z</time>
      </trkpt>
      <trkpt lat="38.80315" lon="15.21458">
        <ele>403.89</ele>
        <time>2018-04-17T14:34:27Z</time>
      </trkpt>
      <trkpt lat="38.80315" lon="15.21458">
        <ele>403.41</ele>
        <time>2018-04-17T14:34:53Z</time>
      </trkpt>
      <trkpt lat="38.80315" lon="15.21458">
        <ele>402.93</ele>
        <time>2018-04-17T14:35:23Z</time>
      </trkpt>
      <trkpt lat="38.80315" lon="15.21458">
        <ele>402.45</ele>
        <time>2018-04-17T14:35:54Z</time>
      </trkpt>
      <trkpt lat="38.80315" lon="15.21457">
        <ele>402.45</ele>
        <time>2018-04-17T14:36:27Z</time>
      </trkpt>
      <trkpt lat="38.80315" lon="15.21457">
        <ele>401.97</ele>
        <time>2018-04-17T14:36:55Z</time>
      </trkpt>
      <trkpt lat="38.80315" lon="15.21456">
        <ele>401.49</ele>
        <time>2018-04-17T14:37:28Z</time>
      </trkpt>
      <trkpt lat="38.80316" lon="15.21456">
        <ele>401.01</ele>
        <time>2018-04-17T14:38:01Z</time>
      </trkpt>
      <trkpt lat="38.80316" lon="15.21456">
        <ele>401.01</ele>
        <time>2018-04-17T14:38:35Z</time>
      </trkpt>
      <trkpt lat="38.80316" lon="15.21456">
        <ele>400.53</ele>
        <time>2018-04-17T14:39:10Z</time>
      </trkpt>
      <trkpt lat="38.80316" lon="15.21456">
        <ele>400.53</ele>
        <time>2018-04-17T14:39:43Z</time>
      </trkpt>
      <trkpt lat="38.80316" lon="15.21456">
        <ele>401.01</ele>
        <time>2018-04-17T14:40:12Z</time>
      </trkpt>
      <trkpt lat="38.80316" lon="15.21456">
        <ele>400.53</ele>
        <time>2018-04-17T14:40:55Z</time>
      </trkpt>
      <trkpt lat="38.80316" lon="15.21456">
        <ele>401.01</ele>
        <time>2018-04-17T14:41:34Z</time>
      </trkpt>
      <trkpt lat="38.80316" lon="15.21456">
        <ele>401.01</ele>
        <time>2018-04-17T14:42:06Z</time>
      </trkpt>
      <trkpt lat="38.80316" lon="15.21456">
        <ele>401.01</ele>
        <time>2018-04-17T14:42:44Z</time>
      </trkpt>
      <trkpt lat="38.80316" lon="15.21455">
        <ele>401.01</ele>
        <time>2018-04-17T14:43:16Z</time>
      </trkpt>
      <trkpt lat="38.80316" lon="15.21455">
        <ele>401.01</ele>
        <time>2018-04-17T14:43:47Z</time>
      </trkpt>
      <trkpt lat="38.80316" lon="15.21455">
        <ele>401.01</ele>
        <time>2018-04-17T14:44:24Z</time>
      </trkpt>
      <trkpt lat="38.80315" lon="15.21455">
        <ele>401.49</ele>
        <time>2018-04-17T14:44:50Z</time>
      </trkpt>
      <trkpt lat="38.80315" lon="15.21455">
        <ele>401.49</ele>
        <time>2018-04-17T14:45:23Z</time>
      </trkpt>
      <trkpt lat="38.80315" lon="15.21455">
        <ele>401.49</ele>
        <time>2018-04-17T14:45:53Z</time>
      </trkpt>
      <trkpt lat="38.80315" lon="15.21455">
        <ele>401.49</ele>
        <time>2018-04-17T14:46:30Z</time>
      </trkpt>
      <trkpt lat="38.80315" lon="15.21456">
        <ele>401.49</ele>
        <time>2018-04-17T14:47:11Z</time>
      </trkpt>
      <trkpt lat="38.80315" lon="15.21456">
        <ele>401.49</ele>
        <time>2018-04-17T14:47:47Z</time>
      </trkpt>
      <trkpt lat="38.80315" lon="15.21455">
        <ele>401.49</ele>
        <time>2018-04-17T14:48:29Z</time>
      </trkpt>
      <trkpt lat="38.80315" lon="15.21455">
        <ele>401.49</ele>
        <time>2018-04-17T14:49:04Z</time>
      </trkpt>
      <trkpt lat="38.80315" lon="15.21455">
        <ele>401.01</ele>
        <time>2018-04-17T14:49:34Z</time>
      </trkpt>
      <trkpt lat="38.80315" lon="15.21455">
        <ele>401.01</ele>
        <time>2018-04-17T14:50:17Z</time>
      </trkpt>
      <trkpt lat="38.80315" lon="15.21455">
        <ele>401.01</ele>
        <time>2018-04-17T14:50:55Z</time>
      </trkpt>
      <trkpt lat="38.80315" lon="15.21455">
        <ele>401.01</ele>
        <time>2018-04-17T14:51:31Z</time>
      </trkpt>
      <trkpt lat="38.80315" lon="15.21455">
        <ele>401.49</ele>
        <time>2018-04-17T14:52:07Z</time>
      </trkpt>
      <trkpt lat="38.80314" lon="15.21455">
        <ele>401.49</ele>
        <time>2018-04-17T14:52:42Z</time>
      </trkpt>
      <trkpt lat="38.80315" lon="15.21456">
        <ele>401.49</ele>
        <time>2018-04-17T14:53:16Z</time>
      </trkpt>
      <trkpt lat="38.80315" lon="15.21456">
        <ele>401.97</ele>
        <time>2018-04-17T14:53:49Z</time>
      </trkpt>
      <trkpt lat="38.80315" lon="15.21456">
        <ele>401.49</ele>
        <time>2018-04-17T14:54:19Z</time>
      </trkpt>
      <trkpt lat="38.80315" lon="15.21456">
        <ele>401.97</ele>
        <time>2018-04-17T14:54:54Z</time>
      </trkpt>
      <trkpt lat="38.80315" lon="15.21457">
        <ele>401.97</ele>
        <time>2018-04-17T14:55:15Z</time>
      </trkpt>
      <trkpt lat="38.80315" lon="15.21457">
        <ele>401.97</ele>
        <time>2018-04-17T14:55:46Z</time>
      </trkpt>
      <trkpt lat="38.80315" lon="15.21457">
        <ele>401.49</ele>
        <time>2018-04-17T14:56:15Z</time>
      </trkpt>
      <trkpt lat="38.80315" lon="15.21457">
        <ele>401.01</ele>
        <time>2018-04-17T14:56:38Z</time>
      </trkpt>
      <trkpt lat="38.80315" lon="15.21458">
        <ele>401.49</ele>
        <time>2018-04-17T14:57:16Z</time>
      </trkpt>
      <trkpt lat="38.80316" lon="15.21458">
        <ele>401.49</ele>
        <time>2018-04-17T14:57:44Z</time>
      </trkpt>
      <trkpt lat="38.80316" lon="15.21458">
        <ele>401.49</ele>
        <time>2018-04-17T14:58:19Z</time>
      </trkpt>
      <trkpt lat="38.80315" lon="15.21458">
        <ele>401.49</ele>
        <time>2018-04-17T14:58:50Z</time>
      </trkpt>
      <trkpt lat="38.80315" lon="15.21457">
        <ele>401.49</ele>
        <time>2018-04-17T14:59:32Z</time>
      </trkpt>
      <trkpt lat="38.80315" lon="15.21457">
        <ele>401.49</ele>
        <time>2018-04-17T14:59:59Z</time>
      </trkpt>
      <trkpt lat="38.80315" lon="15.21457">
        <ele>401.49</ele>
        <time>2018-04-17T15:00:21Z</time>
      </trkpt>
      <trkpt lat="38.80315" lon="15.21457">
        <ele>401.01</ele>
        <time>2018-04-17T15:00:47Z</time>
      </trkpt>
      <trkpt lat="38.80315" lon="15.21457">
        <ele>401.01</ele>
        <time>2018-04-17T15:01:15Z</time>
      </trkpt>
      <trkpt lat="38.80316" lon="15.21457">
        <ele>400.53</ele>
        <time>2018-04-17T15:01:38Z</time>
      </trkpt>
      <trkpt lat="38.80316" lon="15.21457">
        <ele>401.01</ele>
        <time>2018-04-17T15:02:13Z</time>
      </trkpt>
      <trkpt lat="38.80316" lon="15.21457">
        <ele>401.01</ele>
        <time>2018-04-17T15:02:42Z</time>
      </trkpt>
      <trkpt lat="38.80316" lon="15.21457">
        <ele>401.01</ele>
        <time>2018-04-17T15:03:13Z</time>
      </trkpt>
      <trkpt lat="38.80315" lon="15.21457">
        <ele>401.01</ele>
        <time>2018-04-17T15:03:45Z</time>
      </trkpt>
      <trkpt lat="38.80315" lon="15.21457">
        <ele>401.01</ele>
        <time>2018-04-17T15:04:19Z</time>
      </trkpt>
      <trkpt lat="38.80315" lon="15.21457">
        <ele>401.01</ele>
        <time>2018-04-17T15:04:43Z</time>
      </trkpt>
      <trkpt lat="38.80315" lon="15.21457">
        <ele>401.01</ele>
        <time>2018-04-17T15:05:18Z</time>
      </trkpt>
      <trkpt lat="38.80315" lon="15.21457">
        <ele>401.01</ele>
        <time>2018-04-17T15:05:46Z</time>
      </trkpt>
      <trkpt lat="38.80315" lon="15.21457">
        <ele>401.01</ele>
        <time>2018-04-17T15:06:18Z</time>
      </trkpt>
      <trkpt lat="38.80316" lon="15.21457">
        <ele>401.01</ele>
        <time>2018-04-17T15:06:56Z</time>
      </trkpt>
      <trkpt lat="38.80316" lon="15.21457">
        <ele>401.01</ele>
        <time>2018-04-17T15:07:25Z</time>
      </trkpt>
      <trkpt lat="38.80316" lon="15.21457">
        <ele>401.01</ele>
        <time>2018-04-17T15:07:57Z</time>
      </trkpt>
      <trkpt lat="38.80316" lon="15.21457">
        <ele>401.01</ele>
        <time>2018-04-17T15:08:23Z</time>
      </trkpt>
      <trkpt lat="38.80316" lon="15.21458">
        <ele>401.01</ele>
        <time>2018-04-17T15:08:56Z</time>
      </trkpt>
      <trkpt lat="38.80316" lon="15.21458">
        <ele>401.01</ele>
        <time>2018-04-17T15:09:26Z</time>
      </trkpt>
      <trkpt lat="38.80316" lon="15.21457">
        <ele>401.01</ele>
        <time>2018-04-17T15:09:57Z</time>
      </trkpt>
      <trkpt lat="38.80316" lon="15.21458">
        <ele>401.01</ele>
        <time>2018-04-17T15:10:32Z</time>
      </trkpt>
      <trkpt lat="38.80316" lon="15.21458">
        <ele>401.01</ele>
        <time>2018-04-17T15:11:10Z</time>
      </trkpt>
      <trkpt lat="38.80315" lon="15.21458">
        <ele>401.01</ele>
        <time>2018-04-17T15:11:33Z</time>
      </trkpt>
      <trkpt lat="38.80315" lon="15.21458">
        <ele>401.97</ele>
        <time>2018-04-17T15:11:59Z</time>
      </trkpt>
      <trkpt lat="38.80315" lon="15.21459">
        <ele>402.45</ele>
        <time>2018-04-17T15:12:44Z</time>
      </trkpt>
      <trkpt lat="38.80315" lon="15.21458">
        <ele>402.93</ele>
        <time>2018-04-17T15:13:23Z</time>
      </trkpt>
      <trkpt lat="38.80315" lon="15.21458">
        <ele>402.93</ele>
        <time>2018-04-17T15:14:17Z</time>
      </trkpt>
      <trkpt lat="38.80315" lon="15.21459">
        <ele>402.93</ele>
        <time>2018-04-17T15:14:52Z</time>
      </trkpt>
      <trkpt lat="38.80315" lon="15.21459">
        <ele>402.45</ele>
        <time>2018-04-17T15:15:34Z</time>
      </trkpt>
      <trkpt lat="38.80316" lon="15.21459">
        <ele>401.49</ele>
        <time>2018-04-17T15:16:13Z</time>
      </trkpt>
      <trkpt lat="38.80316" lon="15.21459">
        <ele>401.01</ele>
        <time>2018-04-17T15:16:51Z</time>
      </trkpt>
      <trkpt lat="38.80315" lon="15.21459">
        <ele>400.53</ele>
        <time>2018-04-17T15:17:23Z</time>
      </trkpt>
      <trkpt lat="38.80315" lon="15.21459">
        <ele>400.05</ele>
        <time>2018-04-17T15:17:54Z</time>
      </trkpt>
      <trkpt lat="38.80315" lon="15.21458">
        <ele>400.05</ele>
        <time>2018-04-17T15:18:20Z</time>
      </trkpt>
      <trkpt lat="38.80315" lon="15.21458">
        <ele>400.53</ele>
        <time>2018-04-17T15:18:57Z</time>
      </trkpt>
      <trkpt lat="38.80315" lon="15.21458">
        <ele>400.05</ele>
        <time>2018-04-17T15:19:30Z</time>
      </trkpt>
      <trkpt lat="38.80315" lon="15.21458">
        <ele>400.05</ele>
        <time>2018-04-17T15:20:02Z</time>
      </trkpt>
      <trkpt lat="38.80315" lon="15.21458">
        <ele>400.53</ele>
        <time>2018-04-17T15:20:30Z</time>
      </trkpt>
      <trkpt lat="38.80315" lon="15.21458">
        <ele>400.53</ele>
        <time>2018-04-17T15:21:07Z</time>
      </trkpt>
      <trkpt lat="38.80315" lon="15.21458">
        <ele>400.05</ele>
        <time>2018-04-17T15:21:39Z</time>
      </trkpt>
      <trkpt lat="38.80316" lon="15.21457">
        <ele>400.05</ele>
        <time>2018-04-17T15:22:13Z</time>
      </trkpt>
      <trkpt lat="38.80316" lon="15.21457">
        <ele>400.05</ele>
        <time>2018-04-17T15:22:53Z</time>
      </trkpt>
      <trkpt lat="38.80315" lon="15.21457">
        <ele>399.57</ele>
        <time>2018-04-17T15:23:40Z</time>
      </trkpt>
      <trkpt lat="38.80316" lon="15.21457">
        <ele>399.57</ele>
        <time>2018-04-17T15:24:18Z</time>
      </trkpt>
      <trkpt lat="38.80315" lon="15.21457">
        <ele>399.57</ele>
        <time>2018-04-17T15:24:47Z</time>
      </trkpt>
      <trkpt lat="38.80318" lon="15.21458">
        <ele>400.05</ele>
        <time>2018-04-17T15:24:57Z</time>
      </trkpt>
      <trkpt lat="38.80319" lon="15.21459">
        <ele>401.49</ele>
        <time>2018-04-17T15:25:08Z</time>
      </trkpt>
      <trkpt lat="38.80319" lon="15.21461">
        <ele>401.49</ele>
        <time>2018-04-17T15:25:21Z</time>
      </trkpt>
      <trkpt lat="38.80323" lon="15.21466">
        <ele>397.64</ele>
        <time>2018-04-17T15:25:34Z</time>
      </trkpt>
      <trkpt lat="38.80329" lon="15.21466">
        <ele>396.2</ele>
        <time>2018-04-17T15:25:48Z</time>
      </trkpt>
      <trkpt lat="38.80333" lon="15.21465">
        <ele>395.24</ele>
        <time>2018-04-17T15:26:00Z</time>
      </trkpt>
      <trkpt lat="38.80334" lon="15.21464">
        <ele>394.76</ele>
        <time>2018-04-17T15:26:18Z</time>
      </trkpt>
      <trkpt lat="38.80335" lon="15.21466">
        <ele>394.28</ele>
        <time>2018-04-17T15:26:30Z</time>
      </trkpt>
      <trkpt lat="38.80339" lon="15.2147">
        <ele>392.36</ele>
        <time>2018-04-17T15:26:43Z</time>
      </trkpt>
      <trkpt lat="38.80343" lon="15.21469">
        <ele>391.39</ele>
        <time>2018-04-17T15:26:57Z</time>
      </trkpt>
      <trkpt lat="38.80349" lon="15.21464">
        <ele>388.51</ele>
        <time>2018-04-17T15:27:10Z</time>
      </trkpt>
      <trkpt lat="38.80349" lon="15.21464">
        <ele>388.51</ele>
        <time>2018-04-17T15:27:11Z</time>
      </trkpt>
      <trkpt lat="38.8035" lon="15.21468">
        <ele>387.55</ele>
        <time>2018-04-17T15:27:16Z</time>
      </trkpt>
      <trkpt lat="38.80355" lon="15.21463">
        <ele>385.15</ele>
        <time>2018-04-17T15:27:28Z</time>
      </trkpt>
      <trkpt lat="38.80364" lon="15.21464">
        <ele>381.3</ele>
        <time>2018-04-17T15:27:42Z</time>
      </trkpt>
      <trkpt lat="38.80365" lon="15.21466">
        <ele>379.86</ele>
        <time>2018-04-17T15:27:53Z</time>
      </trkpt>
      <trkpt lat="38.8037" lon="15.21466">
        <ele>377.94</ele>
        <time>2018-04-17T15:28:11Z</time>
      </trkpt>
      <trkpt lat="38.80377" lon="15.21458">
        <ele>375.53</ele>
        <time>2018-04-17T15:28:25Z</time>
      </trkpt>
      <trkpt lat="38.80377" lon="15.21453">
        <ele>373.61</ele>
        <time>2018-04-17T15:28:35Z</time>
      </trkpt>
      <trkpt lat="38.8038" lon="15.21453">
        <ele>372.65</ele>
        <time>2018-04-17T15:28:48Z</time>
      </trkpt>
      <trkpt lat="38.80382" lon="15.21456">
        <ele>371.21</ele>
        <time>2018-04-17T15:28:58Z</time>
      </trkpt>
      <trkpt lat="38.80386" lon="15.21458">
        <ele>369.76</ele>
        <time>2018-04-17T15:29:10Z</time>
      </trkpt>
      <trkpt lat="38.80385" lon="15.21464">
        <ele>367.36</ele>
        <time>2018-04-17T15:29:23Z</time>
      </trkpt>
      <trkpt lat="38.80389" lon="15.21469">
        <ele>366.4</ele>
        <time>2018-04-17T15:29:35Z</time>
      </trkpt>
      <trkpt lat="38.80389" lon="15.21476">
        <ele>364.48</ele>
        <time>2018-04-17T15:29:46Z</time>
      </trkpt>
      <trkpt lat="38.80395" lon="15.21476">
        <ele>364</ele>
        <time>2018-04-17T15:30:00Z</time>
      </trkpt>
      <trkpt lat="38.80398" lon="15.21476">
        <ele>363.52</ele>
        <time>2018-04-17T15:30:05Z</time>
      </trkpt>
      <trkpt lat="38.80402" lon="15.2147">
        <ele>360.63</ele>
        <time>2018-04-17T15:30:18Z</time>
      </trkpt>
      <trkpt lat="38.80406" lon="15.21466">
        <ele>357.27</ele>
        <time>2018-04-17T15:30:32Z</time>
      </trkpt>
      <trkpt lat="38.80411" lon="15.21466">
        <ele>354.86</ele>
        <time>2018-04-17T15:30:47Z</time>
      </trkpt>
      <trkpt lat="38.80414" lon="15.21465">
        <ele>353.42</ele>
        <time>2018-04-17T15:31:01Z</time>
      </trkpt>
      <trkpt lat="38.80417" lon="15.21464">
        <ele>352.46</ele>
        <time>2018-04-17T15:31:17Z</time>
      </trkpt>
      <trkpt lat="38.80422" lon="15.21468">
        <ele>348.13</ele>
        <time>2018-04-17T15:31:30Z</time>
      </trkpt>
      <trkpt lat="38.80425" lon="15.21464">
        <ele>345.25</ele>
        <time>2018-04-17T15:31:44Z</time>
      </trkpt>
      <trkpt lat="38.8043" lon="15.21461">
        <ele>343.81</ele>
        <time>2018-04-17T15:31:56Z</time>
      </trkpt>
      <trkpt lat="38.80432" lon="15.21463">
        <ele>342.37</ele>
        <time>2018-04-17T15:32:08Z</time>
      </trkpt>
      <trkpt lat="38.80434" lon="15.21463">
        <ele>340.92</ele>
        <time>2018-04-17T15:32:21Z</time>
      </trkpt>
      <trkpt lat="38.80438" lon="15.21464">
        <ele>339</ele>
        <time>2018-04-17T15:32:36Z</time>
      </trkpt>
      <trkpt lat="38.80441" lon="15.21462">
        <ele>337.56</ele>
        <time>2018-04-17T15:32:50Z</time>
      </trkpt>
      <trkpt lat="38.80444" lon="15.21466">
        <ele>335.16</ele>
        <time>2018-04-17T15:33:00Z</time>
      </trkpt>
      <trkpt lat="38.80448" lon="15.21465">
        <ele>333.71</ele>
        <time>2018-04-17T15:33:12Z</time>
      </trkpt>
      <trkpt lat="38.80454" lon="15.21466">
        <ele>330.35</ele>
        <time>2018-04-17T15:33:25Z</time>
      </trkpt>
      <trkpt lat="38.80457" lon="15.21467">
        <ele>328.91</ele>
        <time>2018-04-17T15:33:36Z</time>
      </trkpt>
      <trkpt lat="38.80459" lon="15.2147">
        <ele>326.5</ele>
        <time>2018-04-17T15:33:47Z</time>
      </trkpt>
      <trkpt lat="38.80464" lon="15.21467">
        <ele>325.06</ele>
        <time>2018-04-17T15:33:59Z</time>
      </trkpt>
      <trkpt lat="38.80469" lon="15.21463">
        <ele>323.14</ele>
        <time>2018-04-17T15:34:13Z</time>
      </trkpt>
      <trkpt lat="38.80474" lon="15.21463">
        <ele>321.22</ele>
        <time>2018-04-17T15:34:25Z</time>
      </trkpt>
      <trkpt lat="38.80477" lon="15.21459">
        <ele>319.78</ele>
        <time>2018-04-17T15:34:36Z</time>
      </trkpt>
      <trkpt lat="38.80479" lon="15.21456">
        <ele>318.81</ele>
        <time>2018-04-17T15:34:40Z</time>
      </trkpt>
      <trkpt lat="38.8048" lon="15.21449">
        <ele>316.89</ele>
        <time>2018-04-17T15:34:54Z</time>
      </trkpt>
      <trkpt lat="38.80483" lon="15.21444">
        <ele>314.49</ele>
        <time>2018-04-17T15:35:05Z</time>
      </trkpt>
      <trkpt lat="38.80487" lon="15.21437">
        <ele>312.57</ele>
        <time>2018-04-17T15:35:17Z</time>
      </trkpt>
      <trkpt lat="38.80491" lon="15.21435">
        <ele>311.12</ele>
        <time>2018-04-17T15:35:21Z</time>
      </trkpt>
      <trkpt lat="38.80495" lon="15.21426">
        <ele>307.76</ele>
        <time>2018-04-17T15:35:30Z</time>
      </trkpt>
      <trkpt lat="38.80499" lon="15.2142">
        <ele>305.36</ele>
        <time>2018-04-17T15:35:39Z</time>
      </trkpt>
      <trkpt lat="38.805" lon="15.21415">
        <ele>305.36</ele>
        <time>2018-04-17T15:35:45Z</time>
      </trkpt>
      <trkpt lat="38.80504" lon="15.21407">
        <ele>302.47</ele>
        <time>2018-04-17T15:35:58Z</time>
      </trkpt>
      <trkpt lat="38.80507" lon="15.21408">
        <ele>301.99</ele>
        <time>2018-04-17T15:36:03Z</time>
      </trkpt>
      <trkpt lat="38.80513" lon="15.21409">
        <ele>301.03</ele>
        <time>2018-04-17T15:36:15Z</time>
      </trkpt>
      <trkpt lat="38.80511" lon="15.21405">
        <ele>300.07</ele>
        <time>2018-04-17T15:36:18Z</time>
      </trkpt>
      <trkpt lat="38.80511" lon="15.21402">
        <ele>299.59</ele>
        <time>2018-04-17T15:36:21Z</time>
      </trkpt>
      <trkpt lat="38.80515" lon="15.21401">
        <ele>298.15</ele>
        <time>2018-04-17T15:36:27Z</time>
      </trkpt>
      <trkpt lat="38.80519" lon="15.21401">
        <ele>297.67</ele>
        <time>2018-04-17T15:36:36Z</time>
      </trkpt>
      <trkpt lat="38.80517" lon="15.21396">
        <ele>297.67</ele>
        <time>2018-04-17T15:36:43Z</time>
      </trkpt>
      <trkpt lat="38.80516" lon="15.21389">
        <ele>296.22</ele>
        <time>2018-04-17T15:36:54Z</time>
      </trkpt>
      <trkpt lat="38.80519" lon="15.21387">
        <ele>294.78</ele>
        <time>2018-04-17T15:37:12Z</time>
      </trkpt>
      <trkpt lat="38.80519" lon="15.21388">
        <ele>295.74</ele>
        <time>2018-04-17T15:37:33Z</time>
      </trkpt>
      <trkpt lat="38.8052" lon="15.21387">
        <ele>295.26</ele>
        <time>2018-04-17T15:38:00Z</time>
      </trkpt>
      <trkpt lat="38.8052" lon="15.21388">
        <ele>295.26</ele>
        <time>2018-04-17T15:38:21Z</time>
      </trkpt>
      <trkpt lat="38.80519" lon="15.21388">
        <ele>295.74</ele>
        <time>2018-04-17T15:38:53Z</time>
      </trkpt>
      <trkpt lat="38.8052" lon="15.21387">
        <ele>295.74</ele>
        <time>2018-04-17T15:39:21Z</time>
      </trkpt>
      <trkpt lat="38.8052" lon="15.21387">
        <ele>295.74</ele>
        <time>2018-04-17T15:39:54Z</time>
      </trkpt>
      <trkpt lat="38.8052" lon="15.21387">
        <ele>294.3</ele>
        <time>2018-04-17T15:40:26Z</time>
      </trkpt>
      <trkpt lat="38.80524" lon="15.21391">
        <ele>294.3</ele>
        <time>2018-04-17T15:40:30Z</time>
      </trkpt>
      <trkpt lat="38.8053" lon="15.21397">
        <ele>293.34</ele>
        <time>2018-04-17T15:40:36Z</time>
      </trkpt>
      <trkpt lat="38.80534" lon="15.21411">
        <ele>290.94</ele>
        <time>2018-04-17T15:40:47Z</time>
      </trkpt>
      <trkpt lat="38.80534" lon="15.21416">
        <ele>290.46</ele>
        <time>2018-04-17T15:40:56Z</time>
      </trkpt>
      <trkpt lat="38.80534" lon="15.21428">
        <ele>288.05</ele>
        <time>2018-04-17T15:41:08Z</time>
      </trkpt>
      <trkpt lat="38.80535" lon="15.2144">
        <ele>287.57</ele>
        <time>2018-04-17T15:41:20Z</time>
      </trkpt>
      <trkpt lat="38.80537" lon="15.2144">
        <ele>287.57</ele>
        <time>2018-04-17T15:41:23Z</time>
      </trkpt>
      <trkpt lat="38.80538" lon="15.2144">
        <ele>287.57</ele>
        <time>2018-04-17T15:41:25Z</time>
      </trkpt>
      <trkpt lat="38.80542" lon="15.21437">
        <ele>287.09</ele>
        <time>2018-04-17T15:41:32Z</time>
      </trkpt>
      <trkpt lat="38.80542" lon="15.21433">
        <ele>286.61</ele>
        <time>2018-04-17T15:41:36Z</time>
      </trkpt>
      <trkpt lat="38.80544" lon="15.2143">
        <ele>285.65</ele>
        <time>2018-04-17T15:41:39Z</time>
      </trkpt>
      <trkpt lat="38.80552" lon="15.21412">
        <ele>284.21</ele>
        <time>2018-04-17T15:41:53Z</time>
      </trkpt>
      <trkpt lat="38.80552" lon="15.21401">
        <ele>282.28</ele>
        <time>2018-04-17T15:42:01Z</time>
      </trkpt>
      <trkpt lat="38.80551" lon="15.2139">
        <ele>280.36</ele>
        <time>2018-04-17T15:42:10Z</time>
      </trkpt>
      <trkpt lat="38.80553" lon="15.21388">
        <ele>280.36</ele>
        <time>2018-04-17T15:42:12Z</time>
      </trkpt>
      <trkpt lat="38.80557" lon="15.21389">
        <ele>279.88</ele>
        <time>2018-04-17T15:42:17Z</time>
      </trkpt>
      <trkpt lat="38.80561" lon="15.21399">
        <ele>278.44</ele>
        <time>2018-04-17T15:42:29Z</time>
      </trkpt>
      <trkpt lat="38.80566" lon="15.21412">
        <ele>276.04</ele>
        <time>2018-04-17T15:42:42Z</time>
      </trkpt>
      <trkpt lat="38.80573" lon="15.21432">
        <ele>272.67</ele>
        <time>2018-04-17T15:42:56Z</time>
      </trkpt>
      <trkpt lat="38.80574" lon="15.21439">
        <ele>270.27</ele>
        <time>2018-04-17T15:43:01Z</time>
      </trkpt>
      <trkpt lat="38.80575" lon="15.21446">
        <ele>269.31</ele>
        <time>2018-04-17T15:43:08Z</time>
      </trkpt>
      <trkpt lat="38.80578" lon="15.21456">
        <ele>269.31</ele>
        <time>2018-04-17T15:43:20Z</time>
      </trkpt>
      <trkpt lat="38.8058" lon="15.21461">
        <ele>268.83</ele>
        <time>2018-04-17T15:43:38Z</time>
      </trkpt>
      <trkpt lat="38.80581" lon="15.21463">
        <ele>268.35</ele>
        <time>2018-04-17T15:43:40Z</time>
      </trkpt>
      <trkpt lat="38.80582" lon="15.21468">
        <ele>266.9</ele>
        <time>2018-04-17T15:43:44Z</time>
      </trkpt>
      <trkpt lat="38.80586" lon="15.21477">
        <ele>264.98</ele>
        <time>2018-04-17T15:43:50Z</time>
      </trkpt>
      <trkpt lat="38.80586" lon="15.21486">
        <ele>264.5</ele>
        <time>2018-04-17T15:43:56Z</time>
      </trkpt>
      <trkpt lat="38.80587" lon="15.2149">
        <ele>264.98</ele>
        <time>2018-04-17T15:44:00Z</time>
      </trkpt>
      <trkpt lat="38.80593" lon="15.21509">
        <ele>264.02</ele>
        <time>2018-04-17T15:44:14Z</time>
      </trkpt>
      <trkpt lat="38.80595" lon="15.21516">
        <ele>263.54</ele>
        <time>2018-04-17T15:44:21Z</time>
      </trkpt>
      <trkpt lat="38.806" lon="15.21536">
        <ele>262.1</ele>
        <time>2018-04-17T15:44:34Z</time>
      </trkpt>
      <trkpt lat="38.80601" lon="15.21546">
        <ele>260.65</ele>
        <time>2018-04-17T15:44:40Z</time>
      </trkpt>
      <trkpt lat="38.80601" lon="15.21558">
        <ele>258.73</ele>
        <time>2018-04-17T15:44:52Z</time>
      </trkpt>
      <trkpt lat="38.80602" lon="15.21575">
        <ele>256.33</ele>
        <time>2018-04-17T15:45:04Z</time>
      </trkpt>
      <trkpt lat="38.80602" lon="15.21578">
        <ele>255.37</ele>
        <time>2018-04-17T15:45:10Z</time>
      </trkpt>
      <trkpt lat="38.806" lon="15.21583">
        <ele>254.41</ele>
        <time>2018-04-17T15:45:14Z</time>
      </trkpt>
      <trkpt lat="38.80599" lon="15.21587">
        <ele>253.93</ele>
        <time>2018-04-17T15:45:17Z</time>
      </trkpt>
      <trkpt lat="38.80598" lon="15.21598">
        <ele>252</ele>
        <time>2018-04-17T15:45:24Z</time>
      </trkpt>
      <trkpt lat="38.806" lon="15.21603">
        <ele>251.52</ele>
        <time>2018-04-17T15:45:28Z</time>
      </trkpt>
      <trkpt lat="38.80607" lon="15.21603">
        <ele>255.37</ele>
        <time>2018-04-17T15:45:39Z</time>
      </trkpt>
      <trkpt lat="38.80607" lon="15.21602">
        <ele>254.89</ele>
        <time>2018-04-17T15:45:42Z</time>
      </trkpt>
      <trkpt lat="38.80609" lon="15.21595">
        <ele>253.44</ele>
        <time>2018-04-17T15:45:47Z</time>
      </trkpt>
      <trkpt lat="38.80611" lon="15.21589">
        <ele>252.48</ele>
        <time>2018-04-17T15:45:53Z</time>
      </trkpt>
      <trkpt lat="38.80613" lon="15.2158">
        <ele>252</ele>
        <time>2018-04-17T15:46:05Z</time>
      </trkpt>
      <trkpt lat="38.80616" lon="15.21568">
        <ele>252</ele>
        <time>2018-04-17T15:46:17Z</time>
      </trkpt>
      <trkpt lat="38.8062" lon="15.21554">
        <ele>249.6</ele>
        <time>2018-04-17T15:46:30Z</time>
      </trkpt>
      <trkpt lat="38.8062" lon="15.21553">
        <ele>249.6</ele>
        <time>2018-04-17T15:46:31Z</time>
      </trkpt>
      <trkpt lat="38.80626" lon="15.21536">
        <ele>247.68</ele>
        <time>2018-04-17T15:46:45Z</time>
      </trkpt>
      <trkpt lat="38.80627" lon="15.2153">
        <ele>246.72</ele>
        <time>2018-04-17T15:46:50Z</time>
      </trkpt>
      <trkpt lat="38.80629" lon="15.21509">
        <ele>246.23</ele>
        <time>2018-04-17T15:47:06Z</time>
      </trkpt>
      <trkpt lat="38.80633" lon="15.21498">
        <ele>244.79</ele>
        <time>2018-04-17T15:47:13Z</time>
      </trkpt>
      <trkpt lat="38.8064" lon="15.21503">
        <ele>243.83</ele>
        <time>2018-04-17T15:47:24Z</time>
      </trkpt>
      <trkpt lat="38.80641" lon="15.21509">
        <ele>243.83</ele>
        <time>2018-04-17T15:47:30Z</time>
      </trkpt>
      <trkpt lat="38.80641" lon="15.21515">
        <ele>243.35</ele>
        <time>2018-04-17T15:47:34Z</time>
      </trkpt>
      <trkpt lat="38.80642" lon="15.21521">
        <ele>243.83</ele>
        <time>2018-04-17T15:47:39Z</time>
      </trkpt>
      <trkpt lat="38.80641" lon="15.21529">
        <ele>242.87</ele>
        <time>2018-04-17T15:47:45Z</time>
      </trkpt>
      <trkpt lat="38.80642" lon="15.21534">
        <ele>242.39</ele>
        <time>2018-04-17T15:47:56Z</time>
      </trkpt>
      <trkpt lat="38.80642" lon="15.21538">
        <ele>242.39</ele>
        <time>2018-04-17T15:48:00Z</time>
      </trkpt>
      <trkpt lat="38.80641" lon="15.21544">
        <ele>242.87</ele>
        <time>2018-04-17T15:48:05Z</time>
      </trkpt>
      <trkpt lat="38.80642" lon="15.21555">
        <ele>242.39</ele>
        <time>2018-04-17T15:48:13Z</time>
      </trkpt>
      <trkpt lat="38.80641" lon="15.2157">
        <ele>240.95</ele>
        <time>2018-04-17T15:48:25Z</time>
      </trkpt>
      <trkpt lat="38.80641" lon="15.21589">
        <ele>239.99</ele>
        <time>2018-04-17T15:48:38Z</time>
      </trkpt>
      <trkpt lat="38.80641" lon="15.21594">
        <ele>239.51</ele>
        <time>2018-04-17T15:48:41Z</time>
      </trkpt>
      <trkpt lat="38.80643" lon="15.21614">
        <ele>237.1</ele>
        <time>2018-04-17T15:48:54Z</time>
      </trkpt>
      <trkpt lat="38.80643" lon="15.21618">
        <ele>236.62</ele>
        <time>2018-04-17T15:48:57Z</time>
      </trkpt>
      <trkpt lat="38.80646" lon="15.21621">
        <ele>236.62</ele>
        <time>2018-04-17T15:49:01Z</time>
      </trkpt>
      <trkpt lat="38.8065" lon="15.2162">
        <ele>238.06</ele>
        <time>2018-04-17T15:49:05Z</time>
      </trkpt>
      <trkpt lat="38.80653" lon="15.21605">
        <ele>232.78</ele>
        <time>2018-04-17T15:49:18Z</time>
      </trkpt>
      <trkpt lat="38.80655" lon="15.21602">
        <ele>230.85</ele>
        <time>2018-04-17T15:49:24Z</time>
      </trkpt>
      <trkpt lat="38.80655" lon="15.21593">
        <ele>229.41</ele>
        <time>2018-04-17T15:49:30Z</time>
      </trkpt>
      <trkpt lat="38.80657" lon="15.21577">
        <ele>230.37</ele>
        <time>2018-04-17T15:49:44Z</time>
      </trkpt>
      <trkpt lat="38.80662" lon="15.21562">
        <ele>228.93</ele>
        <time>2018-04-17T15:49:56Z</time>
      </trkpt>
      <trkpt lat="38.80663" lon="15.2156">
        <ele>228.45</ele>
        <time>2018-04-17T15:49:57Z</time>
      </trkpt>
      <trkpt lat="38.80667" lon="15.2155">
        <ele>226.53</ele>
        <time>2018-04-17T15:50:08Z</time>
      </trkpt>
      <trkpt lat="38.80675" lon="15.21535">
        <ele>225.09</ele>
        <time>2018-04-17T15:50:21Z</time>
      </trkpt>
      <trkpt lat="38.80683" lon="15.21521">
        <ele>223.16</ele>
        <time>2018-04-17T15:50:34Z</time>
      </trkpt>
      <trkpt lat="38.80686" lon="15.21515">
        <ele>222.2</ele>
        <time>2018-04-17T15:50:40Z</time>
      </trkpt>
      <trkpt lat="38.80692" lon="15.21506">
        <ele>222.2</ele>
        <time>2018-04-17T15:50:48Z</time>
      </trkpt>
      <trkpt lat="38.80696" lon="15.21502">
        <ele>220.76</ele>
        <time>2018-04-17T15:50:52Z</time>
      </trkpt>
      <trkpt lat="38.80694" lon="15.21491">
        <ele>218.84</ele>
        <time>2018-04-17T15:50:59Z</time>
      </trkpt>
      <trkpt lat="38.80686" lon="15.21484">
        <ele>218.84</ele>
        <time>2018-04-17T15:51:06Z</time>
      </trkpt>
      <trkpt lat="38.80683" lon="15.21475">
        <ele>218.36</ele>
        <time>2018-04-17T15:51:12Z</time>
      </trkpt>
      <trkpt lat="38.80683" lon="15.21473">
        <ele>217.88</ele>
        <time>2018-04-17T15:51:14Z</time>
      </trkpt>
      <trkpt lat="38.80683" lon="15.21468">
        <ele>217.4</ele>
        <time>2018-04-17T15:51:17Z</time>
      </trkpt>
      <trkpt lat="38.80683" lon="15.2146">
        <ele>216.43</ele>
        <time>2018-04-17T15:51:22Z</time>
      </trkpt>
      <trkpt lat="38.80691" lon="15.21459">
        <ele>216.43</ele>
        <time>2018-04-17T15:51:30Z</time>
      </trkpt>
      <trkpt lat="38.80693" lon="15.2146">
        <ele>215.95</ele>
        <time>2018-04-17T15:51:33Z</time>
      </trkpt>
      <trkpt lat="38.80696" lon="15.21464">
        <ele>214.99</ele>
        <time>2018-04-17T15:51:38Z</time>
      </trkpt>
      <trkpt lat="38.80706" lon="15.21475">
        <ele>212.59</ele>
        <time>2018-04-17T15:51:51Z</time>
      </trkpt>
      <trkpt lat="38.80713" lon="15.21492">
        <ele>210.19</ele>
        <time>2018-04-17T15:52:05Z</time>
      </trkpt>
      <trkpt lat="38.80711" lon="15.21512">
        <ele>207.78</ele>
        <time>2018-04-17T15:52:18Z</time>
      </trkpt>
      <trkpt lat="38.80708" lon="15.21525">
        <ele>206.82</ele>
        <time>2018-04-17T15:52:31Z</time>
      </trkpt>
      <trkpt lat="38.80706" lon="15.21544">
        <ele>205.38</ele>
        <time>2018-04-17T15:52:43Z</time>
      </trkpt>
      <trkpt lat="38.80705" lon="15.21553">
        <ele>205.38</ele>
        <time>2018-04-17T15:52:50Z</time>
      </trkpt>
      <trkpt lat="38.80709" lon="15.21575">
        <ele>203.94</ele>
        <time>2018-04-17T15:53:04Z</time>
      </trkpt>
      <trkpt lat="38.80712" lon="15.21581">
        <ele>203.46</ele>
        <time>2018-04-17T15:53:08Z</time>
      </trkpt>
      <trkpt lat="38.80712" lon="15.21584">
        <ele>202.98</ele>
        <time>2018-04-17T15:53:10Z</time>
      </trkpt>
      <trkpt lat="38.80715" lon="15.21595">
        <ele>202.01</ele>
        <time>2018-04-17T15:53:16Z</time>
      </trkpt>
      <trkpt lat="38.80718" lon="15.21614">
        <ele>199.61</ele>
        <time>2018-04-17T15:53:30Z</time>
      </trkpt>
      <trkpt lat="38.80722" lon="15.21618">
        <ele>199.61</ele>
        <time>2018-04-17T15:53:35Z</time>
      </trkpt>
      <trkpt lat="38.80729" lon="15.21617">
        <ele>199.61</ele>
        <time>2018-04-17T15:53:44Z</time>
      </trkpt>
      <trkpt lat="38.80732" lon="15.21612">
        <ele>200.09</ele>
        <time>2018-04-17T15:53:49Z</time>
      </trkpt>
      <trkpt lat="38.80734" lon="15.21597">
        <ele>198.65</ele>
        <time>2018-04-17T15:54:01Z</time>
      </trkpt>
      <trkpt lat="38.80733" lon="15.21595">
        <ele>198.65</ele>
        <time>2018-04-17T15:54:03Z</time>
      </trkpt>
      <trkpt lat="38.80733" lon="15.2159">
        <ele>198.65</ele>
        <time>2018-04-17T15:54:07Z</time>
      </trkpt>
      <trkpt lat="38.80731" lon="15.21578">
        <ele>197.21</ele>
        <time>2018-04-17T15:54:19Z</time>
      </trkpt>
      <trkpt lat="38.80729" lon="15.21558">
        <ele>195.77</ele>
        <time>2018-04-17T15:54:32Z</time>
      </trkpt>
      <trkpt lat="38.8073" lon="15.21554">
        <ele>195.28</ele>
        <time>2018-04-17T15:54:35Z</time>
      </trkpt>
      <trkpt lat="38.80735" lon="15.21532">
        <ele>192.4</ele>
        <time>2018-04-17T15:54:50Z</time>
      </trkpt>
      <trkpt lat="38.80738" lon="15.21524">
        <ele>191.92</ele>
        <time>2018-04-17T15:55:00Z</time>
      </trkpt>
      <trkpt lat="38.80741" lon="15.21525">
        <ele>191.92</ele>
        <time>2018-04-17T15:55:14Z</time>
      </trkpt>
      <trkpt lat="38.80742" lon="15.21526">
        <ele>191.44</ele>
        <time>2018-04-17T15:55:18Z</time>
      </trkpt>
      <trkpt lat="38.80742" lon="15.21531">
        <ele>190.48</ele>
        <time>2018-04-17T15:55:22Z</time>
      </trkpt>
      <trkpt lat="38.80747" lon="15.21558">
        <ele>186.63</ele>
        <time>2018-04-17T15:55:37Z</time>
      </trkpt>
      <trkpt lat="38.80748" lon="15.21561">
        <ele>187.11</ele>
        <time>2018-04-17T15:55:39Z</time>
      </trkpt>
      <trkpt lat="38.8076" lon="15.2157">
        <ele>186.63</ele>
        <time>2018-04-17T15:55:53Z</time>
      </trkpt>
      <trkpt lat="38.80764" lon="15.21571">
        <ele>186.63</ele>
        <time>2018-04-17T15:55:56Z</time>
      </trkpt>
      <trkpt lat="38.80767" lon="15.21582">
        <ele>183.75</ele>
        <time>2018-04-17T15:56:03Z</time>
      </trkpt>
      <trkpt lat="38.80769" lon="15.21592">
        <ele>181.35</ele>
        <time>2018-04-17T15:56:11Z</time>
      </trkpt>
      <trkpt lat="38.80772" lon="15.21594">
        <ele>180.38</ele>
        <time>2018-04-17T15:56:15Z</time>
      </trkpt>
      <trkpt lat="38.80775" lon="15.21592">
        <ele>179.9</ele>
        <time>2018-04-17T15:56:20Z</time>
      </trkpt>
      <trkpt lat="38.80776" lon="15.21585">
        <ele>178.94</ele>
        <time>2018-04-17T15:56:26Z</time>
      </trkpt>
      <trkpt lat="38.80775" lon="15.21564">
        <ele>176.54</ele>
        <time>2018-04-17T15:56:42Z</time>
      </trkpt>
      <trkpt lat="38.80776" lon="15.21558">
        <ele>176.54</ele>
        <time>2018-04-17T15:56:46Z</time>
      </trkpt>
      <trkpt lat="38.80783" lon="15.21556">
        <ele>176.06</ele>
        <time>2018-04-17T15:56:53Z</time>
      </trkpt>
      <trkpt lat="38.80787" lon="15.21563">
        <ele>175.1</ele>
        <time>2018-04-17T15:56:58Z</time>
      </trkpt>
      <trkpt lat="38.80789" lon="15.2157">
        <ele>174.14</ele>
        <time>2018-04-17T15:57:03Z</time>
      </trkpt>
      <trkpt lat="38.80795" lon="15.21587">
        <ele>172.21</ele>
        <time>2018-04-17T15:57:15Z</time>
      </trkpt>
      <trkpt lat="38.80796" lon="15.21588">
        <ele>171.73</ele>
        <time>2018-04-17T15:57:17Z</time>
      </trkpt>
      <trkpt lat="38.80802" lon="15.21584">
        <ele>170.29</ele>
        <time>2018-04-17T15:57:25Z</time>
      </trkpt>
      <trkpt lat="38.80808" lon="15.21567">
        <ele>167.41</ele>
        <time>2018-04-17T15:57:39Z</time>
      </trkpt>
      <trkpt lat="38.80806" lon="15.21565">
        <ele>167.41</ele>
        <time>2018-04-17T15:57:42Z</time>
      </trkpt>
      <trkpt lat="38.80799" lon="15.2155">
        <ele>166.45</ele>
        <time>2018-04-17T15:57:55Z</time>
      </trkpt>
      <trkpt lat="38.80789" lon="15.21537">
        <ele>165</ele>
        <time>2018-04-17T15:58:06Z</time>
      </trkpt>
      <trkpt lat="38.80788" lon="15.21531">
        <ele>164.52</ele>
        <time>2018-04-17T15:58:10Z</time>
      </trkpt>
      <trkpt lat="38.80796" lon="15.21521">
        <ele>162.6</ele>
        <time>2018-04-17T15:58:21Z</time>
      </trkpt>
      <trkpt lat="38.80805" lon="15.21527">
        <ele>161.16</ele>
        <time>2018-04-17T15:58:30Z</time>
      </trkpt>
      <trkpt lat="38.8081" lon="15.21529">
        <ele>160.68</ele>
        <time>2018-04-17T15:58:35Z</time>
      </trkpt>
      <trkpt lat="38.80818" lon="15.2153">
        <ele>160.68</ele>
        <time>2018-04-17T15:58:41Z</time>
      </trkpt>
      <trkpt lat="38.80831" lon="15.21546">
        <ele>159.24</ele>
        <time>2018-04-17T15:58:56Z</time>
      </trkpt>
      <trkpt lat="38.80836" lon="15.21558">
        <ele>157.79</ele>
        <time>2018-04-17T15:59:06Z</time>
      </trkpt>
      <trkpt lat="38.80836" lon="15.21561">
        <ele>157.31</ele>
        <time>2018-04-17T15:59:08Z</time>
      </trkpt>
      <trkpt lat="38.80838" lon="15.21568">
        <ele>156.35</ele>
        <time>2018-04-17T15:59:13Z</time>
      </trkpt>
      <trkpt lat="38.80843" lon="15.21577">
        <ele>154.43</ele>
        <time>2018-04-17T15:59:20Z</time>
      </trkpt>
      <trkpt lat="38.80846" lon="15.21586">
        <ele>153.95</ele>
        <time>2018-04-17T15:59:26Z</time>
      </trkpt>
      <trkpt lat="38.80849" lon="15.21591">
        <ele>153.95</ele>
        <time>2018-04-17T15:59:31Z</time>
      </trkpt>
      <trkpt lat="38.80853" lon="15.21589">
        <ele>152.51</ele>
        <time>2018-04-17T15:59:36Z</time>
      </trkpt>
      <trkpt lat="38.80859" lon="15.21574">
        <ele>149.62</ele>
        <time>2018-04-17T15:59:48Z</time>
      </trkpt>
      <trkpt lat="38.8086" lon="15.21571">
        <ele>150.1</ele>
        <time>2018-04-17T15:59:52Z</time>
      </trkpt>
      <trkpt lat="38.80863" lon="15.21565">
        <ele>149.14</ele>
        <time>2018-04-17T15:59:57Z</time>
      </trkpt>
      <trkpt lat="38.80868" lon="15.21559">
        <ele>147.7</ele>
        <time>2018-04-17T16:00:04Z</time>
      </trkpt>
      <trkpt lat="38.8087" lon="15.21565">
        <ele>146.74</ele>
        <time>2018-04-17T16:00:09Z</time>
      </trkpt>
      <trkpt lat="38.80868" lon="15.21575">
        <ele>146.26</ele>
        <time>2018-04-17T16:00:17Z</time>
      </trkpt>
      <trkpt lat="38.80866" lon="15.21589">
        <ele>145.78</ele>
        <time>2018-04-17T16:00:28Z</time>
      </trkpt>
      <trkpt lat="38.80867" lon="15.21598">
        <ele>146.26</ele>
        <time>2018-04-17T16:00:35Z</time>
      </trkpt>
      <trkpt lat="38.80871" lon="15.21593">
        <ele>146.26</ele>
        <time>2018-04-17T16:00:42Z</time>
      </trkpt>
      <trkpt lat="38.80878" lon="15.21575">
        <ele>145.78</ele>
        <time>2018-04-17T16:00:58Z</time>
      </trkpt>
      <trkpt lat="38.80879" lon="15.21572">
        <ele>145.78</ele>
        <time>2018-04-17T16:01:00Z</time>
      </trkpt>
      <trkpt lat="38.80886" lon="15.2157">
        <ele>146.26</ele>
        <time>2018-04-17T16:01:08Z</time>
      </trkpt>
      <trkpt lat="38.80887" lon="15.21575">
        <ele>146.26</ele>
        <time>2018-04-17T16:01:11Z</time>
      </trkpt>
      <trkpt lat="38.80887" lon="15.21588">
        <ele>143.85</ele>
        <time>2018-04-17T16:01:20Z</time>
      </trkpt>
      <trkpt lat="38.80887" lon="15.21591">
        <ele>143.37</ele>
        <time>2018-04-17T16:01:22Z</time>
      </trkpt>
      <trkpt lat="38.8089" lon="15.21597">
        <ele>142.41</ele>
        <time>2018-04-17T16:01:29Z</time>
      </trkpt>
      <trkpt lat="38.80905" lon="15.21598">
        <ele>141.93</ele>
        <time>2018-04-17T16:01:42Z</time>
      </trkpt>
      <trkpt lat="38.8092" lon="15.21601">
        <ele>140.97</ele>
        <time>2018-04-17T16:01:57Z</time>
      </trkpt>
      <trkpt lat="38.80926" lon="15.21601">
        <ele>139.53</ele>
        <time>2018-04-17T16:02:05Z</time>
      </trkpt>
      <trkpt lat="38.80937" lon="15.21602">
        <ele>136.64</ele>
        <time>2018-04-17T16:02:22Z</time>
      </trkpt>
      <trkpt lat="38.80948" lon="15.21603">
        <ele>136.64</ele>
        <time>2018-04-17T16:02:34Z</time>
      </trkpt>
      <trkpt lat="38.80959" lon="15.21604">
        <ele>133.28</ele>
        <time>2018-04-17T16:02:48Z</time>
      </trkpt>
      <trkpt lat="38.80977" lon="15.21606">
        <ele>134.72</ele>
        <time>2018-04-17T16:03:01Z</time>
      </trkpt>
      <trkpt lat="38.80991" lon="15.21618">
        <ele>132.32</ele>
        <time>2018-04-17T16:03:15Z</time>
      </trkpt>
      <trkpt lat="38.80998" lon="15.21629">
        <ele>130.88</ele>
        <time>2018-04-17T16:03:25Z</time>
      </trkpt>
      <trkpt lat="38.81008" lon="15.21643">
        <ele>131.36</ele>
        <time>2018-04-17T16:03:37Z</time>
      </trkpt>
      <trkpt lat="38.81013" lon="15.2165">
        <ele>131.36</ele>
        <time>2018-04-17T16:03:44Z</time>
      </trkpt>
      <trkpt lat="38.81021" lon="15.2166">
        <ele>129.43</ele>
        <time>2018-04-17T16:03:53Z</time>
      </trkpt>
      <trkpt lat="38.81023" lon="15.21666">
        <ele>128.95</ele>
        <time>2018-04-17T16:03:57Z</time>
      </trkpt>
      <trkpt lat="38.81034" lon="15.21681">
        <ele>127.51</ele>
        <time>2018-04-17T16:04:10Z</time>
      </trkpt>
      <trkpt lat="38.81035" lon="15.21684">
        <ele>127.51</ele>
        <time>2018-04-17T16:04:12Z</time>
      </trkpt>
      <trkpt lat="38.8104" lon="15.21693">
        <ele>124.63</ele>
        <time>2018-04-17T16:04:23Z</time>
      </trkpt>
      <trkpt lat="38.81043" lon="15.21697">
        <ele>122.22</ele>
        <time>2018-04-17T16:04:35Z</time>
      </trkpt>
      <trkpt lat="38.81044" lon="15.21698">
        <ele>119.34</ele>
        <time>2018-04-17T16:04:54Z</time>
      </trkpt>
      <trkpt lat="38.81043" lon="15.21699">
        <ele>117.42</ele>
        <time>2018-04-17T16:05:11Z</time>
      </trkpt>
      <trkpt lat="38.81043" lon="15.21699">
        <ele>116.94</ele>
        <time>2018-04-17T16:05:22Z</time>
      </trkpt>
      <trkpt lat="38.81045" lon="15.21702">
        <ele>115.98</ele>
        <time>2018-04-17T16:05:36Z</time>
      </trkpt>
      <trkpt lat="38.81046" lon="15.21703">
        <ele>115.01</ele>
        <time>2018-04-17T16:05:57Z</time>
      </trkpt>
      <trkpt lat="38.81045" lon="15.21704">
        <ele>114.53</ele>
        <time>2018-04-17T16:06:20Z</time>
      </trkpt>
      <trkpt lat="38.81045" lon="15.21705">
        <ele>114.53</ele>
        <time>2018-04-17T16:06:33Z</time>
      </trkpt>
      <trkpt lat="38.81046" lon="15.21705">
        <ele>114.05</ele>
        <time>2018-04-17T16:06:53Z</time>
      </trkpt>
      <trkpt lat="38.81045" lon="15.21706">
        <ele>113.57</ele>
        <time>2018-04-17T16:07:07Z</time>
      </trkpt>
      <trkpt lat="38.81044" lon="15.21707">
        <ele>113.57</ele>
        <time>2018-04-17T16:07:15Z</time>
      </trkpt>
      <trkpt lat="38.81034" lon="15.21713">
        <ele>114.53</ele>
        <time>2018-04-17T16:07:26Z</time>
      </trkpt>
      <trkpt lat="38.81033" lon="15.21725">
        <ele>116.46</ele>
        <time>2018-04-17T16:07:38Z</time>
      </trkpt>
      <trkpt lat="38.81037" lon="15.21731">
        <ele>117.42</ele>
        <time>2018-04-17T16:07:51Z</time>
      </trkpt>
      <trkpt lat="38.81036" lon="15.21732">
        <ele>117.42</ele>
        <time>2018-04-17T16:07:53Z</time>
      </trkpt>
      <trkpt lat="38.81042" lon="15.2175">
        <ele>117.9</ele>
        <time>2018-04-17T16:08:08Z</time>
      </trkpt>
      <trkpt lat="38.81049" lon="15.21767">
        <ele>118.86</ele>
        <time>2018-04-17T16:08:21Z</time>
      </trkpt>
      <trkpt lat="38.81049" lon="15.21768">
        <ele>118.86</ele>
        <time>2018-04-17T16:08:22Z</time>
      </trkpt>
      <trkpt lat="38.81053" lon="15.21778">
        <ele>117.42</ele>
        <time>2018-04-17T16:08:28Z</time>
      </trkpt>
      <trkpt lat="38.8106" lon="15.21802">
        <ele>115.98</ele>
        <time>2018-04-17T16:08:46Z</time>
      </trkpt>
      <trkpt lat="38.81059" lon="15.21805">
        <ele>115.01</ele>
        <time>2018-04-17T16:08:55Z</time>
      </trkpt>
      <trkpt lat="38.81058" lon="15.21805">
        <ele>114.05</ele>
        <time>2018-04-17T16:09:09Z</time>
      </trkpt>
      <trkpt lat="38.81059" lon="15.21805">
        <ele>113.57</ele>
        <time>2018-04-17T16:09:22Z</time>
      </trkpt>
      <trkpt lat="38.8106" lon="15.21807">
        <ele>113.57</ele>
        <time>2018-04-17T16:09:24Z</time>
      </trkpt>
      <trkpt lat="38.81065" lon="15.21817">
        <ele>113.57</ele>
        <time>2018-04-17T16:09:31Z</time>
      </trkpt>
      <trkpt lat="38.81075" lon="15.21842">
        <ele>112.61</ele>
        <time>2018-04-17T16:09:47Z</time>
      </trkpt>
      <trkpt lat="38.81083" lon="15.21859">
        <ele>111.65</ele>
        <time>2018-04-17T16:10:00Z</time>
      </trkpt>
      <trkpt lat="38.81084" lon="15.21865">
        <ele>108.77</ele>
        <time>2018-04-17T16:10:10Z</time>
      </trkpt>
      <trkpt lat="38.81084" lon="15.21874">
        <ele>108.77</ele>
        <time>2018-04-17T16:10:15Z</time>
      </trkpt>
      <trkpt lat="38.81084" lon="15.21882">
        <ele>108.77</ele>
        <time>2018-04-17T16:10:20Z</time>
      </trkpt>
      <trkpt lat="38.81084" lon="15.2189">
        <ele>108.29</ele>
        <time>2018-04-17T16:10:25Z</time>
      </trkpt>
      <trkpt lat="38.81083" lon="15.21909">
        <ele>106.36</ele>
        <time>2018-04-17T16:10:38Z</time>
      </trkpt>
      <trkpt lat="38.81083" lon="15.21922">
        <ele>104.92</ele>
        <time>2018-04-17T16:10:46Z</time>
      </trkpt>
      <trkpt lat="38.8108" lon="15.21937">
        <ele>103</ele>
        <time>2018-04-17T16:10:55Z</time>
      </trkpt>
      <trkpt lat="38.81077" lon="15.21946">
        <ele>101.08</ele>
        <time>2018-04-17T16:11:01Z</time>
      </trkpt>
      <trkpt lat="38.81069" lon="15.21965">
        <ele>97.23</ele>
        <time>2018-04-17T16:11:14Z</time>
      </trkpt>
      <trkpt lat="38.81067" lon="15.21967">
        <ele>96.27</ele>
        <time>2018-04-17T16:11:17Z</time>
      </trkpt>
      <trkpt lat="38.81066" lon="15.2197">
        <ele>95.79</ele>
        <time>2018-04-17T16:11:19Z</time>
      </trkpt>
      <trkpt lat="38.81063" lon="15.21975">
        <ele>95.31</ele>
        <time>2018-04-17T16:11:24Z</time>
      </trkpt>
      <trkpt lat="38.81057" lon="15.21991">
        <ele>94.35</ele>
        <time>2018-04-17T16:11:35Z</time>
      </trkpt>
      <trkpt lat="38.81054" lon="15.22002">
        <ele>92.9</ele>
        <time>2018-04-17T16:11:43Z</time>
      </trkpt>
      <trkpt lat="38.81046" lon="15.22021">
        <ele>90.02</ele>
        <time>2018-04-17T16:11:58Z</time>
      </trkpt>
      <trkpt lat="38.81035" lon="15.22034">
        <ele>88.1</ele>
        <time>2018-04-17T16:12:12Z</time>
      </trkpt>
      <trkpt lat="38.81032" lon="15.22037">
        <ele>88.1</ele>
        <time>2018-04-17T16:12:16Z</time>
      </trkpt>
      <trkpt lat="38.81027" lon="15.22039">
        <ele>87.14</ele>
        <time>2018-04-17T16:12:20Z</time>
      </trkpt>
      <trkpt lat="38.81023" lon="15.22048">
        <ele>86.66</ele>
        <time>2018-04-17T16:12:29Z</time>
      </trkpt>
      <trkpt lat="38.81023" lon="15.22052">
        <ele>86.66</ele>
        <time>2018-04-17T16:12:32Z</time>
      </trkpt>
      <trkpt lat="38.81022" lon="15.22059">
        <ele>86.18</ele>
        <time>2018-04-17T16:12:37Z</time>
      </trkpt>
      <trkpt lat="38.8102" lon="15.2207">
        <ele>85.69</ele>
        <time>2018-04-17T16:12:46Z</time>
      </trkpt>
      <trkpt lat="38.81019" lon="15.22092">
        <ele>85.21</ele>
        <time>2018-04-17T16:13:02Z</time>
      </trkpt>
      <trkpt lat="38.81018" lon="15.22113">
        <ele>84.25</ele>
        <time>2018-04-17T16:13:16Z</time>
      </trkpt>
      <trkpt lat="38.81018" lon="15.22127">
        <ele>85.21</ele>
        <time>2018-04-17T16:13:26Z</time>
      </trkpt>
      <trkpt lat="38.81018" lon="15.22135">
        <ele>84.73</ele>
        <time>2018-04-17T16:13:31Z</time>
      </trkpt>
      <trkpt lat="38.81015" lon="15.22154">
        <ele>83.77</ele>
        <time>2018-04-17T16:13:45Z</time>
      </trkpt>
      <trkpt lat="38.81015" lon="15.2217">
        <ele>84.73</ele>
        <time>2018-04-17T16:13:57Z</time>
      </trkpt>
      <trkpt lat="38.81016" lon="15.22186">
        <ele>84.25</ele>
        <time>2018-04-17T16:14:09Z</time>
      </trkpt>
      <trkpt lat="38.81015" lon="15.22209">
        <ele>81.85</ele>
        <time>2018-04-17T16:14:25Z</time>
      </trkpt>
      <trkpt lat="38.81007" lon="15.22222">
        <ele>80.89</ele>
        <time>2018-04-17T16:14:38Z</time>
      </trkpt>
      <trkpt lat="38.81004" lon="15.22233">
        <ele>79.45</ele>
        <time>2018-04-17T16:14:49Z</time>
      </trkpt>
      <trkpt lat="38.81005" lon="15.22239">
        <ele>78.97</ele>
        <time>2018-04-17T16:14:53Z</time>
      </trkpt>
      <trkpt lat="38.81005" lon="15.22241">
        <ele>78.48</ele>
        <time>2018-04-17T16:14:55Z</time>
      </trkpt>
      <trkpt lat="38.81006" lon="15.2225">
        <ele>78</ele>
        <time>2018-04-17T16:15:02Z</time>
      </trkpt>
      <trkpt lat="38.81006" lon="15.22256">
        <ele>77.52</ele>
        <time>2018-04-17T16:15:06Z</time>
      </trkpt>
      <trkpt lat="38.81006" lon="15.22267">
        <ele>76.08</ele>
        <time>2018-04-17T16:15:15Z</time>
      </trkpt>
      <trkpt lat="38.81004" lon="15.22274">
        <ele>75.6</ele>
        <time>2018-04-17T16:15:19Z</time>
      </trkpt>
      <trkpt lat="38.81002" lon="15.2228">
        <ele>75.12</ele>
        <time>2018-04-17T16:15:24Z</time>
      </trkpt>
      <trkpt lat="38.81001" lon="15.22283">
        <ele>75.12</ele>
        <time>2018-04-17T16:15:27Z</time>
      </trkpt>
      <trkpt lat="38.80999" lon="15.22289">
        <ele>74.64</ele>
        <time>2018-04-17T16:15:32Z</time>
      </trkpt>
      <trkpt lat="38.80997" lon="15.22302">
        <ele>74.64</ele>
        <time>2018-04-17T16:15:42Z</time>
      </trkpt>
      <trkpt lat="38.80995" lon="15.22311">
        <ele>74.16</ele>
        <time>2018-04-17T16:15:53Z</time>
      </trkpt>
      <trkpt lat="38.80995" lon="15.2231">
        <ele>72.72</ele>
        <time>2018-04-17T16:16:14Z</time>
      </trkpt>
      <trkpt lat="38.80995" lon="15.22315">
        <ele>72.72</ele>
        <time>2018-04-17T16:16:26Z</time>
      </trkpt>
      <trkpt lat="38.80988" lon="15.2233">
        <ele>71.76</ele>
        <time>2018-04-17T16:16:40Z</time>
      </trkpt>
      <trkpt lat="38.80986" lon="15.22333">
        <ele>71.27</ele>
        <time>2018-04-17T16:16:43Z</time>
      </trkpt>
      <trkpt lat="38.80978" lon="15.22341">
        <ele>70.79</ele>
        <time>2018-04-17T16:16:53Z</time>
      </trkpt>
      <trkpt lat="38.80973" lon="15.22346">
        <ele>70.79</ele>
        <time>2018-04-17T16:16:59Z</time>
      </trkpt>
      <trkpt lat="38.8097" lon="15.22355">
        <ele>70.31</ele>
        <time>2018-04-17T16:17:06Z</time>
      </trkpt>
      <trkpt lat="38.80968" lon="15.22369">
        <ele>69.83</ele>
        <time>2018-04-17T16:17:15Z</time>
      </trkpt>
      <trkpt lat="38.80966" lon="15.22374">
        <ele>69.35</ele>
        <time>2018-04-17T16:17:22Z</time>
      </trkpt>
      <trkpt lat="38.80966" lon="15.22377">
        <ele>69.83</ele>
        <time>2018-04-17T16:17:25Z</time>
      </trkpt>
      <trkpt lat="38.80959" lon="15.22399">
        <ele>66.95</ele>
        <time>2018-04-17T16:17:42Z</time>
      </trkpt>
      <trkpt lat="38.80959" lon="15.22399">
        <ele>66.95</ele>
        <time>2018-04-17T16:17:53Z</time>
      </trkpt>
      <trkpt lat="38.8096" lon="15.22399">
        <ele>67.43</ele>
        <time>2018-04-17T16:18:03Z</time>
      </trkpt>
      <trkpt lat="38.80964" lon="15.22399">
        <ele>68.39</ele>
        <time>2018-04-17T16:18:13Z</time>
      </trkpt>
      <trkpt lat="38.80968" lon="15.22397">
        <ele>67.43</ele>
        <time>2018-04-17T16:18:26Z</time>
      </trkpt>
      <trkpt lat="38.80972" lon="15.22388">
        <ele>66.95</ele>
        <time>2018-04-17T16:18:38Z</time>
      </trkpt>
      <trkpt lat="38.80981" lon="15.2237">
        <ele>66.47</ele>
        <time>2018-04-17T16:18:53Z</time>
      </trkpt>
      <trkpt lat="38.80991" lon="15.22353">
        <ele>65.99</ele>
        <time>2018-04-17T16:19:08Z</time>
      </trkpt>
      <trkpt lat="38.81003" lon="15.2234">
        <ele>65.51</ele>
        <time>2018-04-17T16:19:22Z</time>
      </trkpt>
      <trkpt lat="38.81009" lon="15.22337">
        <ele>64.55</ele>
        <time>2018-04-17T16:19:28Z</time>
      </trkpt>
      <trkpt lat="38.81013" lon="15.22342">
        <ele>64.07</ele>
        <time>2018-04-17T16:19:32Z</time>
      </trkpt>
      <trkpt lat="38.81013" lon="15.22342">
        <ele>63.1</ele>
        <time>2018-04-17T16:19:43Z</time>
      </trkpt>
      <trkpt lat="38.81014" lon="15.2234">
        <ele>62.14</ele>
        <time>2018-04-17T16:20:00Z</time>
      </trkpt>
      <trkpt lat="38.81015" lon="15.22345">
        <ele>61.66</ele>
        <time>2018-04-17T16:20:04Z</time>
      </trkpt>
      <trkpt lat="38.81007" lon="15.22353">
        <ele>60.22</ele>
        <time>2018-04-17T16:20:12Z</time>
      </trkpt>
      <trkpt lat="38.81" lon="15.22362">
        <ele>59.74</ele>
        <time>2018-04-17T16:20:26Z</time>
      </trkpt>
      <trkpt lat="38.80989" lon="15.22377">
        <ele>59.74</ele>
        <time>2018-04-17T16:20:39Z</time>
      </trkpt>
      <trkpt lat="38.80988" lon="15.22381">
        <ele>59.74</ele>
        <time>2018-04-17T16:20:42Z</time>
      </trkpt>
      <trkpt lat="38.80987" lon="15.22387">
        <ele>59.26</ele>
        <time>2018-04-17T16:20:46Z</time>
      </trkpt>
      <trkpt lat="38.80985" lon="15.22392">
        <ele>58.3</ele>
        <time>2018-04-17T16:20:50Z</time>
      </trkpt>
      <trkpt lat="38.80978" lon="15.22415">
        <ele>57.34</ele>
        <time>2018-04-17T16:21:06Z</time>
      </trkpt>
      <trkpt lat="38.80977" lon="15.22417">
        <ele>57.34</ele>
        <time>2018-04-17T16:21:08Z</time>
      </trkpt>
      <trkpt lat="38.80985" lon="15.22419">
        <ele>56.86</ele>
        <time>2018-04-17T16:21:19Z</time>
      </trkpt>
      <trkpt lat="38.80994" lon="15.22397">
        <ele>55.41</ele>
        <time>2018-04-17T16:21:35Z</time>
      </trkpt>
      <trkpt lat="38.81007" lon="15.22381">
        <ele>53.01</ele>
        <time>2018-04-17T16:21:49Z</time>
      </trkpt>
      <trkpt lat="38.8102" lon="15.2237">
        <ele>53.49</ele>
        <time>2018-04-17T16:22:02Z</time>
      </trkpt>
      <trkpt lat="38.81026" lon="15.22371">
        <ele>53.01</ele>
        <time>2018-04-17T16:22:08Z</time>
      </trkpt>
      <trkpt lat="38.81035" lon="15.22381">
        <ele>51.57</ele>
        <time>2018-04-17T16:22:17Z</time>
      </trkpt>
      <trkpt lat="38.81023" lon="15.22398">
        <ele>48.68</ele>
        <time>2018-04-17T16:22:32Z</time>
      </trkpt>
      <trkpt lat="38.81017" lon="15.22404">
        <ele>47.72</ele>
        <time>2018-04-17T16:22:38Z</time>
      </trkpt>
      <trkpt lat="38.81016" lon="15.22405">
        <ele>47.72</ele>
        <time>2018-04-17T16:22:40Z</time>
      </trkpt>
      <trkpt lat="38.81014" lon="15.2241">
        <ele>47.24</ele>
        <time>2018-04-17T16:22:47Z</time>
      </trkpt>
      <trkpt lat="38.81011" lon="15.22416">
        <ele>47.24</ele>
        <time>2018-04-17T16:22:52Z</time>
      </trkpt>
      <trkpt lat="38.8101" lon="15.22419">
        <ele>47.72</ele>
        <time>2018-04-17T16:22:54Z</time>
      </trkpt>
      <trkpt lat="38.81007" lon="15.22424">
        <ele>47.24</ele>
        <time>2018-04-17T16:22:58Z</time>
      </trkpt>
      <trkpt lat="38.81002" lon="15.22431">
        <ele>47.24</ele>
        <time>2018-04-17T16:23:04Z</time>
      </trkpt>
      <trkpt lat="38.80997" lon="15.22438">
        <ele>47.24</ele>
        <time>2018-04-17T16:23:10Z</time>
      </trkpt>
      <trkpt lat="38.80994" lon="15.22444">
        <ele>45.8</ele>
        <time>2018-04-17T16:23:15Z</time>
      </trkpt>
      <trkpt lat="38.80995" lon="15.22455">
        <ele>45.32</ele>
        <time>2018-04-17T16:23:22Z</time>
      </trkpt>
      <trkpt lat="38.80996" lon="15.22458">
        <ele>46.76</ele>
        <time>2018-04-17T16:23:24Z</time>
      </trkpt>
      <trkpt lat="38.81008" lon="15.2245">
        <ele>52.05</ele>
        <time>2018-04-17T16:23:38Z</time>
      </trkpt>
      <trkpt lat="38.81009" lon="15.2245">
        <ele>51.57</ele>
        <time>2018-04-17T16:23:40Z</time>
      </trkpt>
      <trkpt lat="38.81013" lon="15.22449">
        <ele>51.09</ele>
        <time>2018-04-17T16:23:44Z</time>
      </trkpt>
      <trkpt lat="38.81016" lon="15.22452">
        <ele>49.65</ele>
        <time>2018-04-17T16:23:47Z</time>
      </trkpt>
      <trkpt lat="38.81016" lon="15.22462">
        <ele>46.28</ele>
        <time>2018-04-17T16:23:55Z</time>
      </trkpt>
      <trkpt lat="38.81003" lon="15.22471">
        <ele>44.36</ele>
        <time>2018-04-17T16:24:09Z</time>
      </trkpt>
      <trkpt lat="38.80994" lon="15.22478">
        <ele>42.92</ele>
        <time>2018-04-17T16:24:19Z</time>
      </trkpt>
      <trkpt lat="38.80983" lon="15.22485">
        <ele>40.51</ele>
        <time>2018-04-17T16:24:30Z</time>
      </trkpt>
      <trkpt lat="38.80978" lon="15.22487">
        <ele>39.07</ele>
        <time>2018-04-17T16:24:36Z</time>
      </trkpt>
      <trkpt lat="38.80979" lon="15.22486">
        <ele>39.55</ele>
        <time>2018-04-17T16:24:50Z</time>
      </trkpt>
      <trkpt lat="38.80978" lon="15.22488">
        <ele>39.07</ele>
        <time>2018-04-17T16:24:59Z</time>
      </trkpt>
      <trkpt lat="38.80973" lon="15.22491">
        <ele>37.63</ele>
        <time>2018-04-17T16:25:14Z</time>
      </trkpt>
      <trkpt lat="38.80971" lon="15.22494">
        <ele>37.63</ele>
        <time>2018-04-17T16:25:28Z</time>
      </trkpt>
      <trkpt lat="38.8097" lon="15.22496">
        <ele>37.63</ele>
        <time>2018-04-17T16:25:30Z</time>
      </trkpt>
      <trkpt lat="38.80963" lon="15.22512">
        <ele>38.59</ele>
        <time>2018-04-17T16:25:44Z</time>
      </trkpt>
      <trkpt lat="38.80952" lon="15.22534">
        <ele>38.59</ele>
        <time>2018-04-17T16:26:00Z</time>
      </trkpt>
      <trkpt lat="38.80942" lon="15.22554">
        <ele>36.67</ele>
        <time>2018-04-17T16:26:14Z</time>
      </trkpt>
      <trkpt lat="38.80941" lon="15.22561">
        <ele>37.63</ele>
        <time>2018-04-17T16:26:18Z</time>
      </trkpt>
      <trkpt lat="38.8095" lon="15.22566">
        <ele>38.59</ele>
        <time>2018-04-17T16:26:32Z</time>
      </trkpt>
      <trkpt lat="38.8095" lon="15.22565">
        <ele>38.59</ele>
        <time>2018-04-17T16:26:33Z</time>
      </trkpt>
      <trkpt lat="38.80965" lon="15.22552">
        <ele>35.71</ele>
        <time>2018-04-17T16:26:47Z</time>
      </trkpt>
      <trkpt lat="38.80976" lon="15.22544">
        <ele>35.23</ele>
        <time>2018-04-17T16:26:57Z</time>
      </trkpt>
      <trkpt lat="38.8098" lon="15.22546">
        <ele>34.26</ele>
        <time>2018-04-17T16:27:01Z</time>
      </trkpt>
      <trkpt lat="38.80975" lon="15.22564">
        <ele>32.82</ele>
        <time>2018-04-17T16:27:15Z</time>
      </trkpt>
      <trkpt lat="38.80968" lon="15.22579">
        <ele>31.86</ele>
        <time>2018-04-17T16:27:27Z</time>
      </trkpt>
      <trkpt lat="38.80966" lon="15.22582">
        <ele>31.38</ele>
        <time>2018-04-17T16:27:30Z</time>
      </trkpt>
      <trkpt lat="38.80961" lon="15.22591">
        <ele>29.94</ele>
        <time>2018-04-17T16:27:44Z</time>
      </trkpt>
      <trkpt lat="38.8096" lon="15.22593">
        <ele>29.46</ele>
        <time>2018-04-17T16:27:59Z</time>
      </trkpt>
      <trkpt lat="38.80954" lon="15.22606">
        <ele>30.42</ele>
        <time>2018-04-17T16:28:12Z</time>
      </trkpt>
      <trkpt lat="38.80944" lon="15.22632">
        <ele>29.46</ele>
        <time>2018-04-17T16:28:29Z</time>
      </trkpt>
      <trkpt lat="38.8094" lon="15.22646">
        <ele>26.09</ele>
        <time>2018-04-17T16:28:38Z</time>
      </trkpt>
      <trkpt lat="38.80943" lon="15.22647">
        <ele>25.13</ele>
        <time>2018-04-17T16:28:43Z</time>
      </trkpt>
      <trkpt lat="38.8095" lon="15.22636">
        <ele>23.21</ele>
        <time>2018-04-17T16:28:55Z</time>
      </trkpt>
      <trkpt lat="38.80964" lon="15.22623">
        <ele>20.81</ele>
        <time>2018-04-17T16:29:09Z</time>
      </trkpt>
      <trkpt lat="38.80975" lon="15.22611">
        <ele>20.81</ele>
        <time>2018-04-17T16:29:21Z</time>
      </trkpt>
      <trkpt lat="38.80985" lon="15.22608">
        <ele>20.81</ele>
        <time>2018-04-17T16:29:33Z</time>
      </trkpt>
      <trkpt lat="38.80992" lon="15.22606">
        <ele>20.32</ele>
        <time>2018-04-17T16:29:45Z</time>
      </trkpt>
      <trkpt lat="38.80994" lon="15.22605">
        <ele>19.84</ele>
        <time>2018-04-17T16:29:49Z</time>
      </trkpt>
      <trkpt lat="38.80999" lon="15.22601">
        <ele>20.32</ele>
        <time>2018-04-17T16:29:54Z</time>
      </trkpt>
      <trkpt lat="38.8101" lon="15.22586">
        <ele>18.4</ele>
        <time>2018-04-17T16:30:10Z</time>
      </trkpt>
      <trkpt lat="38.81012" lon="15.22591">
        <ele>18.4</ele>
        <time>2018-04-17T16:30:21Z</time>
      </trkpt>
      <trkpt lat="38.81013" lon="15.22591">
        <ele>18.4</ele>
        <time>2018-04-17T16:30:28Z</time>
      </trkpt>
      <trkpt lat="38.81011" lon="15.22597">
        <ele>18.4</ele>
        <time>2018-04-17T16:30:43Z</time>
      </trkpt>
      <trkpt lat="38.81011" lon="15.22597">
        <ele>17.92</ele>
        <time>2018-04-17T16:30:46Z</time>
      </trkpt>
      <trkpt lat="38.81002" lon="15.22615">
        <ele>17.92</ele>
        <time>2018-04-17T16:30:59Z</time>
      </trkpt>
      <trkpt lat="38.80996" lon="15.22621">
        <ele>17.92</ele>
        <time>2018-04-17T16:31:08Z</time>
      </trkpt>
      <trkpt lat="38.8099" lon="15.22631">
        <ele>17.92</ele>
        <time>2018-04-17T16:31:19Z</time>
      </trkpt>
      <trkpt lat="38.80987" lon="15.22639">
        <ele>16.48</ele>
        <time>2018-04-17T16:31:25Z</time>
      </trkpt>
      <trkpt lat="38.80982" lon="15.22649">
        <ele>15.04</ele>
        <time>2018-04-17T16:31:37Z</time>
      </trkpt>
      <trkpt lat="38.8098" lon="15.22658">
        <ele>15.52</ele>
        <time>2018-04-17T16:31:46Z</time>
      </trkpt>
      <trkpt lat="38.80986" lon="15.22677">
        <ele>17.92</ele>
        <time>2018-04-17T16:32:00Z</time>
      </trkpt>
      <trkpt lat="38.80993" lon="15.2269">
        <ele>16</ele>
        <time>2018-04-17T16:32:10Z</time>
      </trkpt>
      <trkpt lat="38.80994" lon="15.22695">
        <ele>15.04</ele>
        <time>2018-04-17T16:32:13Z</time>
      </trkpt>
      <trkpt lat="38.8099" lon="15.22707">
        <ele>16</ele>
        <time>2018-04-17T16:32:26Z</time>
      </trkpt>
      <trkpt lat="38.8099" lon="15.22711">
        <ele>16</ele>
        <time>2018-04-17T16:32:38Z</time>
      </trkpt>
      <trkpt lat="38.80988" lon="15.22715">
        <ele>16.48</ele>
        <time>2018-04-17T16:32:49Z</time>
      </trkpt>
      <trkpt lat="38.80988" lon="15.22717">
        <ele>17.92</ele>
        <time>2018-04-17T16:33:16Z</time>
      </trkpt>
      <trkpt lat="38.80987" lon="15.2273">
        <ele>21.77</ele>
        <time>2018-04-17T16:33:29Z</time>
      </trkpt>
      <trkpt lat="38.80985" lon="15.22731">
        <ele>20.81</ele>
        <time>2018-04-17T16:33:34Z</time>
      </trkpt>
      <trkpt lat="38.80985" lon="15.22746">
        <ele>18.88</ele>
        <time>2018-04-17T16:33:48Z</time>
      </trkpt>
      <trkpt lat="38.80985" lon="15.22753">
        <ele>18.4</ele>
        <time>2018-04-17T16:34:02Z</time>
      </trkpt>
      <trkpt lat="38.80984" lon="15.22756">
        <ele>18.88</ele>
        <time>2018-04-17T16:34:07Z</time>
      </trkpt>
      <trkpt lat="38.80983" lon="15.22768">
        <ele>20.81</ele>
        <time>2018-04-17T16:34:17Z</time>
      </trkpt>
      <trkpt lat="38.80981" lon="15.22788">
        <ele>26.57</ele>
        <time>2018-04-17T16:34:31Z</time>
      </trkpt>
      <trkpt lat="38.80979" lon="15.22802">
        <ele>28.5</ele>
        <time>2018-04-17T16:34:44Z</time>
      </trkpt>
      <trkpt lat="38.80969" lon="15.22816">
        <ele>30.42</ele>
        <time>2018-04-17T16:34:59Z</time>
      </trkpt>
      <trkpt lat="38.80966" lon="15.22821">
        <ele>29.94</ele>
        <time>2018-04-17T16:35:03Z</time>
      </trkpt>
      <trkpt lat="38.80958" lon="15.22836">
        <ele>28.02</ele>
        <time>2018-04-17T16:35:18Z</time>
      </trkpt>
      <trkpt lat="38.80958" lon="15.22842">
        <ele>27.53</ele>
        <time>2018-04-17T16:35:24Z</time>
      </trkpt>
      <trkpt lat="38.80957" lon="15.22855">
        <ele>28.5</ele>
        <time>2018-04-17T16:35:34Z</time>
      </trkpt>
      <trkpt lat="38.80956" lon="15.22863">
        <ele>29.46</ele>
        <time>2018-04-17T16:35:41Z</time>
      </trkpt>
      <trkpt lat="38.80955" lon="15.22867">
        <ele>28.98</ele>
        <time>2018-04-17T16:35:44Z</time>
      </trkpt>
      <trkpt lat="38.80947" lon="15.22881">
        <ele>24.65</ele>
        <time>2018-04-17T16:35:57Z</time>
      </trkpt>
      <trkpt lat="38.80947" lon="15.22882">
        <ele>23.69</ele>
        <time>2018-04-17T16:35:59Z</time>
      </trkpt>
      <trkpt lat="38.80952" lon="15.22889">
        <ele>19.84</ele>
        <time>2018-04-17T16:36:11Z</time>
      </trkpt>
      <trkpt lat="38.8096" lon="15.22902">
        <ele>25.13</ele>
        <time>2018-04-17T16:36:27Z</time>
      </trkpt>
      <trkpt lat="38.80958" lon="15.22915">
        <ele>31.38</ele>
        <time>2018-04-17T16:36:37Z</time>
      </trkpt>
      <trkpt lat="38.80956" lon="15.22922">
        <ele>31.38</ele>
        <time>2018-04-17T16:36:43Z</time>
      </trkpt>
      <trkpt lat="38.80949" lon="15.22946">
        <ele>30.42</ele>
        <time>2018-04-17T16:36:58Z</time>
      </trkpt>
      <trkpt lat="38.80945" lon="15.22966">
        <ele>33.3</ele>
        <time>2018-04-17T16:37:12Z</time>
      </trkpt>
      <trkpt lat="38.80941" lon="15.22982">
        <ele>34.26</ele>
        <time>2018-04-17T16:37:25Z</time>
      </trkpt>
      <trkpt lat="38.80937" lon="15.22991">
        <ele>34.26</ele>
        <time>2018-04-17T16:37:35Z</time>
      </trkpt>
      <trkpt lat="38.80933" lon="15.22999">
        <ele>33.78</ele>
        <time>2018-04-17T16:37:40Z</time>
      </trkpt>
      <trkpt lat="38.80927" lon="15.23014">
        <ele>32.82</ele>
        <time>2018-04-17T16:37:53Z</time>
      </trkpt>
      <trkpt lat="38.80922" lon="15.23033">
        <ele>33.78</ele>
        <time>2018-04-17T16:38:07Z</time>
      </trkpt>
      <trkpt lat="38.80919" lon="15.23044">
        <ele>31.86</ele>
        <time>2018-04-17T16:38:17Z</time>
      </trkpt>
      <trkpt lat="38.80919" lon="15.23047">
        <ele>31.86</ele>
        <time>2018-04-17T16:38:19Z</time>
      </trkpt>
      <trkpt lat="38.80909" lon="15.23067">
        <ele>29.94</ele>
        <time>2018-04-17T16:38:34Z</time>
      </trkpt>
      <trkpt lat="38.80899" lon="15.23081">
        <ele>28.02</ele>
        <time>2018-04-17T16:38:47Z</time>
      </trkpt>
      <trkpt lat="38.80895" lon="15.23088">
        <ele>27.05</ele>
        <time>2018-04-17T16:38:53Z</time>
      </trkpt>
      <trkpt lat="38.80884" lon="15.23107">
        <ele>25.13</ele>
        <time>2018-04-17T16:39:09Z</time>
      </trkpt>
      <trkpt lat="38.80877" lon="15.23113">
        <ele>24.17</ele>
        <time>2018-04-17T16:39:20Z</time>
      </trkpt>
      <trkpt lat="38.80873" lon="15.23124">
        <ele>25.61</ele>
        <time>2018-04-17T16:39:32Z</time>
      </trkpt>
      <trkpt lat="38.80875" lon="15.23145">
        <ele>25.13</ele>
        <time>2018-04-17T16:39:48Z</time>
      </trkpt>
      <trkpt lat="38.80874" lon="15.23151">
        <ele>23.21</ele>
        <time>2018-04-17T16:40:04Z</time>
      </trkpt>
      <trkpt lat="38.80875" lon="15.23157">
        <ele>23.21</ele>
        <time>2018-04-17T16:40:15Z</time>
      </trkpt>
      <trkpt lat="38.80872" lon="15.23169">
        <ele>23.21</ele>
        <time>2018-04-17T16:40:38Z</time>
      </trkpt>
      <trkpt lat="38.80872" lon="15.23174">
        <ele>23.69</ele>
        <time>2018-04-17T16:40:41Z</time>
      </trkpt>
      <trkpt lat="38.80869" lon="15.23188">
        <ele>23.69</ele>
        <time>2018-04-17T16:40:51Z</time>
      </trkpt>
      <trkpt lat="38.80861" lon="15.23208">
        <ele>25.13</ele>
        <time>2018-04-17T16:41:07Z</time>
      </trkpt>
      <trkpt lat="38.80854" lon="15.23222">
        <ele>22.25</ele>
        <time>2018-04-17T16:41:22Z</time>
      </trkpt>
      <trkpt lat="38.80852" lon="15.23229">
        <ele>22.73</ele>
        <time>2018-04-17T16:41:40Z</time>
      </trkpt>
      <trkpt lat="38.80851" lon="15.23232">
        <ele>22.25</ele>
        <time>2018-04-17T16:41:43Z</time>
      </trkpt>
      <trkpt lat="38.80845" lon="15.23252">
        <ele>21.77</ele>
        <time>2018-04-17T16:41:58Z</time>
      </trkpt>
      <trkpt lat="38.80845" lon="15.23259">
        <ele>21.29</ele>
        <time>2018-04-17T16:42:03Z</time>
      </trkpt>
      <trkpt lat="38.80849" lon="15.23265">
        <ele>20.81</ele>
        <time>2018-04-17T16:42:08Z</time>
      </trkpt>
      <trkpt lat="38.80847" lon="15.23276">
        <ele>22.25</ele>
        <time>2018-04-17T16:42:15Z</time>
      </trkpt>
      <trkpt lat="38.8084" lon="15.23295">
        <ele>22.25</ele>
        <time>2018-04-17T16:42:29Z</time>
      </trkpt>
      <trkpt lat="38.80832" lon="15.23316">
        <ele>20.32</ele>
        <time>2018-04-17T16:42:45Z</time>
      </trkpt>
      <trkpt lat="38.80829" lon="15.23325">
        <ele>19.36</ele>
        <time>2018-04-17T16:42:51Z</time>
      </trkpt>
      <trkpt lat="38.80824" lon="15.23333">
        <ele>17.92</ele>
        <time>2018-04-17T16:42:57Z</time>
      </trkpt>
      <trkpt lat="38.8081" lon="15.23347">
        <ele>16.48</ele>
        <time>2018-04-17T16:43:13Z</time>
      </trkpt>
      <trkpt lat="38.80806" lon="15.23353">
        <ele>16.48</ele>
        <time>2018-04-17T16:43:18Z</time>
      </trkpt>
      <trkpt lat="38.80793" lon="15.2337">
        <ele>16.96</ele>
        <time>2018-04-17T16:43:34Z</time>
      </trkpt>
      <trkpt lat="38.80782" lon="15.23381">
        <ele>18.4</ele>
        <time>2018-04-17T16:43:47Z</time>
      </trkpt>
      <trkpt lat="38.80767" lon="15.23385">
        <ele>20.81</ele>
        <time>2018-04-17T16:44:02Z</time>
      </trkpt>
      <trkpt lat="38.80753" lon="15.23396">
        <ele>23.21</ele>
        <time>2018-04-17T16:44:17Z</time>
      </trkpt>
      <trkpt lat="38.80742" lon="15.2341">
        <ele>23.69</ele>
        <time>2018-04-17T16:44:30Z</time>
      </trkpt>
      <trkpt lat="38.80733" lon="15.23421">
        <ele>23.69</ele>
        <time>2018-04-17T16:44:42Z</time>
      </trkpt>
      <trkpt lat="38.80732" lon="15.23422">
        <ele>23.69</ele>
        <time>2018-04-17T16:44:43Z</time>
      </trkpt>
      <trkpt lat="38.80717" lon="15.23434">
        <ele>25.13</ele>
        <time>2018-04-17T16:45:00Z</time>
      </trkpt>
      <trkpt lat="38.80716" lon="15.23438">
        <ele>22.73</ele>
        <time>2018-04-17T16:45:14Z</time>
      </trkpt>
      <trkpt lat="38.80711" lon="15.23444">
        <ele>21.77</ele>
        <time>2018-04-17T16:45:23Z</time>
      </trkpt>
      <trkpt lat="38.80703" lon="15.23454">
        <ele>21.77</ele>
        <time>2018-04-17T16:45:36Z</time>
      </trkpt>
      <trkpt lat="38.80701" lon="15.23459">
        <ele>21.29</ele>
        <time>2018-04-17T16:45:40Z</time>
      </trkpt>
      <trkpt lat="38.80696" lon="15.23466">
        <ele>20.81</ele>
        <time>2018-04-17T16:45:48Z</time>
      </trkpt>
      <trkpt lat="38.80695" lon="15.23478">
        <ele>22.73</ele>
        <time>2018-04-17T16:45:57Z</time>
      </trkpt>
      <trkpt lat="38.80694" lon="15.23488">
        <ele>22.25</ele>
        <time>2018-04-17T16:46:06Z</time>
      </trkpt>
      <trkpt lat="38.80682" lon="15.23499">
        <ele>19.84</ele>
        <time>2018-04-17T16:46:17Z</time>
      </trkpt>
      <trkpt lat="38.80679" lon="15.23501">
        <ele>18.88</ele>
        <time>2018-04-17T16:46:25Z</time>
      </trkpt>
      <trkpt lat="38.80674" lon="15.23514">
        <ele>19.84</ele>
        <time>2018-04-17T16:46:39Z</time>
      </trkpt>
      <trkpt lat="38.80671" lon="15.23527">
        <ele>19.36</ele>
        <time>2018-04-17T16:46:50Z</time>
      </trkpt>
      <trkpt lat="38.80669" lon="15.23533">
        <ele>18.88</ele>
        <time>2018-04-17T16:46:54Z</time>
      </trkpt>
      <trkpt lat="38.80666" lon="15.2354">
        <ele>19.36</ele>
        <time>2018-04-17T16:47:00Z</time>
      </trkpt>
      <trkpt lat="38.80662" lon="15.23548">
        <ele>20.32</ele>
        <time>2018-04-17T16:47:06Z</time>
      </trkpt>
      <trkpt lat="38.80657" lon="15.23556">
        <ele>20.32</ele>
        <time>2018-04-17T16:47:13Z</time>
      </trkpt>
      <trkpt lat="38.80647" lon="15.23573">
        <ele>20.81</ele>
        <time>2018-04-17T16:47:28Z</time>
      </trkpt>
      <trkpt lat="38.80646" lon="15.23592">
        <ele>21.29</ele>
        <time>2018-04-17T16:47:41Z</time>
      </trkpt>
      <trkpt lat="38.80643" lon="15.23599">
        <ele>20.81</ele>
        <time>2018-04-17T16:47:46Z</time>
      </trkpt>
      <trkpt lat="38.80636" lon="15.23621">
        <ele>17.44</ele>
        <time>2018-04-17T16:48:00Z</time>
      </trkpt>
      <trkpt lat="38.80632" lon="15.23636">
        <ele>15.52</ele>
        <time>2018-04-17T16:48:11Z</time>
      </trkpt>
      <trkpt lat="38.80624" lon="15.23655">
        <ele>13.12</ele>
        <time>2018-04-17T16:48:24Z</time>
      </trkpt>
      <trkpt lat="38.80624" lon="15.23657">
        <ele>12.63</ele>
        <time>2018-04-17T16:48:25Z</time>
      </trkpt>
      <trkpt lat="38.80624" lon="15.23668">
        <ele>10.71</ele>
        <time>2018-04-17T16:48:36Z</time>
      </trkpt>
      <trkpt lat="38.80622" lon="15.23677">
        <ele>10.23</ele>
        <time>2018-04-17T16:48:48Z</time>
      </trkpt>
      <trkpt lat="38.8062" lon="15.2368">
        <ele>10.23</ele>
        <time>2018-04-17T16:48:51Z</time>
      </trkpt>
      <trkpt lat="38.80611" lon="15.23698">
        <ele>9.75</ele>
        <time>2018-04-17T16:49:07Z</time>
      </trkpt>
      <trkpt lat="38.80607" lon="15.23712">
        <ele>8.79</ele>
        <time>2018-04-17T16:49:19Z</time>
      </trkpt>
      <trkpt lat="38.80601" lon="15.23726">
        <ele>8.31</ele>
        <time>2018-04-17T16:49:29Z</time>
      </trkpt>
      <trkpt lat="38.80598" lon="15.23748">
        <ele>9.27</ele>
        <time>2018-04-17T16:49:44Z</time>
      </trkpt>
      <trkpt lat="38.80598" lon="15.23752">
        <ele>9.75</ele>
        <time>2018-04-17T16:49:47Z</time>
      </trkpt>
      <trkpt lat="38.80598" lon="15.23759">
        <ele>9.27</ele>
        <time>2018-04-17T16:49:52Z</time>
      </trkpt>
      <trkpt lat="38.80597" lon="15.23785">
        <ele>9.27</ele>
        <time>2018-04-17T16:50:09Z</time>
      </trkpt>
      <trkpt lat="38.80597" lon="15.23812">
        <ele>8.79</ele>
        <time>2018-04-17T16:50:26Z</time>
      </trkpt>
      <trkpt lat="38.80597" lon="15.23827">
        <ele>7.83</ele>
        <time>2018-04-17T16:50:36Z</time>
      </trkpt>
      <trkpt lat="38.80592" lon="15.23837">
        <ele>7.83</ele>
        <time>2018-04-17T16:50:48Z</time>
      </trkpt>
      <trkpt lat="38.80592" lon="15.23837">
        <ele>7.83</ele>
        <time>2018-04-17T16:50:51Z</time>
      </trkpt>
      <trkpt lat="38.80597" lon="15.23846">
        <ele>8.79</ele>
        <time>2018-04-17T16:50:57Z</time>
      </trkpt>
      <trkpt lat="38.80606" lon="15.23873">
        <ele>9.75</ele>
        <time>2018-04-17T16:51:13Z</time>
      </trkpt>
      <trkpt lat="38.80609" lon="15.23881">
        <ele>9.75</ele>
        <time>2018-04-17T16:51:18Z</time>
      </trkpt>
      <trkpt lat="38.80608" lon="15.23881">
        <ele>9.27</ele>
        <time>2018-04-17T16:51:20Z</time>
      </trkpt>
      <trkpt lat="38.80607" lon="15.23887">
        <ele>9.27</ele>
        <time>2018-04-17T16:51:24Z</time>
      </trkpt>
      <trkpt lat="38.80608" lon="15.23903">
        <ele>8.79</ele>
        <time>2018-04-17T16:51:39Z</time>
      </trkpt>
      <trkpt lat="38.80607" lon="15.23903">
        <ele>7.83</ele>
        <time>2018-04-17T16:51:52Z</time>
      </trkpt>
      <trkpt lat="38.80605" lon="15.23931">
        <ele>7.83</ele>
        <time>2018-04-17T16:52:07Z</time>
      </trkpt>
      <trkpt lat="38.80596" lon="15.23951">
        <ele>7.83</ele>
        <time>2018-04-17T16:52:22Z</time>
      </trkpt>
      <trkpt lat="38.80584" lon="15.23966">
        <ele>8.79</ele>
        <time>2018-04-17T16:52:36Z</time>
      </trkpt>
      <trkpt lat="38.80574" lon="15.23979">
        <ele>9.27</ele>
        <time>2018-04-17T16:52:48Z</time>
      </trkpt>
      <trkpt lat="38.8056" lon="15.23997">
        <ele>10.71</ele>
        <time>2018-04-17T16:53:04Z</time>
      </trkpt>
      <trkpt lat="38.80543" lon="15.2402">
        <ele>12.63</ele>
        <time>2018-04-17T16:53:23Z</time>
      </trkpt>
      <trkpt lat="38.80535" lon="15.24028">
        <ele>12.63</ele>
        <time>2018-04-17T16:53:34Z</time>
      </trkpt>
      <trkpt lat="38.80535" lon="15.24029">
        <ele>12.63</ele>
        <time>2018-04-17T16:53:37Z</time>
      </trkpt>
      <trkpt lat="38.80527" lon="15.24042">
        <ele>12.63</ele>
        <time>2018-04-17T16:53:50Z</time>
      </trkpt>
      <trkpt lat="38.80526" lon="15.24043">
        <ele>12.63</ele>
        <time>2018-04-17T16:53:51Z</time>
      </trkpt>
      <trkpt lat="38.80523" lon="15.24047">
        <ele>12.63</ele>
        <time>2018-04-17T16:53:55Z</time>
      </trkpt>
      <trkpt lat="38.80515" lon="15.24055">
        <ele>11.67</ele>
        <time>2018-04-17T16:54:04Z</time>
      </trkpt>
      <trkpt lat="38.80513" lon="15.24053">
        <ele>10.71</ele>
        <time>2018-04-17T16:54:09Z</time>
      </trkpt>
      <trkpt lat="38.80511" lon="15.24057">
        <ele>10.71</ele>
        <time>2018-04-17T16:54:13Z</time>
      </trkpt>
      <trkpt lat="38.80501" lon="15.2407">
        <ele>11.67</ele>
        <time>2018-04-17T16:54:25Z</time>
      </trkpt>
      <trkpt lat="38.80492" lon="15.24087">
        <ele>11.67</ele>
        <time>2018-04-17T16:54:40Z</time>
      </trkpt>
      <trkpt lat="38.80479" lon="15.24104">
        <ele>13.12</ele>
        <time>2018-04-17T16:54:55Z</time>
      </trkpt>
      <trkpt lat="38.8047" lon="15.24119">
        <ele>14.08</ele>
        <time>2018-04-17T16:55:08Z</time>
      </trkpt>
      <trkpt lat="38.80457" lon="15.24136">
        <ele>14.08</ele>
        <time>2018-04-17T16:55:24Z</time>
      </trkpt>
      <trkpt lat="38.80446" lon="15.24153">
        <ele>13.6</ele>
        <time>2018-04-17T16:55:41Z</time>
      </trkpt>
      <trkpt lat="38.80443" lon="15.24159">
        <ele>11.19</ele>
        <time>2018-04-17T16:55:50Z</time>
      </trkpt>
      <trkpt lat="38.80444" lon="15.24157">
        <ele>11.19</ele>
        <time>2018-04-17T16:56:00Z</time>
      </trkpt>
      <trkpt lat="38.80442" lon="15.24159">
        <ele>11.19</ele>
        <time>2018-04-17T16:56:02Z</time>
      </trkpt>
      <trkpt lat="38.80441" lon="15.24165">
        <ele>11.19</ele>
        <time>2018-04-17T16:56:06Z</time>
      </trkpt>
      <trkpt lat="38.80433" lon="15.24186">
        <ele>11.67</ele>
        <time>2018-04-17T16:56:21Z</time>
      </trkpt>
      <trkpt lat="38.80431" lon="15.2419">
        <ele>12.15</ele>
        <time>2018-04-17T16:56:25Z</time>
      </trkpt>
      <trkpt lat="38.80425" lon="15.24207">
        <ele>14.56</ele>
        <time>2018-04-17T16:56:38Z</time>
      </trkpt>
      <trkpt lat="38.80423" lon="15.24213">
        <ele>14.56</ele>
        <time>2018-04-17T16:56:42Z</time>
      </trkpt>
      <trkpt lat="38.80417" lon="15.2423">
        <ele>14.56</ele>
        <time>2018-04-17T16:56:54Z</time>
      </trkpt>
      <trkpt lat="38.80414" lon="15.24231">
        <ele>13.12</ele>
        <time>2018-04-17T16:56:58Z</time>
      </trkpt>
      <trkpt lat="38.80399" lon="15.24232">
        <ele>10.71</ele>
        <time>2018-04-17T16:57:11Z</time>
      </trkpt>
      <trkpt lat="38.8039" lon="15.24228">
        <ele>9.75</ele>
        <time>2018-04-17T16:57:20Z</time>
      </trkpt>
      <trkpt lat="38.80378" lon="15.24221">
        <ele>9.75</ele>
        <time>2018-04-17T16:57:34Z</time>
      </trkpt>
      <trkpt lat="38.80372" lon="15.24218">
        <ele>8.31</ele>
        <time>2018-04-17T16:57:44Z</time>
      </trkpt>
      <trkpt lat="38.80367" lon="15.24219">
        <ele>8.31</ele>
        <time>2018-04-17T16:57:52Z</time>
      </trkpt>
      <trkpt lat="38.80364" lon="15.24217">
        <ele>7.83</ele>
        <time>2018-04-17T16:57:55Z</time>
      </trkpt>
      <trkpt lat="38.80357" lon="15.24214">
        <ele>6.87</ele>
        <time>2018-04-17T16:58:01Z</time>
      </trkpt>
      <trkpt lat="38.80341" lon="15.24209">
        <ele>5.42</ele>
        <time>2018-04-17T16:58:18Z</time>
      </trkpt>
      <trkpt lat="38.80337" lon="15.24208">
        <ele>5.42</ele>
        <time>2018-04-17T16:58:30Z</time>
      </trkpt>
      <trkpt lat="38.80326" lon="15.24204">
        <ele>5.42</ele>
        <time>2018-04-17T16:58:42Z</time>
      </trkpt>
      <trkpt lat="38.80314" lon="15.24198">
        <ele>5.42</ele>
        <time>2018-04-17T16:58:57Z</time>
      </trkpt>
      <trkpt lat="38.80306" lon="15.24193">
        <ele>4.94</ele>
        <time>2018-04-17T16:59:11Z</time>
      </trkpt>
      <trkpt lat="38.80289" lon="15.24189">
        <ele>3.5</ele>
        <time>2018-04-17T16:59:26Z</time>
      </trkpt>
      <trkpt lat="38.80281" lon="15.24186">
        <ele>3.5</ele>
        <time>2018-04-17T16:59:32Z</time>
      </trkpt>
      <trkpt lat="38.80265" lon="15.24181">
        <ele>4.94</ele>
        <time>2018-04-17T16:59:46Z</time>
      </trkpt>
      <trkpt lat="38.80253" lon="15.24176">
        <ele>6.39</ele>
        <time>2018-04-17T17:00:00Z</time>
      </trkpt>
      <trkpt lat="38.80252" lon="15.24176">
        <ele>6.39</ele>
        <time>2018-04-17T17:00:04Z</time>
      </trkpt>
      <trkpt lat="38.80238" lon="15.2417">
        <ele>3.98</ele>
        <time>2018-04-17T17:00:21Z</time>
      </trkpt>
      <trkpt lat="38.80216" lon="15.24161">
        <ele>2.06</ele>
        <time>2018-04-17T17:00:38Z</time>
      </trkpt>
      <trkpt lat="38.802" lon="15.24148">
        <ele>3.5</ele>
        <time>2018-04-17T17:00:53Z</time>
      </trkpt>
      <trkpt lat="38.80199" lon="15.24147">
        <ele>3.5</ele>
        <time>2018-04-17T17:00:54Z</time>
      </trkpt>
      <trkpt lat="38.80194" lon="15.24143">
        <ele>3.98</ele>
        <time>2018-04-17T17:00:59Z</time>
      </trkpt>
      <trkpt lat="38.80191" lon="15.2414">
        <ele>4.94</ele>
        <time>2018-04-17T17:01:04Z</time>
      </trkpt>
      <trkpt lat="38.80191" lon="15.24139">
        <ele>4.94</ele>
        <time>2018-04-17T17:01:06Z</time>
      </trkpt>
      <trkpt lat="38.80186" lon="15.24135">
        <ele>3.98</ele>
        <time>2018-04-17T17:01:11Z</time>
      </trkpt>
      <trkpt lat="38.80176" lon="15.24127">
        <ele>4.94</ele>
        <time>2018-04-17T17:01:26Z</time>
      </trkpt>
      <trkpt lat="38.80176" lon="15.24128">
        <ele>5.91</ele>
        <time>2018-04-17T17:01:47Z</time>
      </trkpt>
      <trkpt lat="38.80171" lon="15.24124">
        <ele>6.39</ele>
        <time>2018-04-17T17:01:59Z</time>
      </trkpt>
      <trkpt lat="38.80177" lon="15.24124">
        <ele>6.39</ele>
        <time>2018-04-17T17:02:10Z</time>
      </trkpt>
      <trkpt lat="38.80177" lon="15.24125">
        <ele>7.35</ele>
        <time>2018-04-17T17:02:21Z</time>
      </trkpt>
      <trkpt lat="38.80176" lon="15.24126">
        <ele>7.35</ele>
        <time>2018-04-17T17:02:35Z</time>
      </trkpt>
      <trkpt lat="38.80176" lon="15.24127">
        <ele>7.35</ele>
        <time>2018-04-17T17:02:37Z</time>
      </trkpt>
      <trkpt lat="38.8017" lon="15.24136">
        <ele>6.87</ele>
        <time>2018-04-17T17:02:47Z</time>
      </trkpt>
      <trkpt lat="38.80169" lon="15.24138">
        <ele>6.87</ele>
        <time>2018-04-17T17:02:48Z</time>
      </trkpt>
      <trkpt lat="38.80168" lon="15.24149">
        <ele>7.35</ele>
        <time>2018-04-17T17:03:03Z</time>
      </trkpt>
      <trkpt lat="38.80164" lon="15.24154">
        <ele>7.35</ele>
        <time>2018-04-17T17:03:17Z</time>
      </trkpt>
      <trkpt lat="38.80159" lon="15.24162">
        <ele>6.87</ele>
        <time>2018-04-17T17:03:26Z</time>
      </trkpt>
      <trkpt lat="38.80157" lon="15.24163">
        <ele>5.91</ele>
        <time>2018-04-17T17:03:37Z</time>
      </trkpt>
      <trkpt lat="38.80156" lon="15.24164">
        <ele>4.94</ele>
        <time>2018-04-17T17:03:47Z</time>
      </trkpt>
      <trkpt lat="38.80149" lon="15.24172">
        <ele>5.42</ele>
        <time>2018-04-17T17:04:00Z</time>
      </trkpt>
      <trkpt lat="38.80145" lon="15.24178">
        <ele>4.94</ele>
        <time>2018-04-17T17:04:12Z</time>
      </trkpt>
      <trkpt lat="38.80145" lon="15.2418">
        <ele>4.46</ele>
        <time>2018-04-17T17:04:27Z</time>
      </trkpt>
      <trkpt lat="38.80135" lon="15.24191">
        <ele>3.5</ele>
        <time>2018-04-17T17:04:43Z</time>
      </trkpt>
      <trkpt lat="38.80135" lon="15.24192">
        <ele>3.5</ele>
        <time>2018-04-17T17:04:44Z</time>
      </trkpt>
      <trkpt lat="38.8013" lon="15.24194">
        <ele>3.02</ele>
        <time>2018-04-17T17:04:58Z</time>
      </trkpt>
      <trkpt lat="38.8013" lon="15.24195">
        <ele>3.98</ele>
        <time>2018-04-17T17:05:35Z</time>
      </trkpt>
      <trkpt lat="38.80126" lon="15.24196">
        <ele>3.02</ele>
        <time>2018-04-17T17:05:41Z</time>
      </trkpt>
    </trkseg>
  </trk>
</gpx>